# Wetter Temperatur Luftdruck Luftfeuchtigkeit Sichtweite Windgeschwindigkeit Windrichtung Zeit
1 Clear 11 1007 87 10000 6.17 260 07:39 02.10.2022
2 Clear 11 1006 93 10000 6.17 260 02:55 02.10.2022
3 Clear 12 1005 87 10000 7.72 260 00:46 02.10.2022
4 Clear 12 1004 87 10000 6.69 260 00:20 02.10.2022
5 Clear 11 1004 87 10000 5.14 260 22:43 01.10.2022
6 Clear 13 1002 88 10000 7.72 280 20:36 01.10.2022
7 Clouds 14 1000 82 10000 9.26 290 18:40 01.10.2022
8 Clouds 14 999 88 10000 7.2 290 16:36 01.10.2022
9 Clouds 15 997 82 10000 7.72 310 14:41 01.10.2022
10 Clouds 13 998 79 10000 4.96 268 13:31 01.10.2022
11 Clouds 12 998 95 10000 4.81 209 12:33 01.10.2022
12 Clouds 11 998 96 10000 7.01 194 11:21 01.10.2022
13 Rain 11 998 96 10000 7.01 194 10:32 01.10.2022
14 Rain 11 998 95 8197 8.76 186 09:28 01.10.2022
15 Rain 10 998 93 10000 8.23 170 08:58 01.10.2022
16 Rain 10 998 93 10000 8.23 170 08:58 01.10.2022
17 Rain 11 1000 76 10000 6.69 170 05:47 01.10.2022
18 Clouds 11 1001 76 10000 8.23 180 03:34 01.10.2022
19 Clouds 11 1004 63 10000 7.01 180 01:21 01.10.2022
20 Clouds 11 1005 82 10000 7.2 170 22:55 30.09.2022
21 Clouds 11 1006 82 10000 6.17 170 21:41 30.09.2022
22 Clouds 11 1006 87 10000 5.66 180 20:45 30.09.2022
23 Clouds 12 1006 82 10000 4.63 190 20:19 30.09.2022
24 Clouds 14 1006 67 10000 5.66 220 17:40 30.09.2022
25 Clouds 15 1007 66 10000 6.69 219 16:25 30.09.2022
26 Clouds 15 1007 65 10000 6.47 221 14:21 30.09.2022
27 Clear 13 1007 72 10000 4.97 232 12:24 30.09.2022
28 Clear 12 1007 82 10000 4.12 240 11:48 30.09.2022
29 Clear 10 1006 93 10000 2.57 210 08:38 30.09.2022
30 Clouds 10 1006 94 10000 2.09 218 06:29 30.09.2022
31 Clouds 10 1004 100 10000 4.63 300 02:45 30.09.2022
32 Clouds 11 1004 93 10000 3.6 290 00:35 30.09.2022
33 Clouds 11 1002 93 10000 5.14 310 21:39 29.09.2022
34 Clouds 12 1002 82 10000 4.63 320 21:18 29.09.2022
35 Clouds 12 1001 82 10000 6.69 350 18:48 29.09.2022
36 Clouds 12 1001 87 10000 7.2 10 17:45 29.09.2022
37 Clouds 12 1001 85 10000 4.76 1 16:28 29.09.2022
38 Clouds 12 1000 87 10000 8.75 20 15:36 29.09.2022
39 Clouds 12 1000 94 10000 6.69 360 14:59 29.09.2022
40 Rain 11 999 93 6000 7.2 350 11:53 29.09.2022
41 Rain 9 999 96 10000 3.28 245 07:31 29.09.2022
42 Clouds 8 998 88 10000 2.22 257 03:24 29.09.2022
43 Clouds 7 999 87 10000 1.34 296 00:29 29.09.2022
44 Clouds 9 997 93 10000 3.09 260 23:19 28.09.2022
45 Clouds 9 998 88 10000 1.31 301 21:31 28.09.2022
46 Clouds 9 997 93 10000 2.57 240 20:49 28.09.2022
47 Clouds 10 996 93 10000 2.57 240 19:48 28.09.2022
48 Clouds 14 996 75 10000 3.24 232 16:27 28.09.2022
49 Clouds 12 995 69 10000 0.59 187 13:28 28.09.2022
50 Clouds 10 995 93 10000 1.03 0 11:43 28.09.2022
51 Clouds 7 994 100 500 2.06 180 09:34 28.09.2022
52 Clouds 6 993 100 5000 1.03 0 07:42 28.09.2022
53 Clouds 5 994 90 10000 0.85 166 05:32 28.09.2022
54 Clouds 8 994 93 10000 4.12 240 01:41 28.09.2022
55 Clouds 7 994 88 10000 1.45 294 00:28 28.09.2022
56 Clouds 8 994 93 10000 2.57 260 22:40 27.09.2022
57 Clouds 9 994 89 10000 2.3 300 21:20 27.09.2022
58 Clouds 9 994 89 10000 2.3 300 20:31 27.09.2022
59 Clouds 10 993 93 10000 3.6 310 19:40 27.09.2022
60 Clouds 11 992 87 10000 4.63 330 17:47 27.09.2022
61 Clouds 11 992 93 10000 5.66 330 16:50 27.09.2022
62 Clouds 11 991 93 10000 4.63 320 15:18 27.09.2022
63 Rain 11 991 93 10000 5.14 320 13:52 27.09.2022
64 Rain 11 991 93 9000 5.14 310 12:37 27.09.2022
65 Rain 11 991 93 9000 5.14 310 12:37 27.09.2022
66 Rain 11 991 93 10000 4.63 330 10:33 27.09.2022
67 Rain 10 990 100 8000 3.09 300 07:55 27.09.2022
68 Clouds 10 990 100 10000 1.54 260 04:52 27.09.2022
69 Clouds 11 991 100 7000 3.09 290 01:40 27.09.2022
70 Clouds 12 992 97 9105 4.75 185 00:23 27.09.2022
71 Clouds 11 992 97 10000 5.78 188 23:24 26.09.2022
72 Clouds 11 992 100 10000 6.69 190 21:35 26.09.2022
73 Clouds 11 992 93 6000 7.2 190 19:49 26.09.2022
74 Clouds 11 993 93 3200 7.72 190 19:19 26.09.2022
75 Rain 12 994 94 10000 8.13 188 17:26 26.09.2022
76 Rain 12 996 91 10000 8.19 187 15:25 26.09.2022
77 Clouds 11 996 93 10000 7.2 200 12:42 26.09.2022
78 Clouds 12 998 92 10000 8.11 192 11:28 26.09.2022
79 Rain 11 997 87 10000 7.72 200 10:36 26.09.2022
80 Rain 11 997 93 10000 7.2 200 10:18 26.09.2022
81 Rain 11 997 93 10000 7.2 200 09:52 26.09.2022
82 Rain 11 998 91 10000 8.03 202 09:21 26.09.2022
83 Rain 10 1000 100 10000 5.14 190 05:49 26.09.2022
84 Clouds 10 1003 93 10000 6.69 190 02:35 26.09.2022
85 Clouds 9 1007 76 10000 3.14 226 23:25 25.09.2022
86 Clouds 10 1008 76 10000 5.14 260 21:48 25.09.2022
87 Clouds 11 1009 73 10000 3.17 261 21:25 25.09.2022
88 Clouds 11 1008 82 10000 5.66 270 20:37 25.09.2022
89 Clouds 13 1010 69 10000 4.45 280 19:25 25.09.2022
90 Clouds 15 1010 63 10000 5.65 291 18:29 25.09.2022
91 Clouds 15 1010 63 10000 5.65 291 18:29 25.09.2022
92 Clouds 16 1009 59 10000 8.23 280 17:41 25.09.2022
93 Clouds 16 1010 57 10000 5.19 302 16:21 25.09.2022
94 Clouds 17 1010 51 10000 5.66 290 15:35 25.09.2022
95 Clear 15 1011 47 10000 3.4 302 14:20 25.09.2022
96 Clear 15 1012 67 10000 3.09 350 12:44 25.09.2022
97 Clouds 12 1013 68 10000 2.41 321 10:20 25.09.2022
98 Clouds 11 1012 93 7000 3.09 310 07:47 25.09.2022
99 Clouds 12 1013 88 10000 2.68 337 05:31 25.09.2022
100 Clouds 12 1013 94 10000 2.06 320 00:36 25.09.2022
101 Clouds 12 1013 94 10000 2.57 340 22:34 24.09.2022
102 Clouds 12 1013 94 10000 1.54 280 20:45 24.09.2022
103 Clouds 14 1013 86 10000 2.32 16 19:21 24.09.2022
104 Rain 15 1012 82 10000 3.6 350 17:19 24.09.2022
105 Clouds 15 1012 66 10000 1.89 28 16:23 24.09.2022
106 Clouds 15 1012 66 10000 1.89 28 16:23 24.09.2022
107 Clouds 15 1012 72 10000 1.03 30 15:19 24.09.2022
108 Clouds 15 1013 66 10000 1.49 135 13:23 24.09.2022
109 Clouds 14 1012 88 6000 0 0 12:41 24.09.2022
110 Rain 12 1012 100 4300 1.03 300 10:19 24.09.2022
111 Rain 12 1012 100 4300 1.03 300 09:35 24.09.2022
112 Rain 11 1011 100 3400 0.51 290 08:43 24.09.2022
113 Clouds 11 1011 93 3700 1.03 0 06:53 24.09.2022
114 Rain 11 1011 93 10000 1.54 230 04:35 24.09.2022
115 Clouds 10 1012 93 7000 2.06 210 01:45 24.09.2022
116 Clouds 11 1013 70 10000 2.37 203 22:24 23.09.2022
117 Clouds 13 1013 68 10000 2.51 203 21:26 23.09.2022
118 Clouds 11 1013 93 10000 2.06 230 20:55 23.09.2022
119 Clouds 14 1013 88 10000 2.57 230 20:19 23.09.2022
120 Clouds 16 1014 62 10000 2.64 226 18:26 23.09.2022
121 Clouds 16 1015 63 10000 4.12 180 13:44 23.09.2022
122 Clouds 16 1015 63 10000 4.12 180 13:44 23.09.2022
123 Clouds 11 1017 64 10000 3.45 186 10:26 23.09.2022
124 Clouds 9 1016 81 10000 1.03 0 08:57 23.09.2022
125 Clouds 9 1017 87 10000 6.69 180 04:56 23.09.2022
126 Clouds 10 1020 79 10000 3.08 160 23:31 22.09.2022
127 Clouds 8 1020 100 10000 3.09 160 22:41 22.09.2022
128 Clouds 9 1021 93 10000 0 0 22:19 22.09.2022
129 Clouds 13 1021 71 10000 1.28 221 20:45 22.09.2022
130 Clouds 14 1021 68 10000 2.38 245 19:23 22.09.2022
131 Clouds 16 1022 48 10000 3.6 200 16:57 22.09.2022
132 Clouds 15 1024 67 10000 2.57 210 11:58 22.09.2022
133 Clear 11 1024 73 10000 2.54 185 10:20 22.09.2022
134 Clear 6 1024 100 10000 2.06 180 08:46 22.09.2022
135 Clouds 5 1024 100 10000 0 0 06:42 22.09.2022
136 Clouds 7 1025 100 10000 0 0 02:43 22.09.2022
137 Clouds 9 1025 100 10000 1.03 310 22:50 21.09.2022
138 Clouds 10 1025 93 10000 1.54 310 21:41 21.09.2022
139 Clouds 13 1025 76 10000 4.12 280 19:55 21.09.2022
140 Clouds 17 1025 51 10000 4.63 270 17:47 21.09.2022
141 Clouds 17 1025 53 10000 3.72 278 16:30 21.09.2022
142 Clouds 17 1026 55 10000 2.06 310 14:00 21.09.2022
143 Clouds 15 1026 63 10000 1.03 310 12:42 21.09.2022
144 Clouds 17 1026 59 10000 2.19 207 11:29 21.09.2022
145 Clouds 10 1026 100 10000 1.03 0 09:55 21.09.2022
146 Clouds 6 1026 100 10000 0.51 0 09:00 21.09.2022
147 Clouds 6 1025 100 10000 0 0 07:18 21.09.2022
148 Clouds 7 1025 100 10000 0 0 02:47 21.09.2022
149 Clouds 9 1025 84 10000 0.76 121 02:28 21.09.2022
150 Clouds 8 1025 100 10000 1.03 320 00:34 21.09.2022
151 Clouds 9 1024 93 10000 1.03 320 23:18 20.09.2022
152 Clouds 11 1023 93 10000 1.54 60 20:52 20.09.2022
153 Clouds 15 1023 71 10000 1.73 359 19:32 20.09.2022
154 Clear 17 1021 45 10000 3.46 20 16:28 20.09.2022
155 Clear 16 1021 51 10000 0.51 360 14:46 20.09.2022
156 Clear 17 1021 50 10000 3.24 339 13:28 20.09.2022
157 Clear 12 1020 64 10000 3.74 336 10:33 20.09.2022
158 Clear 7 1019 89 10000 2.87 335 08:28 20.09.2022
159 Clear 8 1018 100 10000 1.03 300 05:48 20.09.2022
160 Clear 8 1018 93 10000 3.04 315 04:27 20.09.2022
161 Clear 8 1016 100 10000 3.6 300 22:59 19.09.2022
162 Clear 9 1017 87 10000 3.31 335 22:23 19.09.2022
163 Clear 10 1015 93 10000 2.06 190 20:57 19.09.2022
164 Clear 10 1015 93 10000 2.06 190 20:38 19.09.2022
165 Rain 15 1014 58 10000 5.14 350 17:46 19.09.2022
166 Clouds 16 1013 77 10000 6.17 270 15:53 19.09.2022
167 Clouds 17 1013 55 10000 6.69 330 13:35 19.09.2022
168 Clouds 16 1013 72 10000 4.71 336 11:29 19.09.2022
169 Clouds 11 1012 93 10000 3.6 340 08:51 19.09.2022
170 Clear 10 1011 100 10000 5.14 320 08:19 19.09.2022
171 Clouds 10 1009 87 10000 7.2 340 02:18 19.09.2022
172 Clouds 8 1009 91 10000 5.27 333 23:24 18.09.2022
173 Clouds 11 1007 87 10000 3.09 350 21:45 18.09.2022
174 Clouds 12 1006 82 10000 5.14 350 20:34 18.09.2022
175 Clouds 12 1005 76 10000 8.75 10 18:41 18.09.2022
176 Clouds 14 1004 58 10000 6.69 350 17:43 18.09.2022
177 Clouds 14 1003 72 10000 9.77 300 15:56 18.09.2022
178 Rain 13 1002 67 9228 6.51 342 14:30 18.09.2022
179 Clouds 12 1004 87 10000 7.72 260 12:55 18.09.2022
180 Rain 12 1003 76 10000 10.8 270 11:46 18.09.2022
181 Clouds 10 1005 75 10000 6.49 296 06:30 18.09.2022
182 Clouds 11 1006 77 10000 7.13 300 01:30 18.09.2022
183 Clouds 12 1005 76 10000 8.23 300 00:48 18.09.2022
184 Clouds 11 1006 81 10000 5.88 312 22:23 17.09.2022
185 Clouds 13 1005 76 10000 6.17 320 20:48 17.09.2022
186 Clouds 13 1005 72 10000 7.72 320 19:28 17.09.2022
187 Clouds 14 1004 77 10000 9.26 330 17:19 17.09.2022
188 Clouds 15 1003 72 10000 4.12 350 14:18 17.09.2022
189 Clouds 14 1002 53 10000 5.01 9 12:33 17.09.2022
190 Rain 13 1002 88 10000 3.6 310 10:47 17.09.2022
191 Clouds 11 1003 75 10000 7.28 296 06:29 17.09.2022
192 Clouds 13 1002 82 10000 8.75 310 03:55 17.09.2022
193 Clouds 12 1002 85 10000 6.91 311 23:23 16.09.2022
194 Clouds 13 1001 88 10000 7.72 320 21:46 16.09.2022
195 Clouds 14 1000 82 10000 9.26 320 20:41 16.09.2022
196 Clouds 15 999 79 9555 7.85 316 18:29 16.09.2022
197 Clouds 16 998 78 10000 6.13 322 16:21 16.09.2022
198 Clouds 15 997 77 10000 5.66 220 14:50 16.09.2022
199 Clouds 13 998 94 10000 12.35 280 12:51 16.09.2022
200 Rain 12 999 94 10000 10.29 270 09:39 16.09.2022
201 Rain 10 1001 69 10000 8 282 07:23 16.09.2022
202 Rain 11 1000 87 10000 9.77 290 06:48 16.09.2022
203 Clouds 11 1001 82 10000 9.26 280 05:55 16.09.2022
204 Clouds 10 1002 62 10000 7.78 286 01:31 16.09.2022
205 Clouds 12 1002 71 10000 9.77 320 21:33 15.09.2022
206 Clouds 11 1003 64 10000 7.07 295 20:33 15.09.2022
207 Clouds 15 1001 58 10000 11.83 310 18:57 15.09.2022
208 Clouds 16 1001 51 10000 13.38 320 17:39 15.09.2022
209 Clouds 16 1002 53 10000 8.21 296 17:20 15.09.2022
210 Clouds 17 1001 48 10000 14.92 310 15:38 15.09.2022
211 Clouds 16 1001 63 5000 12.86 310 12:50 15.09.2022
212 Clouds 15 1001 72 10000 11.32 300 11:47 15.09.2022
213 Clouds 14 1001 77 10000 7.72 290 09:43 15.09.2022
214 Clouds 13 1000 88 10000 7.2 290 06:45 15.09.2022
215 Clouds 12 1001 83 10000 5.48 280 03:29 15.09.2022
216 Clouds 14 1001 94 10000 5.14 270 22:51 14.09.2022
217 Rain 14 1002 89 10000 3.8 263 20:30 14.09.2022
218 Rain 16 1002 85 10000 4.27 277 19:32 14.09.2022
219 Clouds 15 1002 88 10000 4.63 280 17:35 14.09.2022
220 Clouds 16 1002 82 10000 8.23 280 16:36 14.09.2022
221 Clouds 17 1003 72 10000 8.75 270 14:50 14.09.2022
222 Clouds 17 1003 63 10000 6.17 280 12:38 14.09.2022
223 Clouds 15 1004 77 10000 4.63 270 09:52 14.09.2022
224 Clouds 14 1004 75 10000 4.67 281 08:28 14.09.2022
225 Clouds 15 1004 82 10000 8.75 290 06:49 14.09.2022
226 Clouds 14 1004 72 10000 4.79 282 06:28 14.09.2022
227 Clouds 14 1005 73 10000 6.02 284 02:25 14.09.2022
228 Clouds 14 1005 73 10000 6.02 284 01:34 14.09.2022
229 Clouds 14 1005 79 10000 5.75 281 00:52 14.09.2022
230 Clouds 15 1006 79 10000 6.04 278 23:54 13.09.2022
231 Clouds 15 1006 79 10000 6.04 278 23:36 13.09.2022
232 Clouds 15 1005 79 10000 6.22 279 23:18 13.09.2022
233 Clouds 15 1006 76 10000 6.52 284 22:26 13.09.2022
234 Clouds 15 1006 76 10000 6.52 284 21:35 13.09.2022
235 Clouds 16 1005 82 10000 12.86 290 18:54 13.09.2022
236 Clouds 18 1005 72 10000 13.89 270 16:39 13.09.2022
237 Clouds 18 1005 63 10000 12.35 280 15:19 13.09.2022
238 Clouds 18 1005 68 10000 11.83 290 13:37 13.09.2022
239 Clouds 17 1006 68 10000 6.6 283 10:20 13.09.2022
240 Clouds 15 1005 88 10000 6.17 270 07:54 13.09.2022
241 Rain 16 1007 93 6692 6.49 218 02:22 13.09.2022
242 Clouds 18 1009 66 10000 6.11 179 23:22 12.09.2022
243 Clouds 18 1009 77 10000 5.66 170 22:40 12.09.2022
244 Clouds 18 1011 71 10000 4.51 168 21:21 12.09.2022
245 Rain 18 1011 77 10000 4.12 170 19:58 12.09.2022
246 Clouds 20 1012 61 10000 3.71 199 18:24 12.09.2022
247 Clouds 20 1014 64 10000 4.12 190 15:50 12.09.2022
248 Clouds 18 1015 65 10000 4.18 192 12:31 12.09.2022
249 Clouds 16 1016 70 10000 3.93 180 10:31 12.09.2022
250 Clouds 10 1016 100 10000 3.6 170 07:40 12.09.2022
251 Clouds 10 1017 100 10000 2.06 170 04:36 12.09.2022
252 Clouds 13 1017 89 10000 0.88 208 02:24 12.09.2022
253 Clouds 12 1018 100 10000 3.09 260 22:46 11.09.2022
254 Clouds 16 1018 86 10000 2.14 311 21:30 11.09.2022
255 Clouds 15 1018 94 10000 1.54 90 20:44 11.09.2022
256 Clouds 17 1018 88 10000 2.57 80 19:39 11.09.2022
257 Clouds 18 1018 77 10000 2.06 20 19:19 11.09.2022
258 Clouds 19 1018 63 10000 1.54 30 17:47 11.09.2022
259 Clouds 20 1018 60 10000 1.03 30 15:51 11.09.2022
260 Clear 19 1018 59 10000 2.57 40 13:52 11.09.2022
261 Clear 19 1018 63 10000 4.12 30 11:35 11.09.2022
262 Clear 13 1018 93 10000 2.6 348 08:25 11.09.2022
263 Clear 12 1016 94 10000 2.06 330 05:55 11.09.2022
264 Clouds 14 1015 94 10000 3.6 50 00:34 11.09.2022
265 Clouds 15 1015 93 10000 3.48 29 22:26 10.09.2022
266 Clouds 16 1014 94 10000 4.12 50 20:51 10.09.2022
267 Clouds 18 1013 77 10000 5.14 40 19:45 10.09.2022
268 Clouds 19 1013 76 10000 3.36 48 19:27 10.09.2022
269 Clouds 20 1013 68 10000 2.57 60 17:53 10.09.2022
270 Clouds 19 1012 72 10000 3.09 100 15:45 10.09.2022
271 Clouds 18 1012 88 10000 2.57 80 14:37 10.09.2022
272 Rain 16 1012 100 10000 2.06 100 12:52 10.09.2022
273 Clouds 16 1012 100 10000 1.54 0 10:35 10.09.2022
274 Clouds 16 1011 85 10000 1.39 101 09:24 10.09.2022
275 Clouds 15 1011 90 10000 1.22 137 08:26 10.09.2022
276 Clouds 15 1010 93 10000 1.72 121 05:25 10.09.2022
277 Clouds 12 1010 100 700 3.6 110 23:56 09.09.2022
278 Clouds 13 1010 92 10000 2.57 147 23:29 09.09.2022
279 Rain 17 1009 91 10000 2.93 151 21:24 09.09.2022
280 Rain 17 1009 83 10000 2.5 152 20:28 09.09.2022
281 Rain 18 1008 77 10000 2.4 140 19:23 09.09.2022
282 Clouds 17 1009 88 10000 3.6 100 18:33 09.09.2022
283 Rain 21 1008 79 10000 2.04 195 16:21 09.09.2022
284 Clouds 18 1009 82 10000 1.54 170 13:48 09.09.2022
285 Clouds 15 1008 94 7000 2.57 170 11:52 09.09.2022
286 Clouds 15 1007 90 10000 3.24 180 09:21 09.09.2022
287 Clouds 14 1006 94 4400 1.54 190 03:48 09.09.2022
288 Clouds 14 1007 94 2300 2.57 130 00:46 09.09.2022
289 Rain 14 1007 94 9000 6.17 110 21:52 08.09.2022
290 Rain 14 1008 94 9000 6.69 110 20:51 08.09.2022
291 Rain 16 1008 95 6096 6.91 93 20:29 08.09.2022
292 Rain 13 1008 100 9000 7.72 110 19:39 08.09.2022
293 Rain 13 1009 100 8000 7.72 110 17:44 08.09.2022
294 Rain 14 1009 94 10000 4.63 120 16:19 08.09.2022
295 Rain 14 1009 94 6000 6.17 120 14:40 08.09.2022
296 Rain 18 1010 49 10000 10.64 100 13:23 08.09.2022
297 Clouds 18 1010 63 10000 7.2 110 11:37 08.09.2022
298 Clouds 17 1010 72 10000 8.23 120 10:48 08.09.2022
299 Clouds 16 1010 77 10000 5.66 120 07:57 08.09.2022
300 Clouds 16 1011 82 10000 5.14 120 06:41 08.09.2022
301 Clouds 16 1012 88 10000 4.12 130 02:36 08.09.2022
302 Clouds 16 1012 88 10000 5.66 130 02:18 08.09.2022
303 Clouds 17 1013 91 10000 5.63 104 00:27 08.09.2022
304 Clouds 16 1013 88 10000 5.66 120 22:42 07.09.2022
305 Clouds 16 1013 88 10000 5.14 120 21:42 07.09.2022
306 Clouds 16 1013 88 10000 4.12 120 20:38 07.09.2022
307 Clouds 17 1012 77 10000 5.66 120 19:36 07.09.2022
308 Clouds 20 1013 62 10000 5.67 117 17:28 07.09.2022
309 Rain 16 1014 94 10000 3.6 110 12:49 07.09.2022
310 Clouds 18 1014 68 10000 3.6 120 10:46 07.09.2022
311 Clouds 16 1014 77 10000 4.63 130 08:38 07.09.2022
312 Clouds 15 1014 82 10000 4.63 120 06:57 07.09.2022
313 Clouds 16 1016 77 10000 5.14 130 02:46 07.09.2022
314 Clouds 17 1018 67 10000 6.17 120 22:44 06.09.2022
315 Clouds 17 1018 63 10000 6.69 120 21:39 06.09.2022
316 Clouds 18 1018 63 10000 7.61 99 20:21 06.09.2022
317 Clouds 18 1018 55 10000 7.72 120 18:45 06.09.2022
318 Clouds 18 1019 54 10000 7.87 103 18:21 06.09.2022
319 Rain 19 1019 48 10000 8.51 105 17:21 06.09.2022
320 Clouds 19 1019 55 10000 7.72 120 16:37 06.09.2022
321 Clouds 19 1020 55 10000 9.77 120 14:59 06.09.2022
322 Clouds 19 1020 55 10000 8.75 120 13:45 06.09.2022
323 Clouds 19 1021 44 10000 8.1 109 13:22 06.09.2022
324 Clouds 18 1021 63 10000 7.72 120 11:54 06.09.2022
325 Clouds 17 1021 67 10000 8.23 120 10:41 06.09.2022
326 Clouds 16 1021 72 10000 6.69 120 08:50 06.09.2022
327 Clouds 16 1021 72 10000 6.17 120 07:37 06.09.2022
328 Clouds 16 1022 77 10000 7.2 120 02:43 06.09.2022
329 Clouds 18 1023 69 10000 8.63 105 23:23 05.09.2022
330 Clouds 18 1023 59 10000 7.72 120 21:53 05.09.2022
331 Clouds 18 1023 55 10000 8.23 120 20:33 05.09.2022
332 Clouds 20 1024 52 10000 8.23 120 19:19 05.09.2022
333 Clouds 20 1024 52 10000 8.23 120 18:45 05.09.2022
334 Clouds 21 1024 52 10000 8.21 99 18:21 05.09.2022
335 Clouds 21 1024 52 10000 7.2 120 16:37 05.09.2022
336 Clouds 22 1024 46 10000 8.75 120 15:47 05.09.2022
337 Clouds 22 1025 43 10000 8.21 112 13:26 05.09.2022
338 Clouds 21 1025 44 10000 8.08 113 12:27 05.09.2022
339 Clouds 19 1025 68 10000 6.69 120 09:44 05.09.2022
340 Clouds 16 1024 82 10000 4.12 120 06:42 05.09.2022
341 Clouds 17 1024 77 10000 5.14 120 02:19 05.09.2022
342 Clouds 17 1025 69 10000 7.13 103 23:26 04.09.2022
343 Clouds 17 1025 68 10000 7.29 99 22:27 04.09.2022
344 Clouds 17 1025 68 10000 7.29 99 21:32 04.09.2022
345 Clouds 19 1023 55 10000 6.17 120 19:38 04.09.2022
346 Clouds 20 1023 47 10000 7.92 100 18:20 04.09.2022
347 Clouds 21 1023 52 10000 6.17 110 16:56 04.09.2022
348 Clouds 21 1022 56 10000 5.14 100 14:36 04.09.2022
349 Clouds 21 1022 56 10000 6.69 90 13:52 04.09.2022
350 Clouds 20 1022 60 10000 4.63 110 12:18 04.09.2022
351 Clouds 19 1022 63 10000 4.63 110 10:47 04.09.2022
352 Clouds 17 1022 65 10000 5.62 110 08:21 04.09.2022
353 Clouds 16 1020 72 10000 4.12 120 05:36 04.09.2022
354 Clouds 16 1019 77 10000 6.17 130 00:53 04.09.2022
355 Clouds 18 1019 67 10000 8.02 104 22:26 03.09.2022
356 Clouds 17 1019 63 10000 8.1 101 21:24 03.09.2022
357 Clear 18 1018 59 10000 8.28 98 20:26 03.09.2022
358 Clear 21 1018 43 10000 8.75 120 17:35 03.09.2022
359 Clear 21 1018 43 10000 8.23 120 16:33 03.09.2022
360 Clear 21 1018 43 10000 8.23 110 14:47 03.09.2022
361 Clouds 21 1018 38 10000 8.62 105 14:26 03.09.2022
362 Clouds 21 1018 37 10000 6.69 130 13:39 03.09.2022
363 Clouds 20 1019 49 10000 6.17 130 11:18 03.09.2022
364 Clouds 17 1019 67 10000 3.6 130 08:55 03.09.2022
365 Clouds 16 1018 77 10000 4.12 120 06:59 03.09.2022
366 Clouds 15 1019 77 10000 4.12 120 04:43 03.09.2022
367 Clouds 16 1019 72 10000 5.14 130 00:46 03.09.2022
368 Clouds 17 1019 66 10000 5.41 109 23:28 02.09.2022
369 Clouds 17 1019 59 10000 4.63 130 21:36 02.09.2022
370 Clouds 17 1019 55 10000 5.14 120 20:40 02.09.2022
371 Clouds 19 1019 45 10000 5.14 120 19:47 02.09.2022
372 Clouds 20 1019 40 10000 5.66 120 18:43 02.09.2022
373 Clouds 20 1019 44 10000 6.41 98 18:24 02.09.2022
374 Clouds 21 1020 35 10000 6.69 120 16:51 02.09.2022
375 Clouds 21 1020 43 10000 5.14 100 15:48 02.09.2022
376 Clear 21 1021 43 10000 5.14 100 12:56 02.09.2022
377 Clear 17 1022 42 10000 5.56 121 10:37 02.09.2022
378 Clear 17 1022 63 10000 3.09 140 09:41 02.09.2022
379 Clear 12 1022 87 10000 3.6 160 08:42 02.09.2022
380 Clear 8 1022 100 10000 4.63 150 06:43 02.09.2022
381 Clear 14 1022 87 10000 2.21 127 05:32 02.09.2022
382 Clear 11 1023 87 10000 3.6 130 22:58 01.09.2022
383 Clear 13 1023 76 10000 3.6 130 21:46 01.09.2022
384 Clear 14 1024 66 10000 2.78 108 21:26 01.09.2022
385 Clear 15 1023 72 10000 2.06 120 20:49 01.09.2022
386 Clear 19 1024 46 10000 3.62 99 19:25 01.09.2022
387 Clear 20 1024 42 10000 3.6 110 18:18 01.09.2022
388 Clear 21 1024 40 10000 3.09 120 16:47 01.09.2022
389 Clear 21 1025 37 10000 3.6 120 14:41 01.09.2022
390 Clouds 21 1025 43 10000 5.04 74 13:20 01.09.2022
391 Clouds 20 1025 49 10000 3.6 90 12:42 01.09.2022
392 Clear 21 1025 46 10000 3.09 50 11:50 01.09.2022
393 Clear 19 1025 59 10000 2.57 90 11:19 01.09.2022
394 Clear 17 1025 62 10000 4.59 73 09:20 01.09.2022
395 Clear 10 1025 83 10000 3.29 56 06:28 01.09.2022
396 Clear 12 1026 78 10000 3.36 53 02:32 01.09.2022
397 Clouds 12 1026 75 10000 3.6 52 01:29 01.09.2022
398 Clouds 15 1026 69 10000 4.34 49 22:22 31.08.2022
399 Clouds 17 1025 59 10000 3.61 71 20:27 31.08.2022
400 Clear 21 1025 46 10000 5.14 40 18:19 31.08.2022
401 Clear 20 1025 49 10000 3.09 80 16:35 31.08.2022
402 Clear 20 1026 52 10000 6.17 40 15:18 31.08.2022
403 Clouds 20 1025 43 10000 4.91 67 12:37 31.08.2022
404 Clouds 20 1026 52 10000 4.63 40 11:48 31.08.2022
405 Clouds 17 1026 55 10000 4.94 45 09:31 31.08.2022
406 Clear 11 1025 81 10000 3.69 18 07:28 31.08.2022
407 Clear 11 1026 81 10000 2.94 28 02:25 31.08.2022
408 Clouds 14 1025 77 10000 3.6 80 22:18 30.08.2022
409 Clouds 15 1025 63 10000 3.47 50 21:27 30.08.2022
410 Clouds 18 1024 55 10000 2.57 90 19:51 30.08.2022
411 Clouds 21 1024 40 10000 4.12 120 16:47 30.08.2022
412 Clouds 21 1024 40 10000 4.12 120 16:47 30.08.2022
413 Clouds 21 1025 43 10000 2.57 70 13:38 30.08.2022
414 Clouds 19 1025 48 10000 4.12 70 11:44 30.08.2022
415 Clouds 19 1025 55 10000 4.12 70 11:19 30.08.2022
416 Clouds 18 1024 68 10000 3.6 40 09:32 30.08.2022
417 Clouds 12 1023 80 10000 3.3 17 06:26 30.08.2022
418 Clouds 13 1023 88 10000 3.6 40 00:33 30.08.2022
419 Clouds 15 1023 72 10000 3.6 70 22:37 29.08.2022
420 Clouds 16 1022 63 10000 4.63 60 21:51 29.08.2022
421 Clouds 17 1022 59 10000 5.14 50 20:35 29.08.2022
422 Clouds 20 1021 49 10000 7.2 40 18:59 29.08.2022
423 Clouds 22 1022 46 10000 6.17 40 17:33 29.08.2022
424 Clouds 21 1022 49 10000 6.69 30 16:58 29.08.2022
425 Clouds 22 1022 49 10000 8.23 30 15:19 29.08.2022
426 Clouds 20 1021 56 10000 7.72 40 13:54 29.08.2022
427 Clouds 19 1021 73 10000 5.72 19 12:24 29.08.2022
428 Clouds 18 1021 72 10000 7.72 20 10:43 29.08.2022
429 Clouds 16 1020 88 10000 4.63 330 09:19 29.08.2022
430 Clouds 14 1019 95 10000 3.59 334 07:20 29.08.2022
431 Clouds 16 1019 97 10000 3.12 321 02:31 29.08.2022
432 Clear 18 1018 94 10000 5.14 320 23:36 28.08.2022
433 Clear 19 1017 88 10000 7.2 290 21:48 28.08.2022
434 Clear 18 1017 87 10000 4.11 292 21:29 28.08.2022
435 Clouds 19 1017 75 10000 4.26 321 20:23 28.08.2022
436 Clouds 21 1016 68 10000 7.2 280 18:36 28.08.2022
437 Clouds 21 1016 68 10000 8.75 300 18:18 28.08.2022
438 Clouds 21 1016 64 10000 9.26 290 16:49 28.08.2022
439 Clear 21 1016 64 10000 9.77 290 15:34 28.08.2022
440 Clear 20 1016 68 10000 7.72 320 13:34 28.08.2022
441 Clear 20 1016 64 10000 7.2 310 12:19 28.08.2022
442 Clear 19 1016 58 10000 5.79 305 10:27 28.08.2022
443 Clear 17 1016 77 10000 6.17 320 09:34 28.08.2022
444 Clear 15 1016 76 10000 4.13 302 08:28 28.08.2022
445 Clear 12 1016 76 10000 4.13 302 07:32 28.08.2022
446 Clear 15 1016 88 10000 5.66 310 01:00 28.08.2022
447 Clear 15 1016 88 10000 4.63 300 23:48 27.08.2022
448 Clear 15 1015 73 10000 5.13 311 22:27 27.08.2022
449 Clear 19 1015 68 10000 7.72 310 20:49 27.08.2022
450 Clouds 21 1014 64 10000 7.2 300 19:37 27.08.2022
451 Clouds 23 1014 53 10000 6.17 300 16:37 27.08.2022
452 Clouds 24 1014 37 10000 5.75 323 15:31 27.08.2022
453 Clouds 22 1014 56 10000 5.66 310 14:18 27.08.2022
454 Clouds 21 1014 50 10000 5.03 337 12:22 27.08.2022
455 Clouds 18 1015 72 10000 6.17 340 10:33 27.08.2022
456 Clouds 17 1014 77 10000 6.17 340 09:40 27.08.2022
457 Clouds 17 1014 77 10000 6.17 340 09:40 27.08.2022
458 Clouds 16 1014 94 10000 4.63 330 06:55 27.08.2022
459 Clouds 18 1014 95 10000 4.67 332 02:31 27.08.2022
460 Clouds 20 1014 94 10000 5.14 320 23:53 26.08.2022
461 Clouds 20 1013 98 10000 3.53 314 22:24 26.08.2022
462 Clouds 23 1013 86 10000 3.11 299 20:25 26.08.2022
463 Clouds 22 1012 75 10000 1.82 280 19:20 26.08.2022
464 Rain 23 1013 78 10000 2.57 90 16:46 26.08.2022
465 Clouds 27 1013 44 10000 2.09 101 15:27 26.08.2022
466 Clouds 26 1014 69 10000 3.6 120 13:46 26.08.2022
467 Clouds 24 1014 73 10000 4.12 120 12:35 26.08.2022
468 Clouds 25 1014 55 10000 3.48 131 11:22 26.08.2022
469 Clouds 23 1014 64 10000 3.46 129 10:25 26.08.2022
470 Clouds 19 1015 94 10000 4.12 120 06:50 26.08.2022
471 Clouds 21 1016 87 10000 5.16 111 01:22 26.08.2022
472 Clouds 20 1016 89 10000 5.17 109 23:30 25.08.2022
473 Clouds 21 1017 85 10000 5.95 102 21:26 25.08.2022
474 Clouds 22 1017 79 10000 6.62 103 20:26 25.08.2022
475 Clouds 24 1017 64 10000 5.66 140 18:49 25.08.2022
476 Clouds 24 1018 64 10000 5.66 110 17:44 25.08.2022
477 Clouds 24 1018 58 10000 7.47 106 17:24 25.08.2022
478 Clouds 25 1018 54 10000 7.27 104 15:39 25.08.2022
479 Clouds 25 1018 52 10000 7.15 103 14:33 25.08.2022
480 Clouds 23 1021 73 10000 4.63 90 11:54 25.08.2022
481 Clouds 22 1021 73 10000 5.14 130 10:46 25.08.2022
482 Clear 19 1021 94 10000 4.63 130 08:54 25.08.2022
483 Clouds 17 1021 97 10000 3.69 116 05:20 25.08.2022
484 Clouds 19 1022 88 10000 4.63 130 01:37 25.08.2022
485 Clouds 19 1022 84 10000 5.47 109 23:26 24.08.2022
486 Clouds 20 1022 81 10000 5.66 110 22:22 24.08.2022
487 Clouds 20 1022 77 10000 4.63 120 21:35 24.08.2022
488 Clouds 21 1021 73 10000 5.14 120 20:52 24.08.2022
489 Clear 25 1020 53 10000 5.14 120 18:58 24.08.2022
490 Clear 25 1021 53 10000 5.66 120 16:46 24.08.2022
491 Clear 25 1021 61 10000 4.12 110 15:52 24.08.2022
492 Clouds 26 1021 47 10000 5.14 140 13:40 24.08.2022
493 Clouds 24 1021 50 10000 6.17 140 11:38 24.08.2022
494 Clouds 21 1020 68 10000 5.14 140 09:39 24.08.2022
495 Clouds 19 1020 75 10000 5.26 122 08:25 24.08.2022
496 Clouds 19 1019 72 10000 4.63 140 02:57 24.08.2022
497 Clouds 19 1019 63 10000 5.66 130 23:34 23.08.2022
498 Clouds 20 1019 71 10000 6.05 113 22:33 23.08.2022
499 Clouds 20 1019 60 10000 5.14 130 21:35 23.08.2022
500 Clouds 21 1018 68 10000 6.08 113 20:30 23.08.2022
501 Clouds 24 1018 46 10000 5.66 140 18:50 23.08.2022
502 Clouds 25 1018 47 10000 6.17 130 17:50 23.08.2022
503 Clouds 26 1018 44 10000 7.2 120 17:18 23.08.2022
504 Clouds 26 1018 47 10000 7.2 120 15:39 23.08.2022
505 Clouds 26 1018 47 10000 5.14 140 13:36 23.08.2022
506 Clouds 23 1018 53 10000 5.14 160 11:33 23.08.2022
507 Clouds 22 1018 64 10000 3.6 140 10:51 23.08.2022
508 Clouds 22 1018 64 10000 5.12 131 10:32 23.08.2022
509 Clouds 18 1018 82 10000 3.09 140 08:54 23.08.2022
510 Clouds 18 1017 70 10000 4.87 130 08:21 23.08.2022
511 Clouds 18 1017 82 10000 4.12 140 07:43 23.08.2022
512 Clouds 17 1017 88 10000 5.66 130 06:34 23.08.2022
513 Clouds 16 1017 94 10000 4.12 130 05:52 23.08.2022
514 Clouds 17 1017 94 10000 3.6 130 01:42 23.08.2022
515 Clouds 16 1017 83 10000 3.64 102 00:26 23.08.2022
516 Clouds 17 1018 85 10000 3.62 107 23:29 22.08.2022
517 Clouds 17 1017 88 10000 3.6 130 21:51 22.08.2022
518 Clouds 21 1017 60 10000 2.57 100 19:51 22.08.2022
519 Clouds 21 1017 70 10000 4 90 19:30 22.08.2022
520 Clouds 22 1017 56 10000 4.08 97 17:59 22.08.2022
521 Clouds 21 1017 56 10000 3.09 90 15:45 22.08.2022
522 Clouds 22 1018 53 10000 3.09 70 14:46 22.08.2022
523 Clouds 21 1018 62 10000 2.27 95 11:20 22.08.2022
524 Clouds 19 1018 72 10000 1.15 83 09:20 22.08.2022
525 Clouds 13 1017 94 10000 1.03 260 04:45 22.08.2022
526 Clouds 13 1016 100 10000 1.54 300 00:54 22.08.2022
527 Clouds 14 1016 100 10000 1.54 300 00:35 22.08.2022
528 Clouds 17 1016 82 10000 3.09 340 22:57 21.08.2022
529 Clouds 18 1015 72 10000 3.6 330 21:50 21.08.2022
530 Clouds 20 1015 68 10000 5.14 300 21:18 21.08.2022
531 Clouds 21 1014 64 10000 7.2 300 19:42 21.08.2022
532 Clouds 22 1014 64 10000 9.26 290 18:35 21.08.2022
533 Clouds 24 1013 53 10000 9.77 260 16:34 21.08.2022
534 Clouds 23 1014 60 10000 8.75 260 15:51 21.08.2022
535 Clouds 23 1013 60 10000 8.75 270 14:41 21.08.2022
536 Clear 24 1013 50 10000 8.75 260 13:48 21.08.2022
537 Clear 23 1013 46 10000 5.14 240 12:55 21.08.2022
538 Clear 21 1014 56 10000 4.63 230 10:36 21.08.2022
539 Clear 16 1014 77 10000 4.63 200 08:57 21.08.2022
540 Clear 16 1014 77 10000 4.63 200 08:39 21.08.2022
541 Clear 15 1014 82 10000 4.63 190 08:18 21.08.2022
542 Clear 15 1014 82 10000 4.63 200 06:33 21.08.2022
543 Clear 15 1015 82 10000 3.6 210 01:47 21.08.2022
544 Clear 15 1016 88 10000 3.6 250 23:34 20.08.2022
545 Clear 18 1016 72 10000 5.66 280 21:55 20.08.2022
546 Clear 20 1016 64 10000 6.17 290 20:51 20.08.2022
547 Clouds 21 1015 56 10000 7.72 290 19:44 20.08.2022
548 Clouds 22 1015 56 10000 9.26 300 18:48 20.08.2022
549 Clouds 22 1015 58 10000 5.36 294 18:26 20.08.2022
550 Clouds 23 1015 57 10000 5.76 304 17:21 20.08.2022
551 Clouds 23 1014 51 10000 5.75 299 16:20 20.08.2022
552 Clouds 23 1014 47 10000 4.39 265 14:26 20.08.2022
553 Clouds 21 1014 73 10000 2.57 240 11:58 20.08.2022
554 Clouds 21 1014 73 10000 2.57 240 11:37 20.08.2022
555 Clouds 18 1014 76 10000 1.95 332 09:20 20.08.2022
556 Clouds 19 1013 85 10000 2.81 319 07:31 20.08.2022
557 Clouds 19 1012 98 10000 2.35 293 05:22 20.08.2022
558 Clouds 16 1013 100 10000 3.6 280 00:58 20.08.2022
559 Clouds 16 1012 94 10000 4.12 290 23:51 19.08.2022
560 Clouds 16 1012 94 10000 3.09 280 22:45 19.08.2022
561 Clouds 19 1012 75 10000 2.52 297 21:30 19.08.2022
562 Clouds 22 1011 61 10000 3.8 285 19:22 19.08.2022
563 Clouds 25 1011 54 10000 1.49 339 16:28 19.08.2022
564 Clouds 22 1012 58 10000 1.01 303 14:22 19.08.2022
565 Clouds 19 1013 88 10000 3.09 360 12:19 19.08.2022
566 Clouds 18 1013 94 5000 3.6 350 10:39 19.08.2022
567 Clouds 18 1012 94 7000 4.12 330 08:48 19.08.2022
568 Clear 18 1011 94 10000 3.09 300 04:56 19.08.2022
569 Clouds 19 1012 88 10000 2.57 320 00:43 19.08.2022
570 Clear 20 1011 88 10000 4.12 320 00:19 19.08.2022
571 Clear 21 1011 83 10000 3.6 320 22:58 18.08.2022
572 Clear 20 1012 95 10000 3.8 316 22:26 18.08.2022
573 Clear 22 1011 83 10000 4.63 320 21:50 18.08.2022
574 Clear 22 1011 83 10000 3.6 350 20:56 18.08.2022
575 Clouds 23 1011 73 10000 4.63 360 19:40 18.08.2022
576 Clouds 23 1011 78 10000 3.71 282 19:20 18.08.2022
577 Clouds 23 1011 78 10000 5.66 30 17:38 18.08.2022
578 Clouds 24 1011 73 10000 3.6 40 16:19 18.08.2022
579 Clouds 23 1011 65 10000 3.27 331 14:22 18.08.2022
580 Clouds 24 1011 64 10000 2.06 20 13:44 18.08.2022
581 Clouds 24 1011 64 10000 2.06 20 13:44 18.08.2022
582 Clouds 24 1011 64 10000 2.06 20 13:44 18.08.2022
583 Clouds 23 1012 68 10000 2.74 344 12:30 18.08.2022
584 Clouds 22 1012 80 10000 2.15 31 11:21 18.08.2022
585 Clouds 21 1011 88 10000 4.12 40 09:43 18.08.2022
586 Clouds 19 1011 100 9000 4.12 50 07:53 18.08.2022
587 Clouds 19 1011 94 10000 3.6 40 06:37 18.08.2022
588 Clouds 18 1011 94 10000 3.54 58 02:32 18.08.2022
589 Rain 18 1012 94 10000 3.09 60 22:50 17.08.2022
590 Clouds 21 1012 73 10000 3.6 110 20:37 17.08.2022
591 Clouds 23 1012 78 10000 3.09 90 19:59 17.08.2022
592 Clouds 23 1012 73 10000 2.06 100 18:39 17.08.2022
593 Clouds 26 1011 54 10000 3.65 58 17:27 17.08.2022
594 Clouds 26 1012 51 10000 3.06 66 16:20 17.08.2022
595 Clouds 25 1012 61 10000 2.06 90 14:46 17.08.2022
596 Clouds 24 1013 69 10000 2.06 30 12:50 17.08.2022
597 Clouds 23 1013 73 10000 1.54 20 11:36 17.08.2022
598 Clouds 22 1013 64 10000 1.42 322 09:30 17.08.2022
599 Clouds 19 1012 92 10000 1.18 288 07:28 17.08.2022
600 Clouds 18 1010 94 4000 1.54 280 01:45 17.08.2022
601 Clouds 19 1010 94 5000 2.57 260 23:45 16.08.2022
602 Clouds 22 1009 78 10000 4.12 310 21:52 16.08.2022
603 Clouds 25 1008 66 10000 3.74 257 20:26 16.08.2022
604 Clouds 25 1008 61 10000 7.72 260 19:40 16.08.2022
605 Clear 27 1007 45 10000 5.07 249 18:23 16.08.2022
606 Clear 29 1007 41 10000 5.69 239 17:28 16.08.2022
607 Clouds 28 1006 50 10000 4.63 260 15:46 16.08.2022
608 Clouds 28 1007 50 10000 6.69 250 14:55 16.08.2022
609 Clouds 27 1007 50 10000 6.69 250 14:37 16.08.2022
610 Clouds 26 1006 57 10000 6.17 260 12:43 16.08.2022
611 Clouds 22 1005 78 10000 5.66 260 10:35 16.08.2022
612 Clouds 20 1005 94 10000 3.6 240 09:43 16.08.2022
613 Rain 19 1004 94 5000 3.09 230 08:43 16.08.2022
614 Clouds 19 1004 100 5000 3.09 240 07:33 16.08.2022
615 Clouds 19 1004 100 6000 2.06 90 01:42 16.08.2022
616 Clouds 22 1004 87 10000 1.48 162 22:29 15.08.2022
617 Clouds 22 1004 83 10000 2.06 100 21:53 15.08.2022
618 Clouds 24 1004 69 10000 4.12 120 20:52 15.08.2022
619 Clouds 25 1004 65 10000 4.12 130 20:19 15.08.2022
620 Clouds 25 1004 65 10000 4.12 130 20:19 15.08.2022
621 Clear 27 1003 57 10000 5.66 140 18:41 15.08.2022
622 Clear 28 1003 39 10000 6.42 93 17:23 15.08.2022
623 Clear 29 1003 36 10000 5.96 90 16:21 15.08.2022
624 Clouds 27 1004 61 10000 4.12 90 13:57 15.08.2022
625 Clouds 26 1004 61 10000 2.57 110 12:37 15.08.2022
626 Clouds 26 1004 61 10000 2.57 110 12:37 15.08.2022
627 Clouds 22 1005 83 10000 3.09 110 10:18 15.08.2022
628 Clouds 20 1005 94 10000 3.6 120 08:42 15.08.2022
629 Clouds 18 1006 97 10000 3.59 92 06:27 15.08.2022
630 Clouds 19 1007 82 10000 2.57 110 02:57 15.08.2022
631 Clouds 21 1009 81 10000 6.07 104 23:22 14.08.2022
632 Clouds 22 1009 68 10000 6.17 130 21:42 14.08.2022
633 Clouds 24 1009 59 10000 6.05 97 20:29 14.08.2022
634 Clouds 25 1009 61 10000 4.12 120 19:36 14.08.2022
635 Clouds 26 1010 56 10000 6.6 98 18:21 14.08.2022
636 Clouds 26 1010 42 10000 7.66 92 17:27 14.08.2022
637 Clouds 27 1010 40 10000 7.37 95 16:22 14.08.2022
638 Clouds 26 1012 53 10000 6.17 120 14:39 14.08.2022
639 Clouds 25 1012 61 10000 6.17 120 13:50 14.08.2022
640 Clouds 28 1012 46 10000 6.6 101 13:31 14.08.2022
641 Clouds 25 1013 65 10000 4.12 100 12:35 14.08.2022
642 Clouds 26 1013 59 10000 6.01 89 11:22 14.08.2022
643 Clouds 22 1014 78 10000 4.63 110 08:56 14.08.2022
644 Clouds 20 1015 77 10000 2.76 97 06:27 14.08.2022
645 Clouds 18 1016 94 10000 3.09 90 04:47 14.08.2022
646 Clouds 18 1017 82 10000 1.54 100 01:36 14.08.2022
647 Clouds 18 1017 82 10000 3.09 120 22:56 13.08.2022
648 Clear 21 1017 65 10000 2.93 102 22:27 13.08.2022
649 Clear 24 1017 46 10000 3.6 130 20:50 13.08.2022
650 Clear 28 1017 34 10000 3.6 120 19:48 13.08.2022
651 Clear 29 1018 30 10000 4.12 120 19:18 13.08.2022
652 Clear 29 1018 31 10000 5.41 92 17:21 13.08.2022
653 Clear 29 1019 39 10000 3.6 100 14:50 13.08.2022
654 Clear 31 1019 30 10000 4.62 91 14:24 13.08.2022
655 Clear 29 1019 51 10000 3.6 100 13:34 13.08.2022
656 Clear 27 1019 30 10000 3.11 117 11:33 13.08.2022
657 Clear 23 1020 45 10000 2.28 120 09:26 13.08.2022
658 Clouds 16 1020 100 10000 3.09 120 07:43 13.08.2022
659 Clear 15 1020 94 10000 2.57 90 01:52 13.08.2022
660 Clear 19 1021 73 10000 2.87 99 23:32 12.08.2022
661 Clouds 19 1020 77 10000 4.12 130 21:40 12.08.2022
662 Clear 26 1020 38 10000 3.6 110 19:50 12.08.2022
663 Clear 26 1020 38 10000 4.4 92 19:24 12.08.2022
664 Clear 27 1021 34 10000 4.7 89 18:29 12.08.2022
665 Clear 27 1021 32 10000 4.64 89 16:27 12.08.2022
666 Clear 28 1021 32 10000 4.74 90 15:23 12.08.2022
667 Clear 26 1022 47 10000 4.12 80 13:50 12.08.2022
668 Clear 25 1023 50 10000 3.09 90 12:50 12.08.2022
669 Clear 21 1022 48 10000 3.03 96 09:22 12.08.2022
670 Clear 14 1023 94 10000 1.54 80 07:47 12.08.2022
671 Clear 12 1023 87 10000 2.38 102 06:25 12.08.2022
672 Clear 14 1024 75 10000 2.73 114 01:22 12.08.2022
673 Clear 15 1023 70 10000 2.8 106 00:20 12.08.2022
674 Clear 18 1023 67 10000 2.96 102 23:29 11.08.2022
675 Clear 18 1023 82 10000 4.12 120 21:57 11.08.2022
676 Clear 19 1023 82 10000 4.12 120 21:35 11.08.2022
677 Clear 23 1023 59 10000 3.15 94 20:32 11.08.2022
678 Clear 25 1023 44 10000 2.57 90 19:53 11.08.2022
679 Clear 23 1023 46 10000 3.11 99 19:30 11.08.2022
680 Clear 26 1023 41 10000 3.6 90 17:34 11.08.2022
681 Clear 28 1023 33 10000 4.41 95 16:32 11.08.2022
682 Clear 28 1024 32 10000 4.15 91 15:20 11.08.2022
683 Clouds 25 1025 50 10000 3.09 90 12:39 11.08.2022
684 Clear 21 1025 83 10000 1.54 0 09:54 11.08.2022
685 Clear 13 1025 94 10000 2.06 110 06:59 11.08.2022
686 Clear 13 1025 100 10000 2.57 100 03:45 11.08.2022
687 Clouds 15 1026 94 10000 1.03 340 00:35 11.08.2022
688 Clouds 18 1026 76 10000 1.12 120 22:22 10.08.2022
689 Clouds 20 1026 69 10000 1.32 90 21:24 10.08.2022
690 Clouds 22 1026 56 10000 3.09 120 20:54 10.08.2022
691 Clouds 24 1025 46 10000 1.89 72 19:24 10.08.2022
692 Clouds 26 1026 47 10000 3.09 90 17:55 10.08.2022
693 Clouds 26 1026 44 10000 1.03 200 16:35 10.08.2022
694 Clouds 24 1028 53 10000 2.57 320 13:35 10.08.2022
695 Clouds 23 1028 56 10000 1.54 330 12:35 10.08.2022
696 Clouds 20 1029 72 10000 0.34 56 09:25 10.08.2022
697 Clouds 15 1029 100 10000 0 0 08:33 10.08.2022
698 Clouds 12 1029 100 10000 1.03 360 07:18 10.08.2022
699 Clouds 12 1029 91 10000 1.28 355 03:25 10.08.2022
700 Clouds 15 1029 94 10000 2.06 350 23:34 09.08.2022
701 Clouds 16 1029 88 10000 1.54 310 22:56 09.08.2022
702 Clouds 17 1029 88 10000 2.57 340 21:35 09.08.2022
703 Clouds 20 1029 76 10000 3.34 313 20:30 09.08.2022
704 Clouds 22 1029 56 10000 1.03 0 18:44 09.08.2022
705 Clouds 24 1027 41 10000 2.64 343 17:28 09.08.2022
706 Clouds 24 1027 41 10000 2.64 343 17:28 09.08.2022
707 Clouds 22 1029 53 10000 1.54 40 16:40 09.08.2022
708 Clouds 22 1029 56 10000 1.54 30 15:58 09.08.2022
709 Clouds 21 1029 52 10000 2.57 30 12:52 09.08.2022
710 Clouds 17 1029 82 10000 1.03 360 09:39 09.08.2022
711 Clouds 15 1029 94 10000 1.03 50 08:50 09.08.2022
712 Clouds 13 1029 94 10000 1.03 330 07:53 09.08.2022
713 Clouds 10 1028 92 10000 2.61 353 04:25 09.08.2022
714 Clear 15 1027 88 10000 3.6 310 23:35 08.08.2022
715 Clear 16 1027 82 10000 3.6 280 22:56 08.08.2022
716 Clear 15 1027 82 10000 3.55 318 22:22 08.08.2022
717 Clear 17 1027 70 10000 3.6 311 21:27 08.08.2022
718 Clouds 21 1025 52 10000 6.17 320 19:51 08.08.2022
719 Clouds 20 1025 51 10000 5.25 309 19:22 08.08.2022
720 Clouds 22 1025 60 10000 6.17 290 17:34 08.08.2022
721 Clouds 22 1025 56 10000 2.06 240 15:45 08.08.2022
722 Clouds 22 1025 56 10000 2.57 270 14:33 08.08.2022
723 Clouds 21 1025 70 10000 1.11 287 12:29 08.08.2022
724 Clouds 20 1025 79 10000 0.89 235 10:23 08.08.2022
725 Clouds 13 1024 94 10000 2.06 260 06:56 08.08.2022
726 Clear 12 1024 100 10000 2.57 230 03:34 08.08.2022
727 Clouds 16 1023 77 10000 3.6 250 22:52 07.08.2022
728 Clouds 17 1023 67 10000 5.14 260 21:41 07.08.2022
729 Clouds 17 1023 72 10000 3.09 260 20:54 07.08.2022
730 Clouds 19 1023 63 10000 6.17 280 20:18 07.08.2022
731 Clouds 19 1023 63 10000 6.17 280 19:50 07.08.2022
732 Clouds 19 1023 63 10000 6.69 270 18:41 07.08.2022
733 Clouds 21 1023 47 10000 5.46 263 17:21 07.08.2022
734 Clouds 20 1024 60 10000 5.66 280 16:41 07.08.2022
735 Clouds 21 1024 52 10000 4.98 269 15:26 07.08.2022
736 Clouds 17 1024 77 10000 4.63 320 13:47 07.08.2022
737 Clouds 19 1025 55 10000 6.17 260 12:38 07.08.2022
738 Clouds 17 1025 72 10000 5.14 260 10:42 07.08.2022
739 Clouds 15 1025 82 10000 3.09 200 09:35 07.08.2022
740 Clouds 12 1025 87 10000 5.14 220 04:33 07.08.2022
741 Clouds 11 1026 87 10000 1.54 230 01:59 07.08.2022
742 Clouds 13 1026 82 10000 2.57 280 22:33 06.08.2022
743 Clouds 15 1026 67 10000 6.17 300 21:48 06.08.2022
744 Clouds 18 1025 59 10000 7.72 290 19:43 06.08.2022
745 Clouds 19 1025 52 10000 11.32 310 18:38 06.08.2022
746 Clouds 20 1025 52 10000 8.23 290 17:45 06.08.2022
747 Clouds 21 1025 45 10000 7.06 290 16:24 06.08.2022
748 Clouds 19 1025 52 10000 9.77 300 13:51 06.08.2022
749 Clear 20 1025 44 10000 6.78 287 12:27 06.08.2022
750 Clear 20 1025 44 10000 6.78 287 12:27 06.08.2022
751 Clear 18 1025 44 10000 6.58 288 11:21 06.08.2022
752 Clear 16 1024 67 10000 7.2 300 09:41 06.08.2022
753 Clear 11 1022 87 10000 5.14 270 04:43 06.08.2022
754 Clouds 13 1020 82 10000 6.69 310 00:49 06.08.2022
755 Clouds 14 1019 82 10000 7.2 300 22:36 05.08.2022
756 Clouds 15 1018 82 10000 6.17 300 21:18 05.08.2022
757 Rain 17 1017 67 10000 9.77 310 19:18 05.08.2022
758 Rain 17 1017 67 10000 9.77 310 18:41 05.08.2022
759 Clouds 19 1015 59 10000 7.72 320 16:53 05.08.2022
760 Clouds 22 1015 65 10000 2.83 218 15:25 05.08.2022
761 Clouds 21 1015 52 10000 1.54 250 14:54 05.08.2022
762 Clouds 20 1015 59 10000 2.57 280 13:39 05.08.2022
763 Clouds 20 1014 59 10000 1.03 300 13:19 05.08.2022
764 Clouds 18 1015 68 10000 3.09 360 11:58 05.08.2022
765 Clouds 16 1015 69 10000 2.61 340 10:25 05.08.2022
766 Clouds 15 1014 94 10000 3.6 310 07:58 05.08.2022
767 Rain 14 1014 92 10000 2.59 360 05:25 05.08.2022
768 Clouds 17 1014 82 10000 3.6 320 23:50 04.08.2022
769 Clouds 19 1013 88 10000 6.17 320 21:58 04.08.2022
770 Clear 19 1013 67 10000 4.32 319 21:25 04.08.2022
771 Clear 20 1012 88 10000 7.2 310 20:41 04.08.2022
772 Clouds 23 1011 62 10000 5.52 298 19:21 04.08.2022
773 Clouds 24 1012 73 10000 9.77 280 18:34 04.08.2022
774 Clouds 28 1011 57 10000 5.32 290 17:31 04.08.2022
775 Clouds 31 1010 37 10000 5.14 210 13:44 04.08.2022
776 Clouds 29 1011 51 10000 4.63 190 11:47 04.08.2022
777 Clouds 27 1011 61 10000 1.54 170 10:48 04.08.2022
778 Clouds 18 1012 100 10000 1.54 130 07:52 04.08.2022
779 Clouds 16 1013 90 10000 3 160 04:30 04.08.2022
780 Clouds 15 1014 92 10000 1.63 164 02:20 04.08.2022
781 Clear 18 1014 94 10000 0.51 240 23:43 03.08.2022
782 Clear 19 1014 93 10000 2.74 254 22:29 03.08.2022
783 Clear 22 1014 78 10000 5.14 270 20:45 03.08.2022
784 Clouds 24 1014 73 10000 6.17 260 19:35 03.08.2022
785 Clouds 26 1013 61 10000 5.74 255 18:23 03.08.2022
786 Clouds 26 1013 57 10000 7.01 248 16:24 03.08.2022
787 Clouds 25 1013 65 10000 7.2 250 14:45 03.08.2022
788 Clouds 25 1013 55 10000 7.36 235 12:32 03.08.2022
789 Clouds 20 1012 83 10000 5.14 210 08:50 03.08.2022
790 Clouds 18 1013 82 10000 3.09 200 04:47 03.08.2022
791 Clouds 17 1013 88 10000 5.14 180 03:37 03.08.2022
792 Clouds 18 1014 88 10000 4.63 190 01:36 03.08.2022
793 Clouds 18 1014 92 10000 3.15 200 23:23 02.08.2022
794 Clouds 18 1014 88 10000 5.14 220 21:55 02.08.2022
795 Clouds 18 1014 88 10000 5.14 220 21:33 02.08.2022
796 Rain 18 1014 88 10000 4.63 190 19:19 02.08.2022
797 Rain 22 1014 49 10000 4.63 200 16:38 02.08.2022
798 Clouds 21 1016 39 10000 4.96 202 13:21 02.08.2022
799 Clouds 16 1017 77 10000 3.6 190 09:53 02.08.2022
800 Clouds 14 1018 72 10000 2.95 188 08:27 02.08.2022
801 Clouds 11 1017 87 10000 3.6 190 07:50 02.08.2022
802 Clouds 9 1018 100 10000 1.54 240 04:56 02.08.2022
803 Clouds 10 1018 93 10000 3.6 300 01:58 02.08.2022
804 Clouds 11 1019 84 10000 2.92 297 23:21 01.08.2022
805 Clear 15 1018 72 10000 7.2 300 21:37 01.08.2022
806 Clouds 18 1017 59 10000 8.23 310 19:45 01.08.2022
807 Clouds 19 1017 55 10000 7.72 310 18:53 01.08.2022
808 Clouds 20 1016 55 10000 7.72 320 16:56 01.08.2022
809 Clouds 21 1016 39 10000 6.22 301 16:33 01.08.2022
810 Clouds 20 1016 56 10000 8.75 300 15:44 01.08.2022
811 Clouds 20 1016 55 10000 7.72 320 14:45 01.08.2022
812 Clouds 20 1016 40 10000 6.38 300 13:32 01.08.2022
813 Clouds 16 1015 67 10000 9.26 330 11:18 01.08.2022
814 Clouds 14 1014 88 10000 6.69 340 08:55 01.08.2022
815 Clouds 14 1014 89 10000 5.07 325 07:23 01.08.2022
816 Clouds 17 1011 100 8000 4.63 300 04:37 01.08.2022
817 Clouds 17 1012 94 7000 2.06 270 01:33 01.08.2022
818 Rain 16 1012 100 7000 2.06 160 22:47 31.07.2022
819 Rain 16 1012 97 10000 2.25 129 22:29 31.07.2022
820 Rain 18 1012 94 8000 3.09 230 20:44 31.07.2022
821 Rain 19 1012 88 10000 2.57 190 18:42 31.07.2022
822 Rain 21 1013 81 10000 0.95 322 17:29 31.07.2022
823 Clouds 22 1013 60 10000 3.09 190 14:57 31.07.2022
824 Clouds 23 1014 60 10000 3.09 230 13:19 31.07.2022
825 Clouds 21 1015 68 10000 1.54 200 11:44 31.07.2022
826 Clouds 17 1015 94 10000 1.54 260 09:18 31.07.2022
827 Clouds 14 1016 89 10000 1.99 250 06:31 31.07.2022
828 Clouds 15 1016 94 10000 2.2 272 02:31 31.07.2022
829 Clouds 17 1017 94 600 1.54 270 22:50 30.07.2022
830 Clouds 18 1017 94 6000 1.03 10 21:55 30.07.2022
831 Clouds 18 1017 94 6000 1.03 10 21:37 30.07.2022
832 Clouds 18 1016 94 6000 1.54 20 20:38 30.07.2022
833 Clouds 19 1016 88 4100 2.57 40 19:57 30.07.2022
834 Rain 22 1016 49 10000 2.13 129 18:23 30.07.2022
835 Clouds 23 1016 56 10000 4.12 140 16:54 30.07.2022
836 Clouds 23 1017 60 10000 2.06 100 15:35 30.07.2022
837 Clouds 22 1017 46 10000 2.19 74 14:32 30.07.2022
838 Clouds 19 1017 82 10000 3.6 90 12:43 30.07.2022
839 Clouds 18 1017 88 10000 1.54 0 11:55 30.07.2022
840 Clouds 20 1018 67 10000 1.79 136 10:25 30.07.2022
841 Clouds 17 1017 94 10000 2.57 70 09:45 30.07.2022
842 Clouds 16 1017 94 10000 2.57 80 07:47 30.07.2022
843 Clouds 16 1018 88 10000 2.06 90 02:34 30.07.2022
844 Clouds 16 1018 88 10000 2.57 70 01:43 30.07.2022
845 Clouds 17 1019 89 10000 3.54 65 22:25 29.07.2022
846 Clouds 20 1019 56 10000 1.54 0 20:59 29.07.2022
847 Clouds 20 1019 56 10000 3.09 110 19:57 29.07.2022
848 Clouds 22 1019 37 10000 3.6 100 17:53 29.07.2022
849 Clouds 23 1019 44 10000 4.31 93 15:21 29.07.2022
850 Clouds 20 1020 60 10000 3.09 90 12:59 29.07.2022
851 Clouds 19 1020 68 10000 2.57 80 10:42 29.07.2022
852 Clouds 15 1020 88 10000 1.03 90 08:50 29.07.2022
853 Clouds 13 1020 100 10000 1.54 0 07:54 29.07.2022
854 Clouds 11 1021 87 10000 4.12 30 01:52 29.07.2022
855 Clouds 14 1021 77 10000 1.54 280 22:49 28.07.2022
856 Clouds 16 1020 65 10000 0.94 37 21:20 28.07.2022
857 Clouds 17 1020 67 10000 3.19 327 20:31 28.07.2022
858 Clouds 20 1019 49 10000 2.57 320 19:43 28.07.2022
859 Clouds 18 1019 46 10000 2.89 332 19:23 28.07.2022
860 Clouds 19 1020 45 10000 1.03 320 17:44 28.07.2022
861 Clouds 20 1020 45 10000 1.54 260 16:55 28.07.2022
862 Clouds 20 1019 41 10000 3 304 16:28 28.07.2022
863 Clouds 19 1020 44 10000 3.18 279 13:30 28.07.2022
864 Clouds 17 1020 54 10000 2.61 280 11:27 28.07.2022
865 Clouds 11 1019 87 10000 1.54 280 06:46 28.07.2022
866 Clouds 13 1019 59 10000 3.26 311 05:33 28.07.2022
867 Clouds 13 1019 76 10000 3.6 280 02:40 28.07.2022
868 Clouds 14 1018 67 10000 4.63 320 22:45 27.07.2022
869 Clouds 15 1018 62 10000 5.35 302 21:29 27.07.2022
870 Clouds 16 1017 59 10000 10.8 310 19:44 27.07.2022
871 Clouds 16 1017 59 10000 10.8 310 18:39 27.07.2022
872 Clouds 17 1017 56 10000 7.54 299 16:31 27.07.2022
873 Clouds 16 1017 63 10000 11.83 300 15:40 27.07.2022
874 Clouds 16 1017 63 10000 11.32 300 14:41 27.07.2022
875 Clouds 15 1016 67 10000 12.35 290 12:52 27.07.2022
876 Clouds 14 1015 72 10000 9.77 310 08:55 27.07.2022
877 Clouds 13 1016 65 10000 6.28 291 07:33 27.07.2022
878 Clouds 13 1015 76 10000 7.72 280 02:43 27.07.2022
879 Clouds 14 1015 77 10000 7.2 290 22:47 26.07.2022
880 Clouds 14 1015 62 10000 6.04 278 21:25 26.07.2022
881 Clouds 15 1014 67 10000 9.26 300 20:47 26.07.2022
882 Clouds 17 1014 59 10000 12.86 290 18:46 26.07.2022
883 Clouds 18 1014 57 10000 7.45 287 18:28 26.07.2022
884 Clouds 17 1013 59 10000 12.35 310 16:54 26.07.2022
885 Clouds 18 1013 55 10000 13.89 290 15:43 26.07.2022
886 Clouds 18 1013 59 10000 12.86 300 14:38 26.07.2022
887 Clouds 18 1011 55 10000 12.35 300 11:47 26.07.2022
888 Clouds 15 1010 88 10000 10.8 320 09:44 26.07.2022
889 Clouds 14 1009 94 10000 8.75 310 08:18 26.07.2022
890 Rain 17 1006 88 10000 6.69 250 01:52 26.07.2022
891 Clear 18 1007 82 10000 5.14 250 23:44 25.07.2022
892 Clear 18 1006 77 10000 5.66 260 22:39 25.07.2022
893 Clear 18 1006 77 10000 8.75 270 21:43 25.07.2022
894 Clear 19 1006 72 10000 9.77 270 20:43 25.07.2022
895 Clouds 20 1005 73 10000 6.58 267 20:23 25.07.2022
896 Clouds 22 1005 72 10000 7.32 261 19:24 25.07.2022
897 Clouds 21 1006 73 10000 8.23 260 17:37 25.07.2022
898 Clouds 20 1006 83 10000 6.69 250 16:44 25.07.2022
899 Clouds 28 1005 49 10000 6.65 235 13:22 25.07.2022
900 Clouds 24 1006 57 10000 4.12 200 10:48 25.07.2022
901 Clouds 21 1007 68 10000 4.12 170 07:53 25.07.2022
902 Clouds 18 1013 88 10000 4.12 160 00:57 25.07.2022
903 Rain 18 1013 82 10000 4.12 170 23:45 24.07.2022
904 Clouds 18 1014 88 10000 3.09 230 22:44 24.07.2022
905 Clouds 20 1014 73 10000 3.6 250 21:41 24.07.2022
906 Clouds 22 1014 64 10000 3.09 250 20:59 24.07.2022
907 Clouds 22 1014 64 10000 3.09 250 20:41 24.07.2022
908 Clouds 23 1015 58 10000 4.64 248 19:20 24.07.2022
909 Clouds 24 1015 53 10000 8.23 260 17:57 24.07.2022
910 Clouds 23 1015 56 10000 5.66 240 15:55 24.07.2022
911 Clouds 24 1015 53 10000 7.2 210 14:47 24.07.2022
912 Clouds 24 1016 53 10000 5.66 200 13:49 24.07.2022
913 Clouds 24 1017 50 10000 6.2 210 12:28 24.07.2022
914 Clouds 21 1017 50 10000 6.2 210 11:31 24.07.2022
915 Clouds 17 1018 72 10000 5.14 180 09:55 24.07.2022
916 Clouds 13 1018 76 10000 4.07 192 08:22 24.07.2022
917 Clouds 13 1018 88 10000 1.03 0 07:41 24.07.2022
918 Clear 10 1019 93 10000 3.09 240 03:18 24.07.2022
919 Clear 13 1019 82 10000 3.6 270 23:36 23.07.2022
920 Clear 16 1018 67 10000 7.72 300 20:49 23.07.2022
921 Clouds 17 1018 65 10000 5.34 288 19:30 23.07.2022
922 Clouds 17 1018 63 10000 8.75 300 18:40 23.07.2022
923 Clouds 18 1017 54 10000 6.72 282 17:28 23.07.2022
924 Clouds 18 1017 54 10000 6.72 282 16:30 23.07.2022
925 Clouds 18 1017 57 10000 6.2 287 15:22 23.07.2022
926 Clouds 17 1017 67 10000 9.26 300 14:56 23.07.2022
927 Clouds 18 1017 59 10000 5.84 287 14:24 23.07.2022
928 Clouds 18 1017 59 10000 5.84 287 14:24 23.07.2022
929 Clouds 17 1016 61 10000 5.99 287 12:22 23.07.2022
930 Clouds 15 1016 82 10000 7.2 280 10:45 23.07.2022
931 Clouds 15 1016 82 10000 7.2 270 09:54 23.07.2022
932 Clouds 15 1016 70 10000 4.91 279 08:30 23.07.2022
933 Clouds 15 1016 77 10000 5.66 270 03:38 23.07.2022
934 Clouds 15 1016 77 10000 7.72 280 00:41 23.07.2022
935 Clouds 15 1017 77 10000 8.23 290 22:19 22.07.2022
936 Clouds 15 1017 77 10000 10.8 290 20:39 22.07.2022
937 Clouds 16 1017 64 10000 6.7 276 19:34 22.07.2022
938 Clouds 16 1017 63 10000 7 275 18:28 22.07.2022
939 Clouds 17 1017 72 10000 10.29 270 16:48 22.07.2022
940 Clear 17 1017 72 10000 10.8 280 14:40 22.07.2022
941 Clouds 17 1017 60 10000 7.37 279 11:22 22.07.2022
942 Clouds 15 1016 72 10000 6.56 285 09:25 22.07.2022
943 Clouds 15 1016 83 10000 5.53 284 08:29 22.07.2022
944 Clouds 16 1015 88 10000 8.23 290 05:18 22.07.2022
945 Rain 16 1015 88 10000 7.2 290 00:48 22.07.2022
946 Clouds 16 1016 94 10000 4.2 303 22:25 21.07.2022
947 Clouds 17 1015 93 8144 4.17 295 21:29 21.07.2022
948 Rain 19 1015 82 10000 4.39 291 19:26 21.07.2022
949 Clouds 21 1015 78 10000 7.72 250 17:41 21.07.2022
950 Clouds 21 1015 78 10000 7.72 260 17:19 21.07.2022
951 Clouds 24 1015 69 10000 7.72 260 14:55 21.07.2022
952 Clouds 24 1015 67 10000 5.88 262 14:31 21.07.2022
953 Clouds 22 1015 61 10000 7.06 269 12:28 21.07.2022
954 Rain 21 1015 78 10000 2.57 270 11:19 21.07.2022
955 Clouds 21 1014 78 10000 6.17 310 09:38 21.07.2022
956 Clouds 19 1015 88 10000 6.69 280 08:52 21.07.2022
957 Clouds 18 1015 94 6000 5.66 280 07:50 21.07.2022
958 Clouds 17 1014 90 10000 2.5 306 06:24 21.07.2022
959 Clear 19 1016 88 10000 3.09 310 00:48 21.07.2022
960 Clear 21 1016 84 10000 3.16 295 22:22 20.07.2022
961 Clear 23 1015 73 10000 5.66 290 20:59 20.07.2022
962 Clear 26 1015 61 10000 5.14 320 19:54 20.07.2022
963 Clear 31 1015 58 10000 5.99 277 19:25 20.07.2022
964 Clear 27 1015 57 10000 5.66 280 18:52 20.07.2022
965 Clear 31 1015 45 10000 4.98 269 18:26 20.07.2022
966 Clear 28 1015 51 10000 6.69 270 16:46 20.07.2022
967 Clear 35 1015 37 10000 6.27 268 15:32 20.07.2022
968 Clouds 29 1015 25 10000 5.05 186 14:20 20.07.2022
969 Clouds 29 1015 51 3000 3.09 120 11:55 20.07.2022
970 Clouds 24 1015 73 10000 2.57 130 09:43 20.07.2022
971 Clear 14 1016 94 10000 3.6 130 04:50 20.07.2022
972 Clear 18 1017 46 10000 4.17 126 00:54 20.07.2022
973 Clear 18 1017 49 10000 4.19 121 00:25 20.07.2022
974 Clear 20 1017 73 10000 4.63 130 22:34 19.07.2022
975 Clear 22 1017 60 10000 4.12 130 21:53 19.07.2022
976 Clear 25 1017 65 10000 3.09 130 20:49 19.07.2022
977 Clear 28 1017 49 10000 3.7 120 19:22 19.07.2022
978 Clear 28 1018 44 10000 3.6 100 18:35 19.07.2022
979 Clear 29 1018 39 10000 2.57 110 17:53 19.07.2022
980 Clear 31 1018 31 10000 1.12 216 15:26 19.07.2022
981 Clear 28 1019 41 10000 1.54 0 12:44 19.07.2022
982 Clear 26 1019 41 10000 2.57 220 11:32 19.07.2022
983 Clear 24 1019 40 10000 2.11 226 09:51 19.07.2022
984 Clear 18 1019 77 10000 0.51 0 08:46 19.07.2022
985 Clear 12 1019 100 10000 2.57 230 07:19 19.07.2022
986 Clear 16 1019 67 10000 2.01 229 06:27 19.07.2022
987 Clear 12 1019 100 10000 2.57 250 05:18 19.07.2022
988 Clear 13 1019 94 10000 2.57 270 02:38 19.07.2022
989 Clouds 16 1019 82 10000 5.14 260 23:54 18.07.2022
990 Clouds 16 1020 75 10000 2.79 261 23:20 18.07.2022
991 Clouds 19 1020 71 10000 2.9 261 22:27 18.07.2022
992 Clouds 21 1019 66 10000 2.99 252 21:24 18.07.2022
993 Clouds 23 1019 46 10000 4.63 250 20:34 18.07.2022
994 Clouds 24 1020 43 10000 7.2 260 18:50 18.07.2022
995 Clouds 25 1021 41 10000 7.2 250 16:45 18.07.2022
996 Clouds 24 1021 41 10000 6.17 250 15:34 18.07.2022
997 Clouds 22 1022 53 10000 6.69 240 13:32 18.07.2022
998 Clouds 24 1022 50 10000 6.23 226 12:21 18.07.2022
999 Clouds 18 1022 77 10000 5.14 210 09:56 18.07.2022
1000 Rain 16 1023 82 10000 3.09 220 08:19 18.07.2022
1001 Clouds 16 1022 77 10000 3.09 210 06:39 18.07.2022
1002 Clouds 17 1024 82 10000 4.63 260 23:19 17.07.2022
1003 Clouds 16 1025 89 10000 3.08 241 22:32 17.07.2022
1004 Clouds 17 1024 77 10000 5.14 270 21:40 17.07.2022
1005 Clouds 17 1024 77 10000 6.69 280 20:46 17.07.2022
1006 Clouds 17 1025 72 10000 6.17 280 20:18 17.07.2022
1007 Clouds 19 1025 62 10000 5.38 277 19:26 17.07.2022
1008 Clouds 21 1025 60 10000 6.11 284 18:22 17.07.2022
1009 Clouds 19 1025 72 10000 8.23 280 17:37 17.07.2022
1010 Clouds 20 1025 68 10000 8.23 290 16:50 17.07.2022
1011 Clouds 22 1025 53 10000 6.07 288 16:25 17.07.2022
1012 Clouds 21 1025 53 10000 6.49 280 14:20 17.07.2022
1013 Clouds 20 1025 55 10000 5.76 290 13:24 17.07.2022
1014 Clouds 17 1025 67 10000 8.23 300 10:59 17.07.2022
1015 Clouds 15 1025 82 10000 7.2 300 08:44 17.07.2022
1016 Clouds 13 1024 76 10000 6.17 290 03:40 17.07.2022
1017 Clouds 13 1024 76 10000 5.66 290 01:47 17.07.2022
1018 Clouds 13 1023 76 10000 6.69 290 23:19 16.07.2022
1019 Clouds 14 1023 69 10000 5.5 294 21:21 16.07.2022
1020 Clear 17 1022 59 10000 7.31 299 19:25 16.07.2022
1021 Clear 17 1021 59 10000 12.86 300 17:56 16.07.2022
1022 Clear 20 1021 51 10000 8.5 304 16:27 16.07.2022
1023 Clouds 18 1020 50 10000 9.19 302 13:47 16.07.2022
1024 Clouds 16 1017 63 10000 13.38 320 10:50 16.07.2022
1025 Clear 15 1017 72 10000 10.8 310 09:32 16.07.2022
1026 Clear 14 1016 77 10000 9.26 310 08:43 16.07.2022
1027 Clouds 12 1016 87 10000 7.2 310 07:59 16.07.2022
1028 Clouds 13 1015 100 10000 5.66 310 03:58 16.07.2022
1029 Rain 13 1015 100 10000 4.12 300 02:40 16.07.2022
1030 Rain 13 1016 97 10000 2.98 250 23:30 15.07.2022
1031 Rain 14 1017 94 10000 4.63 250 22:40 15.07.2022
1032 Rain 15 1017 78 10000 4.44 263 21:29 15.07.2022
1033 Clouds 16 1018 64 10000 4.69 264 20:26 15.07.2022
1034 Clouds 16 1018 67 10000 8.23 280 18:40 15.07.2022
1035 Clouds 17 1019 63 10000 9.26 280 17:37 15.07.2022
1036 Clouds 18 1018 59 10000 9.26 300 14:54 15.07.2022
1037 Clouds 16 1018 67 10000 10.29 290 12:58 15.07.2022
1038 Clouds 17 1018 60 10000 6.39 297 11:27 15.07.2022
1039 Clouds 15 1018 67 10000 8.23 300 09:44 15.07.2022
1040 Clouds 13 1017 65 10000 6.4 300 06:30 15.07.2022
1041 Clouds 13 1017 82 10000 7.2 300 00:58 15.07.2022
1042 Clouds 13 1017 78 10000 5.15 290 00:21 15.07.2022
1043 Clouds 13 1017 77 10000 5.34 286 22:50 14.07.2022
1044 Clouds 14 1016 77 10000 9.77 300 21:51 14.07.2022
1045 Clouds 14 1016 70 10000 6.4 291 21:29 14.07.2022
1046 Clouds 15 1016 67 10000 10.29 320 20:45 14.07.2022
1047 Clouds 15 1016 63 10000 7.09 293 20:24 14.07.2022
1048 Clouds 17 1016 59 10000 10.8 310 19:19 14.07.2022
1049 Clouds 18 1015 48 10000 8.09 293 16:23 14.07.2022
1050 Rain 15 1016 88 10000 6.69 270 15:50 14.07.2022
1051 Clouds 14 1016 88 10000 7.72 260 14:43 14.07.2022
1052 Rain 18 1016 61 10000 7.44 268 13:21 14.07.2022
1053 Rain 17 1017 67 10000 9.77 270 12:18 14.07.2022
1054 Clouds 18 1017 58 10000 7.04 267 11:25 14.07.2022
1055 Clouds 17 1017 67 10000 9.26 270 10:39 14.07.2022
1056 Clouds 16 1018 68 10000 5.6 274 08:21 14.07.2022
1057 Clear 9 1018 89 10000 2.99 274 03:29 14.07.2022
1058 Clouds 12 1018 82 10000 4.63 300 00:54 14.07.2022
1059 Clear 12 1019 89 10000 3.28 280 23:38 13.07.2022
1060 Clear 14 1019 77 10000 4.5 299 22:26 13.07.2022
1061 Clear 16 1019 77 10000 4.5 299 21:30 13.07.2022
1062 Clear 17 1018 63 10000 6.73 305 20:26 13.07.2022
1063 Clear 21 1016 60 10000 10.29 300 17:59 13.07.2022
1064 Clear 22 1016 52 10000 7.65 299 17:20 13.07.2022
1065 Clear 22 1016 64 10000 10.8 290 15:59 13.07.2022
1066 Clouds 23 1015 60 10000 10.8 280 13:50 13.07.2022
1067 Clouds 23 1015 55 10000 5.14 265 11:30 13.07.2022
1068 Clouds 22 1015 73 10000 4.63 260 10:44 13.07.2022
1069 Clouds 20 1016 70 10000 3.37 237 09:28 13.07.2022
1070 Rain 20 1017 74 10000 3.32 245 08:23 13.07.2022
1071 Clouds 19 1018 77 10000 4.12 250 04:36 13.07.2022
1072 Clouds 19 1020 77 10000 4.12 230 00:47 13.07.2022
1073 Clouds 20 1021 77 10000 5.66 240 22:46 12.07.2022
1074 Clouds 20 1021 73 10000 4.63 250 21:49 12.07.2022
1075 Clouds 20 1021 73 10000 5.14 250 20:53 12.07.2022
1076 Clouds 21 1022 68 10000 4.12 250 19:54 12.07.2022
1077 Clouds 21 1022 64 10000 6.17 260 18:43 12.07.2022
1078 Clouds 23 1022 57 10000 5.13 254 17:23 12.07.2022
1079 Clouds 23 1022 57 10000 5.36 258 15:32 12.07.2022
1080 Clouds 22 1023 64 10000 5.66 270 13:43 12.07.2022
1081 Clouds 20 1024 77 10000 3.6 270 11:55 12.07.2022
1082 Clouds 18 1024 82 10000 4.12 280 10:46 12.07.2022
1083 Clouds 15 1023 94 10000 3.09 270 09:18 12.07.2022
1084 Clouds 15 1023 94 10000 3.09 290 07:55 12.07.2022
1085 Clouds 14 1023 100 10000 4.12 300 05:54 12.07.2022
1086 Clouds 14 1023 100 10000 4.12 300 05:35 12.07.2022
1087 Clouds 14 1023 94 10000 5.66 290 01:36 12.07.2022
1088 Clouds 15 1022 82 10000 5.14 280 22:52 11.07.2022
1089 Clouds 17 1022 77 10000 5.66 290 21:44 11.07.2022
1090 Clouds 19 1022 81 10000 3.66 292 20:33 11.07.2022
1091 Clouds 21 1022 72 10000 4.3 296 19:32 11.07.2022
1092 Clear 23 1022 65 10000 4.63 299 18:32 11.07.2022
1093 Clear 23 1021 49 10000 2.57 270 17:36 11.07.2022
1094 Clear 22 1021 53 10000 3.09 270 15:46 11.07.2022
1095 Clouds 21 1021 56 10000 2.06 270 13:39 11.07.2022
1096 Clouds 19 1021 63 10000 3.09 310 11:40 11.07.2022
1097 Clouds 18 1021 63 10000 3.05 323 10:22 11.07.2022
1098 Clouds 16 1021 77 10000 5.66 320 09:42 11.07.2022
1099 Clouds 14 1021 82 10000 3.09 300 08:33 11.07.2022
1100 Clouds 8 1020 100 10000 2.57 310 04:34 11.07.2022
1101 Clouds 11 1021 89 10000 3.33 300 00:22 11.07.2022
1102 Clouds 13 1020 77 10000 5.14 300 22:56 10.07.2022
1103 Clouds 15 1020 72 10000 7.2 300 21:51 10.07.2022
1104 Clouds 16 1020 67 10000 10.8 300 20:54 10.07.2022
1105 Clouds 17 1020 63 10000 9.77 310 19:50 10.07.2022
1106 Clouds 17 1020 63 10000 9.77 310 18:49 10.07.2022
1107 Clouds 18 1020 63 10000 8.75 310 17:37 10.07.2022
1108 Clouds 18 1020 59 10000 8.75 310 16:57 10.07.2022
1109 Clouds 19 1020 55 10000 9.77 310 15:33 10.07.2022
1110 Clouds 19 1020 49 10000 7.42 307 14:33 10.07.2022
1111 Clouds 18 1020 52 10000 7.43 311 12:30 10.07.2022
1112 Clouds 17 1020 58 10000 7.91 316 11:25 10.07.2022
1113 Clouds 14 1019 72 10000 9.26 320 08:46 10.07.2022
1114 Clouds 15 1020 61 10000 7.3 317 08:24 10.07.2022
1115 Clouds 13 1020 71 10000 7.72 330 03:38 10.07.2022
1116 Clouds 14 1021 79 10000 6.21 303 23:30 09.07.2022
1117 Clouds 14 1021 71 10000 6.49 307 22:25 09.07.2022
1118 Clouds 14 1021 71 10000 6.49 307 21:31 09.07.2022
1119 Clouds 15 1021 67 10000 13.38 320 18:59 09.07.2022
1120 Clouds 16 1021 62 10000 8.34 303 18:22 09.07.2022
1121 Clouds 17 1021 63 10000 12.35 310 16:59 09.07.2022
1122 Clouds 16 1022 63 10000 13.38 320 15:56 09.07.2022
1123 Clouds 16 1022 63 10000 13.38 320 15:36 09.07.2022
1124 Clouds 18 1022 63 10000 12.35 310 13:54 09.07.2022
1125 Clouds 19 1021 57 10000 8.92 303 13:28 09.07.2022
1126 Clouds 18 1022 63 10000 11.32 320 11:40 09.07.2022
1127 Clouds 18 1021 65 10000 7.4 309 10:25 09.07.2022
1128 Clouds 18 1021 77 10000 6.29 307 09:23 09.07.2022
1129 Clouds 16 1022 88 10000 7.2 310 07:43 09.07.2022
1130 Clouds 15 1023 100 8000 7.2 280 04:38 09.07.2022
1131 Clouds 15 1025 82 10000 8.23 290 23:40 08.07.2022
1132 Clouds 15 1025 77 10000 10.29 300 22:18 08.07.2022
1133 Clear 15 1025 82 10000 5.95 291 21:26 08.07.2022
1134 Clear 16 1025 72 10000 10.29 300 20:35 08.07.2022
1135 Clouds 16 1025 77 10000 11.83 300 19:38 08.07.2022
1136 Clear 17 1025 72 10000 11.32 300 17:45 08.07.2022
1137 Clear 20 1025 61 10000 8.41 296 16:29 08.07.2022
1138 Clear 18 1026 68 10000 11.83 300 14:50 08.07.2022
1139 Clouds 19 1025 72 10000 11.32 300 12:42 08.07.2022
1140 Clouds 15 1025 94 10000 8.75 310 10:52 08.07.2022
1141 Clouds 15 1025 94 7000 4.63 310 09:58 08.07.2022
1142 Clouds 14 1024 88 10000 7.72 290 07:53 08.07.2022
1143 Clear 13 1024 88 10000 7.72 300 05:37 08.07.2022
1144 Clear 14 1023 82 10000 10.29 320 00:41 08.07.2022
1145 Clear 15 1021 82 10000 9.77 320 22:53 07.07.2022
1146 Clear 16 1020 77 10000 11.32 320 21:52 07.07.2022
1147 Clouds 19 1018 72 10000 12.35 310 19:35 07.07.2022
1148 Clouds 19 1017 68 10000 9.26 310 17:50 07.07.2022
1149 Clear 19 1016 62 10000 8.94 306 16:23 07.07.2022
1150 Clouds 19 1015 54 10000 9.89 305 14:21 07.07.2022
1151 Clouds 16 1015 82 10000 11.32 310 12:45 07.07.2022
1152 Clouds 17 1014 58 10000 8.62 312 12:23 07.07.2022
1153 Clouds 17 1014 77 10000 11.83 320 11:34 07.07.2022
1154 Clouds 17 1013 77 10000 8.23 310 10:46 07.07.2022
1155 Clouds 18 1013 74 10000 7.12 316 10:27 07.07.2022
1156 Clouds 16 1013 74 10000 7.12 316 09:32 07.07.2022
1157 Rain 16 1011 97 10000 4.06 320 06:31 07.07.2022
1158 Rain 15 1014 97 7983 6.82 248 00:28 07.07.2022
1159 Rain 15 1014 97 7983 6.82 248 23:36 06.07.2022
1160 Rain 15 1015 100 6000 7.72 250 23:18 06.07.2022
1161 Rain 15 1015 100 6000 7.72 250 22:51 06.07.2022
1162 Rain 15 1015 100 6000 7.72 250 22:33 06.07.2022
1163 Rain 15 1017 87 10000 6.6 235 20:23 06.07.2022
1164 Clouds 16 1018 72 10000 6.91 244 19:22 06.07.2022
1165 Clouds 19 1019 54 10000 7.34 261 17:21 06.07.2022
1166 Clouds 19 1020 59 10000 9.77 270 15:57 06.07.2022
1167 Clouds 18 1021 59 10000 7.2 290 12:44 06.07.2022
1168 Clouds 19 1021 56 10000 5.82 282 12:21 06.07.2022
1169 Clouds 17 1021 67 10000 6.17 310 10:55 06.07.2022
1170 Clouds 17 1021 73 10000 4.12 316 09:27 06.07.2022
1171 Clouds 17 1021 73 10000 4.12 316 09:27 06.07.2022
1172 Clouds 14 1020 77 10000 4.12 280 07:44 06.07.2022
1173 Clouds 13 1020 88 10000 4.63 280 06:49 06.07.2022
1174 Clouds 13 1020 88 10000 6.69 270 00:38 06.07.2022
1175 Clouds 15 1020 72 10000 5.66 290 22:43 05.07.2022
1176 Clouds 16 1019 72 10000 8.75 280 20:57 05.07.2022
1177 Clouds 16 1019 72 10000 8.75 280 20:33 05.07.2022
1178 Clouds 18 1019 63 10000 9.77 290 19:39 05.07.2022
1179 Clouds 17 1019 72 10000 7.72 280 17:55 05.07.2022
1180 Clouds 17 1019 57 10000 7.39 269 17:25 05.07.2022
1181 Clouds 18 1019 63 10000 10.29 310 16:33 05.07.2022
1182 Clouds 18 1019 68 10000 7.72 250 14:54 05.07.2022
1183 Clouds 18 1019 68 10000 9.77 270 13:36 05.07.2022
1184 Clouds 17 1018 54 10000 6.56 255 12:26 05.07.2022
1185 Rain 15 1018 82 5000 7.2 290 10:46 05.07.2022
1186 Clouds 17 1018 67 10000 6.69 290 09:58 05.07.2022
1187 Clouds 15 1018 75 10000 4.74 246 08:23 05.07.2022
1188 Clouds 12 1018 85 10000 3.6 237 07:20 05.07.2022
1189 Clouds 12 1017 88 10000 5.14 250 04:39 05.07.2022
1190 Clouds 15 1017 77 10000 3.6 230 01:54 05.07.2022
1191 Clouds 15 1017 77 10000 5.66 260 23:40 04.07.2022
1192 Clouds 15 1017 77 10000 6.17 270 22:58 04.07.2022
1193 Clouds 16 1017 72 10000 10.29 270 22:19 04.07.2022
1194 Clouds 17 1016 67 10000 11.83 260 20:58 04.07.2022
1195 Clouds 17 1016 67 10000 11.83 260 20:37 04.07.2022
1196 Clouds 18 1016 63 10000 11.32 270 20:18 04.07.2022
1197 Clouds 18 1016 63 10000 11.32 270 19:43 04.07.2022
1198 Clouds 18 1017 69 10000 7.62 256 19:24 04.07.2022
1199 Clouds 20 1017 58 10000 8.3 258 17:23 04.07.2022
1200 Clouds 21 1016 56 10000 10.8 260 15:41 04.07.2022
1201 Clouds 19 1016 59 10000 8.4 257 14:21 04.07.2022
1202 Clouds 18 1016 68 10000 7.72 240 12:56 04.07.2022
1203 Clouds 18 1016 72 10000 5.14 240 11:43 04.07.2022
1204 Rain 18 1016 68 10000 8.23 260 10:33 04.07.2022
1205 Clouds 18 1016 72 10000 3.6 250 09:33 04.07.2022
1206 Clear 14 1016 94 10000 4.63 260 06:42 04.07.2022
1207 Clear 14 1016 94 10000 4.63 270 02:59 04.07.2022
1208 Clouds 16 1016 94 10000 4.63 280 23:53 03.07.2022
1209 Clouds 16 1015 94 10000 1.03 340 22:55 03.07.2022
1210 Rain 19 1016 72 10000 3.09 310 20:46 03.07.2022
1211 Rain 18 1016 74 10000 4.08 254 20:20 03.07.2022
1212 Clouds 19 1016 63 10000 4.24 271 19:25 03.07.2022
1213 Clouds 19 1016 63 10000 4.24 271 18:31 03.07.2022
1214 Clouds 23 1015 56 10000 6.17 290 17:42 03.07.2022
1215 Clouds 24 1016 49 10000 5.61 254 15:28 03.07.2022
1216 Clouds 25 1016 57 10000 5.66 290 14:57 03.07.2022
1217 Clouds 23 1016 56 10000 2.57 320 13:50 03.07.2022
1218 Clouds 23 1016 53 10000 1.03 360 12:51 03.07.2022
1219 Clouds 25 1016 50 10000 2.57 246 12:22 03.07.2022
1220 Clouds 20 1016 82 10000 1.03 0 10:55 03.07.2022
1221 Clouds 19 1016 82 10000 1.03 0 10:36 03.07.2022
1222 Clouds 18 1016 88 10000 1.03 130 08:48 03.07.2022
1223 Clouds 17 1016 94 10000 0 0 07:34 03.07.2022
1224 Clouds 15 1018 88 10000 3.6 110 01:33 03.07.2022
1225 Clouds 15 1019 82 10000 4.12 120 23:50 02.07.2022
1226 Clouds 16 1020 77 10000 2.06 110 22:32 02.07.2022
1227 Clouds 20 1020 56 10000 4.12 290 20:37 02.07.2022
1228 Clouds 21 1020 52 10000 5.66 280 19:50 02.07.2022
1229 Clouds 22 1020 43 10000 8.23 260 19:19 02.07.2022
1230 Clouds 22 1021 43 10000 9.26 260 17:41 02.07.2022
1231 Clouds 21 1021 46 10000 6.69 230 16:38 02.07.2022
1232 Clouds 21 1021 49 10000 6.69 220 13:51 02.07.2022
1233 Clear 20 1021 49 10000 6.69 230 12:19 02.07.2022
1234 Clear 20 1021 60 10000 5.14 240 10:54 02.07.2022
1235 Clear 20 1021 60 10000 5.14 240 10:33 02.07.2022
1236 Clear 17 1020 77 10000 5.14 220 08:54 02.07.2022
1237 Clear 16 1020 88 10000 4.63 200 08:19 02.07.2022
1238 Clear 14 1019 88 10000 5.14 200 06:59 02.07.2022
1239 Clouds 14 1019 88 10000 4.63 230 01:44 02.07.2022
1240 Clouds 15 1019 77 10000 4.12 240 23:37 01.07.2022
1241 Clouds 16 1018 72 10000 5.66 260 22:40 01.07.2022
1242 Clouds 17 1017 72 10000 5.14 260 21:47 01.07.2022
1243 Clouds 16 1018 75 10000 4.18 254 21:27 01.07.2022
1244 Clouds 17 1017 77 10000 6.17 280 20:38 01.07.2022
1245 Clouds 18 1016 72 10000 6.69 260 19:42 01.07.2022
1246 Clouds 19 1016 68 10000 6.69 270 17:53 01.07.2022
1247 Rain 17 1015 88 10000 6.69 270 15:50 01.07.2022
1248 Rain 17 1014 88 10000 7.72 270 13:54 01.07.2022
1249 Rain 17 1013 94 10000 6.17 280 11:56 01.07.2022
1250 Rain 17 1013 92 10000 6.03 266 10:20 01.07.2022
1251 Rain 17 1013 92 10000 6.03 266 10:20 01.07.2022
1252 Clouds 18 1013 92 10000 6.03 266 09:31 01.07.2022
1253 Rain 19 1010 94 7000 4.12 130 04:49 01.07.2022
1254 Clear 17 1011 93 10000 3.77 94 00:26 01.07.2022
1255 Clear 19 1011 82 10000 4.63 130 22:59 30.06.2022
1256 Clear 19 1011 82 10000 4.63 130 22:41 30.06.2022
1257 Clear 19 1012 87 10000 4.29 92 22:22 30.06.2022
1258 Clear 20 1011 60 10000 3.09 110 21:41 30.06.2022
1259 Clear 22 1012 80 10000 4.71 91 20:30 30.06.2022
1260 Clouds 24 1012 46 10000 3.6 120 19:54 30.06.2022
1261 Clouds 24 1012 65 10000 4.48 90 19:25 30.06.2022
1262 Clouds 24 1012 46 10000 4.63 110 18:42 30.06.2022
1263 Clouds 24 1012 43 10000 5.14 110 17:44 30.06.2022
1264 Clouds 24 1013 46 10000 4.63 100 16:55 30.06.2022
1265 Clouds 24 1013 46 10000 5.66 100 15:42 30.06.2022
1266 Clear 23 1013 53 10000 3.6 100 13:36 30.06.2022
1267 Clouds 23 1014 56 10000 4.12 90 12:35 30.06.2022
1268 Clouds 22 1014 60 10000 4.12 120 11:55 30.06.2022
1269 Clear 21 1014 68 10000 5.14 110 09:55 30.06.2022
1270 Clear 21 1014 68 10000 5.14 110 09:35 30.06.2022
1271 Clouds 18 1014 94 10000 3.6 110 08:19 30.06.2022
1272 Clouds 18 1015 85 10000 3.49 109 07:24 30.06.2022
1273 Clear 15 1015 94 10000 4.12 120 02:38 30.06.2022
1274 Clouds 17 1016 85 10000 4.41 100 23:36 29.06.2022
1275 Clouds 18 1016 77 10000 4.63 120 22:41 29.06.2022
1276 Clouds 19 1015 63 10000 4.63 120 21:58 29.06.2022
1277 Clouds 21 1015 52 10000 5.14 120 20:34 29.06.2022
1278 Clouds 23 1016 46 10000 5.66 120 19:55 29.06.2022
1279 Clouds 23 1016 43 10000 5.66 120 17:55 29.06.2022
1280 Clouds 23 1016 60 10000 4.63 100 16:51 29.06.2022
1281 Clouds 24 1017 60 10000 4.63 100 15:33 29.06.2022
1282 Clouds 23 1018 56 10000 5.14 100 13:36 29.06.2022
1283 Clouds 22 1018 60 10000 6.17 120 12:36 29.06.2022
1284 Clouds 21 1018 68 10000 4.63 130 09:46 29.06.2022
1285 Clouds 21 1018 65 10000 4.25 122 09:22 29.06.2022
1286 Clear 13 1019 87 10000 2.9 124 06:29 29.06.2022
1287 Clear 11 1019 100 10000 2.57 80 04:42 29.06.2022
1288 Clear 13 1021 94 10000 1.54 80 00:53 29.06.2022
1289 Clear 13 1021 94 10000 1.54 80 00:33 29.06.2022
1290 Clear 15 1021 82 10000 1.03 280 22:50 28.06.2022
1291 Clear 17 1020 77 10000 2.57 280 21:58 28.06.2022
1292 Clear 17 1020 77 10000 2.57 280 21:39 28.06.2022
1293 Clear 20 1020 49 10000 3.6 280 21:19 28.06.2022
1294 Clouds 21 1020 46 10000 3.09 260 19:54 28.06.2022
1295 Clouds 21 1021 65 10000 2.55 270 19:30 28.06.2022
1296 Clouds 21 1020 46 10000 4.12 190 18:40 28.06.2022
1297 Clouds 22 1020 53 10000 4.52 246 17:25 28.06.2022
1298 Clouds 22 1021 49 10000 5.66 270 15:55 28.06.2022
1299 Clouds 21 1020 56 10000 6.17 270 14:52 28.06.2022
1300 Clouds 21 1020 52 10000 3.09 240 14:19 28.06.2022
1301 Clouds 21 1020 52 10000 3.09 240 13:45 28.06.2022
1302 Clouds 20 1020 56 10000 5.12 248 12:30 28.06.2022
1303 Clear 20 1020 74 10000 4.29 241 10:23 28.06.2022
1304 Clouds 16 1020 88 10000 1.03 0 08:56 28.06.2022
1305 Clouds 16 1020 88 10000 1.03 0 08:37 28.06.2022
1306 Clouds 13 1019 93 10000 0.54 219 07:20 28.06.2022
1307 Clouds 14 1018 100 10000 3.09 300 03:55 28.06.2022
1308 Clouds 15 1017 94 10000 4.63 290 23:51 27.06.2022
1309 Clouds 14 1017 98 10000 3.01 290 23:26 27.06.2022
1310 Clouds 15 1016 97 10000 2.31 296 22:25 27.06.2022
1311 Clouds 15 1016 97 10000 2.4 309 21:29 27.06.2022
1312 Rain 15 1016 100 10000 5.14 350 20:33 27.06.2022
1313 Rain 16 1015 94 10000 7.2 320 18:52 27.06.2022
1314 Clouds 16 1015 94 10000 6.17 310 17:44 27.06.2022
1315 Clouds 16 1015 100 10000 3.6 300 15:50 27.06.2022
1316 Rain 17 1015 93 10000 1.3 317 14:25 27.06.2022
1317 Clouds 16 1015 88 10000 2.57 360 12:58 27.06.2022
1318 Clouds 16 1015 88 10000 2.57 360 12:36 27.06.2022
1319 Clouds 15 1014 94 10000 7.72 360 09:53 27.06.2022
1320 Rain 14 1015 94 10000 4.63 330 08:43 27.06.2022
1321 Rain 14 1015 94 10000 5.14 30 07:53 27.06.2022
1322 Rain 14 1015 94 10000 7.72 10 06:37 27.06.2022
1323 Rain 17 1016 79 10000 2.58 11 01:26 27.06.2022
1324 Rain 18 1017 83 10000 2.08 360 23:27 26.06.2022
1325 Rain 19 1017 72 10000 4.63 300 21:51 26.06.2022
1326 Clouds 20 1017 68 10000 3.6 330 20:34 26.06.2022
1327 Clouds 21 1016 68 10000 6.69 270 19:19 26.06.2022
1328 Clouds 23 1016 65 10000 4.34 294 18:23 26.06.2022
1329 Clouds 23 1015 64 10000 8.75 270 15:38 26.06.2022
1330 Clouds 24 1015 64 10000 8.75 260 14:34 26.06.2022
1331 Clouds 26 1015 66 10000 6.19 246 13:29 26.06.2022
1332 Clouds 26 1013 57 10000 4.12 200 12:44 26.06.2022
1333 Clouds 25 1012 69 10000 3.6 150 10:53 26.06.2022
1334 Clouds 25 1013 77 10000 3.67 167 10:22 26.06.2022
1335 Clouds 20 1012 94 10000 4.12 120 08:45 26.06.2022
1336 Clouds 18 1012 100 2500 4.12 120 07:18 26.06.2022
1337 Clouds 18 1013 88 10000 2.03 111 00:48 26.06.2022
1338 Clouds 18 1013 89 10000 1.64 112 00:20 26.06.2022
1339 Clouds 17 1013 94 10000 3.6 110 23:33 25.06.2022
1340 Clouds 18 1013 94 5000 3.09 110 22:51 25.06.2022
1341 Clouds 21 1013 85 10000 1.84 79 22:26 25.06.2022
1342 Clouds 20 1013 100 6000 2.06 100 21:37 25.06.2022
1343 Clouds 21 1013 88 10000 1.03 90 21:18 25.06.2022
1344 Clouds 23 1012 78 10000 0.67 5 20:25 25.06.2022
1345 Clouds 20 1012 94 10000 1.54 50 19:19 25.06.2022
1346 Clouds 24 1012 71 10000 2.43 281 17:53 25.06.2022
1347 Clouds 23 1012 53 10000 3.09 100 17:19 25.06.2022
1348 Clouds 25 1012 50 10000 3.6 90 14:59 25.06.2022
1349 Clouds 24 1011 57 10000 2.57 70 12:57 25.06.2022
1350 Clouds 24 1011 57 10000 2.57 70 12:37 25.06.2022
1351 Clouds 23 1011 61 10000 1.6 152 10:32 25.06.2022
1352 Clouds 19 1010 82 10000 1.03 290 08:58 25.06.2022
1353 Clouds 18 1010 82 10000 1.03 290 08:35 25.06.2022
1354 Clouds 16 1010 100 10000 1.54 280 07:54 25.06.2022
1355 Clouds 16 1008 100 250 2.06 280 03:33 25.06.2022
1356 Clouds 18 1008 94 10000 2.06 270 00:34 25.06.2022
1357 Clouds 19 1007 88 10000 2.06 240 22:53 24.06.2022
1358 Clouds 19 1007 88 10000 3.09 250 21:41 24.06.2022
1359 Clouds 21 1006 78 10000 3.09 100 20:45 24.06.2022
1360 Clouds 21 1006 78 10000 1.54 90 20:18 24.06.2022
1361 Clouds 20 1007 95 10000 4.91 272 19:21 24.06.2022
1362 Clouds 20 1006 83 10000 4.63 260 18:48 24.06.2022
1363 Clouds 20 1007 95 10000 4.91 272 18:30 24.06.2022
1364 Clouds 20 1006 84 10000 5.28 285 17:20 24.06.2022
1365 Clear 26 1004 49 10000 3.6 182 15:29 24.06.2022
1366 Clouds 28 1005 47 10000 5.17 150 14:27 24.06.2022
1367 Clear 24 1005 64 10000 6.17 110 13:55 24.06.2022
1368 Clear 22 1006 68 10000 5.14 110 11:44 24.06.2022
1369 Clear 23 1006 64 10000 6.96 109 10:55 24.06.2022
1370 Clear 21 1007 73 10000 4.63 110 09:55 24.06.2022
1371 Clear 22 1008 68 10000 6.81 103 09:29 24.06.2022
1372 Clear 20 1008 77 10000 4.63 110 08:52 24.06.2022
1373 Clear 16 1009 88 10000 5.66 110 06:48 24.06.2022
1374 Clear 17 1009 81 10000 4.6 110 06:30 24.06.2022
1375 Clear 15 1009 94 10000 5.66 110 05:52 24.06.2022
1376 Clear 17 1012 95 10000 4.55 106 01:28 24.06.2022
1377 Clear 17 1012 82 10000 4.63 110 22:44 23.06.2022
1378 Clear 19 1012 72 10000 4.12 110 21:54 23.06.2022
1379 Clear 21 1013 64 10000 3.09 110 20:54 23.06.2022
1380 Clear 21 1013 64 10000 3.09 110 20:32 23.06.2022
1381 Clouds 22 1013 73 10000 3.6 100 18:49 23.06.2022
1382 Clouds 22 1013 68 10000 4.63 90 17:45 23.06.2022
1383 Clouds 22 1014 73 10000 4.12 100 16:42 23.06.2022
1384 Clouds 22 1014 68 10000 3.6 90 15:43 23.06.2022
1385 Clouds 24 1014 56 10000 3.72 119 15:23 23.06.2022
1386 Clouds 19 1015 77 10000 4.12 30 12:43 23.06.2022
1387 Clouds 18 1015 61 10000 2.29 114 11:23 23.06.2022
1388 Clouds 15 1016 82 10000 2.06 180 09:46 23.06.2022
1389 Clouds 13 1016 88 10000 1.03 230 08:18 23.06.2022
1390 Clouds 13 1014 88 10000 1.03 50 02:38 23.06.2022
1391 Clouds 13 1015 94 10000 1.99 322 00:26 23.06.2022
1392 Clouds 14 1015 95 10000 2.56 324 23:27 22.06.2022
1393 Clouds 14 1015 95 10000 2.56 324 22:31 22.06.2022
1394 Clouds 15 1014 85 10000 3.21 309 21:21 22.06.2022
1395 Clouds 17 1014 77 10000 4.04 309 20:25 22.06.2022
1396 Clouds 16 1014 77 10000 3.95 313 19:52 22.06.2022
1397 Clouds 18 1013 67 10000 4.61 298 18:21 22.06.2022
1398 Clouds 18 1013 64 10000 5.24 291 17:26 22.06.2022
1399 Clouds 17 1013 77 10000 6.17 290 16:18 22.06.2022
1400 Clouds 18 1013 62 10000 4.19 290 15:26 22.06.2022
1401 Clouds 17 1013 72 10000 4.12 270 14:18 22.06.2022
1402 Clouds 17 1013 72 10000 4.12 270 13:37 22.06.2022
1403 Clouds 17 1013 77 10000 4.63 300 13:18 22.06.2022
1404 Clouds 16 1013 77 10000 4.12 310 11:48 22.06.2022
1405 Clouds 15 1013 88 10000 3.09 270 10:55 22.06.2022
1406 Clouds 15 1013 88 8000 4.12 270 09:59 22.06.2022
1407 Clouds 14 1013 88 10000 5.66 260 07:59 22.06.2022
1408 Clouds 13 1012 88 10000 4.63 270 03:50 22.06.2022
1409 Clouds 12 1013 94 10000 3.15 252 01:23 22.06.2022
1410 Clouds 13 1013 88 10000 4.63 270 23:42 21.06.2022
1411 Clouds 15 1013 77 10000 5.66 300 22:18 21.06.2022
1412 Clear 17 1013 67 10000 6.69 280 19:55 21.06.2022
1413 Clear 19 1013 59 10000 6.17 280 18:35 21.06.2022
1414 Clear 18 1013 63 10000 6.69 280 17:39 21.06.2022
1415 Clouds 18 1014 63 10000 8.23 260 13:54 21.06.2022
1416 Clear 17 1014 67 10000 7.2 280 11:37 21.06.2022
1417 Clear 15 1014 77 10000 7.2 280 09:54 21.06.2022
1418 Clear 14 1014 82 10000 8.75 310 08:48 21.06.2022
1419 Clear 12 1013 94 10000 7.2 290 06:36 21.06.2022
1420 Clear 11 1014 96 10000 3.47 291 01:31 21.06.2022
1421 Clear 12 1013 92 10000 3.68 302 23:25 20.06.2022
1422 Clear 15 1012 82 10000 7.2 290 21:55 20.06.2022
1423 Clear 16 1012 72 10000 6.17 300 20:53 20.06.2022
1424 Clouds 16 1012 67 10000 7.2 330 19:44 20.06.2022
1425 Clouds 15 1011 72 10000 6.17 320 18:48 20.06.2022
1426 Clouds 16 1011 79 10000 5.76 322 18:20 20.06.2022
1427 Clouds 17 1011 63 10000 3.6 320 17:36 20.06.2022
1428 Clouds 13 1011 88 6000 5.66 290 15:58 20.06.2022
1429 Rain 15 1011 77 1200 5.14 290 13:34 20.06.2022
1430 Rain 15 1011 65 10000 5 284 11:25 20.06.2022
1431 Rain 14 1011 77 10000 3.09 270 09:48 20.06.2022
1432 Clear 14 1011 77 10000 3.09 260 08:45 20.06.2022
1433 Clouds 11 1011 93 10000 3.09 240 06:49 20.06.2022
1434 Clouds 11 1012 93 10000 2.13 213 03:29 20.06.2022
1435 Clouds 11 1012 87 10000 3.09 260 00:37 20.06.2022
1436 Clouds 11 1013 92 10000 2.44 271 23:25 19.06.2022
1437 Clouds 14 1012 77 10000 5.14 290 22:19 19.06.2022
1438 Clouds 14 1012 77 10000 5.14 290 21:41 19.06.2022
1439 Clouds 15 1011 67 10000 7.2 300 20:46 19.06.2022
1440 Clouds 16 1011 67 10000 6.69 300 19:48 19.06.2022
1441 Clouds 17 1012 62 10000 3.75 287 19:24 19.06.2022
1442 Clouds 18 1012 62 10000 3.75 287 18:31 19.06.2022
1443 Clouds 17 1012 59 10000 2.57 250 17:39 19.06.2022
1444 Clouds 16 1011 67 10000 1.03 260 16:39 19.06.2022
1445 Clouds 15 1011 77 10000 0 0 15:44 19.06.2022
1446 Clouds 16 1012 78 10000 1.43 260 15:26 19.06.2022
1447 Clouds 14 1011 77 10000 0.51 40 14:41 19.06.2022
1448 Clouds 13 1011 88 10000 1.03 20 13:52 19.06.2022
1449 Clouds 12 1011 94 10000 5.66 330 12:19 19.06.2022
1450 Clouds 12 1010 94 10000 1.54 40 10:52 19.06.2022
1451 Clouds 11 1011 92 10000 2.19 11 09:21 19.06.2022
1452 Rain 10 1011 95 10000 2.54 21 08:32 19.06.2022
1453 Rain 11 1012 96 10000 3.6 349 07:26 19.06.2022
1454 Rain 11 1012 96 10000 3.6 349 07:26 19.06.2022
1455 Rain 13 1013 85 10000 2.16 320 04:27 19.06.2022
1456 Clouds 13 1014 95 10000 3.25 306 01:28 19.06.2022
1457 Clouds 13 1014 94 10000 2.83 285 00:23 19.06.2022
1458 Clouds 14 1014 88 10000 4.63 270 23:35 18.06.2022
1459 Rain 15 1015 89 10000 2.91 276 22:30 18.06.2022
1460 Clouds 16 1014 77 10000 4.63 290 20:54 18.06.2022
1461 Rain 16 1015 79 10000 4.11 265 20:24 18.06.2022
1462 Clouds 18 1015 68 10000 9.26 280 19:21 18.06.2022
1463 Clouds 18 1015 68 10000 9.26 280 18:42 18.06.2022
1464 Clouds 21 1015 64 10000 4.77 275 17:30 18.06.2022
1465 Clouds 21 1015 64 10000 4.77 275 17:30 18.06.2022
1466 Clouds 21 1015 50 10000 6.14 276 16:20 18.06.2022
1467 Clouds 21 1015 56 10000 9.77 290 15:18 18.06.2022
1468 Clouds 21 1015 56 10000 9.77 290 14:42 18.06.2022
1469 Clouds 21 1014 60 10000 9.26 280 12:51 18.06.2022
1470 Clouds 22 1015 52 10000 6.7 278 11:31 18.06.2022
1471 Clouds 21 1015 63 10000 5.68 291 10:26 18.06.2022
1472 Clouds 18 1013 77 10000 4.12 280 09:19 18.06.2022
1473 Clouds 18 1013 77 10000 2.57 250 08:18 18.06.2022
1474 Clouds 17 1013 82 10000 5.14 260 06:43 18.06.2022
1475 Clouds 18 1015 60 10000 5.06 213 03:24 18.06.2022
1476 Clouds 18 1016 66 10000 5.8 189 01:24 18.06.2022
1477 Clouds 20 1015 56 10000 9.77 180 00:42 18.06.2022
1478 Clouds 19 1016 63 10000 8.23 180 23:52 17.06.2022
1479 Clouds 19 1016 63 10000 8.23 180 23:52 17.06.2022
1480 Clouds 19 1017 68 10000 6.69 170 22:56 17.06.2022
1481 Clouds 20 1018 64 10000 4.63 180 20:42 17.06.2022
1482 Rain 21 1019 74 10000 4.91 164 19:30 17.06.2022
1483 Rain 21 1020 52 10000 4.63 220 18:34 17.06.2022
1484 Rain 21 1021 52 10000 4.12 230 17:34 17.06.2022
1485 Rain 21 1021 56 10000 4.12 220 16:42 17.06.2022
1486 Clouds 21 1022 56 10000 3.6 230 15:43 17.06.2022
1487 Rain 20 1022 60 10000 3.6 230 14:58 17.06.2022
1488 Clouds 19 1023 69 10000 4.49 249 14:20 17.06.2022
1489 Rain 19 1022 59 10000 5.14 250 13:45 17.06.2022
1490 Rain 20 1022 56 10000 5.14 260 12:53 17.06.2022
1491 Clouds 20 1022 60 10000 5.66 250 11:57 17.06.2022
1492 Clouds 20 1022 60 10000 5.66 250 11:36 17.06.2022
1493 Clouds 19 1022 63 10000 3.09 240 10:48 17.06.2022
1494 Clouds 16 1023 69 10000 3.48 244 08:30 17.06.2022
1495 Clouds 13 1023 80 10000 3.09 234 07:30 17.06.2022
1496 Clouds 11 1023 100 2800 3.09 250 05:51 17.06.2022
1497 Clouds 12 1022 94 9000 3.09 260 02:52 17.06.2022
1498 Clouds 14 1022 88 10000 3.09 290 00:42 17.06.2022
1499 Clouds 14 1022 88 10000 3.09 290 00:42 17.06.2022
1500 Clouds 15 1023 82 10000 4.63 290 22:45 16.06.2022
1501 Clouds 15 1023 85 10000 3.36 278 22:20 16.06.2022
1502 Clouds 16 1021 72 10000 6.69 290 21:19 16.06.2022
1503 Clouds 16 1021 72 10000 6.69 290 20:50 16.06.2022
1504 Clouds 18 1021 63 10000 8.75 290 19:57 16.06.2022
1505 Clear 19 1021 55 10000 8.75 290 18:34 16.06.2022
1506 Clear 20 1021 52 10000 9.26 290 17:44 16.06.2022
1507 Clear 20 1021 52 10000 9.26 290 17:44 16.06.2022
1508 Clear 20 1021 52 10000 8.23 300 16:46 16.06.2022
1509 Clear 20 1021 49 10000 7.72 320 15:37 16.06.2022
1510 Clear 20 1021 45 10000 7.72 320 15:18 16.06.2022
1511 Clouds 20 1021 49 10000 8.75 320 13:49 16.06.2022
1512 Clouds 19 1020 52 10000 7.72 320 12:38 16.06.2022
1513 Clouds 18 1021 59 10000 6.69 310 11:55 16.06.2022
1514 Clouds 18 1021 59 10000 6.69 290 11:19 16.06.2022
1515 Clouds 18 1021 59 10000 6.69 290 10:34 16.06.2022
1516 Clouds 17 1020 72 10000 4.63 310 09:37 16.06.2022
1517 Clouds 15 1020 77 10000 4.12 310 08:50 16.06.2022
1518 Clouds 13 1020 88 10000 3.6 320 07:38 16.06.2022
1519 Clouds 10 1020 100 10000 1.54 290 05:43 16.06.2022
1520 Clouds 11 1019 87 3200 2.57 340 03:44 16.06.2022
1521 Clouds 12 1019 87 10000 1.03 270 01:52 16.06.2022
1522 Clouds 12 1019 87 10000 1.03 270 01:52 16.06.2022
1523 Clouds 11 1020 88 10000 2.8 322 01:22 16.06.2022
1524 Clouds 12 1019 87 10000 2.57 280 23:58 15.06.2022
1525 Clouds 13 1019 82 7000 3.6 300 22:53 15.06.2022
1526 Clouds 15 1019 72 4200 3.6 320 21:34 15.06.2022
1527 Clouds 16 1019 63 10000 5.66 330 20:58 15.06.2022
1528 Clouds 16 1019 63 10000 5.66 330 20:36 15.06.2022
1529 Clouds 17 1019 59 10000 5.66 330 19:52 15.06.2022
1530 Clouds 17 1019 55 1600 5.66 330 18:37 15.06.2022
1531 Clouds 18 1019 55 10000 4.12 320 17:46 15.06.2022
1532 Clouds 19 1020 52 10000 3.65 290 16:23 15.06.2022
1533 Clouds 17 1020 59 10000 1.54 310 14:57 15.06.2022
1534 Clouds 19 1020 54 10000 3.82 287 13:22 15.06.2022
1535 Clouds 16 1020 67 10000 2.57 310 12:47 15.06.2022
1536 Clouds 18 1020 57 10000 3.12 284 11:25 15.06.2022
1537 Clouds 17 1020 60 10000 3.21 285 10:22 15.06.2022
1538 Clouds 15 1020 82 10000 3.09 280 08:59 15.06.2022
1539 Clouds 12 1020 94 10000 3.6 270 07:43 15.06.2022
1540 Clouds 11 1020 93 10000 3.09 260 05:57 15.06.2022
1541 Clouds 12 1020 94 10000 3.09 250 02:55 15.06.2022
1542 Clouds 12 1020 94 10000 4.63 230 01:37 15.06.2022
1543 Clouds 11 1020 93 10000 3.09 250 00:37 15.06.2022
1544 Clouds 12 1020 87 10000 2.57 270 23:38 14.06.2022
1545 Clouds 13 1020 82 10000 3.6 260 22:48 14.06.2022
1546 Clouds 14 1020 82 10000 5.66 270 21:44 14.06.2022
1547 Clouds 15 1020 82 10000 3.38 263 21:21 14.06.2022
1548 Clouds 14 1020 82 10000 5.14 280 20:41 14.06.2022
1549 Clouds 15 1020 77 10000 6.17 270 19:58 14.06.2022
1550 Clouds 16 1020 77 10000 6.17 280 18:45 14.06.2022
1551 Clouds 18 1020 66 10000 5.81 275 17:29 14.06.2022
1552 Clouds 16 1021 77 10000 9.77 270 16:43 14.06.2022
1553 Clouds 17 1021 72 10000 9.77 270 15:49 14.06.2022
1554 Clouds 16 1021 77 10000 7.72 270 14:57 14.06.2022
1555 Clouds 16 1021 77 10000 6.69 290 14:19 14.06.2022
1556 Clouds 17 1021 58 10000 6.71 274 13:32 14.06.2022
1557 Clouds 17 1021 59 10000 6.24 279 12:27 14.06.2022
1558 Clouds 17 1021 61 10000 6.05 279 11:27 14.06.2022
1559 Clouds 15 1021 72 10000 8.75 290 10:35 14.06.2022
1560 Clouds 14 1021 77 10000 8.23 290 09:45 14.06.2022
1561 Clouds 13 1020 82 10000 5.66 270 08:41 14.06.2022
1562 Clouds 12 1020 76 10000 4.2 267 07:26 14.06.2022
1563 Clouds 12 1020 76 10000 4.2 267 07:26 14.06.2022
1564 Clouds 12 1020 76 10000 6.17 270 04:35 14.06.2022
1565 Clouds 12 1020 76 10000 6.69 270 02:45 14.06.2022
1566 Clouds 11 1020 89 10000 3.92 267 00:27 14.06.2022
1567 Clouds 13 1020 71 10000 8.23 290 23:18 13.06.2022
1568 Clouds 12 1020 78 10000 5.13 280 22:25 13.06.2022
1569 Clouds 13 1019 71 10000 9.26 290 21:48 13.06.2022
1570 Clouds 14 1019 74 10000 6.43 290 20:23 13.06.2022
1571 Clouds 14 1019 62 10000 10.29 300 19:34 13.06.2022
1572 Clouds 16 1018 59 10000 11.83 290 17:57 13.06.2022
1573 Clouds 16 1018 59 10000 11.83 290 17:38 13.06.2022
1574 Clouds 17 1018 55 10000 12.35 300 16:40 13.06.2022
1575 Clouds 15 1017 77 10000 9.77 300 15:37 13.06.2022
1576 Clouds 17 1017 63 10000 9.77 290 14:42 13.06.2022
1577 Clouds 14 1017 77 10000 11.32 320 13:46 13.06.2022
1578 Rain 17 1016 63 10000 9.26 290 12:47 13.06.2022
1579 Clouds 17 1016 70 10000 5.97 282 11:26 13.06.2022
1580 Clouds 15 1016 72 10000 5.81 276 10:27 13.06.2022
1581 Clouds 15 1016 72 10000 5.81 276 10:27 13.06.2022
1582 Clouds 13 1016 76 10000 4.63 10 09:38 13.06.2022
1583 Clouds 13 1016 82 10000 4.63 260 07:51 13.06.2022
1584 Clouds 10 1015 87 10000 5.66 210 05:49 13.06.2022
1585 Clouds 11 1016 87 10000 5.14 260 02:55 13.06.2022
1586 Clouds 12 1017 82 10000 4.63 260 01:37 13.06.2022
1587 Clouds 12 1017 95 10000 3.52 253 00:22 13.06.2022
1588 Clear 12 1017 95 10000 3.58 256 23:25 12.06.2022
1589 Clear 13 1018 90 10000 4.45 265 22:22 12.06.2022
1590 Clear 14 1018 83 10000 5.36 266 21:27 12.06.2022
1591 Clear 16 1017 72 10000 8.75 280 20:34 12.06.2022
1592 Clear 17 1017 63 10000 11.32 280 19:36 12.06.2022
1593 Clear 18 1018 59 10000 11.32 280 17:54 12.06.2022
1594 Clear 19 1018 59 10000 11.32 270 16:42 12.06.2022
1595 Clear 21 1018 58 10000 7.33 263 15:24 12.06.2022
1596 Clear 21 1018 58 10000 7.33 263 14:31 12.06.2022
1597 Clouds 20 1018 52 10000 10.8 250 13:55 12.06.2022
1598 Clouds 19 1018 59 10000 8.75 240 12:46 12.06.2022
1599 Clouds 18 1019 68 10000 7.72 260 11:47 12.06.2022
1600 Clouds 18 1019 72 10000 7.72 240 10:45 12.06.2022
1601 Clouds 16 1019 77 10000 6.22 225 09:25 12.06.2022
1602 Clouds 15 1019 82 10000 4.12 210 08:48 12.06.2022
1603 Clouds 13 1019 94 10000 5.14 200 07:40 12.06.2022
1604 Clouds 13 1019 82 10000 6.69 200 05:39 12.06.2022
1605 Clouds 11 1020 87 10000 5.14 200 03:38 12.06.2022
1606 Clouds 11 1020 87 10000 3.09 210 01:43 12.06.2022
1607 Clear 12 1020 94 10000 3.6 260 00:59 12.06.2022
1608 Clear 11 1021 93 10000 3.2 231 00:28 12.06.2022
1609 Clear 13 1020 82 10000 3.6 260 23:56 11.06.2022
1610 Clear 14 1021 77 10000 5.14 250 22:49 11.06.2022
1611 Clear 13 1021 92 10000 3.33 250 22:29 11.06.2022
1612 Clear 17 1020 59 10000 7.2 260 20:55 11.06.2022
1613 Clear 17 1021 73 10000 4.71 259 20:26 11.06.2022
1614 Clear 18 1020 59 10000 9.77 270 19:33 11.06.2022
1615 Clear 19 1020 52 10000 11.32 270 18:37 11.06.2022
1616 Clear 19 1020 52 10000 11.32 270 18:37 11.06.2022
1617 Clear 19 1020 55 10000 10.8 270 17:58 11.06.2022
1618 Clear 19 1020 55 10000 10.8 270 17:38 11.06.2022
1619 Clear 19 1020 59 10000 11.32 270 17:19 11.06.2022
1620 Clear 19 1020 59 10000 11.32 270 16:38 11.06.2022
1621 Clear 20 1020 52 10000 11.83 250 15:47 11.06.2022
1622 Clouds 21 1019 61 10000 8.03 260 14:23 11.06.2022
1623 Clouds 20 1019 68 10000 7.2 240 13:47 11.06.2022
1624 Clouds 19 1019 68 10000 8.75 270 11:36 11.06.2022
1625 Clear 20 1018 69 10000 7.04 236 10:30 11.06.2022
1626 Clouds 19 1018 68 10000 3.6 230 09:40 11.06.2022
1627 Clouds 16 1018 81 10000 4.75 222 08:21 11.06.2022
1628 Clouds 15 1018 88 10000 5.66 180 06:32 11.06.2022
1629 Clouds 12 1019 89 10000 2.48 212 05:26 11.06.2022
1630 Clouds 14 1019 94 10000 3.6 200 02:42 11.06.2022
1631 Clouds 13 1019 94 10000 3.6 210 01:41 11.06.2022
1632 Clouds 14 1019 94 10000 3.09 230 00:54 11.06.2022
1633 Clear 16 1019 88 10000 4.63 240 22:55 10.06.2022
1634 Clear 16 1019 95 10000 2.93 221 22:20 10.06.2022
1635 Clouds 17 1019 91 10000 3.42 232 21:22 10.06.2022
1636 Clouds 19 1019 72 10000 5.14 240 20:37 10.06.2022
1637 Clouds 19 1019 68 10000 6.17 250 20:19 10.06.2022
1638 Clouds 19 1019 72 10000 6.17 250 19:19 10.06.2022
1639 Clouds 18 1019 82 10000 4.5 236 18:29 10.06.2022
1640 Clouds 18 1019 72 10000 5.14 260 17:42 10.06.2022
1641 Clouds 19 1019 79 10000 5.09 235 17:21 10.06.2022
1642 Clouds 20 1019 71 10000 6.59 234 16:25 10.06.2022
1643 Clouds 20 1019 60 10000 6.17 240 15:37 10.06.2022
1644 Clouds 20 1019 60 10000 6.69 250 13:57 10.06.2022
1645 Clouds 19 1019 59 10000 9.26 260 12:51 10.06.2022
1646 Clouds 19 1019 52 10000 6.69 220 11:53 10.06.2022
1647 Clouds 19 1019 59 10000 4.12 240 10:45 10.06.2022
1648 Clouds 17 1019 72 10000 5.14 240 09:54 10.06.2022
1649 Clear 15 1019 82 10000 4.12 210 08:44 10.06.2022
1650 Clouds 14 1019 84 10000 4.26 230 07:30 10.06.2022
1651 Clouds 12 1019 94 10000 2.57 220 06:45 10.06.2022
1652 Clouds 12 1019 96 10000 2.77 236 06:26 10.06.2022
1653 Clouds 12 1018 87 10000 4.12 250 04:37 10.06.2022
1654 Clouds 13 1018 88 10000 8.23 270 01:42 10.06.2022
1655 Clouds 13 1017 88 10000 8.75 270 00:40 10.06.2022
1656 Clouds 13 1017 94 10000 8.75 270 23:49 09.06.2022
1657 Clouds 14 1016 92 10000 5.03 265 22:21 09.06.2022
1658 Clouds 14 1015 94 10000 8.23 280 21:37 09.06.2022
1659 Clouds 14 1015 94 10000 9.26 270 20:58 09.06.2022
1660 Clouds 14 1014 91 10000 5.32 269 20:26 09.06.2022
1661 Clouds 14 1014 90 10000 5.24 270 19:31 09.06.2022
1662 Clouds 14 1014 90 10000 5.24 270 19:31 09.06.2022
1663 Clouds 15 1013 88 10000 9.26 270 18:34 09.06.2022
1664 Clouds 17 1012 79 10000 6.07 256 17:25 09.06.2022
1665 Clouds 19 1011 73 10000 6.54 256 16:21 09.06.2022
1666 Clouds 18 1010 82 10000 5.66 260 14:42 09.06.2022
1667 Clouds 19 1010 78 10000 5.35 267 14:23 09.06.2022
1668 Clouds 18 1009 85 10000 5.48 263 13:29 09.06.2022
1669 Clouds 16 1009 94 10000 4.63 280 12:46 09.06.2022
1670 Clouds 15 1008 94 3800 4.12 280 11:19 09.06.2022
1671 Clouds 16 1007 94 7000 2.57 210 09:54 09.06.2022
1672 Clouds 16 1007 94 7000 2.57 210 09:36 09.06.2022
1673 Clouds 15 1006 93 10000 3.25 208 08:27 09.06.2022
1674 Clouds 15 1006 98 10000 3.53 201 07:23 09.06.2022
1675 Rain 14 1005 97 10000 1.34 172 03:29 09.06.2022
1676 Clouds 15 1006 98 10000 1.55 183 00:32 09.06.2022
1677 Clouds 15 1005 88 10000 4.12 120 22:59 08.06.2022
1678 Clouds 15 1006 96 10000 3.26 114 22:30 08.06.2022
1679 Clouds 16 1005 82 10000 4.12 120 21:59 08.06.2022
1680 Clouds 16 1006 94 10000 3.19 104 21:32 08.06.2022
1681 Clouds 17 1006 89 10000 3.81 110 20:25 08.06.2022
1682 Clouds 18 1005 72 10000 4.63 120 19:40 08.06.2022
1683 Clouds 19 1005 72 10000 1.03 140 18:48 08.06.2022
1684 Clouds 19 1006 72 10000 2.06 160 17:38 08.06.2022
1685 Clouds 19 1006 63 10000 3.09 180 15:53 08.06.2022
1686 Clouds 18 1007 63 10000 2.57 220 14:38 08.06.2022
1687 Clouds 17 1007 65 10000 4.03 227 12:55 08.06.2022
1688 Clouds 17 1007 65 10000 4.03 227 12:55 08.06.2022
1689 Clouds 17 1007 65 10000 4.03 227 12:55 08.06.2022
1690 Clouds 15 1007 77 10000 3.09 210 11:36 08.06.2022
1691 Clouds 15 1008 77 10000 3.6 240 10:51 08.06.2022
1692 Clouds 13 1008 81 10000 4.92 227 09:28 08.06.2022
1693 Clouds 13 1008 81 10000 4.92 227 08:54 08.06.2022
1694 Clouds 12 1008 93 10000 3.82 226 07:21 08.06.2022
1695 Clouds 12 1008 87 10000 8.23 250 04:47 08.06.2022
1696 Clouds 13 1008 96 10000 5.28 243 01:25 08.06.2022
1697 Clouds 12 1008 96 10000 5.09 244 23:32 07.06.2022
1698 Clouds 12 1008 82 10000 5.14 230 22:54 07.06.2022
1699 Clouds 12 1008 82 10000 5.14 230 22:34 07.06.2022
1700 Clouds 13 1008 82 10000 5.66 240 21:41 07.06.2022
1701 Clouds 12 1008 93 10000 5.63 235 21:20 07.06.2022
1702 Clouds 13 1008 82 10000 8.75 250 20:42 07.06.2022
1703 Clouds 13 1008 88 10000 8.75 250 19:57 07.06.2022
1704 Clouds 12 1007 87 10000 9.2 239 18:26 07.06.2022
1705 Clouds 13 1007 88 10000 8.23 220 17:36 07.06.2022
1706 Clouds 14 1007 77 10000 8.75 220 16:47 07.06.2022
1707 Clouds 13 1006 88 10000 9.26 226 16:28 07.06.2022
1708 Clouds 14 1007 77 10000 8.75 220 15:37 07.06.2022
1709 Clouds 13 1006 88 10000 8.23 200 15:18 07.06.2022
1710 Clouds 13 1006 88 10000 8.23 200 14:43 07.06.2022
1711 Rain 13 1006 88 10000 7.2 200 13:42 07.06.2022
1712 Rain 13 1006 88 10000 7.2 200 13:42 07.06.2022
1713 Clouds 13 1007 89 10000 9.6 205 13:23 07.06.2022
1714 Clouds 13 1007 88 10000 7.72 180 11:56 07.06.2022
1715 Clouds 14 1007 82 10000 9.26 170 10:57 07.06.2022
1716 Clouds 13 1008 92 10000 7.74 180 09:28 07.06.2022
1717 Rain 12 1008 93 10000 7.3 177 08:28 07.06.2022
1718 Clouds 12 1008 94 10000 6.17 160 07:19 07.06.2022
1719 Rain 11 1009 93 10000 5.66 160 05:19 07.06.2022
1720 Rain 12 1010 87 10000 4.12 210 01:43 07.06.2022
1721 Rain 13 1010 94 10000 5.66 180 23:59 06.06.2022
1722 Rain 13 1010 96 7751 5.92 208 23:25 06.06.2022
1723 Rain 14 1010 82 10000 5.66 180 22:37 06.06.2022
1724 Rain 14 1011 82 10000 5.14 200 21:33 06.06.2022
1725 Clouds 19 1010 59 10000 2.57 180 19:37 06.06.2022
1726 Clouds 20 1010 49 10000 4.12 200 19:19 06.06.2022
1727 Clouds 20 1010 49 10000 4.12 200 18:34 06.06.2022
1728 Clouds 19 1011 63 10000 5.66 230 17:36 06.06.2022
1729 Clouds 20 1011 56 10000 7.72 220 16:33 06.06.2022
1730 Clouds 18 1011 72 10000 5.66 240 15:39 06.06.2022
1731 Clouds 18 1011 68 10000 5.14 230 14:39 06.06.2022
1732 Clouds 18 1010 83 10000 8.08 203 13:27 06.06.2022
1733 Clouds 15 1010 94 10000 7.2 210 12:38 06.06.2022
1734 Clouds 17 1010 82 10000 6.17 200 12:19 06.06.2022
1735 Clouds 17 1010 82 10000 6.17 200 11:42 06.06.2022
1736 Clouds 16 1009 88 10000 5.14 180 09:41 06.06.2022
1737 Rain 15 1008 100 5000 6.17 160 08:35 06.06.2022
1738 Rain 15 1008 94 10000 6.17 120 07:40 06.06.2022
1739 Rain 14 1009 100 10000 6.17 110 05:34 06.06.2022
1740 Rain 14 1011 94 5000 4.12 110 03:47 06.06.2022
1741 Clouds 15 1013 79 10000 5.47 93 01:30 06.06.2022
1742 Clouds 15 1013 72 10000 5.14 100 00:43 06.06.2022
1743 Clouds 16 1014 67 10000 4.12 100 00:19 06.06.2022
1744 Clouds 16 1014 72 10000 4.12 90 22:57 05.06.2022
1745 Clouds 16 1015 72 10000 2.57 90 21:33 05.06.2022
1746 Clouds 18 1016 76 10000 3.87 81 20:23 05.06.2022
1747 Clouds 18 1016 52 10000 3.6 110 18:47 05.06.2022
1748 Clouds 19 1016 52 10000 3.09 100 17:57 05.06.2022
1749 Clouds 19 1016 52 10000 3.09 100 17:38 05.06.2022
1750 Clouds 19 1017 52 10000 4.63 110 17:19 05.06.2022
1751 Clouds 19 1017 52 10000 4.63 110 16:46 05.06.2022
1752 Clouds 19 1018 59 10000 4.12 90 14:59 05.06.2022
1753 Clouds 19 1019 59 10000 5.66 90 13:55 05.06.2022
1754 Clouds 19 1020 68 10000 3.09 90 11:58 05.06.2022
1755 Clouds 17 1020 77 10000 2.57 80 10:45 05.06.2022
1756 Clouds 18 1021 62 10000 2.7 121 10:24 05.06.2022
1757 Clouds 16 1021 67 10000 2.19 122 09:21 05.06.2022
1758 Clear 13 1021 75 10000 1.66 121 08:22 05.06.2022
1759 Clear 7 1021 100 1800 3.09 70 05:58 05.06.2022
1760 Clear 9 1022 90 10000 1.42 120 05:19 05.06.2022
1761 Clear 8 1023 92 10000 0.62 55 02:23 05.06.2022
1762 Clear 9 1023 91 10000 0.64 59 01:23 05.06.2022
1763 Clear 9 1023 91 10000 0.64 59 01:23 05.06.2022
1764 Clear 13 1023 88 10000 1.54 210 22:49 04.06.2022
1765 Clear 16 1023 85 10000 1.62 342 21:25 04.06.2022
1766 Clouds 19 1022 67 10000 3.26 323 19:26 04.06.2022
1767 Clear 18 1022 55 10000 1.54 20 16:48 04.06.2022
1768 Clear 17 1022 57 10000 2.33 338 16:20 04.06.2022
1769 Clear 20 1022 57 10000 2.33 338 15:35 04.06.2022
1770 Clouds 16 1023 63 10000 1.03 350 13:59 04.06.2022
1771 Clear 13 1023 76 10000 0.51 300 11:41 04.06.2022
1772 Clear 12 1023 71 10000 1.03 0 10:54 04.06.2022
1773 Clouds 12 1022 76 10000 2.06 360 09:56 04.06.2022
1774 Clear 12 1023 76 10000 2.46 346 09:38 04.06.2022
1775 Clear 11 1022 82 10000 3.09 340 08:38 04.06.2022
1776 Clear 11 1022 82 10000 4.63 340 06:32 04.06.2022
1777 Clouds 9 1022 87 10000 3.6 340 03:57 04.06.2022
1778 Clouds 8 1022 95 10000 3.21 347 00:22 04.06.2022
1779 Clouds 11 1021 82 10000 4.12 310 23:19 03.06.2022
1780 Clouds 13 1021 76 10000 5.66 320 21:54 03.06.2022
1781 Clouds 15 1020 67 10000 5.66 310 20:40 03.06.2022
1782 Clear 16 1020 59 10000 5.66 310 19:49 03.06.2022
1783 Clear 18 1020 55 10000 6.17 330 16:59 03.06.2022
1784 Clear 19 1021 56 10000 4.49 316 16:30 03.06.2022
1785 Clear 18 1021 55 10000 4.12 300 14:47 03.06.2022
1786 Clouds 15 1021 59 10000 2.6 271 12:26 03.06.2022
1787 Clouds 14 1021 71 10000 3.6 300 10:18 03.06.2022
1788 Clouds 15 1021 77 10000 2.48 291 09:29 03.06.2022
1789 Clouds 11 1021 82 10000 5.66 310 07:53 03.06.2022
1790 Clouds 11 1022 91 10000 2.27 273 07:20 03.06.2022
1791 Clouds 10 1022 91 10000 2.27 273 06:30 03.06.2022
1792 Clouds 10 1021 87 10000 5.66 290 04:40 03.06.2022
1793 Clouds 11 1021 96 10000 3.29 260 00:22 03.06.2022
1794 Clouds 12 1021 76 10000 7.2 260 22:35 02.06.2022
1795 Clouds 12 1020 87 10000 4.23 272 21:29 02.06.2022
1796 Clouds 13 1020 80 10000 4.98 278 20:22 02.06.2022
1797 Clouds 13 1020 76 10000 6.69 300 19:41 02.06.2022
1798 Clouds 13 1020 71 10000 9.77 290 19:18 02.06.2022
1799 Clouds 14 1019 72 10000 9.26 280 16:46 02.06.2022
1800 Clouds 13 1019 69 10000 7.85 281 16:20 02.06.2022
1801 Clouds 12 1018 82 10000 10.29 290 13:47 02.06.2022
1802 Clouds 13 1018 75 10000 7.77 278 13:26 02.06.2022
1803 Clouds 12 1017 87 10000 7.72 270 11:18 02.06.2022
1804 Clouds 12 1016 87 10000 7.72 270 10:19 02.06.2022
1805 Clouds 11 1016 91 10000 6.07 283 09:27 02.06.2022
1806 Clouds 11 1016 92 10000 5.73 278 08:26 02.06.2022
1807 Clouds 11 1015 93 10000 8.75 270 06:59 02.06.2022
1808 Clouds 10 1015 93 10000 4.63 240 04:40 02.06.2022
1809 Clouds 7 1015 95 10000 3.64 245 02:30 02.06.2022
1810 Clouds 9 1014 81 10000 5.14 280 23:43 01.06.2022
1811 Clouds 9 1014 81 10000 5.14 280 23:43 01.06.2022
1812 Clouds 9 1014 81 10000 5.14 280 23:43 01.06.2022
1813 Clouds 9 1014 81 10000 5.14 280 23:43 01.06.2022
1814 Clouds 9 1014 81 10000 5.14 280 23:43 01.06.2022
1815 Clouds 9 1014 81 10000 5.14 280 23:43 01.06.2022
1816 Clouds 9 1014 81 10000 5.14 280 23:43 01.06.2022
1817 Clouds 11 1014 83 10000 3.29 296 22:23 01.06.2022
1818 Clouds 12 1014 71 10000 6.69 300 21:32 01.06.2022
1819 Clouds 13 1013 67 10000 6.69 310 20:40 01.06.2022
1820 Clouds 15 1013 55 10000 8.75 300 19:59 01.06.2022
1821 Clouds 15 1013 55 10000 7.2 300 19:19 01.06.2022
1822 Clouds 15 1013 58 10000 3.6 260 17:44 01.06.2022
1823 Clouds 14 1013 67 10000 2.57 210 16:34 01.06.2022
1824 Clouds 14 1012 67 10000 3.6 140 14:53 01.06.2022
1825 Clouds 13 1012 87 10000 3.6 110 13:51 01.06.2022
1826 Clouds 16 1012 68 10000 1.68 27 12:26 01.06.2022
1827 Clouds 13 1012 82 10000 2.57 30 09:41 01.06.2022
1828 Clouds 12 1012 87 10000 2.06 30 08:40 01.06.2022
1829 Clouds 9 1013 87 10000 1.29 5 07:22 01.06.2022
1830 Clouds 7 1012 100 10000 1.54 30 05:52 01.06.2022
1831 Clouds 7 1013 100 10000 1.03 280 00:40 01.06.2022
1832 Clouds 8 1014 90 10000 2.04 34 23:30 31.05.2022
1833 Clouds 9 1013 93 10000 0 0 22:37 31.05.2022
1834 Clouds 11 1013 82 10000 1.03 160 21:46 31.05.2022
1835 Clouds 12 1013 82 10000 1.54 130 20:45 31.05.2022
1836 Clouds 12 1013 75 10000 2.83 344 20:20 31.05.2022
1837 Clouds 14 1013 62 10000 3.6 360 18:53 31.05.2022
1838 Clouds 14 1013 67 10000 2.06 330 17:50 31.05.2022
1839 Rain 15 1013 55 10000 2.57 260 17:18 31.05.2022
1840 Clouds 16 1013 58 10000 3.09 280 15:41 31.05.2022
1841 Clouds 15 1014 51 10000 1.03 310 14:18 31.05.2022
1842 Clouds 17 1014 63 10000 0.78 255 12:21 31.05.2022
1843 Clouds 14 1014 66 10000 1.05 290 11:23 31.05.2022
1844 Clouds 12 1015 68 10000 1.59 296 09:31 31.05.2022
1845 Clouds 9 1015 84 10000 2.06 275 07:28 31.05.2022
1846 Clouds 6 1015 88 10000 2.39 273 05:23 31.05.2022
1847 Clouds 10 1014 81 10000 4.63 290 01:41 31.05.2022
1848 Clouds 10 1015 82 10000 2.85 286 23:29 30.05.2022
1849 Clouds 11 1014 76 10000 2.57 290 22:57 30.05.2022
1850 Clouds 11 1014 82 10000 2.85 291 22:21 30.05.2022
1851 Clouds 12 1013 71 10000 2.57 320 21:34 30.05.2022
1852 Clouds 12 1013 82 10000 2.65 320 20:22 30.05.2022
1853 Clouds 12 1013 66 10000 3.6 330 18:58 30.05.2022
1854 Clouds 12 1013 66 10000 4.63 320 17:41 30.05.2022
1855 Clouds 12 1012 71 10000 4.63 320 16:45 30.05.2022
1856 Clouds 13 1012 65 10000 1.62 321 15:22 30.05.2022
1857 Clouds 13 1011 71 10000 5.66 270 12:44 30.05.2022
1858 Clouds 11 1011 66 10000 1.03 260 10:57 30.05.2022
1859 Clouds 11 1011 76 10000 0.51 0 09:39 30.05.2022
1860 Clouds 9 1011 75 10000 0.89 322 07:24 30.05.2022
1861 Clouds 8 1010 93 10000 0.51 160 05:51 30.05.2022
1862 Clouds 7 1010 87 10000 3.09 300 02:36 30.05.2022
1863 Clouds 8 1011 83 10000 3.69 313 23:28 29.05.2022
1864 Clouds 10 1010 71 10000 5.66 310 22:39 29.05.2022
1865 Clouds 11 1010 78 10000 4.49 316 21:31 29.05.2022
1866 Clouds 13 1009 62 10000 8.75 300 19:57 29.05.2022
1867 Clouds 13 1009 78 10000 5.02 311 19:27 29.05.2022
1868 Clouds 15 1008 67 10000 9.77 310 17:48 29.05.2022
1869 Clouds 16 1008 63 10000 4.63 280 15:50 29.05.2022
1870 Clouds 18 1008 77 10000 4.23 298 15:32 29.05.2022
1871 Clouds 16 1009 55 10000 2.57 260 14:44 29.05.2022
1872 Clouds 15 1009 70 10000 2.24 284 12:21 29.05.2022
1873 Clouds 14 1009 71 10000 1.54 250 10:45 29.05.2022
1874 Clouds 12 1009 76 10000 2.57 330 09:54 29.05.2022
1875 Clouds 10 1009 93 10000 2.57 280 07:42 29.05.2022
1876 Clouds 8 1010 93 10000 2.57 260 04:51 29.05.2022
1877 Clouds 8 1010 97 10000 2.77 293 04:31 29.05.2022
1878 Clouds 9 1011 93 10000 5.66 280 00:53 29.05.2022
1879 Clouds 10 1011 87 10000 6.17 290 23:47 28.05.2022
1880 Clouds 10 1011 87 10000 5.66 300 23:18 28.05.2022
1881 Clouds 11 1011 82 10000 7.72 300 21:46 28.05.2022
1882 Clouds 11 1011 87 10000 8.23 300 20:46 28.05.2022
1883 Clouds 12 1012 82 10000 10.29 300 19:19 28.05.2022
1884 Clouds 12 1012 76 10000 8.86 299 18:21 28.05.2022
1885 Clouds 13 1012 76 10000 8.86 299 17:32 28.05.2022
1886 Clouds 12 1012 76 10000 12.86 300 15:49 28.05.2022
1887 Clouds 13 1012 74 10000 9.55 302 15:20 28.05.2022
1888 Clouds 13 1012 75 10000 9.71 300 13:29 28.05.2022
1889 Clouds 12 1011 71 10000 13.38 320 12:42 28.05.2022
1890 Clouds 12 1011 71 10000 13.38 310 11:37 28.05.2022
1891 Clouds 12 1011 71 10000 13.38 320 10:38 28.05.2022
1892 Clouds 11 1011 76 10000 13.38 310 09:54 28.05.2022
1893 Clouds 10 1011 77 10000 9.67 308 08:24 28.05.2022
1894 Clouds 10 1010 76 10000 11.83 310 06:34 28.05.2022
1895 Clouds 9 1009 81 10000 10.29 300 04:46 28.05.2022
1896 Clouds 8 1011 77 10000 8.23 292 02:26 28.05.2022
1897 Rain 10 1011 81 10000 11.32 300 23:57 27.05.2022
1898 Clear 10 1011 81 10000 13.38 290 22:38 27.05.2022
1899 Rain 9 1012 70 10000 8.89 284 21:28 27.05.2022
1900 Clear 11 1011 76 10000 13.38 290 20:44 27.05.2022
1901 Clouds 11 1011 82 10000 11.32 290 20:19 27.05.2022
1902 Clouds 11 1011 82 10000 11.32 290 19:38 27.05.2022
1903 Clouds 9 1012 87 5000 13.38 300 19:19 27.05.2022
1904 Clouds 12 1011 69 10000 10.02 284 17:24 27.05.2022
1905 Clouds 13 1011 71 10000 14.4 300 15:57 27.05.2022
1906 Clouds 11 1011 87 10000 13.89 280 14:57 27.05.2022
1907 Rain 12 1011 71 4700 18.52 280 13:41 27.05.2022
1908 Clouds 12 1011 79 10000 9.88 277 12:20 27.05.2022
1909 Rain 13 1011 79 10000 9.88 277 11:31 27.05.2022
1910 Clouds 13 1010 62 10000 15.95 270 10:43 27.05.2022
1911 Clouds 13 1011 67 10000 14.92 280 09:59 27.05.2022
1912 Clouds 13 1011 73 10000 9.28 275 09:31 27.05.2022
1913 Clear 12 1011 78 10000 7.83 273 07:40 27.05.2022
1914 Clear 10 1011 87 10000 5.14 275 05:25 27.05.2022
1915 Clouds 12 1010 94 10000 9.26 250 01:44 27.05.2022
1916 Rain 11 1012 96 10000 5.48 243 23:31 26.05.2022
1917 Rain 11 1013 94 10000 5 246 22:28 26.05.2022
1918 Rain 13 1013 95 10000 4.71 245 21:32 26.05.2022
1919 Rain 14 1014 67 10000 11.83 270 19:39 26.05.2022
1920 Clouds 14 1014 67 10000 12.35 270 18:52 26.05.2022
1921 Clouds 15 1014 63 10000 14.4 280 17:36 26.05.2022
1922 Clouds 16 1014 63 10000 8.88 270 16:31 26.05.2022
1923 Clouds 15 1014 58 10000 14.92 280 15:34 26.05.2022
1924 Clouds 16 1014 58 10000 10.23 267 14:21 26.05.2022
1925 Clear 17 1014 60 10000 9.65 269 12:20 26.05.2022
1926 Clouds 15 1012 72 10000 14.92 290 11:21 26.05.2022
1927 Clouds 14 1012 72 10000 13.38 280 09:40 26.05.2022
1928 Clear 13 1011 76 10000 13.38 280 08:57 26.05.2022
1929 Clouds 13 1011 82 10000 10.8 270 07:38 26.05.2022
1930 Clouds 13 1009 94 10000 9.77 260 02:59 26.05.2022
1931 Rain 13 1009 95 10000 7.43 237 00:21 26.05.2022
1932 Rain 12 1009 95 10000 6.76 224 23:22 25.05.2022
1933 Rain 14 1010 72 10000 6.17 240 21:47 25.05.2022
1934 Rain 14 1010 74 10000 6.53 234 21:28 25.05.2022
1935 Clouds 14 1011 72 10000 5.66 230 19:59 25.05.2022
1936 Clouds 15 1010 71 10000 6.06 242 19:21 25.05.2022
1937 Clouds 14 1011 67 10000 6.17 210 17:33 25.05.2022
1938 Clouds 15 1011 72 10000 8.75 230 16:36 25.05.2022
1939 Clouds 17 1011 51 10000 8.75 250 15:53 25.05.2022
1940 Clouds 17 1011 55 10000 10.29 250 14:51 25.05.2022
1941 Clouds 18 1011 56 10000 7.75 243 14:32 25.05.2022
1942 Clouds 16 1011 59 10000 8.23 250 13:42 25.05.2022
1943 Clouds 16 1011 59 10000 7.2 240 12:36 25.05.2022
1944 Clouds 16 1011 67 10000 6.54 232 10:43 25.05.2022
1945 Clouds 13 1010 87 10000 5.66 200 09:54 25.05.2022
1946 Clouds 14 1011 75 10000 4.79 229 08:23 25.05.2022
1947 Clouds 11 1010 87 10000 3.17 220 07:22 25.05.2022
1948 Clouds 10 1009 90 10000 4.47 239 03:22 25.05.2022
1949 Clouds 12 1007 82 10000 5.14 240 23:56 24.05.2022
1950 Clouds 12 1008 87 10000 5.82 244 23:31 24.05.2022
1951 Clouds 12 1007 83 10000 6.07 232 22:21 24.05.2022
1952 Clouds 13 1006 76 10000 7.2 240 21:40 24.05.2022
1953 Clouds 13 1006 81 10000 6.14 237 21:20 24.05.2022
1954 Clouds 14 1005 72 10000 10.8 250 19:45 24.05.2022
1955 Clouds 15 1004 67 10000 10.29 250 18:54 24.05.2022
1956 Clouds 15 1003 77 10000 7.2 240 16:45 24.05.2022
1957 Clouds 15 1002 74 10000 7.45 244 16:23 24.05.2022
1958 Clouds 16 1002 72 10000 7.2 240 14:58 24.05.2022
1959 Clouds 17 1001 90 10000 6.92 227 14:21 24.05.2022
1960 Rain 15 1001 77 10000 5.66 240 12:50 24.05.2022
1961 Clouds 14 1000 82 10000 4.63 230 11:33 24.05.2022
1962 Clouds 14 999 82 10000 5.66 250 09:45 24.05.2022
1963 Clouds 13 998 88 10000 8.23 250 08:50 24.05.2022
1964 Clouds 13 996 94 10000 10.8 260 06:57 24.05.2022
1965 Rain 14 996 96 10000 7.45 258 04:30 24.05.2022
1966 Rain 13 996 94 10000 6.17 120 02:37 24.05.2022
1967 Rain 14 997 88 8000 5.66 130 01:42 24.05.2022
1968 Clouds 15 997 77 10000 7.2 120 23:33 23.05.2022
1969 Clouds 16 999 72 10000 6.69 110 21:59 23.05.2022
1970 Clouds 16 999 72 10000 6.69 110 21:41 23.05.2022
1971 Clouds 16 999 72 10000 6.69 110 20:42 23.05.2022
1972 Clouds 18 1000 63 10000 7.72 120 19:33 23.05.2022
1973 Clouds 19 1001 59 10000 6.17 120 18:59 23.05.2022
1974 Clouds 19 1001 59 10000 6.17 120 18:35 23.05.2022
1975 Clouds 20 1002 56 10000 8.23 120 17:38 23.05.2022
1976 Clouds 21 1004 52 10000 7.72 120 15:47 23.05.2022
1977 Clouds 20 1005 56 10000 6.17 140 13:44 23.05.2022
1978 Clouds 19 1007 48 10000 5.66 150 11:36 23.05.2022
1979 Clouds 18 1008 52 10000 6.17 150 10:43 23.05.2022
1980 Clouds 17 1008 55 10000 5.66 140 09:40 23.05.2022
1981 Clouds 15 1009 67 10000 4.63 140 08:38 23.05.2022
1982 Clouds 11 1010 82 10000 5.14 140 06:47 23.05.2022
1983 Clouds 9 1010 86 10000 3.87 134 06:24 23.05.2022
1984 Clouds 10 1012 93 10000 4.63 160 02:36 23.05.2022
1985 Clouds 9 1012 93 10000 4.12 160 01:48 23.05.2022
1986 Clouds 10 1013 93 10000 1.03 20 01:19 23.05.2022
1987 Clouds 11 1013 87 10000 1.54 340 22:48 22.05.2022
1988 Clouds 12 1014 85 10000 1.22 321 22:21 22.05.2022
1989 Clouds 14 1014 72 10000 3.09 260 21:50 22.05.2022
1990 Clouds 16 1014 63 10000 2.06 280 20:43 22.05.2022
1991 Clouds 16 1015 77 10000 2.61 272 20:20 22.05.2022
1992 Clouds 17 1014 55 10000 2.57 280 19:19 22.05.2022
1993 Clouds 17 1014 55 10000 2.57 280 18:46 22.05.2022
1994 Clouds 17 1015 59 10000 2.9 275 18:21 22.05.2022
1995 Clouds 18 1014 48 10000 3.6 300 16:51 22.05.2022
1996 Clouds 16 1015 55 10000 3.86 281 15:25 22.05.2022
1997 Clouds 17 1015 51 10000 4.63 280 14:44 22.05.2022
1998 Clouds 16 1016 63 10000 5.66 290 12:55 22.05.2022
1999 Clouds 16 1016 63 10000 5.66 290 12:33 22.05.2022
2000 Clouds 14 1016 72 10000 5.14 270 10:53 22.05.2022
2001 Clouds 13 1016 68 10000 3.81 277 09:31 22.05.2022
2002 Clouds 12 1016 87 10000 4.63 270 07:52 22.05.2022
2003 Clouds 11 1017 94 10000 2.58 267 07:20 22.05.2022
2004 Clouds 11 1016 97 10000 2.65 277 04:30 22.05.2022
2005 Clouds 11 1017 97 10000 3.63 273 01:20 22.05.2022
2006 Clouds 12 1017 87 10000 8.23 280 23:57 21.05.2022
2007 Clouds 12 1017 97 10000 4.06 274 23:32 21.05.2022
2008 Clouds 12 1017 96 10000 4.68 276 22:22 21.05.2022
2009 Clouds 12 1016 94 10000 9.26 280 21:39 21.05.2022
2010 Clouds 13 1016 88 10000 8.75 290 20:48 21.05.2022
2011 Clouds 12 1016 94 10000 11.32 280 20:19 21.05.2022
2012 Clouds 12 1016 89 10000 6.7 284 19:24 21.05.2022
2013 Clouds 14 1015 77 10000 13.38 280 17:38 21.05.2022
2014 Clouds 15 1014 72 10000 13.38 280 15:38 21.05.2022
2015 Clouds 15 1014 72 10000 14.4 280 14:37 21.05.2022
2016 Clouds 14 1013 82 10000 12.35 270 13:39 21.05.2022
2017 Clouds 15 1013 77 10000 12.86 290 12:40 21.05.2022
2018 Clouds 15 1012 77 10000 10.29 280 11:54 21.05.2022
2019 Clouds 14 1012 82 10000 6.66 279 10:22 21.05.2022
2020 Clouds 13 1011 94 10000 5.14 280 09:38 21.05.2022
2021 Rain 13 1011 88 10000 6.17 260 08:52 21.05.2022
2022 Clouds 11 1012 94 10000 4.32 269 06:28 21.05.2022
2023 Clouds 10 1012 96 10000 3.36 303 02:26 21.05.2022
2024 Rain 13 1010 94 10000 1.54 300 23:50 20.05.2022
2025 Rain 13 1010 94 10000 2.06 100 22:42 20.05.2022
2026 Rain 13 1010 94 10000 2.06 100 22:42 20.05.2022
2027 Rain 14 1010 95 4002 2.76 9 22:23 20.05.2022
2028 Rain 14 1010 82 10000 2.57 70 21:40 20.05.2022
2029 Rain 14 1011 77 10000 3.6 100 20:54 20.05.2022
2030 Rain 16 1012 67 10000 2.57 110 19:57 20.05.2022
2031 Clouds 17 1011 75 10000 3.84 76 19:26 20.05.2022
2032 Clouds 16 1013 63 10000 3.09 100 18:36 20.05.2022
2033 Clouds 17 1015 55 10000 1.54 350 16:53 20.05.2022
2034 Clouds 17 1016 59 10000 1.54 270 16:19 20.05.2022
2035 Clouds 17 1016 59 10000 1.54 270 15:44 20.05.2022
2036 Clouds 18 1017 59 10000 2.7 261 14:30 20.05.2022
2037 Clouds 17 1018 63 10000 3.6 260 13:55 20.05.2022
2038 Clouds 15 1019 72 10000 5.14 300 11:33 20.05.2022
2039 Clouds 13 1019 82 10000 7.2 290 09:52 20.05.2022
2040 Clouds 13 1019 82 10000 6.17 310 08:44 20.05.2022
2041 Clouds 14 1018 88 10000 7.72 300 06:50 20.05.2022
2042 Clouds 14 1019 96 10000 3.75 285 06:31 20.05.2022
2043 Clouds 13 1018 95 10000 4.59 297 04:31 20.05.2022
2044 Clouds 16 1016 94 10000 4.63 270 00:48 20.05.2022
2045 Clouds 17 1016 94 10000 5.66 290 22:47 19.05.2022
2046 Clouds 17 1015 88 10000 0.51 340 22:19 19.05.2022
2047 Clouds 17 1015 88 10000 0.51 340 21:42 19.05.2022
2048 Clouds 19 1015 93 10000 2.08 244 21:22 19.05.2022
2049 Clouds 18 1014 82 10000 0.51 330 20:34 19.05.2022
2050 Clouds 18 1015 88 10000 1.54 150 19:50 19.05.2022
2051 Clouds 21 1016 86 8273 4.67 258 18:22 19.05.2022
2052 Rain 21 1016 64 10000 2.06 80 16:51 19.05.2022
2053 Clouds 20 1016 68 10000 3.09 40 15:19 19.05.2022
2054 Clouds 19 1017 85 10000 2.31 20 14:25 19.05.2022
2055 Clouds 20 1017 77 10000 3.14 258 13:23 19.05.2022
2056 Clouds 20 1017 78 10000 4.12 350 11:41 19.05.2022
2057 Clouds 19 1017 80 10000 1.4 148 09:29 19.05.2022
2058 Clouds 15 1018 100 3500 1.54 150 07:52 19.05.2022
2059 Clouds 14 1018 94 2400 2.06 260 06:18 19.05.2022
2060 Clouds 14 1018 94 2400 2.06 260 06:18 19.05.2022
2061 Clouds 15 1019 88 10000 2.61 249 02:27 19.05.2022
2062 Clouds 15 1018 94 10000 0.51 110 00:40 19.05.2022
2063 Clouds 16 1019 88 10000 0.51 0 22:53 18.05.2022
2064 Clouds 17 1019 88 10000 0.51 0 22:35 18.05.2022
2065 Clouds 21 1020 88 10000 2.23 238 21:31 18.05.2022
2066 Clouds 17 1019 82 10000 1.03 140 20:54 18.05.2022
2067 Clouds 19 1019 77 10000 1.54 0 20:19 18.05.2022
2068 Clouds 24 1020 78 10000 2.55 232 18:43 18.05.2022
2069 Clouds 21 1020 68 10000 1.54 90 17:41 18.05.2022
2070 Clouds 24 1020 67 10000 4.2 192 17:23 18.05.2022
2071 Clouds 22 1020 60 10000 4.63 100 16:35 18.05.2022
2072 Clouds 21 1021 60 10000 3.6 100 15:42 18.05.2022
2073 Clouds 21 1021 60 10000 4.12 80 14:54 18.05.2022
2074 Clouds 21 1021 60 10000 3.09 90 13:48 18.05.2022
2075 Clouds 21 1022 60 10000 5.14 140 12:53 18.05.2022
2076 Clouds 19 1022 59 10000 3.6 130 11:41 18.05.2022
2077 Clouds 19 1022 71 10000 5.23 149 11:23 18.05.2022
2078 Clouds 16 1022 63 10000 4.63 130 09:59 18.05.2022
2079 Clouds 12 1022 66 10000 4.63 120 07:56 18.05.2022
2080 Clouds 11 1023 66 10000 4.63 120 06:50 18.05.2022
2081 Clouds 13 1023 54 10000 6.17 130 02:47 18.05.2022
2082 Clouds 13 1023 67 10000 6.73 114 00:31 18.05.2022
2083 Clouds 13 1022 67 10000 4.63 120 22:59 17.05.2022
2084 Clouds 14 1023 76 10000 5.74 100 21:21 17.05.2022
2085 Clouds 14 1023 76 10000 5.74 100 21:21 17.05.2022
2086 Clouds 15 1022 55 10000 5.66 120 20:38 17.05.2022
2087 Clouds 16 1022 75 10000 5.46 94 19:29 17.05.2022
2088 Clouds 17 1022 68 10000 6.09 97 18:22 17.05.2022
2089 Clouds 17 1022 68 10000 6.09 97 17:31 17.05.2022
2090 Clouds 17 1021 63 10000 3.6 100 16:53 17.05.2022
2091 Clouds 16 1021 67 10000 4.12 110 15:45 17.05.2022
2092 Clouds 16 1021 67 10000 2.06 110 14:52 17.05.2022
2093 Clouds 16 1022 65 10000 5.49 93 14:28 17.05.2022
2094 Clouds 14 1021 67 10000 3.6 100 12:37 17.05.2022
2095 Rain 14 1021 81 10000 4.27 96 10:23 17.05.2022
2096 Rain 12 1020 94 10000 2.57 100 08:51 17.05.2022
2097 Rain 12 1019 94 10000 1.03 0 07:46 17.05.2022
2098 Rain 12 1019 97 10000 4.25 86 06:21 17.05.2022
2099 Rain 13 1018 71 10000 3.09 90 00:47 17.05.2022
2100 Clouds 14 1018 62 10000 4.12 100 23:43 16.05.2022
2101 Clouds 14 1018 58 10000 4.12 120 22:33 16.05.2022
2102 Clouds 15 1018 63 10000 5.66 110 21:18 16.05.2022
2103 Clouds 15 1018 63 10000 5.66 110 20:37 16.05.2022
2104 Clouds 17 1018 59 10000 6.17 100 18:51 16.05.2022
2105 Clouds 17 1018 55 10000 6.17 110 17:18 16.05.2022
2106 Clouds 17 1018 55 10000 6.17 110 17:18 16.05.2022
2107 Clouds 17 1019 59 10000 5.66 90 15:35 16.05.2022
2108 Clouds 17 1019 55 10000 5.14 100 13:48 16.05.2022
2109 Clouds 17 1019 63 10000 6.69 110 12:41 16.05.2022
2110 Clouds 16 1020 67 10000 4.12 100 10:37 16.05.2022
2111 Clouds 13 1020 74 10000 4.96 98 08:32 16.05.2022
2112 Clouds 9 1020 86 10000 2.88 111 06:30 16.05.2022
2113 Clouds 8 1020 93 10000 3.09 140 01:43 16.05.2022
2114 Clouds 11 1021 82 10000 3.6 160 22:45 15.05.2022
2115 Clouds 12 1021 86 10000 1.41 119 22:20 15.05.2022
2116 Clouds 13 1021 71 10000 3.6 150 21:37 15.05.2022
2117 Clouds 15 1020 63 10000 3.09 140 20:53 15.05.2022
2118 Clouds 17 1020 59 10000 4.12 100 18:52 15.05.2022
2119 Clouds 19 1021 59 10000 1.83 11 17:29 15.05.2022
2120 Clouds 17 1022 51 10000 1.54 270 14:58 15.05.2022
2121 Clouds 16 1022 55 10000 0.51 340 13:47 15.05.2022
2122 Clouds 17 1022 62 10000 1.87 298 12:21 15.05.2022
2123 Clouds 17 1023 66 10000 1.82 294 11:29 15.05.2022
2124 Clouds 11 1023 82 10000 2.57 280 09:58 15.05.2022
2125 Clouds 8 1022 91 10000 1.6 275 07:25 15.05.2022
2126 Clouds 8 1022 93 650 2.57 320 06:56 15.05.2022
2127 Clouds 5 1022 93 10000 1.97 282 04:26 15.05.2022
2128 Clear 9 1021 87 10000 3.6 290 00:47 15.05.2022
2129 Clouds 10 1021 87 10000 4.63 270 23:38 14.05.2022
2130 Clear 11 1021 82 10000 5.66 290 22:41 14.05.2022
2131 Clear 12 1021 82 10000 3.07 287 21:27 14.05.2022
2132 Clear 13 1021 82 10000 3.07 287 20:30 14.05.2022
2133 Clouds 14 1020 67 10000 5.28 304 19:21 14.05.2022
2134 Clouds 15 1020 58 10000 10.8 300 18:59 14.05.2022
2135 Clouds 15 1019 58 10000 11.32 300 17:54 14.05.2022
2136 Clouds 16 1019 59 10000 7.39 304 16:32 14.05.2022
2137 Clouds 15 1019 63 10000 11.83 290 14:56 14.05.2022
2138 Clouds 16 1019 58 10000 8.27 298 14:30 14.05.2022
2139 Clouds 15 1017 67 10000 10.29 290 12:18 14.05.2022
2140 Clouds 14 1017 72 10000 9.26 290 10:53 14.05.2022
2141 Clouds 15 1017 72 10000 6.87 291 10:20 14.05.2022
2142 Clouds 13 1016 82 10000 8.23 290 09:51 14.05.2022
2143 Clouds 12 1016 85 10000 5.66 278 08:22 14.05.2022
2144 Clouds 12 1014 87 10000 6.36 268 05:26 14.05.2022
2145 Clouds 12 1014 76 10000 10.29 260 01:57 14.05.2022
2146 Clouds 12 1014 86 10000 7 247 23:32 13.05.2022
2147 Clouds 12 1015 82 10000 9.26 250 22:57 13.05.2022
2148 Clouds 12 1015 88 10000 6.57 247 22:23 13.05.2022
2149 Clouds 12 1015 82 10000 9.77 260 21:38 13.05.2022
2150 Clouds 12 1014 82 10000 10.29 270 20:44 13.05.2022
2151 Clouds 13 1015 88 10000 7.4 256 20:23 13.05.2022
2152 Clouds 13 1014 87 10000 8.12 258 19:21 13.05.2022
2153 Clouds 13 1014 76 10000 10.8 270 17:50 13.05.2022
2154 Clouds 14 1014 81 10000 8.89 263 17:27 13.05.2022
2155 Clouds 13 1014 82 10000 10.8 260 16:18 13.05.2022
2156 Clouds 13 1013 76 10000 11.83 270 14:54 13.05.2022
2157 Clouds 14 1013 74 10000 8.54 261 13:29 13.05.2022
2158 Clouds 13 1013 73 10000 6.77 252 12:25 13.05.2022
2159 Clouds 13 1013 73 10000 6.77 252 12:25 13.05.2022
2160 Clouds 13 1012 71 10000 5.14 240 10:46 13.05.2022
2161 Rain 11 1012 79 10000 6.1 249 09:33 13.05.2022
2162 Clouds 11 1012 78 10000 4.71 212 08:23 13.05.2022
2163 Clouds 10 1012 87 10000 4.12 190 07:42 13.05.2022
2164 Clouds 10 1012 87 10000 4.63 200 05:59 13.05.2022
2165 Clouds 10 1014 87 10000 5.14 250 02:44 13.05.2022
2166 Clouds 10 1014 87 10000 5.66 260 23:56 12.05.2022
2167 Clouds 11 1014 82 10000 6.17 260 22:44 12.05.2022
2168 Clouds 11 1014 87 10000 8.23 270 21:54 12.05.2022
2169 Clouds 12 1015 82 10000 6 262 20:27 12.05.2022
2170 Clouds 14 1014 67 10000 12.86 280 18:50 12.05.2022
2171 Clouds 15 1014 58 10000 14.4 270 16:58 12.05.2022
2172 Clouds 15 1014 62 10000 12.35 270 15:55 12.05.2022
2173 Clouds 16 1014 60 10000 8.67 256 14:40 12.05.2022
2174 Clouds 15 1014 63 10000 9.77 250 13:38 12.05.2022
2175 Clear 14 1013 67 10000 8.75 280 10:45 12.05.2022
2176 Clear 13 1012 81 10000 6.26 279 09:28 12.05.2022
2177 Clear 13 1012 81 10000 6.26 279 09:28 12.05.2022
2178 Clear 11 1011 87 10000 10.29 280 08:51 12.05.2022
2179 Clouds 11 1010 93 10000 8.23 280 07:40 12.05.2022
2180 Clouds 10 1008 93 10000 8.75 290 05:46 12.05.2022
2181 Rain 11 1005 93 6000 6.69 320 02:56 12.05.2022
2182 Rain 10 1005 100 10000 3.6 190 00:35 12.05.2022
2183 Rain 10 1006 93 10000 4.12 180 22:35 11.05.2022
2184 Rain 10 1006 93 10000 3.09 210 21:50 11.05.2022
2185 Rain 10 1006 95 10000 3.29 245 21:23 11.05.2022
2186 Rain 11 1007 87 7000 6.69 270 18:49 11.05.2022
2187 Clouds 14 1007 72 10000 10.29 280 16:55 11.05.2022
2188 Clouds 14 1007 69 10000 5.22 257 15:31 11.05.2022
2189 Clouds 16 1007 63 10000 8.23 240 14:39 11.05.2022
2190 Clouds 16 1007 72 10000 11.83 270 14:18 11.05.2022
2191 Clouds 16 1007 72 10000 6.17 240 11:54 11.05.2022
2192 Rain 16 1007 77 10000 6.69 220 11:19 11.05.2022
2193 Clouds 13 1008 88 10000 4.63 190 08:40 11.05.2022
2194 Clouds 10 1010 96 10000 3.69 192 05:31 11.05.2022
2195 Clouds 10 1010 96 10000 3.69 192 05:31 11.05.2022
2196 Clouds 10 1011 93 10000 3.6 210 00:45 11.05.2022
2197 Clouds 12 1012 97 10000 3.37 243 22:32 10.05.2022
2198 Clouds 13 1011 88 10000 7.72 280 21:57 10.05.2022
2199 Clouds 14 1011 82 10000 11.32 280 20:58 10.05.2022
2200 Clouds 15 1011 72 10000 13.38 270 20:18 10.05.2022
2201 Rain 15 1012 88 10000 5.48 244 18:27 10.05.2022
2202 Rain 17 1011 77 10000 5.66 230 17:34 10.05.2022
2203 Rain 16 1013 82 10000 3.09 190 15:42 10.05.2022
2204 Rain 20 1014 42 10000 8.75 240 12:48 10.05.2022
2205 Clouds 19 1014 48 10000 5.66 210 11:51 10.05.2022
2206 Clouds 20 1015 68 10000 5.58 215 11:21 10.05.2022
2207 Clouds 18 1015 55 10000 4.12 200 10:54 10.05.2022
2208 Clouds 15 1016 75 10000 4.34 203 09:27 10.05.2022
2209 Clouds 13 1016 62 10000 2.57 190 07:47 10.05.2022
2210 Clouds 13 1018 58 10000 6.69 180 04:35 10.05.2022
2211 Clouds 13 1019 62 10000 7.2 160 01:36 10.05.2022
2212 Clouds 12 1021 71 10000 6.17 140 23:37 09.05.2022
2213 Clouds 12 1022 82 10000 4.18 147 22:30 09.05.2022
2214 Clouds 13 1023 84 10000 3.86 131 21:25 09.05.2022
2215 Clouds 16 1023 59 10000 4.63 120 19:52 09.05.2022
2216 Clear 18 1024 60 10000 3.52 134 18:22 09.05.2022
2217 Clear 16 1025 59 10000 5.66 90 16:55 09.05.2022
2218 Clear 16 1025 59 10000 5.66 90 16:55 09.05.2022
2219 Clear 17 1026 59 10000 5.66 90 15:54 09.05.2022
2220 Clear 17 1026 59 10000 5.66 90 15:35 09.05.2022
2221 Clouds 16 1026 63 10000 5.14 90 14:33 09.05.2022
2222 Clouds 16 1027 63 10000 3.6 80 13:56 09.05.2022
2223 Clouds 17 1028 48 10000 4.12 110 12:51 09.05.2022
2224 Clouds 16 1028 48 10000 5.66 150 11:52 09.05.2022
2225 Clouds 15 1028 51 10000 5.14 160 10:46 09.05.2022
2226 Clouds 16 1028 62 10000 3.68 152 10:20 09.05.2022
2227 Clouds 7 1029 93 10000 3.6 120 07:56 09.05.2022
2228 Clouds 5 1029 93 10000 4.63 120 04:35 09.05.2022
2229 Clouds 7 1029 77 10000 2.07 115 00:23 09.05.2022
2230 Clouds 8 1029 76 10000 2.16 120 23:27 08.05.2022
2231 Clouds 10 1028 74 10000 2.35 118 22:29 08.05.2022
2232 Clouds 14 1027 47 10000 2.57 140 20:53 08.05.2022
2233 Clouds 14 1027 69 10000 2.11 110 20:22 08.05.2022
2234 Clouds 16 1027 69 10000 2.11 110 19:32 08.05.2022
2235 Clouds 17 1027 34 10000 3.09 30 18:35 08.05.2022
2236 Clear 17 1027 27 10000 1.03 60 17:36 08.05.2022
2237 Clear 16 1027 29 10000 4.63 30 15:46 08.05.2022
2238 Clear 18 1027 45 10000 2.55 48 15:21 08.05.2022
2239 Clouds 15 1027 47 10000 2.06 20 12:46 08.05.2022
2240 Clouds 12 1026 62 10000 5.14 310 10:59 08.05.2022
2241 Clouds 13 1026 59 10000 4.72 308 10:22 08.05.2022
2242 Clouds 10 1026 71 10000 5.66 310 09:51 08.05.2022
2243 Clear 6 1026 87 10000 6.69 300 07:43 08.05.2022
2244 Clear 3 1025 82 10000 3.3 289 05:22 08.05.2022
2245 Clear 4 1026 84 10000 3.25 295 03:21 08.05.2022
2246 Clouds 6 1025 81 10000 5.14 310 00:42 08.05.2022
2247 Clouds 7 1025 71 10000 5.66 330 23:55 07.05.2022
2248 Clouds 6 1025 84 10000 3.46 304 23:28 07.05.2022
2249 Clouds 9 1024 71 10000 7.2 320 22:35 07.05.2022
2250 Clouds 10 1024 66 10000 6.69 300 21:55 07.05.2022
2251 Clouds 9 1024 71 10000 4.82 315 21:20 07.05.2022
2252 Clouds 11 1023 68 10000 5.37 312 20:23 07.05.2022
2253 Clouds 14 1023 54 10000 9.26 310 18:41 07.05.2022
2254 Clouds 17 1022 58 10000 6.83 307 16:24 07.05.2022
2255 Clouds 17 1022 63 10000 7.2 310 14:53 07.05.2022
2256 Clouds 16 1023 87 10000 2.76 303 11:23 07.05.2022
2257 Clouds 12 1022 94 10000 5.14 310 09:42 07.05.2022
2258 Clouds 11 1021 90 10000 3.48 309 08:30 07.05.2022
2259 Clouds 11 1020 93 7000 3.6 250 07:19 07.05.2022
2260 Clouds 11 1020 93 7000 3.6 250 06:42 07.05.2022
2261 Clouds 11 1020 87 8000 4.63 260 03:57 07.05.2022
2262 Clouds 12 1021 76 10000 4.12 240 23:44 06.05.2022
2263 Clouds 13 1021 76 10000 4.12 230 22:35 06.05.2022
2264 Clouds 13 1021 76 10000 2.57 250 21:53 06.05.2022
2265 Clouds 12 1021 89 10000 3.07 231 21:29 06.05.2022
2266 Clouds 14 1021 72 10000 6.69 270 19:47 06.05.2022
2267 Clouds 16 1021 77 10000 4.34 256 19:24 06.05.2022
2268 Clouds 17 1021 77 10000 4.34 256 18:30 06.05.2022
2269 Clouds 16 1022 67 10000 8.23 280 17:34 06.05.2022
2270 Clouds 16 1022 67 10000 6.69 280 15:51 06.05.2022
2271 Clouds 17 1023 75 10000 4.98 245 15:28 06.05.2022
2272 Clouds 16 1023 72 10000 6.69 260 13:49 06.05.2022
2273 Clouds 15 1023 72 10000 5.66 250 12:50 06.05.2022
2274 Clouds 13 1024 76 10000 5.14 260 11:58 06.05.2022
2275 Clouds 13 1024 73 10000 4.55 244 11:24 06.05.2022
2276 Clouds 10 1024 93 6000 3.09 220 09:47 06.05.2022
2277 Clouds 9 1024 93 6000 4.12 230 09:18 06.05.2022
2278 Clouds 8 1024 100 7000 3.6 250 07:49 06.05.2022
2279 Clouds 7 1023 96 10000 2.24 227 06:26 06.05.2022
2280 Clouds 8 1023 93 300 2.57 270 03:42 06.05.2022
2281 Clouds 8 1024 93 750 2.57 280 02:38 06.05.2022
2282 Clouds 10 1023 87 10000 4.63 290 22:58 05.05.2022
2283 Clouds 11 1023 87 10000 6.69 300 21:50 05.05.2022
2284 Clouds 12 1022 82 10000 6.69 290 20:37 05.05.2022
2285 Clouds 14 1022 72 10000 6.17 290 18:56 05.05.2022
2286 Clouds 16 1022 71 10000 5.02 273 16:42 05.05.2022
2287 Clouds 14 1022 70 10000 4.91 267 15:31 05.05.2022
2288 Clouds 13 1022 69 10000 4.54 265 13:30 05.05.2022
2289 Clouds 12 1021 71 10000 5.14 270 12:56 05.05.2022
2290 Clouds 11 1021 66 10000 4.63 270 11:42 05.05.2022
2291 Clouds 10 1021 71 10000 2.57 290 09:46 05.05.2022
2292 Clouds 8 1020 76 10000 1.03 250 08:54 05.05.2022
2293 Clouds 3 1020 86 10000 1.78 295 06:28 05.05.2022
2294 Clouds 2 1020 89 10000 1.93 307 02:27 05.05.2022
2295 Clouds 4 1019 93 10000 2.57 290 01:44 05.05.2022
2296 Clouds 4 1019 87 10000 4.12 300 00:57 05.05.2022
2297 Clouds 5 1019 88 10000 2.65 303 23:22 04.05.2022
2298 Clouds 8 1018 71 10000 5.66 300 22:18 04.05.2022
2299 Clouds 8 1018 71 10000 5.66 300 21:45 04.05.2022
2300 Clouds 9 1018 66 10000 7.72 300 21:18 04.05.2022
2301 Clouds 9 1018 75 10000 3.61 272 20:20 04.05.2022
2302 Clouds 11 1017 62 10000 6.69 280 19:35 04.05.2022
2303 Clouds 12 1017 58 10000 6.69 290 18:44 04.05.2022
2304 Clouds 12 1017 62 10000 3.55 265 18:20 04.05.2022
2305 Clouds 14 1017 60 10000 3.45 263 17:22 04.05.2022
2306 Clouds 14 1017 62 10000 3.65 264 15:35 04.05.2022
2307 Clouds 13 1017 54 10000 5.14 260 14:46 04.05.2022
2308 Clouds 13 1018 64 10000 3.69 254 14:20 04.05.2022
2309 Clouds 13 1018 64 10000 3.69 254 14:20 04.05.2022
2310 Clouds 13 1018 54 10000 3.6 260 12:58 04.05.2022
2311 Clouds 14 1018 61 10000 1.95 248 12:28 04.05.2022
2312 Clouds 11 1018 67 10000 1.89 248 10:30 04.05.2022
2313 Clouds 10 1018 77 10000 1.86 247 09:28 04.05.2022
2314 Clouds 9 1018 77 10000 1.86 247 08:33 04.05.2022
2315 Clouds 5 1017 93 10000 3.09 270 05:44 04.05.2022
2316 Clouds 6 1018 87 10000 2.57 270 02:43 04.05.2022
2317 Clouds 7 1018 90 10000 1.63 287 23:31 03.05.2022
2318 Clouds 8 1018 89 10000 2.18 289 22:20 03.05.2022
2319 Clouds 9 1017 71 10000 5.14 270 21:36 03.05.2022
2320 Clouds 11 1017 66 10000 6.17 280 20:52 03.05.2022
2321 Clouds 12 1017 62 10000 7.72 280 19:44 03.05.2022
2322 Clouds 14 1017 54 10000 6.17 280 18:50 03.05.2022
2323 Clouds 14 1017 58 10000 6.69 280 17:45 03.05.2022
2324 Clouds 15 1017 58 10000 6.17 280 16:35 03.05.2022
2325 Clouds 15 1017 51 10000 4.63 270 14:51 03.05.2022
2326 Clouds 13 1017 54 10000 3.09 310 12:47 03.05.2022
2327 Clouds 14 1017 55 10000 5.62 294 12:27 03.05.2022
2328 Clouds 11 1017 62 10000 5.66 280 10:57 03.05.2022
2329 Clouds 9 1017 67 10000 5.45 302 09:21 03.05.2022
2330 Clouds 7 1016 81 10000 6.17 300 06:46 03.05.2022
2331 Clouds 7 1016 81 10000 6.69 320 05:56 03.05.2022
2332 Clouds 8 1017 89 10000 3.93 262 00:32 03.05.2022
2333 Clouds 9 1017 71 10000 4.63 270 22:36 02.05.2022
2334 Clouds 10 1018 71 10000 6.69 290 21:52 02.05.2022
2335 Clouds 11 1017 66 10000 7.72 290 20:51 02.05.2022
2336 Clouds 13 1018 58 10000 8.23 280 18:40 02.05.2022
2337 Clouds 13 1018 62 10000 5.41 297 18:21 02.05.2022
2338 Clouds 14 1018 44 10000 7.72 280 17:37 02.05.2022
2339 Clouds 14 1019 51 10000 5.39 291 16:22 02.05.2022
2340 Clouds 14 1018 53 10000 5.57 288 15:30 02.05.2022
2341 Clouds 14 1018 53 10000 5.57 288 15:30 02.05.2022
2342 Clouds 14 1020 44 10000 4.63 280 13:51 02.05.2022
2343 Clear 13 1021 43 10000 3.09 260 12:19 02.05.2022
2344 Clear 11 1021 50 10000 1.54 250 10:47 02.05.2022
2345 Clear 11 1021 68 10000 2.3 290 09:20 02.05.2022
2346 Clouds 4 1021 100 10000 1.03 290 07:51 02.05.2022
2347 Clouds 4 1021 100 10000 1.03 290 07:51 02.05.2022
2348 Clouds 3 1022 93 10000 1.54 310 03:53 02.05.2022
2349 Clouds 3 1023 89 10000 2.22 322 00:24 02.05.2022
2350 Clouds 7 1022 61 10000 3.6 340 23:48 01.05.2022
2351 Clouds 6 1023 84 10000 2.99 311 22:33 01.05.2022
2352 Clouds 9 1023 78 10000 3.2 310 21:22 01.05.2022
2353 Clouds 14 1022 41 10000 6.17 310 19:53 01.05.2022
2354 Clouds 14 1022 41 10000 4.63 320 18:58 01.05.2022
2355 Clouds 14 1022 62 10000 3.83 289 18:28 01.05.2022
2356 Clouds 13 1022 47 10000 4.12 310 17:38 01.05.2022
2357 Clouds 14 1022 54 10000 2.98 263 16:23 01.05.2022
2358 Clouds 14 1023 44 10000 4.63 280 15:36 01.05.2022
2359 Clouds 14 1023 38 10000 1.54 350 13:47 01.05.2022
2360 Clouds 13 1024 64 10000 2.38 286 11:23 01.05.2022
2361 Clouds 8 1024 71 10000 2.39 292 09:32 01.05.2022
2362 Clouds 6 1023 100 10000 2.06 270 08:42 01.05.2022
2363 Clouds 4 1023 93 10000 4.12 300 03:44 01.05.2022
2364 Clouds 6 1023 87 10000 5.14 290 00:34 01.05.2022
2365 Clouds 10 1023 66 10000 7.72 300 21:51 30.04.2022
2366 Clouds 11 1023 62 10000 6.17 300 21:19 30.04.2022
2367 Clouds 12 1023 58 10000 5.66 310 19:45 30.04.2022
2368 Clouds 12 1023 66 10000 5.66 280 18:45 30.04.2022
2369 Clouds 12 1023 71 10000 6.69 270 16:54 30.04.2022
2370 Clouds 13 1024 58 10000 3.6 300 15:48 30.04.2022
2371 Clouds 12 1024 54 10000 3.09 270 14:54 30.04.2022
2372 Clouds 15 1024 54 10000 3.79 299 13:30 30.04.2022
2373 Clouds 11 1025 66 10000 5.14 290 11:34 30.04.2022
2374 Clouds 10 1026 71 10000 6.17 290 10:55 30.04.2022
2375 Clouds 8 1025 81 10000 5.14 320 09:50 30.04.2022
2376 Clouds 5 1026 81 10000 3.13 336 07:31 30.04.2022
2377 Clouds 5 1026 87 10000 2.06 330 03:34 30.04.2022
2378 Clouds 8 1026 66 10000 5.66 320 23:54 29.04.2022
2379 Clouds 9 1026 66 10000 5.66 290 22:35 29.04.2022
2380 Clouds 9 1026 71 10000 7.2 300 21:54 29.04.2022
2381 Clouds 10 1026 71 10000 6.69 280 21:19 29.04.2022
2382 Clouds 10 1026 71 10000 6.69 290 19:48 29.04.2022
2383 Clouds 10 1026 71 10000 7.72 290 18:47 29.04.2022
2384 Clouds 11 1027 64 10000 5.01 301 17:33 29.04.2022
2385 Clouds 11 1028 62 10000 7.2 290 15:58 29.04.2022
2386 Clouds 11 1028 62 10000 5.66 290 14:34 29.04.2022
2387 Clouds 11 1029 57 10000 3.83 301 13:27 29.04.2022
2388 Clouds 12 1029 60 10000 3.29 306 12:26 29.04.2022
2389 Clouds 8 1029 71 10000 5.66 310 09:48 29.04.2022
2390 Clouds 6 1029 81 10000 4.12 310 07:52 29.04.2022
2391 Clouds 3 1030 90 10000 2.39 324 07:24 29.04.2022
2392 Clouds 4 1029 87 10000 4.12 330 05:57 29.04.2022
2393 Clouds 4 1031 94 10000 3.15 314 00:51 29.04.2022
2394 Clouds 7 1030 81 10000 3.6 310 23:49 28.04.2022
2395 Clouds 8 1030 76 10000 2.57 280 22:47 28.04.2022
2396 Clouds 9 1030 76 10000 5.14 280 21:59 28.04.2022
2397 Clouds 9 1030 76 10000 5.14 280 21:37 28.04.2022
2398 Clouds 11 1029 71 10000 5.14 290 20:41 28.04.2022
2399 Clouds 12 1029 66 10000 7.2 310 19:49 28.04.2022
2400 Clouds 12 1029 70 10000 5.23 305 19:23 28.04.2022
2401 Clouds 13 1028 58 10000 7.2 300 18:45 28.04.2022
2402 Clear 14 1029 63 10000 5.94 309 17:32 28.04.2022
2403 Clear 14 1029 51 10000 8.75 290 16:51 28.04.2022
2404 Clear 15 1029 55 10000 6.07 306 16:20 28.04.2022
2405 Clear 15 1029 55 10000 6.07 306 16:20 28.04.2022
2406 Clear 14 1029 44 10000 7.2 300 15:43 28.04.2022
2407 Clear 14 1029 41 10000 7.2 300 14:56 28.04.2022
2408 Clouds 14 1029 52 10000 5.71 302 13:33 28.04.2022
2409 Clouds 13 1029 49 10000 4.63 303 12:28 28.04.2022
2410 Clouds 11 1029 58 10000 4.12 300 10:59 28.04.2022
2411 Clouds 11 1029 55 10000 3.71 317 10:26 28.04.2022
2412 Clouds 9 1029 81 10000 2.06 330 09:47 28.04.2022
2413 Clouds 4 1028 100 10000 2.06 330 07:40 28.04.2022
2414 Clouds 3 1028 100 3400 2.06 290 06:43 28.04.2022
2415 Clouds 3 1027 100 4400 1.54 290 05:52 28.04.2022
2416 Clouds 3 1027 93 6000 2.06 290 04:42 28.04.2022
2417 Clouds 5 1027 93 10000 3.09 270 01:53 28.04.2022
2418 Clouds 6 1027 93 10000 3.41 280 23:25 27.04.2022
2419 Clouds 7 1027 90 10000 3.5 279 22:20 27.04.2022
2420 Clouds 9 1026 71 10000 5.66 280 21:43 27.04.2022
2421 Clouds 10 1026 66 10000 7.72 280 20:45 27.04.2022
2422 Clouds 11 1025 62 10000 7.72 280 19:55 27.04.2022
2423 Clouds 11 1025 62 10000 7.72 280 19:34 27.04.2022
2424 Clouds 12 1025 58 10000 7.2 280 18:41 27.04.2022
2425 Clouds 12 1025 63 10000 5.24 290 18:20 27.04.2022
2426 Clouds 12 1025 53 10000 4.04 284 16:18 27.04.2022
2427 Clouds 12 1025 54 10000 4.63 280 13:18 27.04.2022
2428 Clouds 12 1025 61 10000 2.09 276 11:25 27.04.2022
2429 Clouds 10 1024 62 10000 3.09 290 10:50 27.04.2022
2430 Clouds 7 1024 83 10000 1.88 303 08:28 27.04.2022
2431 Clouds 3 1023 93 10000 2.06 330 06:42 27.04.2022
2432 Clear 4 1022 87 10000 3.09 330 02:35 27.04.2022
2433 Clear 4 1022 91 10000 2.26 305 01:23 27.04.2022
2434 Clear 6 1021 81 10000 3.09 310 00:34 27.04.2022
2435 Clear 6 1021 91 10000 2.96 305 23:24 26.04.2022
2436 Clear 7 1020 81 10000 3.09 290 22:51 26.04.2022
2437 Clear 6 1021 91 10000 2.96 305 22:31 26.04.2022
2438 Clear 8 1020 83 10000 3.38 304 21:25 26.04.2022
2439 Clear 10 1019 66 10000 6.69 310 20:39 26.04.2022
2440 Clouds 13 1018 50 10000 5.14 310 19:45 26.04.2022
2441 Clouds 12 1018 66 10000 3.94 298 19:26 26.04.2022
2442 Clouds 13 1018 50 10000 5.14 300 18:40 26.04.2022
2443 Clouds 14 1018 47 10000 7.2 300 17:42 26.04.2022
2444 Clouds 13 1018 50 10000 5.14 300 15:59 26.04.2022
2445 Clear 14 1017 51 10000 3.6 300 13:58 26.04.2022
2446 Clear 14 1017 49 10000 2.62 289 13:29 26.04.2022
2447 Clear 12 1017 52 10000 2.3 316 11:29 26.04.2022
2448 Clear 10 1017 52 10000 2.3 316 10:31 26.04.2022
2449 Clear 6 1017 61 10000 2.06 330 08:47 26.04.2022
2450 Clear 2 1016 100 5000 2.06 270 05:46 26.04.2022
2451 Clear 4 1016 84 10000 0.95 282 04:23 26.04.2022
2452 Clouds 4 1015 93 10000 1.03 220 00:53 26.04.2022
2453 Clouds 5 1015 87 10000 3.6 130 23:52 25.04.2022
2454 Clouds 8 1015 66 10000 2.06 100 22:18 25.04.2022
2455 Clouds 9 1015 66 10000 2.06 100 21:33 25.04.2022
2456 Clouds 11 1014 67 10000 1.53 98 20:26 25.04.2022
2457 Clouds 12 1014 54 10000 4.63 30 18:54 25.04.2022
2458 Clouds 12 1014 54 10000 3.09 50 17:41 25.04.2022
2459 Clouds 12 1014 50 10000 3.6 30 16:51 25.04.2022
2460 Clouds 14 1014 52 10000 2.92 68 15:23 25.04.2022
2461 Clouds 13 1014 50 10000 2.06 20 14:34 25.04.2022
2462 Clear 12 1015 53 10000 3.35 61 13:29 25.04.2022
2463 Clear 10 1014 57 10000 4.12 30 11:37 25.04.2022
2464 Clear 11 1014 60 10000 4.29 60 10:20 25.04.2022
2465 Clear 7 1014 64 10000 4.25 54 08:33 25.04.2022
2466 Clouds 4 1013 85 10000 3.65 54 06:27 25.04.2022
2467 Clouds 5 1013 88 10000 3.87 69 03:44 25.04.2022
2468 Clouds 6 1013 83 10000 4.34 64 00:33 25.04.2022
2469 Clouds 7 1013 82 10000 4.87 68 23:51 24.04.2022
2470 Clouds 8 1013 82 10000 5.27 68 22:41 24.04.2022
2471 Clouds 8 1012 81 10000 5.56 69 21:58 24.04.2022
2472 Clouds 8 1012 77 10000 6.02 71 21:24 24.04.2022
2473 Clouds 9 1012 77 10000 6.02 71 20:48 24.04.2022
2474 Clouds 9 1011 78 10000 6.64 66 20:22 24.04.2022
2475 Clouds 9 1011 79 10000 6.29 63 19:19 24.04.2022
2476 Clouds 10 1011 81 10000 6.28 56 18:20 24.04.2022
2477 Rain 11 1011 79 10000 6.86 59 17:27 24.04.2022
2478 Clouds 10 1011 79 10000 6.86 59 16:58 24.04.2022
2479 Clouds 10 1011 80 10000 6.87 59 16:32 24.04.2022
2480 Clouds 11 1011 78 10000 6.59 60 15:54 24.04.2022
2481 Clouds 12 1010 58 10000 5.14 110 14:58 24.04.2022
2482 Clouds 12 1010 58 10000 5.66 90 13:56 24.04.2022
2483 Clouds 12 1011 67 10000 7.29 74 13:25 24.04.2022
2484 Clear 11 1010 58 10000 6.17 40 11:56 24.04.2022
2485 Clear 11 1011 66 10000 7.01 62 11:27 24.04.2022
2486 Clear 11 1011 69 10000 7.08 59 10:24 24.04.2022
2487 Clear 9 1011 66 10000 5.66 60 09:19 24.04.2022
2488 Clouds 7 1010 81 10000 4.63 60 06:34 24.04.2022
2489 Clear 7 1011 87 10000 3.6 90 03:43 24.04.2022
2490 Clear 7 1012 82 10000 3.43 67 01:38 24.04.2022
2491 Clear 7 1012 87 10000 3.34 74 00:22 24.04.2022
2492 Clear 8 1011 76 10000 4.12 70 23:44 23.04.2022
2493 Clear 8 1012 87 10000 3.48 60 23:21 23.04.2022
2494 Clear 10 1011 66 10000 3.6 60 21:51 23.04.2022
2495 Clear 10 1012 84 10000 3.52 70 21:32 23.04.2022
2496 Clear 12 1011 58 10000 4.63 60 20:36 23.04.2022
2497 Clouds 13 1011 62 10000 2.57 80 19:46 23.04.2022
2498 Clouds 14 1011 51 10000 4.63 100 19:19 23.04.2022
2499 Clouds 14 1011 51 10000 4.63 100 18:49 23.04.2022
2500 Clouds 14 1011 44 10000 5.66 100 17:50 23.04.2022
2501 Clouds 15 1012 58 10000 6.05 79 17:20 23.04.2022
2502 Clouds 15 1012 41 10000 6.17 100 16:40 23.04.2022
2503 Clear 14 1013 58 10000 4.12 100 14:57 23.04.2022
2504 Clear 13 1014 62 10000 5.14 90 12:44 23.04.2022
2505 Clear 10 1014 81 10000 4.63 100 10:43 23.04.2022
2506 Clear 10 1014 80 10000 6.42 72 09:30 23.04.2022
2507 Clear 6 1014 94 10000 4.57 74 06:29 23.04.2022
2508 Clear 7 1014 87 10000 4.12 90 03:54 23.04.2022
2509 Clear 8 1014 87 10000 5.14 100 00:57 23.04.2022
2510 Clear 9 1014 84 10000 6.14 87 23:29 22.04.2022
2511 Clear 10 1014 84 10000 6.49 86 22:20 22.04.2022
2512 Clear 10 1013 71 10000 6.69 100 21:42 22.04.2022
2513 Clear 11 1013 66 10000 6.17 100 20:47 22.04.2022
2514 Clouds 12 1014 81 10000 7.31 77 20:27 22.04.2022
2515 Clouds 14 1013 54 10000 7.2 80 19:20 22.04.2022
2516 Clouds 14 1013 54 10000 7.2 80 18:41 22.04.2022
2517 Clouds 14 1013 54 10000 4.12 90 17:41 22.04.2022
2518 Clouds 15 1013 58 10000 4.12 100 16:46 22.04.2022
2519 Clouds 14 1013 62 10000 5.66 90 15:42 22.04.2022
2520 Clouds 14 1014 62 10000 5.14 100 15:18 22.04.2022
2521 Clouds 13 1014 66 10000 5.66 100 13:50 22.04.2022
2522 Clouds 13 1014 62 10000 6.17 100 12:58 22.04.2022
2523 Clouds 12 1014 58 10000 4.63 100 11:52 22.04.2022
2524 Clear 13 1015 69 10000 7.78 76 11:22 22.04.2022
2525 Clear 12 1014 58 10000 5.14 40 10:50 22.04.2022
2526 Clear 12 1015 69 10000 7.78 76 10:30 22.04.2022
2527 Clear 11 1014 62 10000 5.66 60 09:50 22.04.2022
2528 Clear 10 1014 66 10000 4.12 60 08:50 22.04.2022
2529 Clear 8 1014 76 10000 3.6 50 07:33 22.04.2022
2530 Clear 8 1016 71 10000 3.6 90 03:47 22.04.2022
2531 Clouds 6 1017 93 10000 2.57 100 00:52 22.04.2022
2532 Clouds 9 1017 81 10000 4.66 76 23:25 21.04.2022
2533 Clouds 9 1017 84 10000 4.22 69 22:29 21.04.2022
2534 Clouds 11 1017 66 10000 3.09 110 20:43 21.04.2022
2535 Clouds 12 1017 78 10000 4.37 76 20:24 21.04.2022
2536 Clouds 14 1016 54 10000 3.6 90 18:44 21.04.2022
2537 Clouds 15 1016 47 10000 5.14 90 18:18 21.04.2022
2538 Clouds 15 1016 44 10000 5.66 100 16:47 21.04.2022
2539 Clouds 16 1017 56 10000 6.16 80 15:22 21.04.2022
2540 Clouds 15 1016 44 10000 4.63 40 14:50 21.04.2022
2541 Clouds 14 1017 47 10000 4.63 40 13:44 21.04.2022
2542 Clouds 14 1017 54 10000 2.57 60 13:18 21.04.2022
2543 Clouds 10 1017 81 10000 4.12 30 11:19 21.04.2022
2544 Clouds 8 1017 93 10000 1.03 320 08:57 21.04.2022
2545 Clouds 5 1017 93 4300 2.06 360 07:55 21.04.2022
2546 Clouds 5 1018 85 10000 1.16 87 06:21 21.04.2022
2547 Clouds 4 1018 100 9000 1.03 30 03:35 21.04.2022
2548 Clouds 5 1018 93 10000 1.03 60 02:48 21.04.2022
2549 Clouds 5 1018 93 10000 0.51 130 01:50 21.04.2022
2550 Clouds 7 1018 87 10000 1.54 120 23:53 20.04.2022
2551 Clouds 7 1019 81 10000 2.66 53 23:23 20.04.2022
2552 Clouds 8 1018 76 10000 1.54 120 22:51 20.04.2022
2553 Clouds 9 1019 81 10000 2.66 53 22:32 20.04.2022
2554 Clouds 9 1018 71 10000 2.06 100 21:33 20.04.2022
2555 Clouds 12 1018 54 10000 2.57 100 20:42 20.04.2022
2556 Clouds 13 1018 50 10000 2.06 130 19:55 20.04.2022
2557 Clouds 14 1018 69 10000 2.95 85 19:29 20.04.2022
2558 Clouds 15 1018 44 10000 3.6 100 18:33 20.04.2022
2559 Clouds 16 1018 39 10000 5.14 30 16:58 20.04.2022
2560 Clouds 16 1018 39 10000 5.14 30 16:38 20.04.2022
2561 Clouds 16 1019 39 10000 3.6 40 14:52 20.04.2022
2562 Clouds 13 1020 44 10000 2.57 30 11:57 20.04.2022
2563 Clouds 13 1020 44 10000 2.57 30 11:33 20.04.2022
2564 Clouds 14 1020 61 10000 2.74 60 10:29 20.04.2022
2565 Clouds 12 1020 64 10000 2.49 51 09:27 20.04.2022
2566 Clouds 9 1020 73 10000 2.08 53 08:25 20.04.2022
2567 Clouds 4 1020 100 10000 1.03 40 07:44 20.04.2022
2568 Clouds 3 1020 93 10000 2.57 40 04:49 20.04.2022
2569 Clear 4 1021 80 10000 2.56 83 01:20 20.04.2022
2570 Clear 4 1021 80 10000 2.56 83 01:20 20.04.2022
2571 Clear 5 1021 79 10000 2.66 87 00:20 20.04.2022
2572 Clear 6 1020 75 10000 1.54 20 22:44 19.04.2022
2573 Clear 6 1021 73 10000 2.3 96 22:22 19.04.2022
2574 Clear 8 1020 61 10000 2.06 110 21:38 19.04.2022
2575 Clear 10 1019 46 10000 2.57 110 20:57 19.04.2022
2576 Clear 10 1019 46 10000 2.57 110 20:37 19.04.2022
2577 Clear 12 1020 74 10000 2.77 83 19:32 19.04.2022
2578 Clear 13 1019 57 10000 4.57 92 18:27 19.04.2022
2579 Clear 14 1018 44 10000 4.63 110 16:50 19.04.2022
2580 Clear 16 1019 58 10000 5.16 86 16:25 19.04.2022
2581 Clear 14 1018 35 10000 5.14 100 15:57 19.04.2022
2582 Clear 15 1019 31 10000 4.63 110 14:44 19.04.2022
2583 Clouds 14 1018 44 10000 5.14 30 12:53 19.04.2022
2584 Clouds 15 1019 55 10000 4.26 75 12:31 19.04.2022
2585 Clouds 12 1019 61 10000 3.44 76 11:27 19.04.2022
2586 Clouds 10 1018 71 10000 3.09 60 09:35 19.04.2022
2587 Clouds 4 1018 93 5000 1.54 60 07:43 19.04.2022
2588 Clouds 4 1018 93 5000 1.54 60 07:43 19.04.2022
2589 Clouds 5 1018 77 10000 1.96 100 04:25 19.04.2022
2590 Clouds 5 1018 81 10000 3.09 130 01:42 19.04.2022
2591 Clouds 6 1019 75 10000 3.09 120 23:49 18.04.2022
2592 Clouds 7 1019 70 10000 2.06 110 22:53 18.04.2022
2593 Clouds 10 1019 64 10000 3.41 107 21:26 18.04.2022
2594 Clouds 12 1019 47 10000 3.6 120 20:39 18.04.2022
2595 Clouds 13 1019 44 10000 3.6 130 20:19 18.04.2022
2596 Clouds 13 1019 44 10000 3.6 130 19:33 18.04.2022
2597 Clouds 13 1019 47 10000 3.6 110 18:45 18.04.2022
2598 Clouds 14 1019 44 10000 4.12 100 17:49 18.04.2022
2599 Clouds 14 1020 41 10000 4.12 90 17:19 18.04.2022
2600 Clouds 14 1020 41 10000 4.12 90 16:39 18.04.2022
2601 Clouds 14 1020 41 10000 4.63 90 15:41 18.04.2022
2602 Clouds 15 1021 46 10000 3.8 123 14:27 18.04.2022
2603 Clouds 15 1021 45 10000 3.64 124 13:25 18.04.2022
2604 Clouds 14 1022 46 10000 3.34 130 12:27 18.04.2022
2605 Clear 12 1022 54 10000 2.06 120 10:59 18.04.2022
2606 Clear 10 1022 57 10000 2.06 130 10:18 18.04.2022
2607 Clear 11 1022 55 10000 2.89 132 09:30 18.04.2022
2608 Clear 1 1022 93 10000 2.57 130 07:34 18.04.2022
2609 Clear 2 1024 87 10000 3.09 120 03:57 18.04.2022
2610 Clear 5 1025 70 10000 3.6 150 23:41 17.04.2022
2611 Clear 5 1025 70 10000 3.09 140 22:39 17.04.2022
2612 Clear 8 1026 53 10000 3.6 140 21:39 17.04.2022
2613 Clear 10 1026 46 10000 3.6 120 21:19 17.04.2022
2614 Clear 10 1027 67 10000 3.38 119 20:32 17.04.2022
2615 Clear 13 1027 68 10000 3.8 102 19:21 17.04.2022
2616 Clear 14 1027 41 10000 4.12 120 17:38 17.04.2022
2617 Clear 15 1029 41 10000 3.09 100 15:38 17.04.2022
2618 Clear 14 1029 38 10000 2.57 80 14:53 17.04.2022
2619 Clouds 13 1030 38 10000 3.09 30 13:44 17.04.2022
2620 Clouds 13 1030 40 10000 2.06 330 12:56 17.04.2022
2621 Clouds 13 1031 57 10000 2.18 166 11:24 17.04.2022
2622 Clouds 11 1031 43 10000 2.06 250 10:38 17.04.2022
2623 Clouds 9 1032 57 10000 1.03 0 10:19 17.04.2022
2624 Clouds 7 1032 65 10000 1.81 150 09:23 17.04.2022
2625 Clouds 4 1032 81 10000 1.03 0 08:41 17.04.2022
2626 Clouds 0 1032 93 10000 1.54 210 06:53 17.04.2022
2627 Clouds 4 1034 66 10000 2.6 162 03:20 17.04.2022
2628 Clouds 3 1034 87 10000 3.09 140 00:55 17.04.2022
2629 Clouds 4 1034 81 10000 2.57 130 23:50 16.04.2022
2630 Clouds 5 1035 61 10000 1.93 146 22:27 16.04.2022
2631 Clouds 7 1036 65 10000 2.15 130 21:29 16.04.2022
2632 Clear 11 1035 46 10000 2.57 110 19:57 16.04.2022
2633 Clear 11 1035 43 10000 2.57 120 18:54 16.04.2022
2634 Clear 12 1035 40 10000 3.6 80 17:40 16.04.2022
2635 Clear 12 1036 40 10000 3.09 100 16:33 16.04.2022
2636 Clear 12 1036 37 10000 3.6 90 15:40 16.04.2022
2637 Clear 12 1036 43 10000 3.6 130 14:51 16.04.2022
2638 Clouds 11 1037 43 10000 2.57 120 13:57 16.04.2022
2639 Clouds 12 1037 50 10000 3.4 108 13:28 16.04.2022
2640 Clouds 11 1037 51 10000 3.2 115 12:20 16.04.2022
2641 Clouds 8 1037 76 10000 3.6 20 10:49 16.04.2022
2642 Clouds 8 1037 81 10000 2.57 30 09:44 16.04.2022
2643 Clouds 6 1036 93 10000 1.03 0 08:57 16.04.2022
2644 Clouds 2 1036 100 7000 2.57 110 07:35 16.04.2022
2645 Clouds 3 1035 93 7000 3.09 130 06:58 16.04.2022
2646 Clouds 6 1034 87 10000 2.06 110 02:34 16.04.2022
2647 Clouds 6 1034 83 10000 2.41 117 00:30 16.04.2022
2648 Clouds 6 1033 93 10000 3.09 130 22:58 15.04.2022
2649 Clouds 7 1034 84 10000 3.24 116 22:32 15.04.2022
2650 Clouds 6 1032 100 10000 3.09 130 21:50 15.04.2022
2651 Clouds 7 1031 93 2400 3.6 130 21:18 15.04.2022
2652 Clouds 8 1031 89 10000 3.7 117 20:21 15.04.2022
2653 Clouds 7 1030 100 9000 2.06 100 19:39 15.04.2022
2654 Clouds 8 1030 87 9000 1.54 100 18:54 15.04.2022
2655 Clouds 9 1030 88 10000 3.81 85 18:25 15.04.2022
2656 Clouds 9 1029 81 10000 3.09 80 17:34 15.04.2022
2657 Clouds 9 1029 81 10000 3.09 30 16:48 15.04.2022
2658 Clouds 8 1028 87 10000 4.12 30 16:18 15.04.2022
2659 Clouds 8 1028 87 10000 5.66 30 14:51 15.04.2022
2660 Clouds 8 1028 87 10000 6.69 30 13:41 15.04.2022
2661 Clouds 8 1027 81 10000 7.72 30 12:42 15.04.2022
2662 Clouds 8 1027 81 10000 8.23 30 11:57 15.04.2022
2663 Clouds 8 1027 81 10000 8.23 30 11:34 15.04.2022
2664 Clouds 8 1026 81 10000 7.72 30 10:43 15.04.2022
2665 Clouds 7 1025 87 10000 6.17 20 09:46 15.04.2022
2666 Clouds 7 1025 87 10000 4.63 4 09:21 15.04.2022
2667 Clouds 7 1023 87 10000 4.63 350 07:44 15.04.2022
2668 Clouds 7 1023 87 10000 4.12 320 06:37 15.04.2022
2669 Clouds 7 1021 89 10000 3.72 326 03:21 15.04.2022
2670 Clouds 8 1021 90 10000 3.86 300 23:32 14.04.2022
2671 Clouds 8 1020 87 10000 6.17 300 22:49 14.04.2022
2672 Clouds 8 1020 90 10000 4.45 296 22:31 14.04.2022
2673 Clouds 8 1019 87 10000 7.72 300 21:59 14.04.2022
2674 Clouds 8 1020 89 10000 4.75 289 21:30 14.04.2022
2675 Clouds 9 1018 83 10000 5.82 282 19:24 14.04.2022
2676 Clouds 8 1018 83 10000 5.82 282 18:30 14.04.2022
2677 Clouds 9 1018 81 10000 10.8 280 17:44 14.04.2022
2678 Clouds 9 1018 81 10000 9.26 270 16:46 14.04.2022
2679 Clouds 10 1017 70 10000 6.94 264 15:29 14.04.2022
2680 Clouds 11 1017 76 10000 9.26 300 13:49 14.04.2022
2681 Clouds 12 1017 76 10000 9.26 270 13:18 14.04.2022
2682 Clouds 13 1017 74 10000 7.13 263 12:31 14.04.2022
2683 Clouds 13 1017 72 10000 6.45 257 11:36 14.04.2022
2684 Clouds 13 1017 71 10000 7.2 260 10:56 14.04.2022
2685 Clouds 12 1017 78 10000 5.07 253 10:27 14.04.2022
2686 Clouds 10 1017 85 10000 4.06 251 09:26 14.04.2022
2687 Clouds 9 1017 93 4000 6.17 260 07:52 14.04.2022
2688 Clouds 9 1017 96 10000 3.04 224 05:23 14.04.2022
2689 Clouds 11 1017 87 10000 4.63 240 23:50 13.04.2022
2690 Clouds 11 1018 88 10000 3.17 256 22:29 13.04.2022
2691 Clouds 11 1017 87 10000 4.63 250 21:42 13.04.2022
2692 Clouds 12 1017 82 10000 2.57 240 20:35 13.04.2022
2693 Clouds 12 1016 82 10000 4.63 260 19:46 13.04.2022
2694 Clouds 13 1016 76 10000 6.69 260 18:36 13.04.2022
2695 Clouds 17 1016 67 10000 5.23 250 17:25 13.04.2022
2696 Clouds 16 1015 67 10000 7.72 280 16:52 13.04.2022
2697 Clouds 17 1015 63 10000 6.69 230 15:45 13.04.2022
2698 Clouds 17 1015 67 10000 5.59 246 15:23 13.04.2022
2699 Clouds 16 1014 63 10000 6.69 220 14:34 13.04.2022
2700 Clouds 16 1014 63 10000 4.63 230 13:38 13.04.2022
2701 Clouds 15 1014 55 10000 1.54 230 12:51 13.04.2022
2702 Clouds 15 1014 63 10000 4.19 229 11:32 13.04.2022
2703 Clouds 13 1014 73 10000 4.31 181 10:31 13.04.2022
2704 Clouds 7 1013 81 10000 1.54 110 08:45 13.04.2022
2705 Clouds 6 1013 87 10000 2.06 120 07:57 13.04.2022
2706 Clouds 6 1012 81 10000 3.09 100 06:48 13.04.2022
2707 Clouds 7 1013 77 10000 4.44 132 06:24 13.04.2022
2708 Clouds 7 1014 76 10000 5.14 110 01:51 13.04.2022
2709 Clouds 7 1015 81 10000 6.17 110 00:19 13.04.2022
2710 Clouds 8 1015 71 10000 6.17 110 22:33 12.04.2022
2711 Clouds 8 1015 71 10000 6.69 120 21:54 12.04.2022
2712 Clouds 9 1015 66 10000 6.69 120 20:48 12.04.2022
2713 Clouds 9 1015 76 10000 6.91 104 20:20 12.04.2022
2714 Clouds 9 1014 66 10000 7.72 120 19:40 12.04.2022
2715 Clouds 10 1015 62 10000 9.77 120 18:56 12.04.2022
2716 Clouds 10 1015 62 10000 9.26 120 17:39 12.04.2022
2717 Clouds 10 1015 62 10000 7.2 120 16:47 12.04.2022
2718 Clouds 11 1016 58 10000 7.72 110 15:35 12.04.2022
2719 Clouds 9 1016 66 10000 6.17 120 14:53 12.04.2022
2720 Clouds 10 1016 66 10000 5.66 110 13:53 12.04.2022
2721 Clouds 10 1018 66 10000 7.11 114 13:27 12.04.2022
2722 Clouds 9 1018 69 10000 6.56 114 12:21 12.04.2022
2723 Clouds 8 1018 66 10000 4.63 120 11:39 12.04.2022
2724 Clouds 6 1018 75 10000 4.12 120 09:52 12.04.2022
2725 Clouds 5 1018 81 10000 5.66 120 08:51 12.04.2022
2726 Clouds 2 1018 81 10000 3.53 115 07:20 12.04.2022
2727 Clouds 0 1017 93 10000 3.09 100 05:42 12.04.2022
2728 Clouds 0 1018 100 10000 3.09 120 02:49 12.04.2022
2729 Clouds 2 1019 73 10000 1.81 22 23:25 11.04.2022
2730 Clouds 3 1018 81 10000 1.54 340 22:43 11.04.2022
2731 Clouds 4 1018 81 10000 1.54 20 21:35 11.04.2022
2732 Clouds 7 1018 61 10000 2.06 340 20:37 11.04.2022
2733 Clouds 8 1017 57 10000 2.57 330 20:19 11.04.2022
2734 Clouds 8 1018 61 10000 2.98 306 19:27 11.04.2022
2735 Clouds 9 1017 49 10000 3.09 330 18:56 11.04.2022
2736 Clouds 9 1017 49 10000 3.09 330 18:33 11.04.2022
2737 Clouds 10 1017 50 10000 2.57 280 17:43 11.04.2022
2738 Clouds 9 1018 49 10000 4.02 292 16:36 11.04.2022
2739 Clouds 9 1018 51 10000 3.09 250 15:21 11.04.2022
2740 Clouds 7 1018 49 10000 2.57 270 13:44 11.04.2022
2741 Clouds 8 1018 61 10000 5.14 270 12:41 11.04.2022
2742 Clouds 8 1018 54 10000 5.06 290 12:22 11.04.2022
2743 Clouds 6 1018 65 10000 5.66 310 10:47 11.04.2022
2744 Clouds 5 1018 75 10000 5.14 300 09:58 11.04.2022
2745 Clouds 3 1018 84 10000 2.78 265 08:23 11.04.2022
2746 Clouds 2 1017 87 10000 3.6 260 04:57 11.04.2022
2747 Clouds 3 1017 88 10000 3.61 291 00:30 11.04.2022
2748 Clouds 4 1017 81 10000 5.19 285 22:27 10.04.2022
2749 Clouds 4 1017 81 10000 5.19 285 22:27 10.04.2022
2750 Clouds 3 1016 93 10000 6.69 290 21:53 10.04.2022
2751 Rain 4 1017 86 10000 5.47 287 21:23 10.04.2022
2752 Clouds 5 1016 83 10000 5.82 289 20:21 10.04.2022
2753 Clouds 5 1015 87 10000 8.75 290 19:37 10.04.2022
2754 Clouds 5 1015 87 10000 11.83 310 18:50 10.04.2022
2755 Clouds 6 1015 81 10000 6.89 295 18:27 10.04.2022
2756 Clouds 4 1015 87 2300 12.35 320 17:46 10.04.2022
2757 Clouds 7 1014 65 10000 12.35 300 16:59 10.04.2022
2758 Clouds 7 1014 61 10000 13.38 310 15:41 10.04.2022
2759 Clouds 7 1013 65 10000 14.4 300 14:42 10.04.2022
2760 Clouds 7 1013 65 10000 14.4 300 14:42 10.04.2022
2761 Clouds 6 1013 70 3800 13.38 310 13:44 10.04.2022
2762 Clouds 6 1014 53 10000 9.91 302 12:32 10.04.2022
2763 Rain 6 1012 65 10000 13.38 310 11:44 10.04.2022
2764 Clouds 7 1013 59 10000 9.34 298 11:20 10.04.2022
2765 Clouds 5 1011 75 10000 11.83 300 10:34 10.04.2022
2766 Clouds 5 1011 75 10000 9.77 290 09:46 10.04.2022
2767 Clouds 3 1011 87 10000 8.75 280 08:40 10.04.2022
2768 Clouds 3 1010 87 10000 10.29 280 08:18 10.04.2022
2769 Clouds 3 1009 87 10000 9.77 290 06:59 10.04.2022
2770 Clouds 4 1008 87 10000 10.8 290 03:40 10.04.2022
2771 Clouds 4 1007 87 10000 9.77 290 02:19 10.04.2022
2772 Clouds 4 1006 87 10000 9.77 290 23:54 09.04.2022
2773 Clouds 4 1006 87 10000 12.35 290 22:56 09.04.2022
2774 Clouds 4 1006 87 10000 12.35 290 22:38 09.04.2022
2775 Clouds 4 1006 82 10000 8.19 287 21:28 09.04.2022
2776 Clouds 4 1006 82 10000 8.19 287 20:31 09.04.2022
2777 Rain 4 1004 87 6000 16.46 310 19:57 09.04.2022
2778 Clouds 4 1004 87 6000 16.46 310 19:39 09.04.2022
2779 Clear 6 1003 71 10000 10.28 280 18:24 09.04.2022
2780 Clear 6 1003 65 10000 15.43 290 17:50 09.04.2022
2781 Clouds 7 1002 61 10000 15.95 290 16:59 09.04.2022
2782 Clouds 7 1002 61 10000 15.95 290 16:40 09.04.2022
2783 Clouds 6 1002 61 10000 17.49 300 15:51 09.04.2022
2784 Rain 8 1003 57 10000 10.89 292 15:26 09.04.2022
2785 Rain 8 1002 58 10000 10.89 294 14:26 09.04.2022
2786 Clouds 7 1001 65 10000 13.89 300 13:33 09.04.2022
2787 Rain 7 1000 65 10000 12.86 320 12:56 09.04.2022
2788 Clouds 5 999 81 10000 9.77 290 11:51 09.04.2022
2789 Rain 7 998 70 10000 11.32 290 10:52 09.04.2022
2790 Clouds 6 998 75 10000 10.8 290 10:18 09.04.2022
2791 Clouds 6 998 79 10000 7.42 280 09:23 09.04.2022
2792 Clouds 4 997 87 10000 9.26 280 08:35 09.04.2022
2793 Clear 2 995 83 10000 8.08 279 05:21 09.04.2022
2794 Clear 3 993 87 10000 8.23 280 00:35 09.04.2022
2795 Clear 2 993 80 10000 6.37 288 23:24 08.04.2022
2796 Clear 4 992 81 10000 7.72 290 21:54 08.04.2022
2797 Clear 5 991 87 10000 8.23 280 20:45 08.04.2022
2798 Clouds 4 991 81 10000 9.77 260 19:57 08.04.2022
2799 Clouds 5 991 81 10000 8.75 270 18:59 08.04.2022
2800 Clouds 7 991 70 10000 6.71 279 18:25 08.04.2022
2801 Rain 6 990 70 10000 12.86 290 17:38 08.04.2022
2802 Clouds 7 990 70 10000 12.86 270 17:19 08.04.2022
2803 Clouds 7 990 70 10000 12.86 270 16:35 08.04.2022
2804 Clouds 6 990 75 10000 13.38 280 15:39 08.04.2022
2805 Clouds 6 990 75 10000 14.4 280 14:52 08.04.2022
2806 Rain 6 990 72 5448 10.61 272 14:21 08.04.2022
2807 Clouds 5 990 87 10000 14.4 270 13:41 08.04.2022
2808 Rain 5 991 61 10000 10.78 266 13:22 08.04.2022
2809 Rain 4 989 93 10000 13.89 270 11:51 08.04.2022
2810 Clear 5 991 66 10000 10.5 264 10:31 08.04.2022
2811 Rain 4 990 73 10000 9.23 269 09:25 08.04.2022
2812 Clouds 4 989 73 10000 8.6 275 08:25 08.04.2022
2813 Clouds 4 987 70 10000 11.32 280 06:47 08.04.2022
2814 Clouds 3 987 71 10000 9.14 285 04:32 08.04.2022
2815 Clouds 4 980 87 10000 11.32 320 00:42 08.04.2022
2816 Clouds 5 977 81 10000 13.38 310 00:18 08.04.2022
2817 Clouds 6 975 87 10000 10.29 280 22:58 07.04.2022
2818 Clouds 6 975 87 10000 10.29 280 22:37 07.04.2022
2819 Clouds 5 975 93 10000 9.77 270 22:19 07.04.2022
2820 Clouds 5 975 93 10000 9.77 270 21:49 07.04.2022
2821 Clouds 5 974 93 10000 12.35 270 20:58 07.04.2022
2822 Rain 6 974 92 10000 7.54 266 20:30 07.04.2022
2823 Clouds 6 971 89 9498 10 233 18:29 07.04.2022
2824 Clouds 7 972 85 10000 9.33 230 17:25 07.04.2022
2825 Rain 6 973 87 10000 10.8 240 16:44 07.04.2022
2826 Clouds 8 973 81 10000 9.13 237 16:20 07.04.2022
2827 Rain 7 974 87 10000 5.66 270 14:36 07.04.2022
2828 Clouds 7 974 81 5000 11.32 240 13:42 07.04.2022
2829 Clouds 7 975 87 10000 6.69 230 12:41 07.04.2022
2830 Clouds 5 976 90 10000 7.32 219 11:29 07.04.2022
2831 Rain 7 977 93 7819 8.43 241 09:37 07.04.2022
2832 Rain 6 977 93 7819 8.43 241 09:37 07.04.2022
2833 Rain 8 977 93 7000 9.77 210 08:38 07.04.2022
2834 Rain 8 980 91 10000 9.15 212 06:42 07.04.2022
2835 Clouds 8 985 87 10000 8.23 250 02:51 07.04.2022
2836 Clouds 7 986 95 10000 7.14 236 02:20 07.04.2022
2837 Clouds 7 986 93 10000 7.89 236 00:26 07.04.2022
2838 Rain 8 986 93 10000 6.69 210 22:49 06.04.2022
2839 Rain 8 987 94 6062 7 219 22:27 06.04.2022
2840 Rain 8 988 93 7000 7.72 230 21:44 06.04.2022
2841 Rain 8 989 87 10000 7.2 240 20:36 06.04.2022
2842 Rain 8 989 93 10000 11.32 260 19:53 06.04.2022
2843 Clouds 9 990 87 10000 12.35 260 18:51 06.04.2022
2844 Clouds 8 989 89 10000 8.54 243 18:25 06.04.2022
2845 Clouds 8 989 89 10000 8.55 243 17:35 06.04.2022
2846 Clouds 9 990 87 10000 10.8 250 16:38 06.04.2022
2847 Clouds 8 991 93 3100 10.8 250 15:48 06.04.2022
2848 Clouds 8 991 94 10000 9.41 235 15:21 06.04.2022
2849 Clouds 8 992 94 10000 9.41 238 13:25 06.04.2022
2850 Clouds 8 992 94 10000 9.74 239 12:27 06.04.2022
2851 Clouds 8 992 93 10000 12.86 250 10:52 06.04.2022
2852 Clouds 8 992 93 10000 9.75 239 10:30 06.04.2022
2853 Clouds 8 992 93 10000 14.92 250 09:41 06.04.2022
2854 Rain 7 992 100 3100 10.29 240 08:34 06.04.2022
2855 Rain 7 992 100 4600 9.77 240 07:53 06.04.2022
2856 Clouds 3 996 98 268 3.14 154 04:31 06.04.2022
2857 Clouds 4 999 87 10000 2.06 310 23:56 05.04.2022
2858 Rain 4 1000 83 10000 2.55 237 23:22 05.04.2022
2859 Rain 5 1000 84 10000 2.93 261 21:29 05.04.2022
2860 Rain 5 999 75 10000 3.09 300 20:44 05.04.2022
2861 Clouds 5 999 75 10000 6.69 310 20:19 05.04.2022
2862 Clouds 6 1000 67 10000 6.03 277 18:24 05.04.2022
2863 Clouds 7 999 61 10000 11.32 300 16:55 05.04.2022
2864 Clouds 7 999 61 10000 11.32 300 16:35 05.04.2022
2865 Clouds 7 999 61 10000 10.8 290 15:49 05.04.2022
2866 Clouds 7 1000 57 10000 7.01 282 15:29 05.04.2022
2867 Clouds 6 1000 65 10000 9.77 290 13:42 05.04.2022
2868 Clouds 6 1000 70 10000 7.2 300 11:51 05.04.2022
2869 Clouds 7 1000 57 10000 7.38 292 11:33 05.04.2022
2870 Clouds 6 999 70 10000 9.77 300 10:57 05.04.2022
2871 Clouds 4 1000 68 10000 6.65 292 09:31 05.04.2022
2872 Clouds 3 999 80 10000 5.5 296 08:22 05.04.2022
2873 Clouds 4 996 81 10000 11.83 300 02:58 05.04.2022
2874 Clouds 5 994 75 10000 12.35 300 23:38 04.04.2022
2875 Clear 5 994 75 10000 11.83 300 22:37 04.04.2022
2876 Clear 5 993 75 10000 13.38 300 21:46 04.04.2022
2877 Clear 6 992 75 10000 14.92 300 21:18 04.04.2022
2878 Clear 6 992 75 10000 14.92 300 20:47 04.04.2022
2879 Clouds 6 992 83 10000 10.1 296 19:28 04.04.2022
2880 Clouds 7 990 81 10000 15.43 300 18:43 04.04.2022
2881 Clouds 7 990 89 10000 11.19 283 17:20 04.04.2022
2882 Clouds 8 990 89 10000 11.19 283 16:31 04.04.2022
2883 Clouds 8 989 93 10000 17.49 280 15:33 04.04.2022
2884 Clouds 8 990 93 9000 15.43 270 14:46 04.04.2022
2885 Clouds 8 990 95 9770 11.03 258 14:28 04.04.2022
2886 Rain 6 992 93 5000 13.38 240 12:59 04.04.2022
2887 Rain 5 995 96 176 13.57 229 11:29 04.04.2022
2888 Rain 4 996 96 104 13.86 230 10:29 04.04.2022
2889 Clouds 5 1002 87 10000 10.29 230 06:58 04.04.2022
2890 Clouds 5 1009 81 10000 10.29 250 03:18 04.04.2022
2891 Clouds 5 1011 87 10000 10.8 270 23:47 03.04.2022
2892 Clouds 5 1013 90 10000 6.13 271 22:24 03.04.2022
2893 Clouds 5 1013 90 10000 6.13 271 21:32 03.04.2022
2894 Clouds 5 1013 87 10000 9.77 270 20:36 03.04.2022
2895 Clouds 5 1014 82 10000 7.41 275 19:29 03.04.2022
2896 Clouds 5 1014 77 10000 7.54 282 18:29 03.04.2022
2897 Clouds 6 1014 81 10000 9.77 290 17:44 03.04.2022
2898 Rain 7 1014 65 10000 13.38 300 16:50 03.04.2022
2899 Clouds 7 1015 72 10000 8.07 287 16:21 03.04.2022
2900 Clouds 7 1016 68 7848 8.52 294 14:32 03.04.2022
2901 Clouds 6 1016 70 4800 12.35 300 13:45 03.04.2022
2902 Clouds 7 1017 62 10000 7.41 304 12:21 03.04.2022
2903 Clouds 6 1017 70 10000 8.23 320 10:54 03.04.2022
2904 Clouds 4 1017 74 10000 5.32 311 09:23 03.04.2022
2905 Clouds 1 1017 93 10000 5.14 270 07:37 03.04.2022
2906 Clouds -2 1019 93 10000 3.6 260 04:19 03.04.2022
2907 Clouds -2 1020 86 10000 5.14 320 00:41 03.04.2022
2908 Clouds 0 1020 69 10000 2.06 270 22:57 02.04.2022
2909 Clouds 0 1020 64 10000 1.54 300 21:57 02.04.2022
2910 Clouds 0 1020 64 10000 1.54 300 21:36 02.04.2022
2911 Clouds 2 1019 51 10000 2.06 350 20:52 02.04.2022
2912 Clouds 4 1020 58 10000 0.81 325 19:32 02.04.2022
2913 Clouds 4 1020 58 10000 0.81 325 19:32 02.04.2022
2914 Clouds 5 1019 42 10000 3.2 34 18:21 02.04.2022
2915 Clouds 5 1019 52 10000 4.12 30 17:52 02.04.2022
2916 Clouds 5 1019 42 10000 4.16 42 16:25 02.04.2022
2917 Clouds 5 1019 42 10000 4.15 47 15:21 02.04.2022
2918 Clouds 6 1019 42 10000 5.14 30 14:49 02.04.2022
2919 Clouds 5 1019 42 10000 5.14 30 14:49 02.04.2022
2920 Clouds 4 1019 52 10000 4.63 20 13:35 02.04.2022
2921 Clouds 5 1019 56 10000 4.12 30 12:38 02.04.2022
2922 Clouds 5 1020 49 10000 4.17 60 11:23 02.04.2022
2923 Clouds 2 1019 56 10000 3.84 54 09:30 02.04.2022
2924 Clouds -1 1017 80 10000 5.66 20 06:51 02.04.2022
2925 Clouds 0 1016 80 10000 5.66 20 03:52 02.04.2022
2926 Clouds 1 1016 69 10000 4.63 40 23:58 01.04.2022
2927 Clouds -1 1018 64 10000 3.96 29 23:30 01.04.2022
2928 Clouds 3 1016 52 10000 5.14 40 21:42 01.04.2022
2929 Clouds 3 1015 48 10000 7.2 40 20:51 01.04.2022
2930 Clouds 3 1016 51 10000 5.44 45 20:28 01.04.2022
2931 Clouds 4 1016 51 10000 4.96 46 19:34 01.04.2022
2932 Clouds 5 1014 42 10000 7.72 30 18:50 01.04.2022
2933 Clouds 5 1014 42 10000 7.72 30 17:54 01.04.2022
2934 Clouds 5 1014 42 10000 7.72 30 17:34 01.04.2022
2935 Clouds 6 1014 36 10000 7.2 40 15:42 01.04.2022
2936 Clouds 5 1015 43 10000 6.89 53 14:26 01.04.2022
2937 Clouds 5 1014 42 10000 6.17 60 13:34 01.04.2022
2938 Clouds 4 1015 45 10000 6.77 58 12:33 01.04.2022
2939 Clouds 4 1014 52 10000 4.12 60 11:44 01.04.2022
2940 Clouds 2 1013 60 10000 4.63 60 10:19 01.04.2022
2941 Clouds 2 1012 64 10000 5.66 60 09:19 01.04.2022
2942 Clouds 1 1011 64 10000 5.14 60 06:55 01.04.2022
2943 Clouds 1 1011 60 10000 4.12 60 04:53 01.04.2022
2944 Clouds 1 1011 60 10000 4.12 60 04:34 01.04.2022
2945 Clouds 1 1011 69 10000 5.14 60 01:58 01.04.2022
2946 Clouds 2 1010 60 10000 5.14 50 00:44 01.04.2022
2947 Clouds 2 1010 51 10000 5.14 60 21:54 31.03.2022
2948 Clouds 2 1011 58 10000 6.54 58 21:33 31.03.2022
2949 Clouds 2 1011 58 10000 6.31 63 20:30 31.03.2022
2950 Clouds 4 1009 35 10000 5.66 90 19:50 31.03.2022
2951 Clouds 4 1008 41 10000 7.2 90 18:52 31.03.2022
2952 Clouds 4 1008 41 10000 6.69 90 17:54 31.03.2022
2953 Clouds 4 1009 56 10000 8.07 73 16:40 31.03.2022
2954 Clouds 5 1008 45 10000 7.72 80 15:48 31.03.2022
2955 Clouds 4 1009 58 10000 8.15 77 15:20 31.03.2022
2956 Clouds 4 1008 48 10000 7.2 90 14:44 31.03.2022
2957 Clouds 3 1009 62 10000 8.42 85 12:48 31.03.2022
2958 Clouds 2 1009 64 10000 8.33 85 11:29 31.03.2022
2959 Clouds 2 1008 69 10000 3.09 70 10:19 31.03.2022
2960 Clouds 2 1007 69 10000 4.12 60 08:52 31.03.2022
2961 Snow 1 1007 68 10000 7.73 85 07:24 31.03.2022
2962 Snow 0 1006 100 2200 3.09 90 00:46 31.03.2022
2963 Snow 1 1007 96 69 6.56 95 23:23 30.03.2022
2964 Rain 2 1006 93 9000 5.14 50 21:50 30.03.2022
2965 Clouds 2 1006 80 10000 6.48 89 21:27 30.03.2022
2966 Clouds 2 1006 76 10000 5.81 85 20:22 30.03.2022
2967 Clouds 2 1006 87 10000 2.57 60 19:38 30.03.2022
2968 Rain 3 1005 87 10000 3.09 80 18:40 30.03.2022
2969 Rain 3 1005 87 10000 4.63 80 17:49 30.03.2022
2970 Rain 3 1006 87 10000 6.17 30 16:58 30.03.2022
2971 Rain 3 1006 87 10000 6.17 30 16:38 30.03.2022
2972 Clouds 4 1006 75 10000 7.72 40 15:38 30.03.2022
2973 Clouds 5 1006 56 10000 3.09 60 14:18 30.03.2022
2974 Clouds 6 1006 56 10000 3.09 70 13:19 30.03.2022
2975 Clouds 5 1006 65 10000 4.63 30 11:55 30.03.2022
2976 Clouds 4 1006 81 10000 2.06 40 10:38 30.03.2022
2977 Clouds 3 1007 74 10000 1.38 360 09:28 30.03.2022
2978 Clouds -1 1006 93 10000 1.03 350 07:59 30.03.2022
2979 Clouds -1 1006 100 10000 1.03 320 05:41 30.03.2022
2980 Clouds 2 1007 89 10000 2.26 334 05:23 30.03.2022
2981 Clouds 3 1008 81 10000 5.14 330 00:43 30.03.2022
2982 Clouds 4 1008 75 10000 5.14 310 22:38 29.03.2022
2983 Clouds 5 1008 70 10000 6.69 300 21:47 29.03.2022
2984 Clouds 5 1008 70 10000 6.69 300 20:55 29.03.2022
2985 Clouds 5 1009 74 10000 4.57 296 20:25 29.03.2022
2986 Clouds 6 1009 67 10000 5.23 299 19:27 29.03.2022
2987 Clouds 7 1008 53 10000 9.26 310 18:53 29.03.2022
2988 Clouds 8 1008 49 10000 10.29 310 17:40 29.03.2022
2989 Clouds 8 1009 53 10000 9.77 310 16:59 29.03.2022
2990 Clouds 8 1010 53 10000 7.16 306 16:25 29.03.2022
2991 Clouds 8 1010 53 10000 8.75 300 14:58 29.03.2022
2992 Clouds 8 1010 53 10000 8.75 300 14:39 29.03.2022
2993 Clouds 8 1010 53 10000 7.31 304 13:30 29.03.2022
2994 Clouds 7 1011 61 10000 8.23 320 11:58 29.03.2022
2995 Clouds 6 1011 70 10000 10.29 320 10:59 29.03.2022
2996 Clouds 5 1012 81 10000 6.69 300 09:50 29.03.2022
2997 Clouds 3 1012 73 10000 5.38 303 08:32 29.03.2022
2998 Clouds 3 1012 87 10000 6.69 300 05:44 29.03.2022
2999 Clouds 4 1015 84 10000 4.83 302 01:32 29.03.2022
3000 Clouds 6 1016 91 10000 5.17 297 23:26 28.03.2022
3001 Clouds 6 1015 87 10000 7.72 280 22:55 28.03.2022
3002 Clouds 6 1016 91 10000 5.17 297 22:30 28.03.2022
3003 Clouds 6 1016 87 10000 8.75 290 21:38 28.03.2022
3004 Clouds 6 1017 95 10000 5.02 290 20:32 28.03.2022
3005 Clouds 6 1016 87 10000 9.26 290 19:47 28.03.2022
3006 Clouds 6 1017 81 10000 5.76 284 19:29 28.03.2022
3007 Clouds 7 1017 81 10000 9.77 300 18:40 28.03.2022
3008 Clouds 7 1017 81 10000 9.77 290 17:40 28.03.2022
3009 Clouds 9 1017 71 10000 9.77 290 16:47 28.03.2022
3010 Clouds 8 1019 76 10000 10.29 280 14:53 28.03.2022
3011 Clouds 8 1020 70 10000 7.42 284 14:23 28.03.2022
3012 Clouds 7 1021 87 10000 9.26 300 12:51 28.03.2022
3013 Clouds 7 1021 87 10000 9.26 300 11:42 28.03.2022
3014 Clouds 7 1022 81 10000 6.69 290 09:55 28.03.2022
3015 Clouds 7 1023 86 10000 5.91 294 09:20 28.03.2022
3016 Clouds 6 1024 96 5894 4.77 286 08:23 28.03.2022
3017 Clear 6 1023 87 10000 5.66 270 07:56 28.03.2022
3018 Clouds 5 1024 97 10000 3.82 271 06:30 28.03.2022
3019 Clouds 6 1027 93 10000 8.75 300 00:19 28.03.2022
3020 Clouds 6 1028 93 10000 6.69 290 22:34 27.03.2022
3021 Clouds 6 1028 93 10000 6.69 290 21:42 27.03.2022
3022 Clouds 7 1028 87 10000 7.2 300 20:58 27.03.2022
3023 Clouds 7 1028 83 10000 5.33 299 20:21 27.03.2022
3024 Clouds 7 1028 87 10000 9.26 300 19:36 27.03.2022
3025 Clouds 8 1028 81 10000 8.75 280 18:42 27.03.2022
3026 Clouds 8 1028 68 10000 6.23 302 18:23 27.03.2022
3027 Clouds 10 1028 71 10000 9.77 300 17:35 27.03.2022
3028 Clear 11 1029 76 10000 9.26 270 15:47 27.03.2022
3029 Clouds 12 1030 58 10000 6.69 300 13:57 27.03.2022
3030 Clouds 12 1030 62 10000 5.66 280 12:58 27.03.2022
3031 Clouds 10 1031 62 10000 4.07 302 11:30 27.03.2022
3032 Clouds 4 1031 93 10000 3.6 260 09:37 27.03.2022
3033 Clouds 1 1031 100 5000 1.54 260 06:58 27.03.2022
3034 Clear 2 1031 100 1700 1.54 270 03:39 27.03.2022
3035 Clouds 5 1032 86 10000 0.44 348 00:25 27.03.2022
3036 Clear 6 1031 87 10000 2.57 290 22:49 26.03.2022
3037 Clear 6 1031 87 10000 3.09 290 21:54 26.03.2022
3038 Clear 6 1031 82 10000 2.51 321 21:29 26.03.2022
3039 Clear 8 1031 80 10000 2.97 307 19:32 26.03.2022
3040 Clear 9 1029 76 10000 5.14 290 18:40 26.03.2022
3041 Clear 11 1029 66 10000 4.12 280 17:34 26.03.2022
3042 Clear 12 1029 62 10000 6.17 290 16:34 26.03.2022
3043 Clear 12 1029 66 10000 6.69 290 15:39 26.03.2022
3044 Clouds 11 1029 71 10000 6.17 290 13:56 26.03.2022
3045 Clouds 13 1029 61 10000 5.82 309 13:20 26.03.2022
3046 Clouds 10 1029 81 10000 9.26 310 11:48 26.03.2022
3047 Clouds 9 1029 87 10000 8.75 320 10:48 26.03.2022
3048 Clouds 8 1028 93 10000 9.77 310 08:48 26.03.2022
3049 Clouds 8 1028 93 7000 8.75 300 06:38 26.03.2022
3050 Clear 6 1028 87 10000 6.78 287 05:30 26.03.2022
3051 Clear 6 1028 87 7000 6.17 270 01:47 26.03.2022
3052 Clouds 6 1030 78 10000 3.5 284 22:21 25.03.2022
3053 Clear 8 1029 81 9000 6.69 290 20:57 25.03.2022
3054 Clear 8 1030 75 10000 3.48 288 20:26 25.03.2022
3055 Clear 10 1029 71 10000 7.72 300 19:19 25.03.2022
3056 Clear 10 1029 71 10000 7.72 300 18:34 25.03.2022
3057 Clear 14 1029 59 10000 4.93 292 17:29 25.03.2022
3058 Clear 15 1029 53 10000 5.31 297 16:27 25.03.2022
3059 Clear 16 1029 53 10000 5.31 297 15:33 25.03.2022
3060 Clear 17 1030 47 10000 4.85 298 13:28 25.03.2022
3061 Clear 14 1030 51 10000 3.89 302 11:21 25.03.2022
3062 Clear 9 1030 57 10000 2.76 296 09:31 25.03.2022
3063 Clear 7 1030 65 10000 3.09 260 08:49 25.03.2022
3064 Clear 5 1029 81 7000 3.09 270 07:35 25.03.2022
3065 Clouds 4 1029 75 10000 3.09 280 06:59 25.03.2022
3066 Clear 4 1029 87 10000 2.06 290 02:37 25.03.2022
3067 Clear 7 1029 70 9000 1.54 300 22:56 24.03.2022
3068 Clear 7 1029 71 8000 1.03 0 22:19 24.03.2022
3069 Clear 8 1029 76 10000 2.57 300 20:52 24.03.2022
3070 Clear 8 1028 76 8000 1.54 0 19:49 24.03.2022
3071 Clear 12 1028 58 10000 2.06 290 18:44 24.03.2022
3072 Clear 13 1028 54 10000 4.63 260 17:36 24.03.2022
3073 Clear 13 1028 54 10000 4.63 260 17:36 24.03.2022
3074 Clear 16 1028 50 10000 3.17 267 16:28 24.03.2022
3075 Clear 15 1029 42 10000 2.57 280 14:52 24.03.2022
3076 Clear 17 1029 48 10000 2.46 251 14:22 24.03.2022
3077 Clear 15 1029 41 10000 2.57 280 13:34 24.03.2022
3078 Clear 15 1029 49 10000 2.98 242 12:24 24.03.2022
3079 Clear 14 1030 54 10000 2.64 231 11:27 24.03.2022
3080 Clear 9 1030 63 10000 2.16 207 09:28 24.03.2022
3081 Clear 4 1029 93 3200 2.06 220 08:34 24.03.2022
3082 Clear 4 1030 75 10000 1.92 171 05:30 24.03.2022
3083 Clear 4 1030 75 10000 1.92 171 05:30 24.03.2022
3084 Clear 2 1031 93 2800 1.54 120 00:38 24.03.2022
3085 Clear 5 1032 70 10000 2.59 139 22:21 23.03.2022
3086 Clear 6 1032 68 10000 2.61 131 21:24 23.03.2022
3087 Clear 5 1031 81 9000 2.57 120 20:36 23.03.2022
3088 Clear 8 1031 68 10000 2.91 111 19:28 23.03.2022
3089 Clear 12 1031 50 10000 3.09 110 18:18 23.03.2022
3090 Clear 14 1031 55 10000 2.97 97 17:25 23.03.2022
3091 Clear 14 1031 44 10000 2.57 100 15:56 23.03.2022
3092 Clear 14 1032 44 10000 3.09 90 14:48 23.03.2022
3093 Clear 14 1032 50 10000 2.57 100 13:34 23.03.2022
3094 Clouds 14 1033 46 10000 2.94 109 11:33 23.03.2022
3095 Clouds 4 1033 93 2600 2.57 110 08:49 23.03.2022
3096 Clouds 2 1032 69 10000 2.8 85 06:25 23.03.2022
3097 Clouds 2 1032 93 1700 3.09 100 03:44 23.03.2022
3098 Clouds 4 1033 72 10000 1.91 97 00:28 23.03.2022
3099 Clouds 4 1033 87 10000 1.54 90 21:53 22.03.2022
3100 Clouds 7 1033 65 10000 2.28 99 21:23 22.03.2022
3101 Clear 7 1033 65 10000 2.5 90 20:30 22.03.2022
3102 Clouds 8 1033 66 10000 2.72 87 19:27 22.03.2022
3103 Clear 9 1032 49 10000 1.54 0 18:50 22.03.2022
3104 Clear 11 1032 43 10000 1.54 100 17:44 22.03.2022
3105 Clear 13 1032 43 10000 1.54 0 16:58 22.03.2022
3106 Clear 14 1032 35 10000 2.06 90 15:49 22.03.2022
3107 Clear 16 1033 47 10000 2.06 112 15:21 22.03.2022
3108 Clear 15 1033 41 10000 2.06 80 14:45 22.03.2022
3109 Clear 17 1033 46 10000 2.09 119 14:24 22.03.2022
3110 Clear 14 1034 41 10000 1.54 80 12:41 22.03.2022
3111 Clear 12 1034 49 10000 1.8 146 11:26 22.03.2022
3112 Clear 8 1034 61 10000 1.54 130 09:55 22.03.2022
3113 Clear 1 1033 93 9000 0.51 110 07:48 22.03.2022
3114 Clear 1 1033 93 5000 1.54 150 04:36 22.03.2022
3115 Clouds 1 1033 93 5000 2.06 180 02:54 22.03.2022
3116 Clear 2 1033 93 10000 2.57 170 23:41 21.03.2022
3117 Clear 4 1033 81 10000 1.03 110 21:51 21.03.2022
3118 Clear 4 1033 81 10000 1.03 110 21:51 21.03.2022
3119 Clear 4 1033 75 10000 1.54 100 20:45 21.03.2022
3120 Clear 5 1033 68 10000 2.97 143 20:26 21.03.2022
3121 Clear 6 1032 70 10000 2.57 110 19:53 21.03.2022
3122 Clouds 7 1033 67 10000 2.76 132 19:23 21.03.2022
3123 Clouds 10 1032 50 10000 3.6 110 17:45 21.03.2022
3124 Clouds 11 1032 46 10000 4.63 110 17:18 21.03.2022
3125 Clouds 11 1032 46 10000 4.63 110 16:39 21.03.2022
3126 Clouds 11 1032 46 10000 4.12 90 15:47 21.03.2022
3127 Clouds 11 1032 50 10000 4.12 90 14:56 21.03.2022
3128 Clear 12 1033 35 10000 4.12 150 13:46 21.03.2022
3129 Clouds 11 1033 37 10000 4.12 140 12:34 21.03.2022
3130 Clouds 10 1033 37 10000 5.66 150 11:44 21.03.2022
3131 Clouds 8 1033 42 10000 5.66 140 10:36 21.03.2022
3132 Clouds 5 1034 64 10000 4.19 140 08:30 21.03.2022
3133 Clouds 3 1034 67 10000 4.73 134 06:38 21.03.2022
3134 Clear 4 1033 65 10000 5.14 120 02:48 21.03.2022
3135 Clear 5 1033 60 10000 6.17 120 23:43 20.03.2022
3136 Clear 5 1033 65 10000 6.69 120 22:44 20.03.2022
3137 Clear 6 1034 61 10000 6.69 120 21:52 20.03.2022
3138 Clear 6 1034 61 10000 6.69 120 21:52 20.03.2022
3139 Clear 6 1034 62 10000 7.68 116 21:25 20.03.2022
3140 Clear 6 1034 61 10000 7.2 120 20:43 20.03.2022
3141 Clear 6 1034 61 10000 8.23 110 19:59 20.03.2022
3142 Clear 6 1034 63 10000 7.42 111 19:31 20.03.2022
3143 Clear 7 1034 53 10000 7.72 110 18:34 20.03.2022
3144 Clear 8 1034 60 10000 8.02 109 17:33 20.03.2022
3145 Clear 8 1034 46 10000 8.23 110 16:57 20.03.2022
3146 Clear 9 1036 53 10000 9.24 105 15:35 20.03.2022
3147 Clear 8 1036 49 10000 9.26 110 14:35 20.03.2022
3148 Clear 8 1038 53 10000 7.2 120 12:42 20.03.2022
3149 Clear 8 1038 50 10000 9.44 107 11:32 20.03.2022
3150 Clear 6 1039 55 10000 8.67 104 09:30 20.03.2022
3151 Clear 3 1040 93 10000 6.17 100 07:47 20.03.2022
3152 Clouds 3 1041 93 10000 5.66 110 05:48 20.03.2022
3153 Clear 4 1042 93 10000 4.63 110 02:45 20.03.2022
3154 Clear 4 1043 87 10000 4.12 90 00:47 20.03.2022
3155 Clear 4 1044 84 10000 5.72 87 23:20 19.03.2022
3156 Clear 4 1045 82 10000 6.04 88 21:32 19.03.2022
3157 Clear 5 1045 70 10000 5.14 80 20:58 19.03.2022
3158 Clear 7 1045 53 10000 5.14 90 18:59 19.03.2022
3159 Clear 7 1045 73 10000 6.38 80 18:25 19.03.2022
3160 Clear 8 1045 49 10000 5.14 90 17:41 19.03.2022
3161 Clear 10 1046 61 10000 7.39 77 16:29 19.03.2022
3162 Clear 10 1046 57 10000 6.92 78 15:20 19.03.2022
3163 Clear 9 1047 57 10000 4.12 100 13:35 19.03.2022
3164 Clear 9 1048 61 10000 5.14 100 12:42 19.03.2022
3165 Clear 9 1048 61 10000 6.17 90 11:54 19.03.2022
3166 Clear 9 1048 61 10000 6.17 90 11:33 19.03.2022
3167 Clear 2 1048 79 10000 3.28 52 08:23 19.03.2022
3168 Clear 2 1048 77 10000 3.14 51 04:23 19.03.2022
3169 Clear 2 1048 76 10000 2.91 30 02:31 19.03.2022
3170 Clear 1 1048 93 10000 3.6 40 23:46 18.03.2022
3171 Clear 3 1048 87 10000 3.09 40 22:36 18.03.2022
3172 Clear 4 1048 75 10000 2.57 70 21:56 18.03.2022
3173 Clear 5 1047 62 10000 3.19 29 20:25 18.03.2022
3174 Clouds 7 1046 60 10000 3.08 22 19:23 18.03.2022
3175 Clouds 9 1045 53 10000 3.6 40 18:34 18.03.2022
3176 Clouds 12 1044 43 10000 5.66 340 16:52 18.03.2022
3177 Clouds 12 1044 40 10000 4.63 350 16:18 18.03.2022
3178 Clouds 13 1044 47 10000 4.1 326 14:25 18.03.2022
3179 Clouds 12 1044 58 10000 5.14 330 13:36 18.03.2022
3180 Clear 11 1042 65 10000 3.49 314 11:29 18.03.2022
3181 Clear 7 1041 93 10000 3.09 290 09:52 18.03.2022
3182 Clear 5 1041 100 10000 3.6 270 08:45 18.03.2022
3183 Clouds 3 1039 100 7000 3.6 230 06:45 18.03.2022
3184 Clouds 3 1039 100 7000 3.6 230 06:45 18.03.2022
3185 Clouds 4 1037 93 10000 5.66 250 04:39 18.03.2022
3186 Clear 3 1035 100 10000 5.66 260 00:55 18.03.2022
3187 Clear 3 1035 93 10000 5.14 250 23:52 17.03.2022
3188 Clear 4 1035 93 10000 7.2 260 22:44 17.03.2022
3189 Clear 3 1035 94 10000 3.53 245 22:18 17.03.2022
3190 Clear 4 1034 94 10000 3.88 249 21:27 17.03.2022
3191 Clear 5 1033 87 10000 7.2 260 20:53 17.03.2022
3192 Clear 5 1032 81 10000 7.2 260 20:19 17.03.2022
3193 Clear 6 1032 81 10000 7.2 260 19:38 17.03.2022
3194 Clouds 6 1030 81 10000 9.26 270 18:52 17.03.2022
3195 Clouds 7 1029 78 10000 6.38 271 17:29 17.03.2022
3196 Clouds 8 1028 77 10000 7.19 275 16:20 17.03.2022
3197 Clouds 7 1027 81 10000 10.29 280 15:43 17.03.2022
3198 Clouds 7 1025 87 10000 11.32 270 14:59 17.03.2022
3199 Clouds 7 1024 87 10000 9.26 260 13:45 17.03.2022
3200 Clouds 7 1023 93 10000 6.17 240 12:46 17.03.2022
3201 Rain 7 1023 93 10000 6.46 218 11:33 17.03.2022
3202 Rain 7 1021 87 5000 8.23 160 10:44 17.03.2022
3203 Rain 8 1021 71 10000 7.72 150 09:37 17.03.2022
3204 Clouds 6 1021 81 10000 8.23 140 08:19 17.03.2022
3205 Clouds 5 1022 87 7000 7.72 130 05:53 17.03.2022
3206 Clouds 4 1023 93 8000 7.2 130 04:40 17.03.2022
3207 Clear 4 1026 91 10000 5.86 119 00:27 17.03.2022
3208 Clear 4 1027 100 3100 7.2 120 22:57 16.03.2022
3209 Clear 4 1027 92 10000 5.69 116 22:36 16.03.2022
3210 Clear 3 1027 100 1500 6.17 120 21:56 16.03.2022
3211 Clouds 3 1027 100 5000 6.69 120 20:47 16.03.2022
3212 Clouds 3 1027 91 10000 5.81 105 19:24 16.03.2022
3213 Clouds 3 1027 100 2300 7.2 110 18:43 16.03.2022
3214 Clouds 4 1028 93 10000 5.14 120 17:50 16.03.2022
3215 Clouds 5 1028 81 10000 5.18 109 17:31 16.03.2022
3216 Clouds 4 1028 93 10000 5.66 120 16:36 16.03.2022
3217 Clouds 4 1028 93 10000 6.17 110 15:34 16.03.2022
3218 Clouds 6 1029 81 10000 3.09 110 13:41 16.03.2022
3219 Clouds 5 1029 93 10000 3.6 110 12:57 16.03.2022
3220 Clouds 3 1028 69 10000 4.23 129 11:26 16.03.2022
3221 Clouds 3 1029 100 1700 2.06 110 10:43 16.03.2022
3222 Clouds 3 1028 100 1000 4.12 120 09:57 16.03.2022
3223 Clouds 2 1028 100 400 3.09 110 08:33 16.03.2022
3224 Clouds 0 1027 100 100 1.54 0 02:46 16.03.2022
3225 Clouds 2 1025 100 200 2.06 110 22:58 15.03.2022
3226 Clouds 2 1025 100 200 2.06 110 22:36 15.03.2022
3227 Clouds 4 1025 85 10000 0.99 43 21:27 15.03.2022
3228 Clouds 6 1025 87 10000 1.54 110 19:47 15.03.2022
3229 Clouds 8 1025 79 10000 2.06 290 18:35 15.03.2022
3230 Clouds 10 1024 76 10000 2.57 110 16:45 15.03.2022
3231 Clouds 10 1024 71 10000 2.57 120 15:44 15.03.2022
3232 Clouds 11 1024 62 10000 1.03 310 14:55 15.03.2022
3233 Clouds 11 1024 58 10000 3.18 244 14:30 15.03.2022
3234 Clouds 9 1025 62 10000 2.96 233 13:24 15.03.2022
3235 Clouds 6 1026 93 10000 3.09 220 11:48 15.03.2022
3236 Clouds 6 1026 93 10000 2.06 230 10:56 15.03.2022
3237 Clouds 5 1027 73 10000 3.01 245 09:30 15.03.2022
3238 Clouds 5 1027 82 10000 2.88 244 08:32 15.03.2022
3239 Clouds 5 1026 93 2100 4.12 260 07:44 15.03.2022
3240 Clouds 5 1027 94 10000 2.94 240 06:32 15.03.2022
3241 Clouds 6 1026 100 5000 5.66 260 01:59 15.03.2022
3242 Clouds 7 1026 96 10000 3.94 259 23:32 14.03.2022
3243 Clouds 7 1025 93 4500 5.14 250 22:54 14.03.2022
3244 Clouds 7 1025 93 5000 4.12 260 21:56 14.03.2022
3245 Clouds 7 1025 97 10000 2.76 240 21:20 14.03.2022
3246 Clouds 7 1025 97 10000 2.76 240 20:31 14.03.2022
3247 Clouds 7 1024 81 10000 2.06 240 19:47 14.03.2022
3248 Clouds 9 1024 84 10000 0.89 278 18:20 14.03.2022
3249 Clouds 7 1023 70 10000 1.03 0 17:42 14.03.2022
3250 Clouds 7 1023 70 10000 1.03 90 16:54 14.03.2022
3251 Clouds 9 1023 58 10000 0.92 319 15:20 14.03.2022
3252 Clouds 9 1022 46 10000 2.06 30 14:00 14.03.2022
3253 Clouds 9 1023 52 10000 3.17 141 11:27 14.03.2022
3254 Clouds 6 1022 49 10000 3.6 130 09:58 14.03.2022
3255 Clouds 6 1022 49 10000 3.6 130 09:38 14.03.2022
3256 Clouds 6 1022 61 10000 3.97 138 09:18 14.03.2022
3257 Clouds 5 1022 61 10000 3.97 138 08:46 14.03.2022
3258 Clouds 2 1022 74 10000 3.73 130 07:21 14.03.2022
3259 Clouds 3 1021 75 10000 3.93 121 04:22 14.03.2022
3260 Clear 3 1020 70 10000 6.17 110 01:46 14.03.2022
3261 Clouds 3 1020 69 10000 5.66 110 00:38 14.03.2022
3262 Clouds 3 1019 75 10000 3.6 110 21:56 13.03.2022
3263 Clouds 4 1020 59 10000 5.4 127 21:27 13.03.2022
3264 Clouds 3 1019 70 10000 4.12 110 20:49 13.03.2022
3265 Clouds 5 1019 58 10000 5.73 126 20:26 13.03.2022
3266 Clouds 5 1018 65 10000 6.17 120 19:43 13.03.2022
3267 Clouds 6 1019 59 10000 5.6 121 19:25 13.03.2022
3268 Clouds 6 1018 56 10000 7.2 120 18:50 13.03.2022
3269 Clear 7 1019 57 10000 5.66 123 18:27 13.03.2022
3270 Clear 8 1018 46 10000 7.72 110 17:40 13.03.2022
3271 Clear 9 1018 43 10000 7.2 120 16:48 13.03.2022
3272 Clear 9 1019 48 10000 6.26 123 16:27 13.03.2022
3273 Clear 8 1018 49 10000 3.6 100 15:44 13.03.2022
3274 Clear 9 1018 40 10000 6.69 120 14:50 13.03.2022
3275 Clear 8 1019 38 10000 6.73 130 13:30 13.03.2022
3276 Clouds 8 1019 42 10000 5.14 130 12:37 13.03.2022
3277 Clouds 8 1019 39 10000 5.14 120 11:51 13.03.2022
3278 Clouds 8 1019 40 10000 6.43 137 11:30 13.03.2022
3279 Clouds 7 1019 39 10000 6.17 130 10:46 13.03.2022
3280 Clouds 5 1019 45 10000 5.14 130 09:53 13.03.2022
3281 Clear 5 1019 51 10000 5.88 128 09:29 13.03.2022
3282 Clear 3 1019 60 10000 6.17 120 08:40 13.03.2022
3283 Clouds 1 1019 64 10000 6.17 120 07:37 13.03.2022
3284 Clouds 1 1019 69 10000 6.17 130 05:40 13.03.2022
3285 Clouds 2 1020 65 10000 4.17 124 02:27 13.03.2022
3286 Clouds 5 1021 64 10000 3.95 126 23:31 12.03.2022
3287 Clouds 3 1020 75 10000 4.63 130 21:53 12.03.2022
3288 Clouds 5 1021 59 10000 4.53 128 20:29 12.03.2022
3289 Clouds 5 1020 60 10000 6.69 130 19:47 12.03.2022
3290 Clouds 6 1020 61 10000 6.17 120 18:55 12.03.2022
3291 Clouds 6 1021 63 10000 3.72 120 18:21 12.03.2022
3292 Clouds 8 1021 55 10000 3.38 145 17:23 12.03.2022
3293 Clouds 10 1021 50 10000 4.02 163 16:23 12.03.2022
3294 Clouds 11 1021 45 10000 5.35 163 15:22 12.03.2022
3295 Clouds 10 1020 29 10000 5.66 140 14:27 12.03.2022
3296 Clouds 8 1020 29 10000 5.66 130 12:45 12.03.2022
3297 Clouds 6 1020 31 10000 6.69 140 11:56 12.03.2022
3298 Clouds 6 1020 31 10000 6.69 140 11:34 12.03.2022
3299 Clouds 5 1021 33 10000 7.2 150 10:52 12.03.2022
3300 Clouds 4 1021 33 10000 6.17 140 09:44 12.03.2022
3301 Clear 2 1021 41 10000 6.69 140 08:55 12.03.2022
3302 Clear 1 1020 44 10000 5.14 130 07:19 12.03.2022
3303 Clear 2 1020 44 10000 5.14 130 02:34 12.03.2022
3304 Clear 4 1021 38 10000 5.66 130 23:56 11.03.2022
3305 Clear 4 1021 35 10000 6.69 130 22:56 11.03.2022
3306 Clear 5 1021 33 10000 7.2 130 21:35 11.03.2022
3307 Clear 5 1020 36 10000 8.23 140 20:54 11.03.2022
3308 Clear 5 1022 46 10000 8.42 135 20:29 11.03.2022
3309 Clear 5 1020 45 10000 5.66 130 19:42 11.03.2022
3310 Clear 6 1020 39 10000 7.2 120 19:22 11.03.2022
3311 Clear 7 1022 46 10000 8.51 135 17:30 11.03.2022
3312 Clouds 8 1022 45 10000 8.84 132 16:27 11.03.2022
3313 Clouds 8 1021 31 10000 8.23 130 15:53 11.03.2022
3314 Clouds 8 1022 31 10000 8.75 130 14:19 11.03.2022
3315 Clouds 7 1023 29 10000 10.29 140 12:44 11.03.2022
3316 Clouds 7 1024 35 10000 8.59 135 12:21 11.03.2022
3317 Clouds 6 1024 36 10000 8.23 130 11:51 11.03.2022
3318 Clouds 3 1025 52 10000 7.2 130 09:40 11.03.2022
3319 Clouds 2 1025 60 10000 5.66 130 08:56 11.03.2022
3320 Clouds 2 1025 60 10000 7.41 128 08:20 11.03.2022
3321 Clouds 1 1025 64 10000 6.69 120 07:40 11.03.2022
3322 Clouds 1 1025 64 10000 6.17 120 05:44 11.03.2022
3323 Clouds 2 1026 64 10000 5.66 120 03:41 11.03.2022
3324 Clouds 2 1026 64 10000 5.66 120 03:41 11.03.2022
3325 Clouds 4 1026 81 10000 4.63 130 23:36 10.03.2022
3326 Clouds 5 1027 76 10000 5.88 133 22:30 10.03.2022
3327 Clouds 5 1027 79 10000 5.83 134 21:27 10.03.2022
3328 Clouds 5 1027 81 10000 4.63 110 20:55 10.03.2022
3329 Clouds 6 1027 73 10000 5.19 129 19:23 10.03.2022
3330 Clouds 6 1027 75 10000 4.63 110 18:40 10.03.2022
3331 Clouds 8 1027 61 10000 6.69 130 17:19 10.03.2022
3332 Clouds 9 1027 57 10000 6.69 130 15:50 10.03.2022
3333 Clouds 9 1027 57 10000 6.17 140 14:39 10.03.2022
3334 Clouds 9 1028 61 10000 5.14 120 13:19 10.03.2022
3335 Clouds 9 1028 61 10000 4.63 120 11:57 10.03.2022
3336 Clouds 7 1028 70 10000 4.63 120 10:50 10.03.2022
3337 Clouds 3 1028 93 8000 6.17 120 08:56 10.03.2022
3338 Clouds 1 1028 78 10000 4.48 134 07:33 10.03.2022
3339 Clouds 1 1027 93 2700 5.66 120 04:18 10.03.2022
3340 Clouds 1 1027 100 4800 5.66 120 01:40 10.03.2022
3341 Clear 2 1027 87 10000 4.12 120 23:18 09.03.2022
3342 Clear 3 1026 81 10000 5.14 120 21:49 09.03.2022
3343 Clear 3 1027 82 10000 4.17 119 21:27 09.03.2022
3344 Clouds 4 1026 70 10000 5.66 130 19:43 09.03.2022
3345 Clear 6 1026 81 10000 4.11 106 18:29 09.03.2022
3346 Clear 8 1025 71 10000 4.13 107 17:27 09.03.2022
3347 Clear 8 1025 71 10000 4.13 107 17:26 09.03.2022
3348 Clear 10 1025 71 10000 4.13 107 16:31 09.03.2022
3349 Clear 11 1025 50 10000 3.6 80 14:59 09.03.2022
3350 Clear 11 1025 35 10000 4.12 150 13:53 09.03.2022
3351 Clouds 10 1025 37 10000 4.12 150 12:45 09.03.2022
3352 Clouds 8 1025 46 10000 2.57 140 11:53 09.03.2022
3353 Clouds 8 1025 46 10000 2.57 140 11:35 09.03.2022
3354 Clouds 5 1025 65 10000 2.06 170 09:54 09.03.2022
3355 Clouds 3 1026 69 10000 3.19 150 08:51 09.03.2022
3356 Clear -1 1025 83 10000 3.19 138 07:27 09.03.2022
3357 Clouds -1 1025 86 10000 1.54 0 02:42 09.03.2022
3358 Clear 0 1024 86 10000 2.57 140 00:41 09.03.2022
3359 Clear 1 1024 80 10000 5.14 140 22:47 08.03.2022
3360 Clear 2 1024 75 10000 4.63 130 21:59 08.03.2022
3361 Clear 2 1025 76 10000 3.12 129 21:23 08.03.2022
3362 Clear 2 1025 75 10000 3.02 126 20:29 08.03.2022
3363 Clear 4 1025 75 10000 3.02 126 19:31 08.03.2022
3364 Clear 5 1024 52 10000 4.12 130 18:44 08.03.2022
3365 Clear 8 1025 62 10000 2.14 123 17:26 08.03.2022
3366 Clear 9 1024 37 10000 1.54 320 15:45 08.03.2022
3367 Clear 9 1025 49 10000 3.09 290 14:19 08.03.2022
3368 Clouds 8 1025 46 10000 2.57 280 12:43 08.03.2022
3369 Clouds 7 1025 49 10000 1.03 270 11:45 08.03.2022
3370 Clouds 6 1026 52 10000 1.03 0 10:41 08.03.2022
3371 Clouds 3 1026 87 10000 3.09 220 09:43 08.03.2022
3372 Clouds -3 1025 93 10000 2.06 200 06:43 08.03.2022
3373 Clouds -3 1025 93 10000 1.54 230 04:47 08.03.2022
3374 Clouds -1 1026 93 10000 2.06 260 23:36 07.03.2022
3375 Clouds 0 1027 86 10000 1.54 280 21:54 07.03.2022
3376 Clouds 0 1027 84 10000 1.77 281 21:31 07.03.2022
3377 Clouds 1 1027 86 10000 2.06 300 20:44 07.03.2022
3378 Clouds 2 1026 80 10000 3.09 280 19:55 07.03.2022
3379 Clouds 3 1027 84 10000 2.82 295 19:29 07.03.2022
3380 Clear 4 1026 70 10000 4.12 270 18:42 07.03.2022
3381 Clear 6 1026 65 10000 4.63 270 17:47 07.03.2022
3382 Clear 8 1026 53 10000 3.6 270 16:55 07.03.2022
3383 Clear 8 1027 52 10000 1.79 304 15:32 07.03.2022
3384 Clear 7 1028 48 10000 1.47 297 13:24 07.03.2022
3385 Clear 7 1028 49 10000 1.75 272 12:23 07.03.2022
3386 Clear 5 1028 56 10000 1.03 270 10:38 07.03.2022
3387 Clear -1 1027 100 10000 1.03 290 08:48 07.03.2022
3388 Clear -3 1027 100 10000 1.54 330 03:49 07.03.2022
3389 Clear -2 1028 82 10000 1.87 25 00:22 07.03.2022
3390 Clear -2 1028 82 10000 1.87 25 23:31 06.03.2022
3391 Clear -1 1027 93 10000 1.03 20 22:40 06.03.2022
3392 Clear -1 1027 86 10000 1.54 40 21:46 06.03.2022
3393 Clear 0 1026 86 10000 1.03 350 20:38 06.03.2022
3394 Clear 1 1027 80 10000 2.79 35 20:20 06.03.2022
3395 Clear 4 1026 65 10000 2.57 40 18:52 06.03.2022
3396 Clear 4 1026 77 10000 2.07 29 18:23 06.03.2022
3397 Clear 6 1026 69 10000 2.09 50 17:21 06.03.2022
3398 Clear 7 1026 57 10000 4.12 30 16:41 06.03.2022
3399 Clear 7 1026 57 10000 3.09 20 15:49 06.03.2022
3400 Clear 7 1026 57 10000 3.09 20 15:49 06.03.2022
3401 Clear 7 1026 61 10000 1.03 10 14:49 06.03.2022
3402 Clear 7 1026 57 10000 2.63 35 14:31 06.03.2022
3403 Clouds 6 1027 70 10000 3.6 310 13:18 06.03.2022
3404 Clouds 6 1026 55 10000 2.4 19 12:31 06.03.2022
3405 Clouds 3 1027 69 10000 3.09 260 10:59 06.03.2022
3406 Clouds 2 1027 59 10000 1.61 328 10:22 06.03.2022
3407 Clouds -1 1027 75 10000 1.3 334 08:29 06.03.2022
3408 Clouds -1 1027 75 10000 1.3 334 08:29 06.03.2022
3409 Clouds -1 1027 75 10000 1.3 334 08:29 06.03.2022
3410 Clouds -1 1027 75 10000 1.3 334 08:29 06.03.2022
3411 Clouds -3 1027 93 10000 2.06 300 07:34 06.03.2022
3412 Clear -2 1027 80 10000 1.68 352 05:32 06.03.2022
3413 Clouds 0 1027 64 10000 2.57 60 00:51 06.03.2022
3414 Clear 0 1027 84 10000 1.81 10 00:30 06.03.2022
3415 Clear 1 1027 84 10000 1.7 39 23:21 05.03.2022
3416 Clear 1 1027 64 10000 4.12 30 22:47 05.03.2022
3417 Clear 1 1026 69 10000 2.57 60 21:46 05.03.2022
3418 Clouds 1 1027 84 10000 1.93 75 21:21 05.03.2022
3419 Clouds 2 1026 83 10000 2.68 90 19:26 05.03.2022
3420 Clouds 2 1026 60 10000 2.06 110 18:54 05.03.2022
3421 Clouds 2 1026 79 10000 2.97 88 18:27 05.03.2022
3422 Clouds 3 1026 60 10000 4.12 120 16:34 05.03.2022
3423 Clouds 4 1025 59 10000 4.33 83 15:31 05.03.2022
3424 Clouds 4 1026 56 10000 3.6 100 14:47 05.03.2022
3425 Clouds 5 1026 58 10000 4.34 87 14:29 05.03.2022
3426 Clouds 5 1026 57 10000 4.01 96 13:22 05.03.2022
3427 Clear 4 1026 65 10000 3.09 160 11:48 05.03.2022
3428 Clear 3 1026 75 10000 2.57 140 11:19 05.03.2022
3429 Clear 2 1026 93 10000 2.06 130 10:18 05.03.2022
3430 Clear 1 1026 79 10000 3.01 131 09:22 05.03.2022
3431 Clear -2 1025 100 10000 2.57 120 07:38 05.03.2022
3432 Clear -3 1025 100 10000 2.57 150 05:43 05.03.2022
3433 Clear -2 1025 93 10000 4.63 130 03:18 05.03.2022
3434 Clear -2 1026 100 10000 3.09 120 23:38 04.03.2022
3435 Clear -1 1026 100 10000 3.6 120 22:42 04.03.2022
3436 Clear -1 1026 93 10000 3.6 120 22:19 04.03.2022
3437 Clear 0 1025 100 10000 3.6 130 20:57 04.03.2022
3438 Clear 0 1026 91 10000 3.21 110 20:27 04.03.2022
3439 Clear 1 1025 100 10000 2.57 120 19:36 04.03.2022
3440 Clouds 2 1025 87 10000 2.57 120 18:45 04.03.2022
3441 Clouds 4 1025 70 10000 4.63 120 17:48 04.03.2022
3442 Clouds 4 1025 76 10000 4.72 109 17:28 04.03.2022
3443 Clouds 6 1025 67 10000 4.73 108 15:31 04.03.2022
3444 Clouds 5 1025 75 10000 3.09 90 14:36 04.03.2022
3445 Clouds 5 1025 63 10000 3.63 114 13:27 04.03.2022
3446 Clear 2 1025 93 1600 2.06 110 11:56 04.03.2022
3447 Clear 1 1025 100 200 0.51 80 10:57 04.03.2022
3448 Clear 1 1025 75 10000 2.4 97 10:21 04.03.2022
3449 Clear -2 1025 93 250 0.51 60 08:48 04.03.2022
3450 Clear -2 1024 100 200 0 0 07:47 04.03.2022
3451 Clear -1 1025 91 10000 1.71 127 05:26 04.03.2022
3452 Clear -1 1025 92 10000 2.88 87 00:41 04.03.2022
3453 Clear -1 1024 100 5000 3.6 50 22:54 03.03.2022
3454 Clear 0 1024 93 9000 2.57 40 21:58 03.03.2022
3455 Clear -1 1024 93 9000 2.57 40 21:35 03.03.2022
3456 Clear 0 1024 84 10000 3.06 57 20:27 03.03.2022
3457 Clear 2 1023 93 10000 1.03 0 18:58 03.03.2022
3458 Clear 3 1023 78 10000 2.31 63 18:25 03.03.2022
3459 Clear 4 1023 78 10000 2.31 63 17:31 03.03.2022
3460 Clear 5 1023 81 10000 1.03 50 16:38 03.03.2022
3461 Clear 5 1023 81 10000 1.54 120 15:43 03.03.2022
3462 Clear 5 1023 81 10000 3.09 30 14:44 03.03.2022
3463 Clear 6 1023 55 10000 4.54 77 14:25 03.03.2022
3464 Clear 3 1023 56 10000 4.61 80 12:33 03.03.2022
3465 Clear 2 1023 64 10000 4.05 75 11:23 03.03.2022
3466 Clear 1 1023 71 10000 3.33 70 10:21 03.03.2022
3467 Clear 0 1023 100 200 2.06 50 08:42 03.03.2022
3468 Clear -3 1022 100 8000 3.09 60 06:57 03.03.2022
3469 Clear -2 1022 100 5000 2.57 270 05:37 03.03.2022
3470 Clouds -1 1024 93 10000 1.54 290 23:57 02.03.2022
3471 Clouds -1 1024 93 10000 1.03 320 23:18 02.03.2022
3472 Clouds -1 1024 93 10000 1.03 320 22:42 02.03.2022
3473 Clouds 0 1025 81 10000 1.63 75 21:22 02.03.2022
3474 Clouds 0 1025 81 10000 1.63 75 20:30 02.03.2022
3475 Clouds 1 1025 80 10000 1.03 0 19:43 02.03.2022
3476 Clouds 2 1025 75 10000 2.06 40 19:24 02.03.2022
3477 Clouds 3 1025 75 10000 2.06 40 18:39 02.03.2022
3478 Clouds 5 1025 56 10000 2.06 30 17:45 02.03.2022
3479 Clouds 6 1025 53 10000 2.06 40 16:54 02.03.2022
3480 Clear 6 1025 60 10000 2.42 63 16:25 02.03.2022
3481 Clear 6 1026 65 10000 2.06 40 14:39 02.03.2022
3482 Clear 5 1027 61 10000 3.28 59 13:23 02.03.2022
3483 Clear 4 1027 81 10000 3.09 20 12:40 02.03.2022
3484 Clear 3 1028 87 10000 2.57 50 11:38 02.03.2022
3485 Clear 3 1028 87 10000 3.6 40 11:18 02.03.2022
3486 Clear 2 1028 93 8000 3.6 30 09:41 02.03.2022
3487 Clear 1 1028 93 10000 2.06 50 08:51 02.03.2022
3488 Clouds 0 1028 96 10000 2.73 54 07:25 02.03.2022
3489 Clouds 1 1028 93 4700 3.09 60 05:44 02.03.2022
3490 Clouds 3 1029 87 10000 3.6 20 00:58 02.03.2022
3491 Clouds 2 1029 100 4800 2.06 10 23:46 01.03.2022
3492 Clouds 3 1030 93 6000 1.54 10 22:45 01.03.2022
3493 Rain 3 1029 87 6000 1.03 0 21:56 01.03.2022
3494 Rain 3 1030 87 10000 1.7 39 21:23 01.03.2022
3495 Rain 3 1029 83 10000 1.53 58 20:29 01.03.2022
3496 Rain 3 1029 82 10000 1.6 84 19:24 01.03.2022
3497 Clouds 4 1029 70 10000 2.06 20 18:37 01.03.2022
3498 Clouds 4 1029 70 10000 1.03 350 18:18 01.03.2022
3499 Clouds 4 1029 65 10000 1.54 360 17:19 01.03.2022
3500 Rain 5 1029 80 10000 1.97 353 16:31 01.03.2022
3501 Clouds 4 1028 65 10000 0.51 10 15:38 01.03.2022
3502 Clouds 5 1029 65 10000 0.51 290 14:34 01.03.2022
3503 Rain 5 1029 65 10000 2.06 280 13:52 01.03.2022
3504 Clouds 5 1029 56 10000 2.54 210 13:24 01.03.2022
3505 Clouds 4 1029 55 10000 2.92 214 12:32 01.03.2022
3506 Clouds 2 1029 64 10000 3.09 220 10:36 01.03.2022
3507 Clouds 1 1029 64 10000 2.57 190 08:42 01.03.2022
3508 Clouds 0 1028 74 10000 3.09 160 07:52 01.03.2022
3509 Clouds 0 1029 69 10000 3.09 160 05:54 01.03.2022
3510 Clouds 1 1029 69 10000 8.75 170 02:44 01.03.2022
3511 Clouds 2 1030 69 10000 7.2 170 00:34 01.03.2022
3512 Clouds 2 1031 61 10000 5.39 169 23:30 28.02.2022
3513 Clouds 2 1031 70 10000 5.66 160 22:18 28.02.2022
3514 Clouds 3 1031 70 10000 5.66 160 21:37 28.02.2022
3515 Clouds 4 1031 65 10000 6.17 150 19:56 28.02.2022
3516 Clouds 5 1031 65 10000 6.17 150 19:36 28.02.2022
3517 Clear 5 1031 61 10000 5.66 150 18:43 28.02.2022
3518 Clear 6 1031 69 10000 4.05 155 17:33 28.02.2022
3519 Clear 8 1031 49 10000 5.66 170 16:43 28.02.2022
3520 Clear 9 1032 54 10000 5.32 164 15:27 28.02.2022
3521 Clear 9 1032 54 10000 5.32 164 14:32 28.02.2022
3522 Clear 9 1032 49 10000 5.14 170 13:48 28.02.2022
3523 Clear 7 1033 57 10000 5.14 170 12:48 28.02.2022
3524 Clear 6 1033 61 10000 4.63 180 11:58 28.02.2022
3525 Clear 5 1033 70 10000 4.12 170 11:18 28.02.2022
3526 Clear 4 1033 64 10000 5.59 170 10:21 28.02.2022
3527 Clear 3 1033 80 10000 3.6 160 09:36 28.02.2022
3528 Clear 1 1032 80 10000 5.66 160 08:48 28.02.2022
3529 Clear 0 1032 86 10000 5.66 160 07:43 28.02.2022
3530 Clear 0 1033 86 10000 5.14 150 05:52 28.02.2022
3531 Clear 0 1033 90 10000 3.92 156 04:30 28.02.2022
3532 Clear 1 1034 87 10000 5.14 150 00:42 28.02.2022
3533 Clear 2 1034 93 10000 4.63 140 22:38 27.02.2022
3534 Clear 2 1034 93 10000 4.12 140 21:58 27.02.2022
3535 Clear 2 1034 93 10000 4.12 140 21:36 27.02.2022
3536 Clear 2 1035 93 10000 4.63 130 20:43 27.02.2022
3537 Clear 2 1035 93 10000 4.12 120 20:18 27.02.2022
3538 Clear 2 1035 93 10000 4.12 120 19:43 27.02.2022
3539 Clear 3 1035 81 10000 3.09 134 19:21 27.02.2022
3540 Clear 4 1035 76 10000 2.74 132 18:24 27.02.2022
3541 Clear 5 1035 81 10000 4.63 120 17:45 27.02.2022
3542 Clear 7 1035 58 10000 3.54 155 16:23 27.02.2022
3543 Clear 7 1035 52 10000 4.54 159 15:21 27.02.2022
3544 Clear 6 1036 56 10000 4.1 160 12:37 27.02.2022
3545 Clear 5 1037 65 10000 5.14 140 11:51 27.02.2022
3546 Clear 4 1037 70 10000 4.12 140 10:37 27.02.2022
3547 Clear 2 1037 80 10000 5.14 140 09:58 27.02.2022
3548 Clear 2 1037 80 10000 5.14 140 09:58 27.02.2022
3549 Clear 2 1037 72 10000 3.93 148 09:23 27.02.2022
3550 Clear 0 1036 93 10000 4.12 150 08:48 27.02.2022
3551 Clear -1 1036 87 10000 3.09 142 06:26 27.02.2022
3552 Clear -1 1036 93 10000 3.09 160 03:44 27.02.2022
3553 Clear 1 1036 86 10000 3.17 149 00:31 27.02.2022
3554 Clear 0 1036 86 10000 2.57 150 22:48 26.02.2022
3555 Clear 1 1036 77 10000 2.49 140 21:29 26.02.2022
3556 Clear 1 1035 86 10000 1.03 0 20:43 26.02.2022
3557 Clear 2 1035 75 10000 4.12 160 19:58 26.02.2022
3558 Clear 3 1036 77 10000 2.39 126 19:33 26.02.2022
3559 Clear 4 1035 70 10000 3.09 140 18:34 26.02.2022
3560 Clear 6 1034 53 10000 2.06 130 17:38 26.02.2022
3561 Clear 8 1034 42 10000 0.51 20 16:39 26.02.2022
3562 Clear 8 1034 46 10000 0 0 15:45 26.02.2022
3563 Clear 9 1034 48 10000 1.36 117 15:20 26.02.2022
3564 Clear 8 1034 42 10000 0 0 14:51 26.02.2022
3565 Clear 8 1034 49 10000 0.76 96 14:24 26.02.2022
3566 Clear 7 1034 57 10000 1.03 320 12:59 26.02.2022
3567 Clear 7 1034 61 10000 0.51 270 11:54 26.02.2022
3568 Clear 7 1034 61 10000 1.86 355 11:28 26.02.2022
3569 Clear 5 1034 61 10000 1.86 355 10:31 26.02.2022
3570 Clear 1 1032 93 10000 2.57 320 08:45 26.02.2022
3571 Clear 1 1030 93 10000 1.54 260 06:46 26.02.2022
3572 Clear 4 1024 87 10000 7.72 320 00:38 26.02.2022
3573 Clear 4 1021 87 10000 9.26 310 22:47 25.02.2022
3574 Clear 5 1020 81 10000 9.77 310 21:40 25.02.2022
3575 Clear 5 1020 75 10000 8.51 305 21:21 25.02.2022
3576 Clear 5 1020 75 10000 8.51 305 20:32 25.02.2022
3577 Clouds 5 1016 81 10000 11.32 310 18:41 25.02.2022
3578 Clouds 6 1014 81 10000 7.98 308 17:23 25.02.2022
3579 Clouds 6 1012 81 10000 7.6 309 16:24 25.02.2022
3580 Clouds 6 1011 81 10000 11.83 320 15:43 25.02.2022
3581 Clouds 6 1011 80 10000 6.91 303 15:20 25.02.2022
3582 Clouds 6 1010 81 10000 10.29 310 14:42 25.02.2022
3583 Clouds 5 1010 80 10000 7.38 292 13:36 25.02.2022
3584 Clouds 5 1008 93 10000 9.26 290 12:56 25.02.2022
3585 Rain 3 1007 85 5044 9.25 265 11:28 25.02.2022
3586 Clouds 3 1007 87 5000 5.66 240 10:40 25.02.2022
3587 Rain 3 1007 84 10000 8.6 247 10:22 25.02.2022
3588 Rain 3 1006 87 10000 12.35 280 09:18 25.02.2022
3589 Rain 3 1005 87 10000 9.77 250 07:42 25.02.2022
3590 Clouds 3 1005 81 10000 10.29 250 05:51 25.02.2022
3591 Clouds 3 1005 87 10000 11.83 250 04:41 25.02.2022
3592 Clouds 3 1004 82 10000 6.88 262 00:27 25.02.2022
3593 Clouds 2 1001 87 10000 8.23 270 21:59 24.02.2022
3594 Clouds 2 1001 87 10000 8.23 270 21:40 24.02.2022
3595 Clouds 2 1002 94 10000 7.43 262 21:20 24.02.2022
3596 Snow 2 1002 94 10000 7.43 262 20:30 24.02.2022
3597 Snow 1 998 100 10000 9.26 290 18:52 24.02.2022
3598 Rain 2 997 93 10000 10.29 280 18:19 24.02.2022
3599 Rain 3 997 93 10000 10.29 280 17:42 24.02.2022
3600 Rain 6 996 87 10000 9.26 210 16:56 24.02.2022
3601 Rain 6 996 77 10000 10.27 207 16:25 24.02.2022
3602 Rain 6 996 77 10000 10.3 207 16:25 24.02.2022
3603 Clouds 8 996 77 10000 10.3 207 15:30 24.02.2022
3604 Clouds 8 999 76 6000 7.2 210 14:37 24.02.2022
3605 Clouds 8 1000 76 10000 7.72 210 13:45 24.02.2022
3606 Clouds 8 1001 78 10000 8.34 206 13:27 24.02.2022
3607 Clouds 6 1004 87 7000 8.23 210 10:48 24.02.2022
3608 Rain 6 1005 87 10000 8.75 210 09:42 24.02.2022
3609 Rain 6 1006 76 10000 9.77 230 08:43 24.02.2022
3610 Rain 6 1006 76 10000 9.77 230 08:43 24.02.2022
3611 Clouds 7 1007 81 10000 8.74 219 06:27 24.02.2022
3612 Clouds 7 1007 76 10000 9.26 230 05:36 24.02.2022
3613 Clouds 7 1011 71 10000 9.52 217 00:30 24.02.2022
3614 Clouds 7 1014 65 10000 9.26 230 21:56 23.02.2022
3615 Clouds 7 1015 65 10000 9.77 240 20:43 23.02.2022
3616 Clouds 6 1015 76 10000 9.26 230 20:20 23.02.2022
3617 Clouds 7 1015 70 10000 8.23 240 19:34 23.02.2022
3618 Clouds 7 1016 75 10000 9.38 234 18:22 23.02.2022
3619 Clouds 8 1017 77 10000 9.12 235 16:27 23.02.2022
3620 Clear 8 1018 76 10000 12.86 270 13:45 23.02.2022
3621 Clouds 8 1019 75 10000 8.47 246 12:31 23.02.2022
3622 Clouds 7 1019 82 10000 7.65 258 10:56 23.02.2022
3623 Clouds 6 1017 87 10000 10.8 280 09:49 23.02.2022
3624 Clouds 5 1016 87 10000 10.29 270 08:54 23.02.2022
3625 Clouds 5 1015 87 10000 10.29 280 07:53 23.02.2022
3626 Clear 5 1010 81 10000 11.83 290 02:58 23.02.2022
3627 Clouds 6 1007 81 10000 12.86 290 00:18 23.02.2022
3628 Clouds 6 1007 81 10000 12.86 290 23:33 22.02.2022
3629 Clouds 6 1006 81 10000 9.75 291 22:28 22.02.2022
3630 Clouds 6 1004 87 10000 12.35 300 21:45 22.02.2022
3631 Clouds 6 1005 86 10000 9.22 288 21:21 22.02.2022
3632 Clouds 6 1002 100 2000 13.38 290 20:43 22.02.2022
3633 Clouds 6 1003 88 10000 11.39 301 20:25 22.02.2022
3634 Rain 7 1001 93 9000 9.77 250 19:34 22.02.2022
3635 Rain 6 1002 100 9000 7.2 220 18:43 22.02.2022
3636 Clouds 6 1003 93 4600 9.26 210 17:35 22.02.2022
3637 Clouds 5 1004 93 6000 7.2 200 16:58 22.02.2022
3638 Rain 5 1005 90 10000 7.57 202 16:26 22.02.2022
3639 Clouds 6 1006 81 10000 7.2 210 15:36 22.02.2022
3640 Clouds 6 1008 75 10000 6.69 220 14:37 22.02.2022
3641 Clouds 6 1010 75 10000 9.26 270 11:41 22.02.2022
3642 Clouds 5 1011 82 10000 3.88 291 10:22 22.02.2022
3643 Clouds 4 1009 81 10000 8.75 300 07:41 22.02.2022
3644 Clouds 4 1009 81 10000 6.54 303 07:23 22.02.2022
3645 Clouds 5 1004 70 10000 12.86 310 02:51 22.02.2022
3646 Clouds 5 1001 75 10000 12.35 320 00:44 22.02.2022
3647 Clouds 6 998 81 10000 11.32 310 22:38 21.02.2022
3648 Clouds 6 997 86 10000 8.34 305 21:24 21.02.2022
3649 Clouds 5 994 87 10000 8.75 290 20:19 21.02.2022
3650 Clouds 5 993 87 10000 9.77 300 18:40 21.02.2022
3651 Clouds 5 990 81 10000 10.8 270 16:40 21.02.2022
3652 Clouds 5 989 93 1966 7.68 257 14:24 21.02.2022
3653 Clouds 4 987 87 10000 10.29 260 13:56 21.02.2022
3654 Rain 4 987 87 10000 12.35 280 12:57 21.02.2022
3655 Rain 4 986 81 10000 13.38 270 12:22 21.02.2022
3656 Clouds 4 985 81 10000 13.89 270 10:35 21.02.2022
3657 Clouds 3 985 83 10000 10.17 264 08:31 21.02.2022
3658 Rain 7 976 93 10000 14.4 260 00:56 21.02.2022
3659 Rain 9 979 93 9000 11.32 220 22:45 20.02.2022
3660 Rain 9 982 93 8000 11.83 220 22:18 20.02.2022
3661 Rain 9 982 93 8000 11.83 220 21:40 20.02.2022
3662 Rain 8 984 93 10000 10.29 220 20:51 20.02.2022
3663 Rain 8 985 95 9880 9.84 223 20:21 20.02.2022
3664 Rain 8 988 96 10000 10.24 233 19:21 20.02.2022
3665 Rain 8 988 93 4800 10.8 250 18:42 20.02.2022
3666 Rain 8 989 95 10000 10.02 239 18:23 20.02.2022
3667 Clouds 8 989 95 10000 10.02 239 17:30 20.02.2022
3668 Rain 7 992 95 10000 10.32 245 15:30 20.02.2022
3669 Rain 7 991 100 2100 9.77 240 14:33 20.02.2022
3670 Rain 3 995 93 10000 8.75 180 13:22 20.02.2022
3671 Rain 4 995 96 10000 8.54 193 13:22 20.02.2022
3672 Rain 4 995 96 10000 8.54 193 13:22 20.02.2022
3673 Rain 3 997 93 10000 8.23 190 11:56 20.02.2022
3674 Rain 3 997 93 10000 8.23 190 11:56 20.02.2022
3675 Rain 3 997 93 10000 8.23 190 11:56 20.02.2022
3676 Rain 3 1001 88 10000 7.4 207 10:21 20.02.2022
3677 Rain 3 1000 93 10000 5.14 200 09:35 20.02.2022
3678 Clouds 1 1003 88 10000 3.27 222 06:30 20.02.2022
3679 Rain 2 1002 93 10000 6.69 220 00:32 20.02.2022
3680 Rain 3 1003 93 10000 6.69 240 23:33 19.02.2022
3681 Rain 3 1003 86 10000 6.49 235 22:24 19.02.2022
3682 Clouds 4 1003 86 10000 6.49 235 21:50 19.02.2022
3683 Clouds 4 1003 87 10000 8.75 260 20:41 19.02.2022
3684 Clouds 4 1003 81 10000 9.77 250 19:36 19.02.2022
3685 Rain 4 1003 87 2500 14.92 260 18:41 19.02.2022
3686 Clouds 5 1003 75 10000 11.83 250 17:58 19.02.2022
3687 Clouds 4 1003 84 10000 9.93 250 17:23 19.02.2022
3688 Clouds 6 1003 75 10000 15.43 260 15:59 19.02.2022
3689 Clouds 6 1002 81 10000 12.86 260 14:55 19.02.2022
3690 Rain 5 1002 75 10000 12.35 260 13:58 19.02.2022
3691 Clouds 5 1001 75 10000 14.4 280 11:58 19.02.2022
3692 Clouds 6 1001 79 10000 10.01 267 11:29 19.02.2022
3693 Clouds 4 998 78 10000 10.83 280 09:21 19.02.2022
3694 Clouds 4 991 81 10000 16.98 290 06:51 19.02.2022
3695 Clouds 5 977 87 7000 17.49 260 00:55 19.02.2022
3696 Clouds 5 976 87 10000 19.55 260 22:41 18.02.2022
3697 Clouds 6 974 85 10000 16.4 249 21:27 18.02.2022
3698 Rain 6 974 85 10000 16.4 249 20:31 18.02.2022
3699 Rain 6 975 81 7000 12.35 240 19:51 18.02.2022
3700 Rain 6 975 81 7000 12.35 240 19:51 18.02.2022
3701 Rain 6 977 87 6000 11.83 250 18:39 18.02.2022
3702 Clouds 7 979 81 10000 11.83 230 18:19 18.02.2022
3703 Clouds 7 980 80 10000 13.91 236 17:20 18.02.2022
3704 Rain 4 986 93 10000 5.14 170 14:39 18.02.2022
3705 Rain 4 989 93 7000 8.75 150 13:47 18.02.2022
3706 Rain 4 993 93 10000 7.72 180 12:51 18.02.2022
3707 Rain 5 995 87 10000 4.63 190 11:57 18.02.2022
3708 Rain 5 997 81 10000 5.66 200 10:47 18.02.2022
3709 Clouds 4 1000 89 10000 5.37 219 09:29 18.02.2022
3710 Clouds 5 1001 81 10000 7.2 250 06:50 18.02.2022
3711 Clouds 5 1001 81 10000 8.23 260 05:36 18.02.2022
3712 Clouds 5 998 81 10000 12.35 280 22:43 17.02.2022
3713 Clouds 5 998 87 10000 14.4 300 21:42 17.02.2022
3714 Clouds 5 996 81 10000 15.95 290 20:52 17.02.2022
3715 Clouds 5 996 81 10000 15.95 290 20:33 17.02.2022
3716 Rain 5 995 81 10000 20.58 280 19:43 17.02.2022
3717 Rain 5 994 81 10000 18.01 280 18:34 17.02.2022
3718 Rain 6 993 81 2300 16.46 270 17:46 17.02.2022
3719 Clouds 6 993 80 10000 11.88 275 16:20 17.02.2022
3720 Clouds 6 991 81 10000 16.46 290 14:39 17.02.2022
3721 Rain 6 990 76 10000 15.95 290 13:47 17.02.2022
3722 Clouds 6 988 87 10000 13.89 290 11:59 17.02.2022
3723 Rain 6 988 83 10000 8.73 283 11:21 17.02.2022
3724 Clouds 6 981 87 10000 11.83 320 08:37 17.02.2022
3725 Clouds 8 974 81 10000 15.13 259 00:29 17.02.2022
3726 Clouds 10 973 87 4600 16.98 250 22:39 16.02.2022
3727 Rain 9 977 93 8000 11.83 230 20:39 16.02.2022
3728 Rain 9 979 94 6110 11.61 232 19:32 16.02.2022
3729 Rain 9 981 87 6000 13.38 250 18:36 16.02.2022
3730 -273 0 0 0 0 0 17:35 16.02.2022
3731 -273 0 0 0 0 0 17:35 16.02.2022
3732 Clouds 10 984 87 10000 12.55 252 15:26 16.02.2022
3733 Clouds 9 982 87 10000 16.46 260 14:57 16.02.2022
3734 Rain 9 982 93 8000 11.32 230 12:34 16.02.2022
3735 Clouds 7 983 100 5000 8.23 190 11:53 16.02.2022
3736 Rain 7 986 95 10000 7.43 194 11:23 16.02.2022
3737 Rain 6 989 97 5527 5.7 148 10:29 16.02.2022
3738 Rain 5 994 87 10000 5.66 210 06:57 16.02.2022
3739 Clouds 5 996 93 10000 5.66 230 04:42 16.02.2022
3740 Rain 5 997 87 10000 9.26 240 23:35 15.02.2022
3741 Clouds 5 998 87 6000 10.29 210 22:18 15.02.2022
3742 Rain 5 998 87 6000 10.29 210 21:45 15.02.2022
3743 Rain 5 999 96 633 10.87 202 21:27 15.02.2022
3744 Rain 5 998 87 9000 9.26 200 20:53 15.02.2022
3745 Rain 6 999 81 10000 9.26 200 19:55 15.02.2022
3746 Rain 7 1000 70 10000 7.72 190 18:52 15.02.2022
3747 Clouds 6 1002 75 10000 7.72 210 18:19 15.02.2022
3748 Clouds 6 1002 75 10000 7.72 210 17:48 15.02.2022
3749 Clouds 7 1002 80 10000 7.96 211 16:32 15.02.2022
3750 Clouds 7 1004 79 10000 8 228 15:22 15.02.2022
3751 Clouds 7 1005 65 10000 6.12 229 13:26 15.02.2022
3752 Clouds 7 1004 65 10000 8.75 260 11:57 15.02.2022
3753 Clouds 6 1004 75 10000 7.72 260 10:59 15.02.2022
3754 Clouds 5 1004 68 10000 6.93 265 09:28 15.02.2022
3755 Clouds 5 1001 93 10000 10.29 270 06:52 15.02.2022
3756 Rain 6 997 93 9000 11.32 240 03:55 15.02.2022
3757 Clouds 7 998 70 10000 8.23 220 22:36 14.02.2022
3758 Clouds 7 998 66 10000 7.2 210 21:36 14.02.2022
3759 Clouds 7 998 66 10000 8.23 220 20:37 14.02.2022
3760 Clouds 7 999 84 10000 8.11 220 19:34 14.02.2022
3761 Clouds 8 998 76 10000 8.75 240 18:42 14.02.2022
3762 Clouds 8 998 84 10000 7.88 217 18:22 14.02.2022
3763 Clouds 9 997 82 10000 7.29 219 17:26 14.02.2022
3764 Clouds 9 997 84 10000 7.56 220 16:24 14.02.2022
3765 Clouds 9 997 84 10000 9.07 222 14:29 14.02.2022
3766 Clouds 10 997 84 10000 9.07 222 13:31 14.02.2022
3767 Clouds 10 995 62 10000 8.75 200 12:52 14.02.2022
3768 Clouds 10 995 62 10000 8.23 190 11:54 14.02.2022
3769 Clouds 9 995 66 10000 7.72 190 10:56 14.02.2022
3770 Clouds 8 995 66 10000 8.75 180 08:45 14.02.2022
3771 Clouds 8 996 75 10000 7.71 189 07:32 14.02.2022
3772 Clouds 8 996 66 10000 8.75 180 05:56 14.02.2022
3773 Clouds 6 1001 61 10000 9.26 190 22:43 13.02.2022
3774 Clouds 6 1002 72 10000 7.91 187 22:25 13.02.2022
3775 Clouds 5 1002 72 10000 7.91 187 21:32 13.02.2022
3776 Clouds 5 1002 60 10000 7.72 190 20:40 13.02.2022
3777 Clouds 5 1003 60 10000 8.23 190 19:51 13.02.2022
3778 Clouds 5 1004 65 10000 6.69 190 18:54 13.02.2022
3779 Clouds 5 1004 65 10000 6.69 190 18:35 13.02.2022
3780 Clouds 6 1005 61 10000 5.66 200 16:38 13.02.2022
3781 Clouds 5 1007 65 10000 6.91 207 15:27 13.02.2022
3782 Clouds 5 1007 65 10000 7.2 220 14:37 13.02.2022
3783 Clouds 4 1009 65 10000 7.2 220 12:52 13.02.2022
3784 Clouds 3 1010 67 10000 7.43 210 12:33 13.02.2022
3785 Clouds 2 1010 75 10000 6.17 210 10:38 13.02.2022
3786 Clouds 2 1010 69 10000 6.17 200 09:49 13.02.2022
3787 Clouds 1 1010 69 10000 7.2 210 07:54 13.02.2022
3788 Clouds 2 1015 73 10000 8.27 201 01:24 13.02.2022
3789 Clouds 2 1016 69 10000 8.33 205 00:21 13.02.2022
3790 Clouds 2 1016 69 10000 8.23 200 22:34 12.02.2022
3791 Clouds 3 1017 65 10000 8.75 200 21:40 12.02.2022
3792 Clouds 3 1018 65 10000 9.26 200 20:55 12.02.2022
3793 Clouds 3 1019 65 10000 6.69 190 19:56 12.02.2022
3794 Clouds 3 1020 65 10000 7.72 190 18:54 12.02.2022
3795 Clouds 3 1020 65 10000 7.72 190 18:36 12.02.2022
3796 Clouds 3 1020 60 10000 6.17 200 17:39 12.02.2022
3797 Clouds 4 1021 60 10000 7.2 210 16:45 12.02.2022
3798 Clouds 5 1022 60 10000 7.72 220 15:53 12.02.2022
3799 Clouds 5 1023 64 10000 7.97 211 15:20 12.02.2022
3800 Clouds 5 1024 65 10000 8.18 214 14:25 12.02.2022
3801 Clouds 4 1026 69 10000 8.08 213 11:31 12.02.2022
3802 Clouds 2 1026 73 10000 7.57 211 10:32 12.02.2022
3803 Clouds 1 1026 80 10000 6.17 200 09:37 12.02.2022
3804 Clouds 1 1027 75 10000 6.17 200 08:46 12.02.2022
3805 Clouds 0 1027 75 10000 6.17 200 07:44 12.02.2022
3806 Clouds 0 1029 75 10000 6.17 210 04:47 12.02.2022
3807 Clear -1 1030 75 10000 7.2 230 02:19 12.02.2022
3808 Clear -1 1030 80 10000 4.12 230 23:34 11.02.2022
3809 Clear -1 1031 82 10000 2.71 248 22:23 11.02.2022
3810 Clear -1 1030 86 10000 4.63 280 21:34 11.02.2022
3811 Clear 0 1030 80 10000 2.79 294 20:28 11.02.2022
3812 Clear 1 1029 80 10000 3.39 295 19:29 11.02.2022
3813 Clear 2 1028 69 10000 6.17 310 18:44 11.02.2022
3814 Clear 3 1027 70 10000 4.88 315 17:27 11.02.2022
3815 Clear 4 1026 60 10000 8.75 330 16:47 11.02.2022
3816 Clear 5 1025 66 10000 6.03 324 15:26 11.02.2022
3817 Clear 5 1024 56 10000 9.77 340 14:38 11.02.2022
3818 Clear 5 1024 67 10000 6.06 329 14:20 11.02.2022
3819 Clear 5 1022 65 10000 9.26 340 13:47 11.02.2022
3820 Clouds 4 1023 68 10000 6.27 334 13:28 11.02.2022
3821 Clouds 3 1021 90 10000 4.98 353 11:26 11.02.2022
3822 Clouds 2 1017 93 10000 2.06 260 09:38 11.02.2022
3823 Clouds 1 1016 100 8000 1.03 280 08:39 11.02.2022
3824 Clouds 1 1016 97 10000 2.81 230 08:21 11.02.2022
3825 Clouds 1 1016 96 10000 2.96 231 06:31 11.02.2022
3826 Clear 2 1015 93 10000 3.85 230 02:25 11.02.2022
3827 Clouds 3 1014 87 10000 3.6 240 00:46 11.02.2022
3828 Clouds 3 1015 87 10000 6.17 250 22:45 10.02.2022
3829 Clouds 3 1015 87 10000 5.66 260 21:44 10.02.2022
3830 Clouds 3 1015 87 10000 6.69 250 20:52 10.02.2022
3831 Clouds 3 1015 83 10000 4.98 261 20:29 10.02.2022
3832 Clouds 3 1015 82 10000 5.37 258 19:24 10.02.2022
3833 Clouds 4 1014 87 10000 5.66 250 18:43 10.02.2022
3834 Clouds 5 1014 82 10000 5.4 265 17:26 10.02.2022
3835 Clouds 5 1014 81 10000 6.69 270 16:47 10.02.2022
3836 Clouds 6 1014 80 10000 5.9 267 15:47 10.02.2022
3837 Clouds 6 1014 78 10000 5.9 267 15:28 10.02.2022
3838 Clouds 6 1013 70 10000 11.32 280 14:46 10.02.2022
3839 Clouds 6 1014 77 10000 6.21 268 14:23 10.02.2022
3840 Clouds 7 1014 78 10000 6.23 266 13:22 10.02.2022
3841 Clouds 7 1014 80 10000 5.39 263 12:23 10.02.2022
3842 Clouds 6 1014 81 10000 7.72 260 11:33 10.02.2022
3843 Clouds 6 1014 81 10000 6.17 250 10:35 10.02.2022
3844 Clouds 5 1014 87 10000 6.17 260 09:50 10.02.2022
3845 Clouds 5 1014 87 10000 5.66 260 09:18 10.02.2022
3846 Clouds 5 1014 87 10000 6.17 250 06:50 10.02.2022
3847 Clouds 4 1016 81 10000 5.14 230 03:55 10.02.2022
3848 Clouds 4 1017 87 10000 7.2 250 01:43 10.02.2022
3849 Clouds 4 1017 93 10000 6.69 250 00:42 10.02.2022
3850 Clouds 4 1019 94 10000 4.16 245 00:24 10.02.2022
3851 Clouds 4 1018 93 10000 6.69 260 22:58 09.02.2022
3852 Clouds 5 1018 93 10000 6.69 260 22:34 09.02.2022
3853 Clouds 5 1018 93 10000 8.23 270 21:49 09.02.2022
3854 Clouds 5 1019 88 10000 5.11 261 21:28 09.02.2022
3855 Clouds 5 1019 88 10000 5.11 261 20:47 09.02.2022
3856 Clouds 5 1019 88 10000 5.66 265 20:24 09.02.2022
3857 Clouds 6 1018 87 10000 9.26 280 19:44 09.02.2022
3858 Clouds 6 1017 93 10000 9.26 270 18:58 09.02.2022
3859 Clouds 7 1018 91 10000 6.29 267 17:32 09.02.2022
3860 Clouds 8 1018 88 10000 6.95 268 16:32 09.02.2022
3861 Clouds 8 1017 86 10000 7.32 269 15:33 09.02.2022
3862 Clouds 7 1017 93 10000 7.92 256 14:25 09.02.2022
3863 Clouds 7 1016 93 10000 8.94 253 12:27 09.02.2022
3864 Clouds 7 1016 93 4200 11.83 250 10:47 09.02.2022
3865 Clouds 7 1015 93 8000 11.83 250 09:59 09.02.2022
3866 Clouds 7 1016 91 10000 9.89 244 09:23 09.02.2022
3867 Clouds 7 1016 100 2400 11.32 250 08:58 09.02.2022
3868 Rain 7 1016 91 10000 10.1 239 07:47 09.02.2022
3869 Rain 7 1016 94 10000 9.2 238 05:30 09.02.2022
3870 Rain 7 1016 94 10000 9.2 238 05:30 09.02.2022
3871 Rain 7 1017 100 4100 9.77 260 03:50 09.02.2022
3872 Clouds 7 1019 96 10000 5.39 241 00:23 09.02.2022
3873 Clouds 7 1019 96 10000 5.39 241 23:30 08.02.2022
3874 Clouds 7 1018 93 10000 8.23 250 22:46 08.02.2022
3875 Clouds 7 1019 97 1243 5.61 246 22:21 08.02.2022
3876 Clouds 7 1018 87 10000 6.69 250 21:38 08.02.2022
3877 Clouds 7 1018 87 10000 6.69 250 21:38 08.02.2022
3878 Clouds 7 1018 87 10000 7.72 250 21:19 08.02.2022
3879 Clouds 7 1018 87 10000 7.72 250 20:41 08.02.2022
3880 Clouds 7 1018 87 10000 9.26 270 19:45 08.02.2022
3881 Clouds 7 1018 87 10000 9.77 270 18:35 08.02.2022
3882 Clouds 7 1017 87 10000 9.26 270 17:38 08.02.2022
3883 Clouds 8 1017 85 10000 7.16 274 16:22 08.02.2022
3884 Clouds 8 1017 87 10000 7.24 274 15:29 08.02.2022
3885 Clouds 8 1016 91 10000 7.68 271 14:26 08.02.2022
3886 Clouds 8 1015 93 7000 13.89 290 12:41 08.02.2022
3887 Clouds 8 1015 91 10000 8.88 270 11:28 08.02.2022
3888 Clouds 8 1013 93 10000 14.4 270 10:18 08.02.2022
3889 Clouds 7 1013 93 10000 14.4 270 09:41 08.02.2022
3890 Clouds 7 1013 93 10000 13.89 260 07:37 08.02.2022
3891 Clouds 7 1014 93 10000 11.32 250 05:37 08.02.2022
3892 Clouds 6 1015 100 9000 11.83 250 04:39 08.02.2022
3893 Clouds 6 1016 94 10000 9.32 242 04:21 08.02.2022
3894 Clouds 5 1015 93 10000 9.77 250 03:36 08.02.2022
3895 Clouds 5 1016 93 10000 10.29 240 03:18 08.02.2022
3896 Clouds 5 1016 93 10000 10.29 240 02:58 08.02.2022
3897 Clouds 5 1016 93 10000 10.29 240 02:36 08.02.2022
3898 Clouds 5 1017 87 10000 9.26 240 02:18 08.02.2022
3899 Clouds 5 1017 87 10000 9.26 240 01:43 08.02.2022
3900 Clouds 5 1018 85 10000 7.95 236 01:24 08.02.2022
3901 Clouds 5 1018 87 10000 8.23 250 00:49 08.02.2022
3902 Clouds 5 1018 87 10000 6.69 250 23:54 07.02.2022
3903 Clouds 5 1019 84 10000 7.21 250 23:36 07.02.2022
3904 Clouds 5 1018 87 10000 8.75 260 23:18 07.02.2022
3905 Clouds 5 1018 81 10000 6.69 260 22:19 07.02.2022
3906 Clouds 5 1018 81 10000 6.69 260 21:53 07.02.2022
3907 Clouds 4 1019 89 10000 6.39 266 21:29 07.02.2022
3908 Clouds 4 1018 81 10000 8.75 280 20:56 07.02.2022
3909 Clouds 4 1018 81 10000 8.75 280 20:38 07.02.2022
3910 Clouds 5 1018 75 10000 9.77 280 19:49 07.02.2022
3911 Clouds 4 1019 83 10000 6.46 277 19:31 07.02.2022
3912 Clouds 5 1016 75 10000 8.75 290 17:52 07.02.2022
3913 Clouds 6 1015 65 10000 14.4 300 16:52 07.02.2022
3914 Clear 6 1014 65 10000 14.92 310 15:49 07.02.2022
3915 Clear 6 1013 61 10000 16.46 310 14:55 07.02.2022
3916 Clear 7 1013 66 10000 9.91 295 13:28 07.02.2022
3917 Clear 6 1011 65 10000 16.46 310 12:42 07.02.2022
3918 Clear 5 1010 65 10000 11.83 320 11:58 07.02.2022
3919 Clear 5 1010 65 10000 11.83 320 11:35 07.02.2022
3920 Clear 4 1009 87 10000 9.26 330 10:50 07.02.2022
3921 Clear 4 1011 70 10000 9.62 304 10:30 07.02.2022
3922 Clear 4 1008 75 10000 11.32 300 09:53 07.02.2022
3923 Clear 3 1006 87 10000 5.14 320 09:18 07.02.2022
3924 Clear 3 1006 87 10000 5.14 320 08:36 07.02.2022
3925 Clouds 3 1003 87 10000 10.8 310 06:54 07.02.2022
3926 Clouds 3 1003 87 10000 10.8 310 06:34 07.02.2022
3927 Clouds 2 996 93 10000 8.23 300 02:58 07.02.2022
3928 Clouds 1 993 93 10000 7.72 280 00:45 07.02.2022
3929 Clouds 1 993 93 10000 7.72 280 00:45 07.02.2022
3930 Clouds 1 992 93 10000 9.26 290 23:47 06.02.2022
3931 Clouds 1 991 100 10000 11.32 320 22:48 06.02.2022
3932 Rain 2 990 93 10000 8.75 280 21:55 06.02.2022
3933 Clouds 2 990 93 10000 8.75 280 21:35 06.02.2022
3934 Rain 2 989 93 10000 6.17 290 20:54 06.02.2022
3935 Rain 2 990 81 10000 6.11 304 20:31 06.02.2022
3936 Rain 4 988 87 10000 9.26 300 19:38 06.02.2022
3937 Rain 4 988 81 10000 7.2 260 18:40 06.02.2022
3938 Clouds 4 988 81 10000 8.75 270 17:56 06.02.2022
3939 Clouds 5 988 87 10000 8.75 280 17:19 06.02.2022
3940 Clouds 5 988 87 10000 8.75 280 16:38 06.02.2022
3941 Clouds 6 988 81 10000 9.77 280 15:49 06.02.2022
3942 Clouds 6 988 79 10000 5.45 265 15:26 06.02.2022
3943 Clouds 6 988 87 10000 9.26 260 14:45 06.02.2022
3944 Rain 6 990 84 10000 7.89 256 13:26 06.02.2022
3945 Clouds 6 990 87 10000 7.2 250 12:58 06.02.2022
3946 Clouds 6 991 87 10000 8.23 250 11:35 06.02.2022
3947 Clouds 6 992 85 10000 6.98 246 10:31 06.02.2022
3948 Clouds 6 994 89 10000 6.15 249 09:25 06.02.2022
3949 Clouds 5 994 89 10000 6.15 249 08:30 06.02.2022
3950 Rain 6 994 93 10000 9.26 280 05:33 06.02.2022
3951 Clouds 7 997 93 5000 13.89 260 03:18 06.02.2022
3952 Rain 7 997 93 10000 10.6 246 02:24 06.02.2022
3953 Rain 6 999 93 10000 11.65 250 00:29 06.02.2022
3954 Rain 6 1001 93 6000 12.86 240 22:36 05.02.2022
3955 Rain 5 1002 93 9000 12.86 240 21:33 05.02.2022
3956 Rain 5 1004 96 528 11.04 231 20:25 05.02.2022
3957 Rain 5 1004 93 5000 12.86 240 19:49 05.02.2022
3958 Rain 5 1005 87 10000 12.35 240 19:18 05.02.2022
3959 Clouds 5 1006 81 8000 11.32 240 17:45 05.02.2022
3960 Clouds 5 1007 86 10000 10.3 237 17:27 05.02.2022
3961 Clouds 5 1008 81 10000 12.86 250 15:42 05.02.2022
3962 Clouds 6 1009 82 10000 9.1 244 15:24 05.02.2022
3963 Clouds 6 1009 75 10000 10.29 260 12:54 05.02.2022
3964 Clouds 5 1009 75 10000 10.29 260 12:34 05.02.2022
3965 Clouds 5 1009 75 10000 9.26 260 10:57 05.02.2022
3966 Clouds 5 1009 75 10000 9.26 260 10:38 05.02.2022
3967 Clouds 4 1008 81 10000 8.23 260 09:47 05.02.2022
3968 Clouds 3 1009 81 10000 7.48 269 08:21 05.02.2022
3969 Clouds 3 1006 87 10000 9.26 270 06:58 05.02.2022
3970 Clouds 2 1006 87 10000 9.77 270 05:38 05.02.2022
3971 Clouds 3 1003 87 10000 9.77 260 01:40 05.02.2022
3972 Clouds 3 1002 87 10000 10.29 270 01:18 05.02.2022
3973 Rain 3 1002 87 10000 8.75 270 23:59 04.02.2022
3974 Clouds 3 1002 87 10000 8.75 270 23:33 04.02.2022
3975 Clouds 3 1000 93 10000 8.23 260 22:18 04.02.2022
3976 Clouds 3 1000 93 10000 8.23 260 21:36 04.02.2022
3977 Clouds 2 1000 100 10000 7.2 260 21:18 04.02.2022
3978 Clouds 2 1000 88 10000 5.5 268 20:21 04.02.2022
3979 Rain 3 999 96 852 5.81 311 18:27 04.02.2022
3980 Rain 6 996 93 6000 10.29 280 15:55 04.02.2022
3981 Rain 6 997 93 5000 9.77 230 14:56 04.02.2022
3982 Rain 7 998 90 10000 9.9 219 14:24 04.02.2022
3983 Clouds 7 999 93 3800 10.29 230 12:43 04.02.2022
3984 Rain 7 1000 93 5000 8.75 230 11:43 04.02.2022
3985 Clouds 7 1001 93 10000 9.26 230 10:48 04.02.2022
3986 Clouds 7 1002 87 10000 9.26 230 08:50 04.02.2022
3987 Clouds 6 1003 87 10000 7.2 220 06:58 04.02.2022
3988 Clouds 6 1005 100 9000 5.66 240 02:54 04.02.2022
3989 Clouds 6 1006 93 10000 6.42 236 02:20 04.02.2022
3990 Clouds 6 1006 96 10000 5.45 232 23:32 03.02.2022
3991 Clouds 6 1006 100 2900 5.14 240 22:48 03.02.2022
3992 Clouds 6 1006 100 6000 5.66 250 21:50 03.02.2022
3993 Clouds 6 1006 100 5000 5.66 250 20:50 03.02.2022
3994 Clouds 6 1007 97 10000 5.32 235 20:21 03.02.2022
3995 Clouds 6 1006 100 4500 5.66 240 19:34 03.02.2022
3996 Clouds 6 1007 100 3900 5.66 240 18:48 03.02.2022
3997 Clouds 6 1007 100 5000 5.66 240 17:51 03.02.2022
3998 Clouds 7 1007 93 5000 6.17 240 16:46 03.02.2022
3999 Clouds 7 1008 93 4700 7.2 240 14:55 03.02.2022
4000 Clouds 7 1009 100 4600 9.77 250 13:19 03.02.2022
4001 Rain 7 1009 100 5000 8.75 250 11:44 03.02.2022
4002 Rain 6 1010 93 6000 6.69 190 08:55 03.02.2022
4003 Rain 5 1011 100 5000 5.14 190 07:41 03.02.2022
4004 Clouds 5 1015 93 10000 8.23 260 00:35 03.02.2022
4005 Clouds 4 1015 93 10000 9.26 250 23:47 02.02.2022
4006 Clouds 4 1015 87 10000 8.75 250 22:38 02.02.2022
4007 Clouds 4 1015 81 10000 7.2 250 21:42 02.02.2022
4008 Clouds 3 1016 90 10000 4.34 245 21:24 02.02.2022
4009 Clouds 3 1016 88 10000 3.53 251 20:20 02.02.2022
4010 Clouds 3 1015 81 10000 8.75 290 19:45 02.02.2022
4011 Clouds 4 1015 81 10000 9.26 290 18:55 02.02.2022
4012 Clouds 4 1015 80 10000 4.72 286 18:23 02.02.2022
4013 Clouds 5 1015 73 10000 6.36 304 17:20 02.02.2022
4014 Clouds 5 1014 70 10000 10.29 310 16:54 02.02.2022
4015 Clouds 6 1012 61 10000 13.38 320 14:42 02.02.2022
4016 Clouds 6 1010 66 10000 8.42 311 12:29 02.02.2022
4017 Clouds 6 1009 70 10000 11.83 320 11:44 02.02.2022
4018 Clouds 6 1010 68 10000 8.6 315 11:24 02.02.2022
4019 Clouds 5 1006 74 10000 11.16 314 08:27 02.02.2022
4020 Clouds 6 999 81 10000 13.89 300 01:46 02.02.2022
4021 Clouds 5 999 78 10000 10.98 300 22:29 01.02.2022
4022 Clouds 7 996 76 10000 15.43 300 20:50 01.02.2022
4023 Clouds 6 997 80 10000 11.34 301 19:23 01.02.2022
4024 Rain 7 995 81 10000 18.52 300 16:57 01.02.2022
4025 Clouds 7 995 87 10000 16.98 290 16:19 01.02.2022
4026 Clouds 6 997 100 10000 14.4 280 12:57 01.02.2022
4027 Clouds 5 999 93 4000 10.8 240 11:57 01.02.2022
4028 Clouds 4 1006 87 10000 7.2 240 08:52 01.02.2022
4029 Clouds 2 1012 78 10000 4.94 304 02:20 01.02.2022
4030 Clouds 2 1010 93 10000 6.69 260 23:37 31.01.2022
4031 Clouds 1 1011 93 10000 6.69 270 22:33 31.01.2022
4032 Clouds 2 1011 93 10000 5.66 290 21:35 31.01.2022
4033 Clouds 2 1011 93 10000 5.66 290 21:35 31.01.2022
4034 Clouds 2 1011 87 10000 5.66 310 20:35 31.01.2022
4035 Clouds 2 1010 93 10000 5.14 310 19:58 31.01.2022
4036 Clouds 2 1010 84 10000 3.34 318 18:32 31.01.2022
4037 Clouds 2 1010 85 10000 3.12 308 18:32 31.01.2022
4038 Clouds 3 1008 87 10000 3.6 340 17:57 31.01.2022
4039 Clouds 3 1008 87 10000 3.6 340 17:57 31.01.2022
4040 Clouds 3 1008 82 10000 2.59 13 17:24 31.01.2022
4041 Clouds 3 1007 84 10000 3.65 33 16:23 31.01.2022
4042 Clouds 3 1006 87 10000 2.06 40 14:53 31.01.2022
4043 Clouds 3 1005 87 10000 1.54 40 13:34 31.01.2022
4044 Clouds 3 1004 87 10000 2.06 100 12:38 31.01.2022
4045 Clouds 2 1002 97 329 4.03 109 11:26 31.01.2022
4046 Clouds 2 1002 93 10000 3.09 120 10:48 31.01.2022
4047 Clouds 1 1002 100 10000 3.09 130 09:38 31.01.2022
4048 Clouds 1 1002 100 10000 4.12 140 08:56 31.01.2022
4049 Clouds 1 1001 97 29 4.89 131 08:20 31.01.2022
4050 Clouds 1 1001 100 10000 4.63 140 07:43 31.01.2022
4051 Clouds 2 1003 93 10000 5.14 160 05:33 31.01.2022
4052 Clouds 4 1012 75 10000 4.63 220 00:43 31.01.2022
4053 Clouds 4 1015 75 10000 8.75 270 22:33 30.01.2022
4054 Clouds 4 1017 75 10000 4.63 282 21:47 30.01.2022
4055 Clouds 4 1018 74 10000 5.27 286 21:26 30.01.2022
4056 Clouds 5 1017 65 10000 6.69 290 20:55 30.01.2022
4057 Clouds 4 1018 74 10000 5.27 286 20:31 30.01.2022
4058 Clouds 5 1018 65 10000 9.26 310 19:58 30.01.2022
4059 Clouds 5 1018 70 10000 10.8 320 18:52 30.01.2022
4060 Clouds 5 1019 72 10000 8.29 305 18:26 30.01.2022
4061 Clouds 5 1017 65 10000 11.83 320 17:40 30.01.2022
4062 Clear 5 1018 65 10000 14.92 320 17:19 30.01.2022
4063 Clear 5 1018 65 10000 14.92 320 16:36 30.01.2022
4064 Clear 6 1018 61 10000 13.38 320 16:18 30.01.2022
4065 Clear 6 1018 61 10000 13.38 320 15:45 30.01.2022
4066 Clear 6 1019 62 10000 10.67 307 15:25 30.01.2022
4067 Clear 6 1018 61 10000 14.4 320 14:44 30.01.2022
4068 Clouds 6 1017 56 10000 18.52 330 12:46 30.01.2022
4069 Clouds 6 1016 61 10000 18.52 320 11:52 30.01.2022
4070 Clouds 6 1016 64 10000 13.44 314 10:27 30.01.2022
4071 Clouds 6 1013 61 10000 19.03 330 09:48 30.01.2022
4072 Clouds 6 1013 65 10000 16.46 320 08:48 30.01.2022
4073 Clouds 6 1010 65 10000 16.62 305 05:30 30.01.2022
4074 Clouds 6 1006 65 10000 23.15 300 01:55 30.01.2022
4075 Clouds 6 1005 87 10000 19.55 300 00:19 30.01.2022
4076 Clouds 6 1004 75 7000 20.58 300 22:58 29.01.2022
4077 Clouds 7 1004 70 10000 21.09 290 21:47 29.01.2022
4078 Clouds 7 1005 67 10000 15.38 290 21:23 29.01.2022
4079 Clouds 7 1004 70 10000 15.35 285 20:22 29.01.2022
4080 Rain 7 1003 70 10000 21.61 290 19:33 29.01.2022
4081 Clouds 8 1001 71 10000 22.64 300 18:51 29.01.2022
4082 Clouds 8 1000 81 10000 19.55 280 18:18 29.01.2022
4083 Clouds 9 1002 78 10000 15.19 270 17:28 29.01.2022
4084 Clouds 9 1001 81 10000 20.06 260 15:50 29.01.2022
4085 Clouds 8 1006 86 10000 13.95 258 14:23 29.01.2022
4086 Clouds 8 1003 93 10000 16.98 260 13:42 29.01.2022
4087 Clouds 8 1007 87 10000 13.16 252 13:23 29.01.2022
4088 Clouds 8 1007 93 10000 15.43 260 11:47 29.01.2022
4089 Clouds 8 1008 93 10000 14.4 260 10:54 29.01.2022
4090 Clouds 7 1010 100 7000 14.4 260 08:42 29.01.2022
4091 Clouds 7 1012 93 2900 13.89 250 06:55 29.01.2022
4092 Rain 5 1020 93 8000 7.72 230 00:35 29.01.2022
4093 Clouds 5 1021 87 10000 7.72 220 23:51 28.01.2022
4094 Clouds 5 1023 87 10000 6.17 220 22:50 28.01.2022
4095 Clouds 4 1024 90 10000 6.62 219 22:21 28.01.2022
4096 Clouds 4 1024 81 10000 5.66 210 21:36 28.01.2022
4097 Clouds 4 1026 83 10000 4.8 222 20:29 28.01.2022
4098 Clouds 4 1027 83 10000 3.92 230 19:29 28.01.2022
4099 Clouds 5 1026 75 10000 6.17 250 18:42 28.01.2022
4100 Clouds 5 1027 75 10000 6.69 300 16:54 28.01.2022
4101 Clouds 6 1028 70 10000 5.17 300 15:20 28.01.2022
4102 Clouds 6 1027 65 10000 6.69 290 13:50 28.01.2022
4103 Clouds 6 1027 67 10000 5.63 314 12:29 28.01.2022
4104 Clear 5 1026 70 10000 5.67 320 11:24 28.01.2022
4105 Clear 3 1025 81 10000 8.23 330 09:52 28.01.2022
4106 Clear 3 1023 71 10000 7.71 324 08:22 28.01.2022
4107 Clear 4 1022 70 10000 9.77 320 07:34 28.01.2022
4108 Clouds 5 1017 65 10000 14.4 320 03:57 28.01.2022
4109 Clouds 5 1017 66 10000 11.84 312 03:20 28.01.2022
4110 Clouds 5 1016 72 10000 11.94 309 02:22 28.01.2022
4111 Clouds 5 1016 72 10000 11.94 309 02:22 28.01.2022
4112 Clouds 5 1016 72 10000 11.94 309 01:31 28.01.2022
4113 Clouds 6 1012 75 10000 18.01 310 22:52 27.01.2022
4114 Clouds 6 1010 75 10000 18.01 310 21:47 27.01.2022
4115 Clouds 6 1011 74 10000 13.76 300 21:29 27.01.2022
4116 Clouds 6 1010 75 10000 13.24 293 20:26 27.01.2022
4117 Clouds 6 1008 75 10000 17.49 290 18:40 27.01.2022
4118 Clouds 6 1009 77 10000 12.39 288 17:55 27.01.2022
4119 Clouds 7 1008 76 10000 19.03 280 14:42 27.01.2022
4120 Clouds 8 1008 76 10000 19.03 290 13:35 27.01.2022
4121 Clouds 8 1008 76 10000 16.46 290 12:39 27.01.2022
4122 Clouds 8 1009 79 10000 10.6 286 10:23 27.01.2022
4123 Clouds 7 1008 93 6000 16.46 270 08:52 27.01.2022
4124 Clouds 7 1009 87 10000 11 274 08:30 27.01.2022
4125 Clouds 7 1009 87 10000 11 274 08:30 27.01.2022
4126 Clouds 6 1010 93 2200 15.43 260 05:59 27.01.2022
4127 Clouds 7 1013 81 5000 14.4 250 02:36 27.01.2022
4128 Clouds 6 1018 93 10000 10.29 260 22:44 26.01.2022
4129 Clouds 6 1019 93 10000 10.29 260 21:57 26.01.2022
4130 Clouds 6 1019 93 10000 10.29 260 21:33 26.01.2022
4131 Clouds 6 1019 93 10000 11.83 270 20:36 26.01.2022
4132 Clouds 6 1020 93 10000 12.35 270 19:55 26.01.2022
4133 Clouds 6 1020 83 10000 7.82 260 19:20 26.01.2022
4134 Clouds 6 1020 93 10000 11.32 270 18:45 26.01.2022
4135 Clouds 6 1021 93 10000 11.83 270 17:50 26.01.2022
4136 Clouds 6 1022 84 10000 7.39 267 17:22 26.01.2022
4137 Clouds 6 1022 84 10000 7.39 267 16:31 26.01.2022
4138 Clouds 6 1022 93 10000 12.35 280 15:49 26.01.2022
4139 Clouds 6 1022 93 10000 12.35 280 15:49 26.01.2022
4140 Clouds 5 1022 93 7000 10.29 260 13:58 26.01.2022
4141 Clouds 5 1024 87 9000 8.75 250 11:48 26.01.2022
4142 Clouds 4 1025 84 10000 6.79 258 10:28 26.01.2022
4143 Clouds 4 1024 93 3600 9.77 270 09:46 26.01.2022
4144 Clouds 4 1024 93 7000 10.29 270 07:44 26.01.2022
4145 Clouds 5 1027 77 10000 6.67 267 03:31 26.01.2022
4146 Clouds 5 1028 100 2100 7.72 270 23:57 25.01.2022
4147 Clouds 5 1028 100 6000 7.72 270 23:19 25.01.2022
4148 Rain 5 1029 93 10000 4.79 259 22:21 25.01.2022
4149 Rain 5 1028 93 10000 6.17 260 21:58 25.01.2022
4150 Clouds 6 1029 93 10000 5.14 260 20:47 25.01.2022
4151 Clouds 5 1029 93 10000 4.51 260 20:28 25.01.2022
4152 Clouds 5 1029 93 10000 4.51 260 20:28 25.01.2022
4153 Clouds 5 1029 93 10000 4.51 260 20:28 25.01.2022
4154 Clouds 6 1029 93 10000 5.66 270 19:52 25.01.2022
4155 Clouds 6 1029 93 10000 6.69 280 18:38 25.01.2022
4156 Clouds 6 1029 93 8000 7.2 290 17:45 25.01.2022
4157 Clouds 6 1029 93 10000 8.23 280 16:45 25.01.2022
4158 Clouds 6 1029 86 10000 5.31 266 16:21 25.01.2022
4159 Clouds 6 1029 93 10000 8.23 290 15:38 25.01.2022
4160 Clouds 6 1029 93 10000 7.2 290 14:57 25.01.2022
4161 Clouds 6 1030 100 10000 7.72 290 13:42 25.01.2022
4162 Clouds 6 1030 93 10000 5.66 270 10:58 25.01.2022
4163 Clouds 5 1030 93 10000 6.17 270 08:38 25.01.2022
4164 Clouds 5 1030 98 10000 3.92 269 07:29 25.01.2022
4165 Clouds 5 1030 87 10000 5.66 280 06:50 25.01.2022
4166 Clouds 5 1031 85 10000 5.76 283 05:22 25.01.2022
4167 Clouds 5 1031 87 10000 6.69 260 23:37 24.01.2022
4168 Clouds 5 1032 87 10000 6.17 250 23:19 24.01.2022
4169 Clouds 5 1032 87 10000 6.17 250 22:59 24.01.2022
4170 Clouds 5 1032 87 10000 6.17 250 22:41 24.01.2022
4171 Clouds 5 1032 87 10000 5.66 260 21:55 24.01.2022
4172 Clouds 5 1031 83 10000 4.2 265 21:29 24.01.2022
4173 Clouds 5 1031 93 10000 5.66 270 20:33 24.01.2022
4174 Clouds 5 1031 93 10000 6.17 290 19:57 24.01.2022
4175 Clouds 4 1032 80 10000 4.31 264 19:35 24.01.2022
4176 Clouds 5 1031 87 10000 6.69 270 18:35 24.01.2022
4177 Clouds 5 1032 73 10000 5.75 272 17:24 24.01.2022
4178 Clouds 5 1031 81 10000 6.69 270 16:55 24.01.2022
4179 Clouds 5 1031 75 10000 5.69 268 16:21 24.01.2022
4180 Clouds 5 1031 87 10000 7.2 250 14:45 24.01.2022
4181 Clouds 5 1031 87 10000 6.69 250 13:38 24.01.2022
4182 Clouds 5 1032 77 10000 5.25 255 12:32 24.01.2022
4183 Clouds 5 1032 79 10000 4.84 252 11:20 24.01.2022
4184 Clouds 5 1032 87 10000 5.14 240 09:49 24.01.2022
4185 Clouds 5 1032 75 10000 4.82 257 09:20 24.01.2022
4186 Clouds 5 1032 84 10000 4.07 248 07:20 24.01.2022
4187 Clouds 5 1032 85 10000 4.03 245 07:20 24.01.2022
4188 Clouds 5 1032 85 10000 4.03 245 07:20 24.01.2022
4189 Clouds 5 1033 96 10000 3.71 234 01:32 24.01.2022
4190 Clouds 6 1033 87 10000 5.14 250 00:46 24.01.2022
4191 Clouds 6 1033 96 10000 3.97 239 00:27 24.01.2022
4192 Clouds 6 1033 93 10000 5.66 260 22:46 23.01.2022
4193 Clouds 6 1033 93 10000 6.17 250 21:50 23.01.2022
4194 Clouds 6 1033 95 10000 3.55 244 21:27 23.01.2022
4195 Clouds 6 1033 93 10000 5.66 260 20:54 23.01.2022
4196 Clouds 6 1033 93 10000 5.14 260 19:55 23.01.2022
4197 Clouds 6 1033 93 10000 7.2 260 18:52 23.01.2022
4198 Clouds 6 1033 93 10000 7.2 270 17:54 23.01.2022
4199 Clouds 6 1032 93 10000 6.69 270 16:52 23.01.2022
4200 Clouds 7 1032 87 10000 6.17 280 15:45 23.01.2022
4201 Clouds 7 1032 87 10000 5.66 280 14:34 23.01.2022
4202 Clouds 7 1032 87 10000 7.2 270 13:43 23.01.2022
4203 Clouds 8 1032 87 10000 7.72 280 12:44 23.01.2022
4204 Clouds 7 1032 87 10000 6.69 290 12:19 23.01.2022
4205 Clouds 7 1033 88 10000 3.78 265 11:25 23.01.2022
4206 Clouds 6 1032 93 10000 5.66 290 10:57 23.01.2022
4207 Clouds 6 1032 91 10000 3.34 266 10:24 23.01.2022
4208 Clouds 6 1032 93 10000 3.22 268 09:26 23.01.2022
4209 Clouds 6 1030 100 10000 7.2 310 06:18 23.01.2022
4210 Clouds 6 1030 100 10000 5.14 290 03:34 23.01.2022
4211 Clouds 6 1029 100 8000 5.14 300 01:37 23.01.2022
4212 Clouds 6 1029 93 8000 6.17 300 00:47 23.01.2022
4213 Clouds 6 1029 93 4800 6.17 300 23:59 22.01.2022
4214 Clouds 6 1029 93 3900 5.66 290 22:49 22.01.2022
4215 Clouds 6 1029 93 10000 6.69 300 22:19 22.01.2022
4216 Clouds 6 1029 85 10000 4.33 287 20:33 22.01.2022
4217 Clouds 6 1028 93 10000 7.2 300 19:46 22.01.2022
4218 Clouds 6 1028 93 10000 7.72 300 18:38 22.01.2022
4219 Clouds 6 1028 93 9000 7.72 300 17:49 22.01.2022
4220 Clouds 6 1028 87 10000 4.67 288 17:29 22.01.2022
4221 Clouds 6 1028 93 10000 8.23 310 16:54 22.01.2022
4222 Clouds 6 1027 100 3300 6.69 300 15:45 22.01.2022
4223 Clouds 6 1027 93 2900 6.69 290 14:56 22.01.2022
4224 Clouds 7 1028 81 10000 4.51 295 13:31 22.01.2022
4225 Clouds 6 1027 100 2000 5.66 310 12:40 22.01.2022
4226 Clouds 6 1028 86 10000 4.88 300 12:20 22.01.2022
4227 Clouds 6 1027 93 9000 4.12 300 10:55 22.01.2022
4228 Clouds 6 1027 93 10000 4.97 302 10:27 22.01.2022
4229 Clouds 5 1027 100 10000 5.14 310 09:43 22.01.2022
4230 Clouds 5 1026 100 10000 5.66 310 08:51 22.01.2022
4231 Clouds 5 1026 98 10000 2.48 289 07:27 22.01.2022
4232 Clouds 5 1025 100 10000 2.57 290 04:50 22.01.2022
4233 Clouds 5 1024 100 10000 4.12 310 00:57 22.01.2022
4234 Clouds 6 1024 96 10000 4.95 313 23:21 21.01.2022
4235 Clouds 6 1023 93 4400 7.2 320 22:19 21.01.2022
4236 Clouds 6 1022 93 10000 9.26 310 19:55 21.01.2022
4237 Clouds 5 1022 95 10000 6.76 300 18:23 21.01.2022
4238 Clouds 5 1023 93 10000 7.2 260 17:18 21.01.2022
4239 Clouds 5 1024 90 10000 6.52 281 15:27 21.01.2022
4240 Clouds 5 1026 81 10000 7.2 290 13:18 21.01.2022
4241 Clear 4 1026 79 10000 4.83 295 12:28 21.01.2022
4242 Clear 3 1026 79 10000 4.31 304 11:27 21.01.2022
4243 Clear -1 1026 75 10000 6.69 300 09:46 21.01.2022
4244 Clear -2 1026 76 10000 3.06 305 08:22 21.01.2022
4245 Clear -1 1025 80 10000 5.66 330 04:49 21.01.2022
4246 Clear -2 1024 61 10000 4.49 305 23:27 20.01.2022
4247 Clear -1 1023 69 10000 6.69 320 21:50 20.01.2022
4248 Clear -1 1024 56 10000 4.48 313 21:32 20.01.2022
4249 Clear -1 1023 64 10000 7.72 330 20:40 20.01.2022
4250 Clear 0 1021 55 10000 6.69 330 19:19 20.01.2022
4251 Clear 0 1021 49 10000 5.44 328 18:23 20.01.2022
4252 Clear 1 1019 51 10000 8.23 340 16:53 20.01.2022
4253 Clear 2 1019 48 10000 8.09 337 15:41 20.01.2022
4254 Clear 3 1017 44 10000 11.32 350 14:41 20.01.2022
4255 Clear 3 1017 52 10000 9.77 350 13:41 20.01.2022
4256 Clouds 3 1016 56 10000 13.89 330 12:34 20.01.2022
4257 Clouds 3 1016 60 10000 13.38 320 11:50 20.01.2022
4258 Clouds 2 1016 69 10000 11.32 320 10:39 20.01.2022
4259 Clouds 2 1015 69 10000 9.26 320 09:37 20.01.2022
4260 Clear 1 1014 69 10000 12.86 320 07:51 20.01.2022
4261 Clouds 3 1011 87 10000 13.38 310 00:46 20.01.2022
4262 Clouds 3 1012 65 10000 9.44 304 23:28 19.01.2022
4263 Clouds 3 1011 64 10000 9.55 307 22:24 19.01.2022
4264 Rain 4 1010 70 10000 10.22 312 21:23 19.01.2022
4265 Clouds 5 1009 75 10000 12.35 310 20:49 19.01.2022
4266 Clouds 5 1008 87 10000 13.89 300 19:45 19.01.2022
4267 Clouds 6 1006 93 10000 18.52 290 18:40 19.01.2022
4268 Clouds 6 1007 93 10000 10.8 240 17:45 19.01.2022
4269 Clouds 5 1009 93 5000 10.8 240 16:48 19.01.2022
4270 Clouds 5 1012 93 8000 8.75 230 14:42 19.01.2022
4271 Clouds 5 1015 87 10000 8.23 240 12:43 19.01.2022
4272 Clouds 5 1017 87 8000 7.72 230 11:42 19.01.2022
4273 Clouds 4 1019 93 8000 8.75 240 10:35 19.01.2022
4274 Clouds 4 1020 87 8000 7.72 240 09:34 19.01.2022
4275 Clouds 3 1023 93 6000 8.23 240 06:56 19.01.2022
4276 Clouds 4 1025 93 5000 7.2 240 05:18 19.01.2022
4277 Clouds 4 1030 95 10000 5.39 233 23:20 18.01.2022
4278 Clouds 5 1030 93 10000 7.72 250 22:34 18.01.2022
4279 Clouds 5 1032 95 10000 4.52 239 21:20 18.01.2022
4280 Clouds 5 1032 93 10000 9.26 260 19:55 18.01.2022
4281 Clouds 5 1032 93 10000 9.26 260 19:37 18.01.2022
4282 Clouds 5 1032 87 10000 9.26 260 18:54 18.01.2022
4283 Clouds 6 1032 87 10000 9.26 270 17:58 18.01.2022
4284 Clouds 6 1033 93 10000 9.77 270 16:59 18.01.2022
4285 Clouds 6 1033 93 10000 9.77 270 15:48 18.01.2022
4286 Clouds 6 1033 93 10000 9.77 270 15:48 18.01.2022
4287 Clouds 6 1034 85 10000 5.53 261 15:22 18.01.2022
4288 Clouds 6 1034 86 10000 4.99 271 13:26 18.01.2022
4289 Clouds 6 1034 93 10000 8.23 290 10:48 18.01.2022
4290 Clouds 6 1033 97 10000 3.19 277 09:29 18.01.2022
4291 Clouds 6 1033 93 10000 5.66 310 07:58 18.01.2022
4292 Clouds 5 1033 93 10000 3.97 302 05:31 18.01.2022
4293 Clouds 5 1031 81 10000 6.17 320 23:55 17.01.2022
4294 Clouds 4 1031 83 10000 3.9 295 22:30 17.01.2022
4295 Clouds 4 1030 87 10000 6.17 310 21:36 17.01.2022
4296 Clouds 3 1030 80 10000 4.15 305 20:29 17.01.2022
4297 Clouds 3 1029 76 10000 5.3 318 18:31 17.01.2022
4298 Clouds 3 1027 75 10000 6.17 310 17:55 17.01.2022
4299 Clear 4 1026 75 10000 8.23 330 16:53 17.01.2022
4300 Clear 5 1025 66 10000 8.09 329 15:24 17.01.2022
4301 Clear 6 1024 61 10000 9.26 340 14:57 17.01.2022
4302 Clear 6 1025 65 10000 8.62 329 13:30 17.01.2022
4303 Clouds 6 1022 65 10000 13.38 340 12:57 17.01.2022
4304 Clouds 6 1022 70 10000 11.83 330 11:50 17.01.2022
4305 Clouds 6 1020 70 10000 11.83 330 10:43 17.01.2022
4306 Clouds 6 1018 81 10000 14.92 320 09:35 17.01.2022
4307 Clouds 7 1016 93 7000 18.01 330 08:18 17.01.2022
4308 Rain 7 1015 93 3700 18.01 290 07:19 17.01.2022
4309 Clouds 6 1017 81 10000 14.92 290 00:57 17.01.2022
4310 Clouds 6 1017 75 10000 14.92 290 22:53 16.01.2022
4311 Clouds 6 1016 75 10000 11.32 300 20:40 16.01.2022
4312 Clouds 6 1016 87 10000 11.83 300 19:44 16.01.2022
4313 Clouds 6 1015 93 10000 11.83 290 18:42 16.01.2022
4314 Clouds 6 1015 93 5000 11.83 270 17:45 16.01.2022
4315 Clouds 6 1015 93 10000 10.29 270 16:48 16.01.2022
4316 Clouds 7 1014 87 10000 11.83 280 15:34 16.01.2022
4317 Clouds 6 1015 84 10000 6.3 267 14:29 16.01.2022
4318 Clouds 5 1015 93 8000 6.69 260 12:51 16.01.2022
4319 Clouds 5 1015 93 3900 6.69 240 11:48 16.01.2022
4320 Clouds 4 1015 93 3200 7.2 240 10:58 16.01.2022
4321 Clouds 4 1015 89 10000 6.08 257 10:26 16.01.2022
4322 Clouds 4 1015 93 3900 6.69 240 09:56 16.01.2022
4323 Clouds 3 1015 93 10000 5.83 244 09:23 16.01.2022
4324 Clouds 3 1015 93 3800 7.2 240 08:47 16.01.2022
4325 Clouds 4 1017 93 8000 7.72 250 05:35 16.01.2022
4326 Clouds 3 1021 93 7000 2.57 220 23:51 15.01.2022
4327 Clouds 4 1022 93 10000 3.09 210 22:37 15.01.2022
4328 Clouds 3 1024 97 10000 3.23 201 21:21 15.01.2022
4329 Clouds 3 1023 93 3300 3.09 190 20:43 15.01.2022
4330 Clouds 3 1024 87 10000 2.57 200 19:58 15.01.2022
4331 Clouds 3 1025 96 10000 2.97 210 19:23 15.01.2022
4332 Clouds 4 1025 87 10000 3.6 230 17:49 15.01.2022
4333 Clouds 5 1025 75 10000 2.57 220 16:42 15.01.2022
4334 Clouds 6 1026 89 10000 2.45 232 14:32 15.01.2022
4335 Clouds 5 1027 84 10000 3.18 244 12:33 15.01.2022
4336 Clouds 2 1028 100 10000 3.09 250 11:19 15.01.2022
4337 Clouds 0 1029 92 10000 2.52 250 09:21 15.01.2022
4338 Clouds 1 1030 93 10000 2.85 280 01:25 15.01.2022
4339 Clear 2 1030 87 10000 4.63 300 21:57 14.01.2022
4340 Clear 2 1031 93 10000 4.12 300 20:54 14.01.2022
4341 Clear 3 1031 86 10000 4.11 315 20:23 14.01.2022
4342 Clear 4 1030 87 10000 5.14 320 19:49 14.01.2022
4343 Clouds 4 1030 81 10000 6.17 310 18:33 14.01.2022
4344 Clouds 6 1030 75 10000 7.72 310 16:56 14.01.2022
4345 Clouds 6 1030 75 10000 7.72 310 16:38 14.01.2022
4346 Clouds 7 1029 76 10000 8.75 310 14:50 14.01.2022
4347 Clouds 8 1028 81 10000 8.75 310 13:48 14.01.2022
4348 Clouds 8 1029 81 10000 8.75 320 12:37 14.01.2022
4349 Clouds 8 1028 93 3500 8.75 300 11:34 14.01.2022
4350 Clouds 7 1029 86 10000 7.79 313 10:22 14.01.2022
4351 Clouds 7 1026 93 10000 10.8 300 08:52 14.01.2022
4352 Clouds 7 1027 91 10000 7.15 283 07:27 14.01.2022
4353 Clouds 7 1028 87 10000 11.83 270 01:43 14.01.2022
4354 Clouds 7 1029 93 10000 11.32 280 23:39 13.01.2022
4355 Clouds 7 1029 87 10000 12.35 280 21:45 13.01.2022
4356 Clouds 7 1030 95 10000 6.99 263 21:27 13.01.2022
4357 Clouds 7 1030 87 10000 11.83 280 19:44 13.01.2022
4358 Clouds 7 1030 90 10000 6.5 267 19:23 13.01.2022
4359 Clouds 7 1030 87 10000 11.32 280 18:33 13.01.2022
4360 Clouds 7 1030 93 10000 11.32 280 16:48 13.01.2022
4361 Clouds 7 1030 87 10000 12.86 280 15:38 13.01.2022
4362 Clouds 7 1031 93 10000 11.83 290 14:50 13.01.2022
4363 Clouds 7 1031 93 10000 11.83 290 14:50 13.01.2022
4364 Clouds 7 1032 89 10000 8.4 276 13:22 13.01.2022
4365 Clouds 7 1032 92 10000 7.21 274 10:29 13.01.2022
4366 Clouds 7 1032 93 10000 7.1 273 09:22 13.01.2022
4367 Clouds 7 1032 94 10000 7.16 273 08:28 13.01.2022
4368 Clouds 7 1031 93 10000 12.86 280 07:58 13.01.2022
4369 Clouds 7 1031 93 10000 12.35 280 07:18 13.01.2022
4370 Clouds 7 1032 94 10000 6.96 271 05:20 13.01.2022
4371 Clouds 7 1032 93 10000 10.8 270 03:33 13.01.2022
4372 Clouds 7 1033 93 7000 9.77 270 00:57 13.01.2022
4373 Clouds 7 1033 93 7000 10.29 270 23:53 12.01.2022
4374 Clouds 7 1033 96 10000 6.01 257 23:32 12.01.2022
4375 Clouds 7 1033 93 10000 8.75 270 21:58 12.01.2022
4376 Clouds 7 1033 93 10000 8.75 270 21:39 12.01.2022
4377 Clouds 7 1033 93 10000 7.72 260 21:18 12.01.2022
4378 Clouds 6 1033 93 10000 7.72 260 20:41 12.01.2022
4379 Clouds 6 1034 100 10000 8.75 270 18:48 12.01.2022
4380 Clouds 6 1033 93 10000 10.29 280 17:53 12.01.2022
4381 Clouds 6 1033 93 10000 9.26 270 16:43 12.01.2022
4382 Clouds 6 1033 93 10000 9.26 270 14:49 12.01.2022
4383 Clouds 6 1034 100 10000 7.72 260 13:40 12.01.2022
4384 Clouds 5 1034 100 10000 4.12 250 12:56 12.01.2022
4385 Clouds 2 1034 94 10000 3.01 255 09:26 12.01.2022
4386 Clouds 3 1033 100 350 2.57 270 07:57 12.01.2022
4387 Clouds 2 1034 94 10000 2.58 263 07:33 12.01.2022
4388 Clouds 4 1032 99 2729 3.6 232 02:20 12.01.2022
4389 Clouds 3 1032 95 10000 4.39 215 23:26 11.01.2022
4390 Clouds 3 1032 91 10000 4.52 215 22:25 11.01.2022
4391 Clouds 3 1031 93 3300 3.6 220 21:58 11.01.2022
4392 Clouds 3 1031 87 10000 4.63 230 20:39 11.01.2022
4393 Rain 3 1030 81 10000 4.12 220 19:35 11.01.2022
4394 Clouds 3 1030 75 10000 5.14 210 17:54 11.01.2022
4395 Clouds 4 1030 81 10000 5.66 200 16:40 11.01.2022
4396 Clouds 4 1030 81 10000 5.66 200 16:40 11.01.2022
4397 Clouds 4 1030 81 10000 6.17 200 16:18 11.01.2022
4398 Clouds 4 1030 81 10000 5.14 200 14:53 11.01.2022
4399 Clouds 4 1030 81 10000 5.14 200 14:34 11.01.2022
4400 Clouds 3 1030 87 9000 5.14 190 13:52 11.01.2022
4401 Rain 3 1032 84 10000 4.38 200 13:28 11.01.2022
4402 Clouds 3 1031 87 10000 5.14 190 12:36 11.01.2022
4403 Clouds 3 1031 93 7000 5.14 180 10:40 11.01.2022
4404 Clouds 3 1031 96 10000 3.67 184 08:26 11.01.2022
4405 Clouds 3 1031 94 10000 2.71 179 04:30 11.01.2022
4406 Clouds 3 1030 96 10000 2.39 176 00:28 11.01.2022
4407 Clouds 3 1029 93 6000 2.06 170 23:40 10.01.2022
4408 Clouds 3 1029 93 6000 2.06 160 22:43 10.01.2022
4409 Clouds 3 1028 93 7000 2.06 120 22:18 10.01.2022
4410 Clouds 3 1028 93 7000 2.06 120 21:42 10.01.2022
4411 Clouds 3 1028 93 5000 2.57 130 21:18 10.01.2022
4412 Clouds 3 1028 93 5000 2.57 130 20:55 10.01.2022
4413 Clouds 3 1028 96 10000 2.41 117 20:24 10.01.2022
4414 Clouds 3 1027 93 6000 4.12 130 19:41 10.01.2022
4415 Clouds 3 1027 93 10000 3.6 120 19:19 10.01.2022
4416 Clouds 3 1027 93 10000 3.6 120 18:48 10.01.2022
4417 Clouds 3 1025 87 8000 2.06 110 16:59 10.01.2022
4418 Clouds 4 1025 87 8000 2.06 110 16:41 10.01.2022
4419 Clouds 4 1024 85 10000 3.41 92 15:20 10.01.2022
4420 Clouds 4 1022 87 9000 3.09 100 13:39 10.01.2022
4421 Clouds 3 1020 93 8000 2.06 80 11:57 10.01.2022
4422 Clouds 3 1021 90 10000 3.64 72 11:24 10.01.2022
4423 Clouds 2 1018 93 7000 2.57 70 09:41 10.01.2022
4424 Clouds 2 1014 98 82 2.79 50 06:22 10.01.2022
4425 Clouds 2 1012 100 7000 2.06 70 05:49 10.01.2022
4426 Clouds 1 1007 99 38 2.65 77 01:26 10.01.2022
4427 Clouds 1 1006 99 116 1.85 92 00:23 10.01.2022
4428 Snow 1 1005 99 87 1.98 88 23:28 09.01.2022
4429 Clouds 1 1004 100 3300 2.57 120 22:33 09.01.2022
4430 Clouds 1 1002 100 1300 1.54 110 21:44 09.01.2022
4431 Clouds 1 1002 99 49 1.44 97 21:23 09.01.2022
4432 Clouds 1 1002 99 49 1.44 97 21:23 09.01.2022
4433 Clouds 1 1001 93 4000 2.06 130 20:50 09.01.2022
4434 Clouds 1 1002 99 49 1.44 97 20:32 09.01.2022
4435 Clouds 1 1000 93 3300 2.57 130 19:44 09.01.2022
4436 Snow 1 1000 99 35 1.76 105 19:23 09.01.2022
4437 Snow 1 999 93 4100 2.57 120 18:52 09.01.2022
4438 Snow 1 999 93 4100 2.57 120 18:33 09.01.2022
4439 Snow 1 998 99 148 1.87 104 17:31 09.01.2022
4440 Snow 1 997 100 6000 2.06 160 16:53 09.01.2022
4441 Snow 2 995 93 10000 2.06 160 15:58 09.01.2022
4442 Snow 2 995 93 10000 2.06 160 15:35 09.01.2022
4443 Rain 2 994 93 8000 2.06 150 14:40 09.01.2022
4444 Rain 2 994 93 10000 2.06 140 13:51 09.01.2022
4445 Rain 2 993 98 28 3.59 136 13:22 09.01.2022
4446 Clouds 2 992 93 10000 4.12 160 11:55 09.01.2022
4447 Clouds 2 991 93 10000 5.14 160 10:53 09.01.2022
4448 Clouds 1 991 100 10000 5.66 150 09:50 09.01.2022
4449 Clouds 2 990 93 10000 5.66 150 08:52 09.01.2022
4450 Clouds 2 989 93 10000 6.17 150 05:38 09.01.2022
4451 Snow 1 991 97 24 6.51 153 01:24 09.01.2022
4452 Rain 1 991 93 7000 7.2 150 00:37 09.01.2022
4453 Snow 1 993 97 44 7.25 152 23:27 08.01.2022
4454 Snow 1 994 97 69 7.3 151 22:35 08.01.2022
4455 Clouds 1 996 90 10000 6.98 158 21:26 08.01.2022
4456 Snow 2 996 87 10000 6.17 170 20:43 08.01.2022
4457 Rain 2 997 89 10000 6.59 168 20:21 08.01.2022
4458 Clouds 3 998 81 10000 6.69 170 18:45 08.01.2022
4459 Clouds 2 1000 92 10000 5.77 193 17:23 08.01.2022
4460 Clouds 3 1000 87 10000 6.69 200 16:40 08.01.2022
4461 Clouds 4 1002 81 10000 6.17 230 14:50 08.01.2022
4462 Clouds 5 1002 87 10000 5.66 220 13:41 08.01.2022
4463 Clouds 4 1003 80 10000 4.7 242 11:30 08.01.2022
4464 Clouds 3 1004 82 10000 4.55 244 10:31 08.01.2022
4465 Clouds 2 1003 93 10000 6.69 220 09:57 08.01.2022
4466 Clouds 2 1003 92 10000 3.87 225 09:30 08.01.2022
4467 Clouds 2 1004 94 10000 4.96 207 04:25 08.01.2022
4468 Clouds 2 1004 93 10000 6.17 200 00:59 08.01.2022
4469 Clouds 2 1005 95 10000 4.69 195 23:30 07.01.2022
4470 Clouds 1 1004 93 10000 3.6 190 21:46 07.01.2022
4471 Clouds 2 1005 91 10000 5.37 209 20:23 07.01.2022
4472 Rain 3 1004 87 10000 5.66 210 19:26 07.01.2022
4473 Rain 4 1004 87 10000 5.66 210 18:45 07.01.2022
4474 Clouds 4 1004 87 10000 5.66 210 18:18 07.01.2022
4475 Clouds 4 1005 88 10000 6.12 223 17:23 07.01.2022
4476 Clouds 4 1004 93 10000 7.2 220 14:55 07.01.2022
4477 Clouds 4 1004 93 10000 6.17 210 13:52 07.01.2022
4478 Clouds 3 1004 93 8000 6.17 200 12:50 07.01.2022
4479 Clouds 2 1006 97 118 6.91 208 10:21 07.01.2022
4480 Clouds 2 1009 93 10000 6.69 190 02:59 07.01.2022
4481 Clouds 2 1009 93 10000 6.69 190 02:59 07.01.2022
4482 Clouds 2 1010 88 10000 6.55 202 02:22 07.01.2022
4483 Clouds 2 1010 93 10000 5.14 200 01:48 07.01.2022
4484 Clouds 2 1011 91 10000 6.28 203 01:25 07.01.2022
4485 Clouds 2 1011 90 10000 6.4 204 00:30 07.01.2022
4486 Clouds 2 1012 92 10000 6.04 204 22:33 06.01.2022
4487 Clouds 1 1013 87 10000 5.66 190 20:51 06.01.2022
4488 Clouds 1 1013 87 10000 5.66 200 20:18 06.01.2022
4489 Clouds 1 1013 87 10000 5.66 200 19:36 06.01.2022
4490 Clouds 1 1014 87 10000 2.57 230 17:51 06.01.2022
4491 Clouds 1 1015 87 10000 3.24 204 17:27 06.01.2022
4492 Clouds 2 1014 75 10000 3.6 240 16:38 06.01.2022
4493 Clear 2 1014 75 10000 4.63 240 15:44 06.01.2022
4494 Clear 3 1014 82 10000 2.9 213 15:22 06.01.2022
4495 Clear 3 1015 77 10000 2.76 217 14:20 06.01.2022
4496 Clear 3 1014 56 10000 4.63 220 13:41 06.01.2022
4497 Clouds 2 1015 67 10000 1.9 237 12:28 06.01.2022
4498 Clouds 0 1015 67 10000 1.9 237 11:31 06.01.2022
4499 Clouds -1 1014 100 10000 3.09 250 10:59 06.01.2022
4500 Clouds -2 1011 100 10000 2.57 240 06:54 06.01.2022
4501 Clouds 0 1006 86 10000 4.63 320 00:35 06.01.2022
4502 Clouds 0 1005 93 10000 5.14 320 23:34 05.01.2022
4503 Clouds 1 1004 86 10000 5.66 330 22:48 05.01.2022
4504 Clouds 1 1003 85 10000 3.3 320 22:29 05.01.2022
4505 Clouds 1 1002 86 10000 6.17 320 21:44 05.01.2022
4506 Clouds 2 1001 80 10000 6.17 340 20:44 05.01.2022
4507 Clouds 2 999 75 10000 8.75 350 19:53 05.01.2022
4508 Clouds 3 997 86 10000 5.41 327 18:27 05.01.2022
4509 Clouds 4 994 87 10000 9.26 330 16:59 05.01.2022
4510 Clouds 4 994 84 10000 7.27 317 16:22 05.01.2022
4511 Clouds 5 992 82 10000 7.69 310 15:20 05.01.2022
4512 Clouds 5 990 87 10000 8.75 290 13:37 05.01.2022
4513 Clouds 4 989 93 10000 9.26 270 12:49 05.01.2022
4514 Clouds 3 988 87 10000 7.72 230 08:57 05.01.2022
4515 Clouds 3 990 83 10000 5.77 260 07:31 05.01.2022
4516 Clouds 2 990 81 10000 7.2 230 01:59 05.01.2022
4517 Clouds 2 990 81 10000 7.2 230 00:33 05.01.2022
4518 Clouds 2 991 77 10000 6.28 255 23:26 04.01.2022
4519 Clouds 2 991 78 10000 6.06 256 22:27 04.01.2022
4520 Clouds 3 990 81 10000 6.69 240 20:50 04.01.2022
4521 Clouds 3 990 87 4100 10.8 260 19:19 04.01.2022
4522 Clouds 3 990 87 10000 6.69 250 17:38 04.01.2022
4523 Clouds 3 990 87 10000 4.63 260 16:40 04.01.2022
4524 Clouds 3 990 87 10000 4.63 260 16:40 04.01.2022
4525 Clouds 4 991 78 10000 4.12 257 16:21 04.01.2022
4526 Clouds 5 990 81 10000 5.66 250 14:52 04.01.2022
4527 Clouds 5 990 81 10000 5.66 250 14:33 04.01.2022
4528 Clouds 4 992 86 10000 3.85 259 13:26 04.01.2022
4529 Clouds 5 991 93 7000 3.09 360 10:40 04.01.2022
4530 Rain 5 991 100 10000 0.51 240 08:59 04.01.2022
4531 Clouds 5 993 92 10000 1.02 298 08:25 04.01.2022
4532 Rain 7 995 87 10000 10.29 250 01:51 04.01.2022
4533 Clouds 8 995 87 10000 9.77 250 00:40 04.01.2022
4534 Clouds 8 996 87 10000 9.77 250 22:51 03.01.2022
4535 Clouds 8 996 87 10000 10.29 250 21:50 03.01.2022
4536 Clouds 8 997 84 10000 9.22 244 21:24 03.01.2022
4537 Clouds 8 997 87 10000 9.26 240 19:47 03.01.2022
4538 Clouds 8 997 87 10000 11.32 250 18:47 03.01.2022
4539 Clouds 8 999 86 10000 9.41 244 18:24 03.01.2022
4540 Clouds 8 998 87 7000 12.35 250 16:58 03.01.2022
4541 Clouds 8 999 87 7000 12.86 250 14:56 03.01.2022
4542 Clouds 8 1000 83 10000 9.44 246 14:30 03.01.2022
4543 Clouds 9 1000 81 10000 11.32 250 12:39 03.01.2022
4544 Clouds 8 1000 87 10000 11.83 250 11:35 03.01.2022
4545 Clouds 8 1001 82 10000 9.43 250 10:26 03.01.2022
4546 Clouds 8 1000 93 10000 12.35 260 08:47 03.01.2022
4547 Clouds 8 1000 87 9000 13.38 260 07:34 03.01.2022
4548 Clouds 8 1002 93 10000 6.17 250 23:55 02.01.2022
4549 Clouds 8 1003 90 10000 6.56 245 23:21 02.01.2022
4550 Clouds 8 1002 93 10000 9.77 270 22:53 02.01.2022
4551 Clouds 8 1003 93 10000 10.29 260 21:39 02.01.2022
4552 Clouds 8 1004 94 10000 6.82 249 20:33 02.01.2022
4553 Clouds 8 1003 93 10000 12.35 270 19:55 02.01.2022
4554 Clouds 8 1003 89 10000 8.61 271 19:30 02.01.2022
4555 Clouds 8 1002 93 10000 11.32 280 18:44 02.01.2022
4556 Clouds 8 1001 93 10000 11.83 280 17:54 02.01.2022
4557 Clouds 8 1001 93 10000 11.83 280 17:36 02.01.2022
4558 Clouds 9 999 93 6000 10.29 260 17:18 02.01.2022
4559 Rain 9 1001 94 10000 10.51 243 16:25 02.01.2022
4560 Rain 10 1002 96 5269 6.58 220 14:32 02.01.2022
4561 Clouds 10 1003 93 10000 6.17 230 12:50 02.01.2022
4562 Rain 10 1005 100 10000 6.69 240 11:58 02.01.2022
4563 Rain 10 1006 96 10000 6.35 230 11:26 02.01.2022
4564 Rain 10 1005 100 2300 7.72 240 10:46 02.01.2022
4565 Clouds 10 1006 100 3200 5.66 240 09:45 02.01.2022
4566 Clouds 10 1011 95 10000 6.76 236 05:21 02.01.2022
4567 Clouds 10 1012 93 10000 9.26 240 01:48 02.01.2022
4568 Rain 11 1014 87 10000 9.26 220 23:39 01.01.2022
4569 Rain 11 1014 87 10000 9.77 230 22:57 01.01.2022
4570 Clouds 11 1016 92 10000 6.33 220 22:23 01.01.2022
4571 Clouds 11 1015 93 10000 8.23 230 21:44 01.01.2022
4572 Clouds 11 1015 93 10000 6.17 190 20:55 01.01.2022
4573 Clouds 11 1016 93 9000 6.17 200 19:58 01.01.2022
4574 Clouds 10 1017 95 10000 6.36 202 19:26 01.01.2022
4575 Clouds 11 1017 100 6000 5.66 210 17:59 01.01.2022
4576 Clouds 10 1017 93 4900 5.14 210 16:43 01.01.2022
4577 Clouds 10 1019 97 5491 4.97 222 16:20 01.01.2022
4578 Clouds 10 1019 98 201 4.3 220 15:27 01.01.2022
4579 Rain 9 1019 93 6000 5.14 220 13:59 01.01.2022
4580 Clouds 9 1019 100 10000 4.12 240 12:50 01.01.2022
4581 Clouds 9 1020 93 7000 5.66 250 11:58 01.01.2022
4582 Clouds 9 1020 97 10000 4.53 246 11:23 01.01.2022
4583 Clouds 8 1019 93 10000 6.17 260 10:42 01.01.2022
4584 Clouds 9 1019 93 10000 6.17 260 09:47 01.01.2022
4585 Clouds 9 1018 97 10000 5.79 252 08:26 01.01.2022
4586 Clouds 9 1017 93 10000 7.72 260 07:55 01.01.2022
4587 Clouds 9 1017 93 10000 7.72 260 07:34 01.01.2022
4588 Clouds 8 1017 100 10000 8.75 270 06:42 01.01.2022
4589 Clouds 9 1016 93 10000 9.77 260 04:38 01.01.2022
4590 Clouds 8 1015 100 10000 9.77 270 03:38 01.01.2022
4591 Clouds 9 1013 100 900 10.29 270 23:52 31.12.2021
4592 Clouds 9 1012 93 2300 9.77 270 21:54 31.12.2021
4593 Clouds 9 1011 100 3400 9.26 260 20:48 31.12.2021
4594 Clouds 10 1012 97 4156 6.58 260 19:31 31.12.2021
4595 Clouds 9 1010 93 1900 12.35 280 18:46 31.12.2021
4596 Clouds 9 1009 93 9000 11.83 280 17:45 31.12.2021
4597 Clouds 9 1010 97 4211 6.93 267 17:22 31.12.2021
4598 Clouds 10 1008 93 1800 11.32 280 16:46 31.12.2021
4599 Clouds 10 1007 93 10000 14.4 270 15:59 31.12.2021
4600 Clouds 10 1007 93 10000 14.4 270 15:40 31.12.2021
4601 Clouds 10 1007 93 4500 14.92 260 15:19 31.12.2021
4602 Clouds 10 1007 93 4500 14.92 260 14:37 31.12.2021
4603 Clouds 10 1007 93 3200 14.92 260 13:44 31.12.2021
4604 Clouds 10 1007 93 2000 15.43 260 12:49 31.12.2021
4605 Clouds 10 1007 93 4500 13.38 250 12:19 31.12.2021
4606 Rain 10 1007 93 4500 13.38 250 11:41 31.12.2021
4607 Clouds 10 1007 93 3700 12.35 250 10:48 31.12.2021
4608 Clouds 10 1007 95 10000 10.87 244 10:25 31.12.2021
4609 Rain 10 1007 93 9000 14.4 260 09:34 31.12.2021
4610 Clouds 10 1007 93 2900 12.35 250 08:50 31.12.2021
4611 Rain 10 1007 100 3600 14.4 260 07:53 31.12.2021
4612 Rain 9 1008 100 3300 11.83 260 02:36 31.12.2021
4613 Clouds 9 1008 100 8000 9.26 260 23:18 30.12.2021
4614 Clouds 9 1009 97 5653 6.98 246 22:27 30.12.2021
4615 Clouds 9 1008 100 4000 8.23 250 21:39 30.12.2021
4616 Clouds 9 1007 93 2700 10.29 260 20:59 30.12.2021
4617 Clouds 9 1007 93 2700 10.29 260 20:38 30.12.2021
4618 Clouds 9 1007 100 5000 10.8 260 19:55 30.12.2021
4619 Clouds 9 1008 98 943 7.86 252 19:31 30.12.2021
4620 Clouds 9 1007 97 4724 8.05 261 18:26 30.12.2021
4621 Clouds 9 1006 93 5000 10.8 260 16:53 30.12.2021
4622 Clouds 9 1005 100 10000 10.8 250 15:53 30.12.2021
4623 Clouds 9 1005 100 9000 8.23 250 14:55 30.12.2021
4624 Clouds 9 1005 100 9000 8.23 250 14:36 30.12.2021
4625 Clouds 8 1005 98 250 5.96 231 13:25 30.12.2021
4626 Clouds 8 1005 98 250 5.96 231 13:25 30.12.2021
4627 Clouds 8 1005 100 4200 6.17 230 11:57 30.12.2021
4628 Clouds 7 1005 100 6000 6.69 220 10:40 30.12.2021
4629 Clouds 6 1005 93 5000 7.2 220 09:49 30.12.2021
4630 Clouds 6 1005 93 10000 8.23 250 06:59 30.12.2021
4631 Clouds 6 1005 96 10000 5.97 249 05:27 30.12.2021
4632 Clouds 6 1004 100 6000 6.17 240 03:41 30.12.2021
4633 Clouds 5 1003 99 457 5.01 209 02:28 30.12.2021
4634 Clouds 3 1003 100 2400 6.17 160 23:39 29.12.2021
4635 Clouds 3 1003 100 1400 4.63 160 22:55 29.12.2021
4636 Clouds 3 1003 100 2100 5.66 160 22:18 29.12.2021
4637 Clouds 2 1003 100 1000 6.69 160 20:59 29.12.2021
4638 Clouds 2 1004 99 10000 3.76 158 20:30 29.12.2021
4639 Clouds 2 1003 100 1700 4.12 160 19:43 29.12.2021
4640 Clouds 2 1003 100 400 3.6 150 18:45 29.12.2021
4641 Clouds 2 1004 93 350 3.6 160 17:53 29.12.2021
4642 Clouds 2 1005 98 10000 2.63 178 17:27 29.12.2021
4643 Clouds 2 1005 97 10000 2.29 189 16:23 29.12.2021
4644 Clouds 2 1004 93 3100 1.54 0 15:45 29.12.2021
4645 Clouds 2 1004 100 3400 1.03 200 13:55 29.12.2021
4646 Clouds 2 1003 100 2900 1.03 170 12:36 29.12.2021
4647 Clouds 2 1005 99 10000 0.37 248 11:27 29.12.2021
4648 Clouds 1 1003 100 2400 1.54 290 09:58 29.12.2021
4649 Clouds 1 1001 100 3000 1.03 60 07:51 29.12.2021
4650 Clouds 1 1001 100 2800 1.54 60 06:38 29.12.2021
4651 Clouds 1 1000 93 3000 2.06 50 05:59 29.12.2021
4652 Clouds 1 1000 93 3000 2.06 50 05:36 29.12.2021
4653 Clouds 1 997 100 3600 2.06 80 02:40 29.12.2021
4654 Clouds 1 996 100 649 3.01 81 00:23 29.12.2021
4655 Clouds 2 995 100 4700 3.6 110 23:34 28.12.2021
4656 Clouds 2 995 93 4900 3.09 110 22:42 28.12.2021
4657 Clouds 1 995 100 471 2.36 87 22:24 28.12.2021
4658 Clouds 1 994 93 5000 4.12 110 21:38 28.12.2021
4659 Clouds 2 993 93 5000 4.12 100 20:40 28.12.2021
4660 Clouds 1 993 99 126 4.28 100 19:25 28.12.2021
4661 Clouds 2 993 93 4500 5.14 110 18:41 28.12.2021
4662 Clouds 2 992 93 4000 4.12 130 17:59 28.12.2021
4663 Clouds 1 992 93 5000 4.12 130 16:34 28.12.2021
4664 Clouds 1 992 93 7000 4.12 120 15:50 28.12.2021
4665 Clouds 2 993 100 81 4.64 118 15:22 28.12.2021
4666 Clouds 2 993 87 7000 4.12 120 14:50 28.12.2021
4667 Clouds 1 993 100 74 4.32 123 14:21 28.12.2021
4668 Clouds 1 993 93 7000 4.12 130 13:42 28.12.2021
4669 Clouds 1 994 100 100 4.17 130 13:24 28.12.2021
4670 Clouds 1 994 93 6000 4.12 130 12:49 28.12.2021
4671 Clouds 1 994 93 7000 5.14 140 11:46 28.12.2021
4672 Clouds 1 995 93 10000 6.17 140 08:53 28.12.2021
4673 Rain 1 996 99 10000 4.92 144 07:28 28.12.2021
4674 Clouds 0 999 93 8000 4.12 130 00:59 28.12.2021
4675 Clouds 0 1002 98 10000 4.63 120 23:26 27.12.2021
4676 Clouds -1 1001 93 5000 4.12 130 21:46 27.12.2021
4677 Clouds -1 1002 97 10000 4.77 128 21:26 27.12.2021
4678 Clouds -2 1003 96 10000 5.07 124 20:24 27.12.2021
4679 Clouds -2 1001 86 5000 4.12 130 19:43 27.12.2021
4680 Clouds -2 1002 93 7000 4.12 140 18:54 27.12.2021
4681 Clouds -2 1002 93 1700 6.17 140 17:50 27.12.2021
4682 Clouds -2 1002 93 10000 5.66 130 17:18 27.12.2021
4683 Clouds -2 1002 93 4700 4.63 130 15:53 27.12.2021
4684 Clouds -2 1002 86 5000 5.66 120 14:35 27.12.2021
4685 Clouds -2 1003 86 7000 6.17 120 13:59 27.12.2021
4686 Clouds -2 1003 86 10000 5.66 130 12:49 27.12.2021
4687 Clouds -2 1004 80 10000 7.2 120 10:37 27.12.2021
4688 Clouds -2 1005 74 10000 7.72 120 10:18 27.12.2021
4689 Clouds -3 1005 69 10000 7.2 120 08:42 27.12.2021
4690 Clouds -3 1005 69 10000 7.2 120 08:42 27.12.2021
4691 Clouds -4 1005 68 10000 6.17 120 07:34 27.12.2021
4692 Clear -5 1010 79 10000 5.61 123 02:29 27.12.2021
4693 Clear -5 1009 46 10000 5.66 130 00:57 27.12.2021
4694 Clear -5 1010 54 10000 5.66 120 23:43 26.12.2021
4695 Clear -5 1010 58 10000 5.14 130 23:18 26.12.2021
4696 Clear -6 1012 80 10000 4.85 126 21:33 26.12.2021
4697 Clear -7 1011 73 10000 4.63 130 19:55 26.12.2021
4698 Clear -7 1012 73 10000 5.14 130 18:45 26.12.2021
4699 Clear -6 1013 81 10000 3.53 125 18:21 26.12.2021
4700 Clouds -4 1012 68 10000 3.09 130 15:38 26.12.2021
4701 Clouds -1 1012 32 10000 2.06 160 13:49 26.12.2021
4702 Clouds -2 1014 88 10000 2.36 139 13:31 26.12.2021
4703 Clouds -2 1013 55 10000 2.06 180 12:36 26.12.2021
4704 Clouds -5 1014 87 10000 2.44 174 11:24 26.12.2021
4705 Clouds -9 1013 93 10000 1.54 220 09:35 26.12.2021
4706 Clouds -8 1012 79 10000 1.54 220 08:50 26.12.2021
4707 Clouds -8 1013 94 10000 2.48 199 08:27 26.12.2021
4708 Clouds -6 1013 68 10000 4.63 240 05:59 26.12.2021
4709 Clouds -4 1013 86 10000 4.12 250 00:44 26.12.2021
4710 Clouds -4 1013 86 10000 4.63 230 23:48 25.12.2021
4711 Clear -6 1014 91 10000 2.5 218 23:25 25.12.2021
4712 Clear -5 1014 92 10000 2.32 215 22:21 25.12.2021
4713 Clear -5 1013 80 10000 4.12 240 20:36 25.12.2021
4714 Clear -5 1013 91 10000 1.37 250 19:20 25.12.2021
4715 Clear -4 1013 80 10000 3.6 230 18:51 25.12.2021
4716 Clouds -3 1013 74 10000 3.6 240 16:58 25.12.2021
4717 Clouds -2 1012 69 10000 4.12 260 15:54 25.12.2021
4718 Clouds -2 1013 88 10000 3.23 234 14:25 25.12.2021
4719 Clear -2 1012 64 10000 6.69 260 12:43 25.12.2021
4720 Clear -4 1014 81 10000 3.58 237 11:27 25.12.2021
4721 Clear -6 1012 63 10000 4.63 250 09:49 25.12.2021
4722 Clear -9 1012 73 10000 3.6 240 07:51 25.12.2021
4723 Clear -9 1010 73 10000 2.57 280 02:18 25.12.2021
4724 Clear -9 1012 86 10000 2.19 350 00:30 25.12.2021
4725 Clear -7 1009 74 10000 2.06 300 22:40 24.12.2021
4726 Clear -5 1008 63 10000 5.14 30 19:38 24.12.2021
4727 Clouds -4 1007 59 10000 6.17 40 19:19 24.12.2021
4728 Clouds -2 1005 64 10000 8.75 40 16:50 24.12.2021
4729 Clouds -2 1003 64 10000 9.77 30 16:19 24.12.2021
4730 Clouds -1 1003 64 10000 9.77 30 15:45 24.12.2021
4731 Clouds -1 1002 69 10000 10.8 40 14:46 24.12.2021
4732 Clouds 0 1003 77 10000 6.37 20 14:22 24.12.2021
4733 Clouds 1 1001 80 10000 10.8 30 13:37 24.12.2021
4734 Clouds 0 1000 93 10000 7.2 10 12:48 24.12.2021
4735 Clouds 0 999 93 10000 5.66 10 11:52 24.12.2021
4736 Clouds 0 999 93 10000 5.04 335 11:26 24.12.2021
4737 Clouds 0 998 100 5000 2.57 320 10:50 24.12.2021
4738 Clouds 0 998 100 4200 4.12 300 10:18 24.12.2021
4739 Clouds 0 998 98 10000 1.75 272 08:25 24.12.2021
4740 Clouds 0 997 100 2300 1.54 290 07:50 24.12.2021
4741 Clouds 0 997 100 1800 1.03 360 02:52 24.12.2021
4742 Clouds 0 997 100 1900 2.06 100 00:19 24.12.2021
4743 Clouds 0 997 99 289 3.45 66 23:23 23.12.2021
4744 Clouds 0 997 99 289 3.44 67 22:39 23.12.2021
4745 Snow 0 997 99 533 4.13 89 22:20 23.12.2021
4746 Snow 0 998 100 2800 3.6 140 21:33 23.12.2021
4747 Snow 0 999 99 349 4.14 137 20:20 23.12.2021
4748 Snow -1 1000 100 3700 2.06 180 18:53 23.12.2021
4749 Snow -1 1001 93 1100 4.12 180 17:57 23.12.2021
4750 Snow -1 1002 93 1400 3.6 190 16:58 23.12.2021
4751 Snow -1 1003 99 108 3.56 176 16:26 23.12.2021
4752 Snow -1 1003 99 108 3.56 176 15:32 23.12.2021
4753 Snow -1 1004 93 10000 3.6 170 14:55 23.12.2021
4754 Snow -1 1004 93 10000 3.6 170 14:37 23.12.2021
4755 Snow -1 1007 94 3963 3.84 194 13:23 23.12.2021
4756 Snow -1 1009 93 10000 1.54 170 10:54 23.12.2021
4757 Snow -1 1009 93 10000 1.54 170 10:54 23.12.2021
4758 Snow -2 1010 93 3700 3.09 130 09:52 23.12.2021
4759 Snow -2 1010 93 2961 3.28 173 09:31 23.12.2021
4760 Snow -2 1011 80 7958 2.85 193 08:25 23.12.2021
4761 Snow -2 1014 86 9000 4.12 170 04:39 23.12.2021
4762 Clouds -2 1018 86 10000 4.63 200 23:43 22.12.2021
4763 Clouds -2 1019 86 10000 3.6 200 22:49 22.12.2021
4764 Clouds -2 1019 86 10000 2.57 210 21:57 22.12.2021
4765 Clouds -2 1020 86 10000 3.64 197 21:30 22.12.2021
4766 Clouds -1 1020 86 10000 3.6 190 20:58 22.12.2021
4767 Clouds -1 1020 86 10000 3.6 190 20:40 22.12.2021
4768 Clouds -1 1021 93 10000 2.57 220 19:42 22.12.2021
4769 Clouds 0 1021 85 10000 3.61 203 18:25 22.12.2021
4770 Clouds 0 1021 86 10000 2.57 200 17:38 22.12.2021
4771 Clouds 1 1022 93 10000 4.63 220 15:50 22.12.2021
4772 Clouds 1 1023 89 10000 4.42 209 14:23 22.12.2021
4773 Clouds 1 1023 87 10000 4.63 220 12:53 22.12.2021
4774 Clouds 1 1023 93 10000 5.66 220 11:39 22.12.2021
4775 Snow 1 1023 93 6000 3.09 220 09:52 22.12.2021
4776 Clouds 1 1023 93 7000 4.63 220 07:57 22.12.2021
4777 Clouds 1 1024 87 10000 4.12 220 05:54 22.12.2021
4778 Rain 2 1024 87 10000 4.12 220 05:34 22.12.2021
4779 Clouds 2 1024 87 10000 5.14 230 04:57 22.12.2021
4780 Rain 1 1024 87 10000 5.14 230 04:37 22.12.2021
4781 Clouds 2 1024 81 10000 4.12 210 03:49 22.12.2021
4782 Clouds 1 1024 94 10000 4.37 199 03:31 22.12.2021
4783 Snow 1 1024 93 10000 2.57 230 23:48 21.12.2021
4784 Snow 1 1024 93 10000 2.57 230 22:41 21.12.2021
4785 Clouds 1 1024 93 10000 2.06 220 21:56 21.12.2021
4786 Clouds 1 1024 93 10000 2.06 220 21:33 21.12.2021
4787 Clouds 1 1024 87 10000 2.57 290 20:39 21.12.2021
4788 Clouds 1 1024 87 10000 5.14 200 20:18 21.12.2021
4789 Clouds 1 1024 87 10000 5.14 200 19:34 21.12.2021
4790 Clouds 1 1025 90 10000 3.43 196 18:23 21.12.2021
4791 Clouds 2 1024 80 10000 3.6 210 17:58 21.12.2021
4792 Clouds 2 1024 80 10000 3.6 210 17:39 21.12.2021
4793 Clouds 2 1024 80 10000 3.09 210 15:39 21.12.2021
4794 Clouds 2 1026 70 10000 2.5 197 14:24 21.12.2021
4795 Clouds 2 1025 75 10000 2.57 200 13:42 21.12.2021
4796 Clouds 1 1026 68 10000 2.3 199 12:29 21.12.2021
4797 Clouds -3 1026 93 10000 1.03 260 10:39 21.12.2021
4798 Clouds -4 1025 93 10000 1.03 210 09:56 21.12.2021
4799 Clouds -4 1025 100 10000 0.51 210 08:57 21.12.2021
4800 Clouds -4 1026 100 10000 1.03 310 07:45 21.12.2021
4801 Clouds -3 1026 82 10000 0.62 0 07:23 21.12.2021
4802 Clouds -2 1027 85 10000 1.4 348 04:26 21.12.2021
4803 Clouds -2 1027 85 10000 1.54 353 02:31 21.12.2021
4804 Clouds -1 1027 93 10000 1.54 300 23:55 20.12.2021
4805 Clouds -1 1027 86 10000 2.06 340 22:44 20.12.2021
4806 Clouds -1 1029 85 10000 2.4 8 22:25 20.12.2021
4807 Clouds -2 1028 85 10000 2.52 3 21:27 20.12.2021
4808 Clouds -1 1027 93 10000 2.57 310 20:55 20.12.2021
4809 Clouds -1 1027 93 10000 2.57 310 20:32 20.12.2021
4810 Clouds -2 1027 93 10000 1.03 330 19:38 20.12.2021
4811 Clear -2 1028 84 10000 2.61 356 19:20 20.12.2021
4812 Clear -1 1027 93 10000 2.06 310 18:34 20.12.2021
4813 Clear 0 1027 93 10000 3.6 330 17:51 20.12.2021
4814 Clear 0 1027 86 10000 3.09 320 16:53 20.12.2021
4815 Clear 1 1027 86 10000 3.09 320 16:35 20.12.2021
4816 Clear 2 1027 75 10000 3.6 320 15:43 20.12.2021
4817 Clear 4 1027 70 10000 1.54 310 14:40 20.12.2021
4818 Clear 3 1027 65 10000 1.54 0 12:44 20.12.2021
4819 Clear 1 1027 75 10000 2.06 290 10:55 20.12.2021
4820 Clear 0 1027 86 10000 3.09 250 09:47 20.12.2021
4821 Clear -1 1026 93 10000 3.09 320 08:56 20.12.2021
4822 Clear -1 1026 93 10000 3.09 320 08:38 20.12.2021
4823 Clear -1 1026 93 10000 1.54 350 07:46 20.12.2021
4824 Clear 0 1026 86 10000 2.57 330 06:40 20.12.2021
4825 Clear -1 1027 73 10000 4.19 332 02:32 20.12.2021
4826 Clear 0 1025 86 10000 4.63 340 23:50 19.12.2021
4827 Clear 0 1025 93 10000 4.63 350 22:44 19.12.2021
4828 Clear 0 1025 86 10000 5.14 340 21:49 19.12.2021
4829 Clear 1 1025 70 10000 3.13 347 21:25 19.12.2021
4830 Clear 1 1025 76 10000 3.23 348 20:29 19.12.2021
4831 Clear 2 1024 81 10000 2.06 330 19:45 19.12.2021
4832 Clouds 3 1024 65 10000 4.12 10 18:54 19.12.2021
4833 Clouds 4 1023 87 10000 5.14 360 18:24 19.12.2021
4834 Clouds 4 1023 87 10000 5.14 360 17:46 19.12.2021
4835 Clouds 5 1023 87 10000 5.14 350 16:55 19.12.2021
4836 Clouds 6 1023 77 10000 5.18 346 16:24 19.12.2021
4837 Clear 7 1022 74 10000 6.57 340 15:26 19.12.2021
4838 Clear 7 1022 76 10000 7.72 330 14:50 19.12.2021
4839 Clouds 8 1022 76 10000 10.29 330 13:46 19.12.2021
4840 Clear 8 1022 71 10000 9.19 327 13:21 19.12.2021
4841 Clear 8 1022 76 10000 12.86 340 12:33 19.12.2021
4842 Clear 8 1022 76 10000 12.86 340 12:33 19.12.2021
4843 Clear 8 1022 81 10000 11.83 320 11:42 19.12.2021
4844 Clouds 8 1023 87 10000 12.35 320 10:53 19.12.2021
4845 Clear 8 1023 79 10000 9.54 309 10:23 19.12.2021
4846 Clear 8 1023 79 10000 9.54 309 10:23 19.12.2021
4847 Clear 8 1023 79 10000 9.47 307 09:26 19.12.2021
4848 Clear 8 1023 81 10000 14.4 310 07:47 19.12.2021
4849 Clouds 7 1025 87 10000 14.4 320 04:44 19.12.2021
4850 Clouds 7 1027 87 10000 13.89 300 00:55 19.12.2021
4851 Clouds 7 1028 93 10000 11.32 300 23:52 18.12.2021
4852 Clouds 7 1029 93 10000 12.35 300 22:32 18.12.2021
4853 Clouds 7 1030 93 10000 13.38 300 21:54 18.12.2021
4854 Clouds 7 1030 93 10000 13.38 300 21:34 18.12.2021
4855 Clouds 7 1030 93 10000 11.83 300 20:44 18.12.2021
4856 Clouds 7 1030 93 10000 12.35 300 19:51 18.12.2021
4857 Clear 7 1031 93 10000 8.23 310 19:19 18.12.2021
4858 Clear 7 1030 90 10000 8.06 299 18:20 18.12.2021
4859 Clear 7 1031 93 10000 8.23 310 17:47 18.12.2021
4860 Clear 8 1031 88 10000 8.57 302 16:25 18.12.2021
4861 Clear 8 1032 85 10000 8.15 302 15:26 18.12.2021
4862 Clear 9 1032 85 10000 8.15 302 14:32 18.12.2021
4863 Clouds 9 1033 84 10000 7.37 301 13:19 18.12.2021
4864 Clouds 8 1034 80 10000 7.02 300 11:21 18.12.2021
4865 Clouds 7 1035 100 10000 5.66 310 09:37 18.12.2021
4866 Clouds 7 1035 100 8000 8.75 310 08:43 18.12.2021
4867 Clouds 7 1035 93 10000 7.72 290 08:19 18.12.2021
4868 Clouds 7 1036 91 10000 4.19 307 02:20 18.12.2021
4869 Clouds 7 1037 87 10000 5.29 307 00:27 18.12.2021
4870 Clouds 7 1037 100 10000 7.72 320 23:39 17.12.2021
4871 Clouds 7 1037 100 10000 6.69 300 21:56 17.12.2021
4872 Clouds 7 1037 100 10000 5.66 300 20:58 17.12.2021
4873 Clouds 7 1037 100 10000 5.66 300 20:38 17.12.2021
4874 Clouds 7 1038 100 10000 5.14 300 19:18 17.12.2021
4875 Clouds 7 1038 100 10000 5.14 300 18:38 17.12.2021
4876 Clouds 7 1037 96 10000 4.41 316 17:26 17.12.2021
4877 Clouds 7 1037 100 7000 4.12 290 16:44 17.12.2021
4878 Clouds 7 1037 96 10000 4.42 315 16:21 17.12.2021
4879 Clouds 7 1037 97 10000 4.42 303 15:21 17.12.2021
4880 Clouds 7 1037 97 10000 4.42 303 15:21 17.12.2021
4881 Clouds 7 1037 100 10000 6.69 290 14:39 17.12.2021
4882 Clouds 7 1037 100 10000 7.2 290 12:46 17.12.2021
4883 Clouds 7 1037 100 7000 5.14 290 11:34 17.12.2021
4884 Clouds 7 1037 100 2100 4.12 280 10:37 17.12.2021
4885 Clouds 6 1037 98 10000 3.6 287 09:31 17.12.2021
4886 Clear 6 1037 97 10000 3.48 287 08:30 17.12.2021
4887 Clear 5 1037 100 7000 6.69 280 05:58 17.12.2021
4888 Clear 6 1037 93 9000 5.66 290 02:53 17.12.2021
4889 Clear 5 1036 91 10000 3.18 281 23:25 16.12.2021
4890 Clear 5 1036 91 10000 3.29 276 22:24 16.12.2021
4891 Clear 5 1037 93 7000 6.69 270 21:50 16.12.2021
4892 Clear 5 1036 90 10000 3.77 284 21:25 16.12.2021
4893 Clear 5 1036 90 10000 4.47 288 20:30 16.12.2021
4894 Clear 5 1036 100 6000 5.14 270 19:42 16.12.2021
4895 Clouds 5 1036 100 10000 6.17 280 18:38 16.12.2021
4896 Clouds 6 1035 93 10000 6.17 290 17:56 16.12.2021
4897 Clouds 6 1036 88 10000 4.9 295 17:30 16.12.2021
4898 Clouds 7 1035 89 10000 4.23 291 16:21 16.12.2021
4899 Clouds 8 1034 87 10000 5.66 260 14:50 16.12.2021
4900 Clouds 8 1034 79 10000 3.77 297 13:25 16.12.2021
4901 Clouds 7 1034 85 10000 3.13 292 11:20 16.12.2021
4902 Clouds 7 1033 100 10000 4.12 270 10:59 16.12.2021
4903 Clouds 7 1033 89 10000 3.07 292 10:20 16.12.2021
4904 Clouds 8 1031 93 10000 5.14 310 07:48 16.12.2021
4905 Clouds 8 1030 95 10000 3.31 294 06:21 16.12.2021
4906 Clouds 9 1028 95 10000 4.34 269 01:25 16.12.2021
4907 Clouds 8 1028 95 10000 4.8 271 23:33 15.12.2021
4908 Clouds 9 1026 93 5000 7.72 260 22:43 15.12.2021
4909 Clouds 9 1026 93 10000 8.23 260 21:56 15.12.2021
4910 Clouds 9 1026 92 10000 6.45 263 21:27 15.12.2021
4911 Clouds 9 1025 87 10000 7.72 260 20:18 15.12.2021
4912 Clouds 9 1025 87 10000 7.72 260 19:50 15.12.2021
4913 Clouds 8 1025 87 10000 7.2 260 18:37 15.12.2021
4914 Clouds 9 1025 87 10000 10.29 260 17:54 15.12.2021
4915 Clouds 9 1025 87 10000 10.29 260 17:36 15.12.2021
4916 Clouds 9 1025 94 10000 6.72 251 16:28 15.12.2021
4917 Clouds 9 1024 87 10000 9.77 260 15:47 15.12.2021
4918 Clear 9 1024 90 10000 6.71 247 15:27 15.12.2021
4919 Clear 9 1024 87 10000 7.2 249 14:29 15.12.2021
4920 Clouds 9 1024 81 10000 9.77 260 12:46 15.12.2021
4921 Clouds 9 1024 81 10000 9.77 260 12:46 15.12.2021
4922 Clouds 9 1024 93 10000 10.29 250 10:44 15.12.2021
4923 Clouds 9 1023 93 10000 8.23 250 08:55 15.12.2021
4924 Clouds 9 1023 93 10000 8.75 250 07:43 15.12.2021
4925 Clouds 8 1023 93 10000 8.23 250 01:35 15.12.2021
4926 Clouds 8 1023 93 10000 6.69 240 23:42 14.12.2021
4927 Clouds 8 1022 93 10000 5.14 230 22:49 14.12.2021
4928 Clouds 7 1023 98 10000 4.99 223 22:25 14.12.2021
4929 Clouds 7 1023 93 10000 4.12 210 20:57 14.12.2021
4930 Clouds 6 1023 93 10000 4.12 210 19:44 14.12.2021
4931 Clouds 6 1023 93 10000 4.12 210 19:44 14.12.2021
4932 Clouds 6 1023 97 10000 3.56 213 19:20 14.12.2021
4933 Clouds 6 1024 94 10000 3.03 214 18:29 14.12.2021
4934 Clouds 6 1023 93 10000 4.63 230 17:34 14.12.2021
4935 Clouds 6 1023 93 10000 3.6 210 16:43 14.12.2021
4936 Clouds 6 1023 87 10000 2.57 230 15:41 14.12.2021
4937 Clouds 7 1024 88 10000 2.23 246 13:32 14.12.2021
4938 Clouds 7 1023 89 10000 1.9 271 12:27 14.12.2021
4939 Clouds 6 1023 92 10000 2.03 287 11:24 14.12.2021
4940 Clouds 6 1023 94 10000 2.14 284 10:25 14.12.2021
4941 Clouds 6 1022 100 10000 3.09 300 09:53 14.12.2021
4942 Clouds 7 1021 90 10000 2.17 348 08:29 14.12.2021
4943 Clouds 7 1020 93 4500 7.72 280 07:59 14.12.2021
4944 Clouds 8 1020 93 4300 8.23 240 05:52 14.12.2021
4945 Clouds 9 1022 93 2200 6.17 240 23:39 13.12.2021
4946 Clouds 8 1022 100 2600 6.69 240 21:54 13.12.2021
4947 Clouds 8 1022 100 2600 6.69 240 21:34 13.12.2021
4948 Clouds 8 1022 100 5000 6.17 240 20:50 13.12.2021
4949 Clouds 8 1022 100 4500 6.17 240 19:59 13.12.2021
4950 Clouds 9 1023 93 10000 5.49 231 19:20 13.12.2021
4951 Clouds 8 1023 95 10000 5.68 235 17:26 13.12.2021
4952 Clouds 9 1023 94 10000 5.82 233 16:23 13.12.2021
4953 Clouds 9 1022 93 10000 7.2 250 15:43 13.12.2021
4954 Clouds 9 1022 93 10000 6.69 250 13:52 13.12.2021
4955 Clouds 9 1022 87 10000 7.72 250 13:18 13.12.2021
4956 Clouds 9 1022 87 10000 7.72 250 12:36 13.12.2021
4957 Clouds 9 1022 93 10000 5.14 240 11:40 13.12.2021
4958 Clouds 9 1022 100 10000 4.63 230 11:19 13.12.2021
4959 Clouds 8 1022 93 10000 3.85 222 10:21 13.12.2021
4960 Clouds 8 1022 93 10000 3.85 239 08:31 13.12.2021
4961 Clouds 8 1021 100 500 3.09 210 05:38 13.12.2021
4962 Clouds 7 1020 100 3000 2.06 210 03:57 13.12.2021
4963 Clouds 8 1020 100 10000 4.12 260 23:43 12.12.2021
4964 Clouds 7 1019 100 10000 6.17 280 21:56 12.12.2021
4965 Clouds 7 1018 100 10000 5.66 280 20:46 12.12.2021
4966 Clouds 8 1018 93 10000 6.17 290 19:34 12.12.2021
4967 Clouds 8 1017 93 10000 8.23 280 17:54 12.12.2021
4968 Clouds 7 1017 98 5939 3.84 237 16:29 12.12.2021
4969 Clouds 7 1015 100 8000 6.69 250 15:53 12.12.2021
4970 Clouds 7 1016 98 337 4.7 226 15:28 12.12.2021
4971 Clouds 7 1015 93 2700 5.14 230 14:42 12.12.2021
4972 Clouds 6 1014 93 3200 6.69 200 13:47 12.12.2021
4973 Clouds 5 1014 93 5000 5.66 210 12:48 12.12.2021
4974 Clouds 5 1015 93 3700 5.14 200 11:45 12.12.2021
4975 Clouds 5 1015 93 3700 5.14 200 11:45 12.12.2021
4976 Clouds 4 1016 95 10000 6.72 198 11:25 12.12.2021
4977 Clouds 4 1015 100 7000 5.14 190 10:43 12.12.2021
4978 Clouds 4 1016 93 4700 6.17 180 09:48 12.12.2021
4979 Clouds 4 1016 93 6000 4.63 170 08:44 12.12.2021
4980 Rain 3 1017 100 5000 5.14 190 06:55 12.12.2021
4981 Rain 3 1017 96 10000 4.41 196 05:28 12.12.2021
4982 Rain 3 1017 100 4400 5.66 200 04:18 12.12.2021
4983 Snow 1 1017 100 3700 2.57 170 00:45 12.12.2021
4984 Clouds 1 1016 100 1500 2.06 210 22:56 11.12.2021
4985 Clouds 2 1017 92 10000 1.48 216 22:20 11.12.2021
4986 Clouds 1 1016 92 10000 0.89 238 21:26 11.12.2021
4987 Clouds 1 1015 100 2800 2.57 240 19:50 11.12.2021
4988 Clouds 1 1015 94 10000 0.46 289 19:21 11.12.2021
4989 Clouds 1 1014 100 6000 2.06 270 18:42 11.12.2021
4990 Clouds 2 1013 100 7000 2.57 280 17:48 11.12.2021
4991 Clouds 4 1012 87 10000 3.09 260 15:58 11.12.2021
4992 Clouds 4 1012 87 10000 3.09 260 15:40 11.12.2021
4993 Clouds 4 1011 87 10000 3.09 260 14:35 11.12.2021
4994 Clouds 3 1010 82 10000 3.8 250 12:29 11.12.2021
4995 Clouds 2 1010 83 10000 3.21 240 10:50 11.12.2021
4996 Clouds 1 1008 100 4100 2.06 210 09:43 11.12.2021
4997 Clouds 1 1005 93 7000 3.6 300 03:58 11.12.2021
4998 Clouds 1 1003 93 5000 1.54 330 00:48 11.12.2021
4999 Clouds 2 1002 93 5000 2.57 350 23:44 10.12.2021
5000 Clouds 2 1001 93 3400 1.03 360 22:47 10.12.2021
5001 Clouds 2 1000 100 5000 0.51 60 21:41 10.12.2021
5002 Clouds 2 1000 83 10000 0.6 80 20:28 10.12.2021
5003 Clouds 3 999 93 9000 2.57 50 19:19 10.12.2021
5004 Clouds 3 998 93 10000 2.57 80 17:50 10.12.2021
5005 Clouds 3 998 93 9000 2.06 70 16:39 10.12.2021
5006 Clouds 3 997 81 10000 1.54 100 15:45 10.12.2021
5007 Clouds 3 998 84 10000 2.42 103 15:27 10.12.2021
5008 Clouds 3 997 81 10000 1.54 120 14:49 10.12.2021
5009 Clouds 3 997 75 10000 3.09 110 13:50 10.12.2021
5010 Clouds 3 997 81 10000 3.6 110 12:56 10.12.2021
5011 Clouds 3 997 93 9000 3.6 120 11:43 10.12.2021
5012 Clouds 2 997 93 7000 3.09 130 11:19 10.12.2021
5013 Clouds 2 997 93 7000 4.12 130 09:53 10.12.2021
5014 Clouds 1 998 89 10000 4.04 125 08:23 10.12.2021
5015 Clouds 2 998 93 5000 4.12 150 04:58 10.12.2021
5016 Clouds 2 999 93 4900 4.12 150 02:47 10.12.2021
5017 Clouds 1 1001 100 3500 5.14 160 23:43 09.12.2021
5018 Rain 1 1002 100 3100 4.12 150 22:49 09.12.2021
5019 Clouds 1 1002 94 10000 3.94 144 22:23 09.12.2021
5020 Clouds 1 1002 94 10000 3.94 144 22:23 09.12.2021
5021 Clouds 1 1002 100 2200 2.06 170 21:40 09.12.2021
5022 Clouds 1 1002 93 3100 3.09 160 20:40 09.12.2021
5023 Clouds 1 1003 93 5000 3.6 150 19:46 09.12.2021
5024 Clouds 1 1003 94 10000 3.64 150 19:21 09.12.2021
5025 Clouds 1 1003 93 10000 3.66 137 18:25 09.12.2021
5026 Clouds 1 1003 93 5000 3.09 130 17:51 09.12.2021
5027 Clouds 1 1004 93 10000 3.85 138 17:25 09.12.2021
5028 Clouds 1 1003 93 5000 3.09 150 16:51 09.12.2021
5029 Clouds 2 1004 93 10000 3.61 138 15:31 09.12.2021
5030 Clouds 2 1003 87 7000 4.63 140 14:44 09.12.2021
5031 Clouds 1 1004 93 7000 3.6 140 13:18 09.12.2021
5032 Clouds 1 1004 93 7000 3.6 140 12:34 09.12.2021
5033 Clouds 1 1004 93 7000 3.6 140 10:58 09.12.2021
5034 Clouds 1 1004 93 6000 4.63 140 08:49 09.12.2021
5035 Clouds 1 1003 93 7000 3.09 130 06:19 09.12.2021
5036 Clouds 1 1003 87 10000 5.66 140 02:58 09.12.2021
5037 Clouds 2 1003 87 10000 4.63 150 23:43 08.12.2021
5038 Clouds 1 1004 96 10000 4.47 126 23:21 08.12.2021
5039 Clouds 1 1002 87 10000 3.6 140 22:46 08.12.2021
5040 Clouds 2 1002 87 10000 4.63 140 21:40 08.12.2021
5041 Clouds 2 1002 93 9000 5.66 140 20:59 08.12.2021
5042 Clouds 2 1001 93 8000 6.17 140 19:58 08.12.2021
5043 Clouds 2 1001 93 8000 6.17 140 19:58 08.12.2021
5044 Clouds 2 1001 93 8000 6.17 140 19:33 08.12.2021
5045 Clouds 2 1001 93 10000 5.14 140 18:40 08.12.2021
5046 Clouds 3 1000 87 10000 4.63 150 17:36 08.12.2021
5047 Clouds 2 1002 96 10000 5.16 133 17:36 08.12.2021
5048 Clouds 3 999 87 10000 5.66 160 15:49 08.12.2021
5049 Clouds 3 1000 95 10000 5.46 140 15:28 08.12.2021
5050 Clouds 3 1000 95 10000 5.46 140 14:31 08.12.2021
5051 Rain 1 998 93 8000 8.23 150 11:19 08.12.2021
5052 Rain 1 999 98 93 7.54 148 10:31 08.12.2021
5053 Rain 1 997 93 5000 8.75 140 08:56 08.12.2021
5054 Snow 1 998 88 10000 9.62 137 07:25 08.12.2021
5055 Clouds 2 1000 91 8631 9.27 129 04:24 08.12.2021
5056 Clouds 2 1003 87 10000 5.66 140 23:33 07.12.2021
5057 Clouds 1 1004 93 7000 7.72 150 21:51 07.12.2021
5058 Clouds 1 1005 96 10000 6.18 140 21:23 07.12.2021
5059 Clouds 1 1006 96 10000 5.81 151 20:20 07.12.2021
5060 Clouds 1 1006 93 8000 6.69 160 18:43 07.12.2021
5061 Clouds 1 1006 93 8000 7.2 160 17:52 07.12.2021
5062 Clouds 1 1006 93 7000 5.66 150 17:19 07.12.2021
5063 Clouds 1 1007 97 3249 6.02 143 16:31 07.12.2021
5064 Clouds 1 1006 93 9000 5.66 150 15:33 07.12.2021
5065 Clouds 1 1008 91 10000 5.35 141 14:23 07.12.2021
5066 Clouds 1 1007 86 10000 5.14 150 12:55 07.12.2021
5067 Clouds 1 1009 88 10000 5.23 148 11:29 07.12.2021
5068 Clouds 1 1008 86 10000 5.66 140 10:33 07.12.2021
5069 Clouds 0 1007 86 10000 6.17 140 08:39 07.12.2021
5070 Clouds 0 1008 92 10000 5.19 135 06:20 07.12.2021
5071 Clouds 0 1007 86 10000 5.66 140 05:37 07.12.2021
5072 Clouds 1 1008 80 10000 7.72 150 23:49 06.12.2021
5073 Clouds 1 1008 86 10000 7.72 150 22:58 06.12.2021
5074 Clouds 1 1008 86 10000 7.72 150 22:37 06.12.2021
5075 Clouds 1 1009 86 10000 8.75 150 21:51 06.12.2021
5076 Clouds 1 1010 80 10000 6.17 140 20:34 06.12.2021
5077 Clouds 1 1011 86 10000 6.69 140 19:56 06.12.2021
5078 Clouds 1 1012 89 10000 6.8 143 19:21 06.12.2021
5079 Clouds 1 1013 88 10000 6.09 143 18:29 06.12.2021
5080 Clouds 1 1012 80 10000 5.14 140 17:41 06.12.2021
5081 Clouds 1 1012 80 10000 6.69 140 16:49 06.12.2021
5082 Clouds 2 1013 80 10000 5.14 150 15:41 06.12.2021
5083 Clouds 3 1014 75 10000 5.14 160 13:46 06.12.2021
5084 Clouds 3 1014 81 10000 6.17 150 12:40 06.12.2021
5085 Clouds 3 1015 87 10000 4.12 140 11:48 06.12.2021
5086 Clouds 2 1015 93 8000 4.12 150 09:35 06.12.2021
5087 Clouds 1 1016 87 10000 3.09 90 06:43 06.12.2021
5088 Clouds 2 1014 80 10000 4.63 80 23:52 05.12.2021
5089 Clouds 2 1013 80 10000 5.14 70 21:53 05.12.2021
5090 Clouds 2 1014 84 10000 8.72 65 21:25 05.12.2021
5091 Clouds 2 1013 84 10000 8.95 66 20:20 05.12.2021
5092 Clouds 3 1012 81 10000 4.12 60 19:49 05.12.2021
5093 Clouds 2 1012 85 10000 9.76 66 19:21 05.12.2021
5094 Clouds 2 1012 81 10000 9.16 62 18:20 05.12.2021
5095 Clouds 3 1010 81 10000 5.66 70 17:49 05.12.2021
5096 Clouds 3 1009 81 10000 6.69 80 16:52 05.12.2021
5097 Clouds 3 1010 86 10000 9.88 79 16:27 05.12.2021
5098 Clouds 3 1008 93 10000 7.2 80 15:58 05.12.2021
5099 Rain 3 1007 93 4900 6.69 70 14:45 05.12.2021
5100 Rain 3 1008 97 93 5.41 93 14:27 05.12.2021
5101 Rain 2 1007 97 99 5.46 98 13:28 05.12.2021
5102 Rain 3 1006 93 10000 4.63 90 12:40 05.12.2021
5103 Clouds 2 1006 97 89 6.73 97 12:21 05.12.2021
5104 Rain 3 1005 93 10000 5.14 80 11:37 05.12.2021
5105 Rain 2 1004 97 72 7.57 99 10:21 05.12.2021
5106 Rain 2 1003 93 10000 5.14 110 08:50 05.12.2021
5107 Rain 2 999 93 10000 6.17 120 04:56 05.12.2021
5108 Rain 3 998 96 1792 6.8 106 01:23 05.12.2021
5109 Rain 3 998 93 8073 6.73 112 22:32 04.12.2021
5110 Rain 4 997 93 10000 5.66 120 21:37 04.12.2021
5111 Rain 4 997 93 10000 5.14 120 20:40 04.12.2021
5112 Rain 4 997 93 7000 4.12 120 19:33 04.12.2021
5113 Clouds 4 996 93 9000 4.12 130 18:43 04.12.2021
5114 Clouds 4 996 93 8000 4.12 120 17:47 04.12.2021
5115 Clouds 4 997 96 10000 3.91 109 17:22 04.12.2021
5116 Clouds 4 996 93 7000 3.6 110 16:46 04.12.2021
5117 Clouds 4 997 97 10000 3.18 113 16:27 04.12.2021
5118 Clouds 4 996 100 5000 2.57 170 12:44 04.12.2021
5119 Clouds 4 997 100 9000 2.57 200 11:39 04.12.2021
5120 Clouds 4 997 93 9000 3.09 190 10:59 04.12.2021
5121 Clouds 5 997 93 4600 3.09 200 09:42 04.12.2021
5122 Clouds 4 997 94 10000 2.8 191 08:29 04.12.2021
5123 Clouds 4 996 100 10000 5.14 210 04:43 04.12.2021
5124 Clouds 5 996 93 10000 6.17 210 00:56 04.12.2021
5125 Clouds 5 995 93 10000 7.2 240 23:43 03.12.2021
5126 Clouds 5 995 93 10000 6.69 220 22:53 03.12.2021
5127 Clouds 5 995 93 10000 5.66 220 21:57 03.12.2021
5128 Clouds 4 996 92 10000 4.13 253 21:23 03.12.2021
5129 Clouds 4 994 100 10000 8.75 220 20:42 03.12.2021
5130 Clouds 4 995 93 10000 7.67 234 19:28 03.12.2021
5131 Rain 3 996 97 123 9.73 212 18:24 03.12.2021
5132 Snow 1 995 93 4100 8.23 200 17:32 03.12.2021
5133 Rain 3 999 93 10000 8.23 220 13:45 03.12.2021
5134 Rain 3 1000 93 7000 4.63 210 12:49 03.12.2021
5135 Rain 3 1001 83 10000 5.24 222 11:23 03.12.2021
5136 Rain 2 1001 93 10000 5.14 210 09:44 03.12.2021
5137 Clouds 2 1002 80 10000 2.85 245 08:21 03.12.2021
5138 Clouds 1 1002 78 10000 3.46 263 07:23 03.12.2021
5139 Clouds 2 1001 93 10000 8.23 290 01:51 03.12.2021
5140 Clouds 2 1001 87 10000 6.17 270 00:42 03.12.2021
5141 Clouds 1 1001 93 10000 8.75 260 23:42 02.12.2021
5142 Clouds 1 1001 81 10000 9.26 280 21:42 02.12.2021
5143 Snow 0 1001 75 10000 5.14 250 20:56 02.12.2021
5144 Snow 0 1001 75 10000 5.14 250 20:35 02.12.2021
5145 Snow 0 1001 75 10000 5.14 250 20:35 02.12.2021
5146 Clouds -1 1002 75 10000 2.98 238 19:25 02.12.2021
5147 Clouds 0 1001 80 10000 5.66 280 17:36 02.12.2021
5148 Clouds 1 1001 77 10000 3.01 291 15:42 02.12.2021
5149 Clouds 2 999 65 10000 5.66 330 14:58 02.12.2021
5150 Clouds 2 998 75 10000 5.66 340 13:58 02.12.2021
5151 Clouds 2 998 80 10000 5.66 340 12:52 02.12.2021
5152 Clouds 2 997 75 10000 6.69 330 12:18 02.12.2021
5153 Clouds 0 995 80 10000 6.69 330 09:34 02.12.2021
5154 Clouds 0 994 80 10000 8.23 330 08:49 02.12.2021
5155 Clouds 0 989 80 10000 11.32 340 04:54 02.12.2021
5156 Clouds 0 984 80 10000 14.92 320 00:53 02.12.2021
5157 Snow 1 979 93 4200 14.92 320 23:19 01.12.2021
5158 Snow 1 980 94 343 12.31 330 22:23 01.12.2021
5159 Clouds 3 974 93 10000 15.95 340 20:39 01.12.2021
5160 Clouds 6 971 93 10000 9.77 320 19:57 01.12.2021
5161 Rain 7 970 94 10000 6.64 280 19:28 01.12.2021
5162 Clouds 7 970 100 3300 9.26 250 17:45 01.12.2021
5163 Rain 7 970 93 10000 10.8 210 16:50 01.12.2021
5164 Rain 7 973 87 6000 11.32 220 14:54 01.12.2021
5165 Rain 8 975 93 4400 10.29 200 13:46 01.12.2021
5166 Clouds 8 976 87 3500 9.26 200 12:51 01.12.2021
5167 Clouds 8 980 93 4900 9.77 210 10:43 01.12.2021
5168 Rain 7 981 93 10000 11.45 213 09:25 01.12.2021
5169 Rain 7 983 100 4800 8.75 160 08:36 01.12.2021
5170 Rain 6 985 100 3800 7.72 160 07:37 01.12.2021
5171 Rain 5 987 100 4700 8.75 150 07:19 01.12.2021
5172 Rain 3 994 87 10000 5.66 160 03:47 01.12.2021
5173 Clouds 2 997 87 10000 6.17 180 01:59 01.12.2021
5174 Clouds 2 999 87 10000 3.6 180 23:56 30.11.2021
5175 Clouds 1 1000 80 10000 2.6 186 23:26 30.11.2021
5176 Snow 0 1000 93 10000 3.6 220 21:55 30.11.2021
5177 Clouds 1 1000 93 10000 3.6 260 20:46 30.11.2021
5178 Clouds 2 1000 81 10000 4.63 300 20:19 30.11.2021
5179 Clouds 2 1000 81 10000 4.63 300 19:38 30.11.2021
5180 Clouds 2 999 81 10000 4.63 320 18:42 30.11.2021
5181 Clouds 3 999 75 10000 5.14 314 17:21 30.11.2021
5182 Clouds 5 996 70 10000 9.26 320 15:44 30.11.2021
5183 Clouds 5 995 69 10000 9.95 316 14:29 30.11.2021
5184 Clouds 6 994 69 10000 11.58 310 13:29 30.11.2021
5185 Clouds 6 992 75 10000 19.03 310 12:53 30.11.2021
5186 Clouds 6 992 75 10000 16.98 300 11:52 30.11.2021
5187 Clouds 6 993 67 10000 12.97 299 11:25 30.11.2021
5188 Clouds 6 991 70 10000 14.92 310 10:35 30.11.2021
5189 Clouds 6 992 81 10000 12.86 300 08:54 30.11.2021
5190 Clouds 6 993 67 10000 11.66 292 08:32 30.11.2021
5191 Clouds 6 991 87 10000 9.77 290 07:49 30.11.2021
5192 Clouds 6 991 87 10000 11.83 300 06:32 30.11.2021
5193 Rain 2 1000 93 10000 6.17 200 01:46 30.11.2021
5194 Snow 1 1001 97 2219 6.04 201 01:26 30.11.2021
5195 Clouds 0 1005 87 10000 3.2 194 23:27 29.11.2021
5196 Clouds 0 1004 93 10000 3.6 200 22:59 29.11.2021
5197 Clouds -1 1004 93 10000 3.6 200 22:36 29.11.2021
5198 Clouds -1 1005 93 10000 2.57 230 21:46 29.11.2021
5199 Clouds 0 1006 93 10000 2.57 250 21:19 29.11.2021
5200 Clouds 0 1006 93 10000 2.57 250 20:44 29.11.2021
5201 Clouds 0 1006 86 10000 4.12 290 19:58 29.11.2021
5202 Clouds 0 1006 86 10000 4.12 290 19:38 29.11.2021
5203 Clouds 0 1006 93 10000 3.09 300 18:58 29.11.2021
5204 Clouds 1 1007 84 10000 1.79 290 18:39 29.11.2021
5205 Clouds 1 1007 86 10000 2.45 337 17:21 29.11.2021
5206 Clouds 1 1007 86 10000 2.45 337 16:40 29.11.2021
5207 Clouds 1 1007 83 10000 3.34 340 16:22 29.11.2021
5208 Clouds 3 1007 76 10000 3.73 354 14:45 29.11.2021
5209 Clouds 4 1006 70 10000 3.84 7 13:52 29.11.2021
5210 Clouds 4 1006 67 10000 4.24 20 12:57 29.11.2021
5211 Clouds 4 1006 74 10000 4.59 30 11:54 29.11.2021
5212 Clouds 3 1005 83 10000 5.26 43 11:22 29.11.2021
5213 Clouds 0 1005 90 10000 5.79 41 09:58 29.11.2021
5214 Clouds 4 1002 91 10000 5.07 36 07:21 29.11.2021
5215 Clouds 3 1000 93 10000 5.14 10 05:51 29.11.2021
5216 Clouds 4 999 90 10000 3.08 357 01:22 29.11.2021
5217 Clouds 2 997 93 10000 3.09 340 23:47 28.11.2021
5218 Clouds 4 998 88 10000 2.45 351 23:29 28.11.2021
5219 Clouds 2 997 93 7000 1.54 340 22:18 28.11.2021
5220 Clouds 2 997 93 7000 1.54 340 21:39 28.11.2021
5221 Clouds 2 996 93 10000 3.09 330 20:40 28.11.2021
5222 Clouds 1 996 100 5000 3.09 310 19:44 28.11.2021
5223 Clouds 2 996 93 10000 3.09 290 18:40 28.11.2021
5224 Clouds 2 995 93 10000 2.06 300 18:18 28.11.2021
5225 Clouds 2 995 93 10000 2.06 300 17:34 28.11.2021
5226 Clouds 2 995 93 10000 2.57 310 16:47 28.11.2021
5227 Clouds 4 995 88 10000 2.34 356 16:28 28.11.2021
5228 Clouds 2 995 93 10000 3.6 310 15:50 28.11.2021
5229 Clouds 2 994 93 10000 2.06 320 14:55 28.11.2021
5230 Clouds 3 995 83 10000 2.02 358 14:28 28.11.2021
5231 Clouds 2 994 100 7000 4.63 310 12:54 28.11.2021
5232 Clouds 2 994 93 10000 3.6 320 11:39 28.11.2021
5233 Clouds 2 994 93 4500 3.6 340 10:34 28.11.2021
5234 Clouds 2 994 93 3600 5.14 320 09:56 28.11.2021
5235 Clouds 2 994 93 3600 5.14 320 09:36 28.11.2021
5236 Clouds 3 993 93 10000 7.72 30 00:53 28.11.2021
5237 Rain 3 993 93 10000 4.12 60 22:58 27.11.2021
5238 Rain 3 992 93 10000 4.12 60 19:51 27.11.2021
5239 Rain 4 993 97 62 3.58 78 18:26 27.11.2021
5240 Rain 3 991 93 5000 3.6 90 16:19 27.11.2021
5241 Clouds 4 993 97 117 3.93 100 15:32 27.11.2021
5242 Rain 4 991 93 10000 4.63 110 13:40 27.11.2021
5243 Rain 4 990 87 10000 3.09 100 12:19 27.11.2021
5244 Clouds 4 991 95 2558 5.21 116 10:30 27.11.2021
5245 Rain 5 990 95 3046 5.45 115 09:25 27.11.2021
5246 Rain 4 988 87 10000 5.14 110 07:43 27.11.2021
5247 Clouds 3 987 87 10000 5.14 130 04:55 27.11.2021
5248 Clouds 4 988 97 68 6.19 126 00:31 27.11.2021
5249 Clouds 3 988 87 10000 6.17 140 22:52 26.11.2021
5250 Clouds 5 989 96 2321 6.46 135 22:24 26.11.2021
5251 Rain 4 988 81 10000 6.17 150 21:34 26.11.2021
5252 Clouds 4 988 81 10000 6.17 150 21:34 26.11.2021
5253 Clouds 4 988 87 10000 6.17 150 20:42 26.11.2021
5254 Rain 4 988 81 10000 7.2 160 19:56 26.11.2021
5255 Rain 5 989 88 10000 6.79 159 19:28 26.11.2021
5256 Clouds 4 988 87 10000 5.66 160 17:55 26.11.2021
5257 Clouds 5 989 89 10000 6.5 160 17:21 26.11.2021
5258 Clouds 4 989 87 10000 6.69 160 15:46 26.11.2021
5259 Clouds 4 991 87 10000 5.14 180 13:35 26.11.2021
5260 Clouds 4 991 85 10000 6.33 184 12:30 26.11.2021
5261 Clouds 4 994 87 10000 5.14 180 10:37 26.11.2021
5262 Clouds 3 995 93 10000 5.14 180 08:58 26.11.2021
5263 Clouds 3 996 94 10000 3.89 193 08:21 26.11.2021
5264 Clouds 3 996 92 10000 3.58 186 07:26 26.11.2021
5265 Clouds 2 997 85 10000 3.26 184 06:26 26.11.2021
5266 Rain 3 998 87 10000 4.63 210 03:59 26.11.2021
5267 Clouds 3 999 93 10000 3.6 250 02:52 26.11.2021
5268 Clouds 3 1002 72 10000 3.4 275 23:18 25.11.2021
5269 Clouds 4 1001 75 10000 7.72 300 21:48 25.11.2021
5270 Clear 5 1003 65 10000 6.38 299 20:29 25.11.2021
5271 Clouds 6 1002 76 10000 7.72 280 18:48 25.11.2021
5272 Clouds 6 1002 76 10000 10.29 280 17:48 25.11.2021
5273 Clouds 6 1002 70 10000 7.15 295 17:25 25.11.2021
5274 Clouds 6 1002 76 10000 9.26 280 16:33 25.11.2021
5275 Rain 7 1002 81 10000 9.26 280 15:49 25.11.2021
5276 Clouds 8 1003 81 10000 10.8 270 14:19 25.11.2021
5277 Clouds 7 1004 66 10000 6.16 270 12:28 25.11.2021
5278 Clouds 7 1004 87 10000 4.12 240 11:51 25.11.2021
5279 Rain 6 1005 93 2100 4.12 240 09:56 25.11.2021
5280 Rain 6 1007 87 10000 5.86 210 06:22 25.11.2021
5281 Clouds 6 1010 87 10000 6.17 210 02:52 25.11.2021
5282 Clouds 6 1012 85 10000 5.95 218 23:32 24.11.2021
5283 Clouds 7 1013 86 10000 5.92 219 22:28 24.11.2021
5284 Clouds 7 1013 93 9000 5.66 220 21:44 24.11.2021
5285 Clouds 7 1013 93 10000 6.17 210 20:56 24.11.2021
5286 Clouds 7 1014 87 10000 5.84 218 20:26 24.11.2021
5287 Clouds 7 1015 100 9000 6.17 220 18:37 24.11.2021
5288 Clouds 8 1015 93 6000 6.17 230 18:18 24.11.2021
5289 Clouds 8 1016 87 10000 6.69 230 16:19 24.11.2021
5290 Clouds 8 1017 93 2800 5.14 230 14:54 24.11.2021
5291 Clouds 8 1017 86 10000 5.57 247 14:20 24.11.2021
5292 Clouds 8 1019 93 10000 5.66 250 12:50 24.11.2021
5293 Clouds 8 1020 81 10000 4.09 238 11:22 24.11.2021
5294 Clouds 8 1020 93 10000 4.63 250 10:50 24.11.2021
5295 Clouds 8 1020 86 10000 3.13 234 10:27 24.11.2021
5296 Clouds 7 1020 100 10000 5.66 260 07:59 24.11.2021
5297 Clouds 7 1021 93 2500 6.69 260 06:59 24.11.2021
5298 Clouds 6 1022 93 10000 5.66 260 03:59 24.11.2021
5299 Clouds 6 1023 93 10000 4.63 260 01:36 24.11.2021
5300 Clouds 6 1024 74 10000 4.75 280 23:30 23.11.2021
5301 Clouds 6 1024 93 10000 6.17 280 22:37 23.11.2021
5302 Clouds 6 1024 67 10000 5.47 297 21:45 23.11.2021
5303 Clouds 7 1024 69 10000 4.62 292 20:21 23.11.2021
5304 Clouds 6 1024 79 10000 3.84 287 19:22 23.11.2021
5305 Clouds 7 1024 93 10000 6.17 280 18:33 23.11.2021
5306 Clouds 7 1024 85 10000 3.73 282 17:30 23.11.2021
5307 Clouds 8 1024 93 10000 6.17 280 16:35 23.11.2021
5308 Clouds 9 1024 81 10000 5.25 293 15:26 23.11.2021
5309 Clouds 9 1024 76 10000 7.72 300 14:44 23.11.2021
5310 Clouds 10 1024 76 10000 7.2 310 13:19 23.11.2021
5311 Clouds 7 1024 79 10000 3.98 282 10:28 23.11.2021
5312 Clouds 7 1024 87 10000 6.69 300 09:46 23.11.2021
5313 Clouds 6 1023 93 10000 6.17 290 07:56 23.11.2021
5314 Clouds 7 1023 87 10000 6.69 300 04:53 23.11.2021
5315 Clouds 7 1023 88 10000 4.47 290 03:32 23.11.2021
5316 Clouds 8 1022 87 10000 7.2 280 23:38 22.11.2021
5317 Clouds 8 1023 93 10000 7.72 290 22:58 22.11.2021
5318 Clouds 8 1023 91 10000 5.25 292 22:30 22.11.2021
5319 Clouds 8 1023 93 5000 7.72 260 21:44 22.11.2021
5320 Clouds 7 1023 81 10000 8.23 250 21:19 22.11.2021
5321 Clouds 6 1024 90 10000 4.06 260 20:27 22.11.2021
5322 Clouds 5 1024 90 10000 3.74 268 19:20 22.11.2021
5323 Clouds 5 1023 81 10000 5.66 270 18:41 22.11.2021
5324 Clouds 5 1023 81 10000 5.66 270 18:41 22.11.2021
5325 Clouds 5 1024 90 10000 3.65 276 18:21 22.11.2021
5326 Clear 5 1024 81 10000 3.6 270 16:41 22.11.2021
5327 Clouds 6 1024 81 10000 2.62 290 15:29 22.11.2021
5328 Clouds 6 1024 57 10000 5.66 260 12:51 22.11.2021
5329 Clouds 5 1024 65 10000 4.63 260 11:39 22.11.2021
5330 Clouds 1 1024 75 10000 3.07 246 10:26 22.11.2021
5331 Clouds 1 1023 93 10000 2.06 260 08:44 22.11.2021
5332 Clouds 0 1024 75 10000 1.81 303 08:24 22.11.2021
5333 Clear 2 1020 93 10000 5.14 360 01:43 22.11.2021
5334 Clouds 3 1019 83 10000 4.02 2 23:21 21.11.2021
5335 Clouds 4 1017 87 10000 5.14 10 22:45 21.11.2021
5336 Clouds 5 1016 87 10000 6.17 20 21:33 21.11.2021
5337 Clouds 6 1015 81 10000 6.69 10 20:38 21.11.2021
5338 Clouds 6 1014 76 10000 9.26 30 19:43 21.11.2021
5339 Clouds 6 1014 76 10000 9.26 30 19:43 21.11.2021
5340 Clouds 6 1011 87 10000 10.8 30 17:59 21.11.2021
5341 Clouds 6 1011 87 10000 10.8 30 17:36 21.11.2021
5342 Clouds 8 1009 81 10000 4.64 22 15:22 21.11.2021
5343 Rain 8 1008 81 10000 5.14 20 14:43 21.11.2021
5344 Clouds 8 1008 77 10000 3.47 350 13:31 21.11.2021
5345 Clouds 9 1008 73 10000 3.99 317 12:32 21.11.2021
5346 Clouds 9 1006 81 10000 5.14 280 11:42 21.11.2021
5347 Clouds 7 1006 81 10000 7.72 260 10:20 21.11.2021
5348 Clouds 6 1006 81 10000 7.72 260 09:59 21.11.2021
5349 Clouds 6 1005 81 10000 5.14 260 08:40 21.11.2021
5350 Clouds 6 1005 80 10000 4.95 269 08:20 21.11.2021
5351 Rain 6 1005 81 10000 5.66 260 07:41 21.11.2021
5352 Clouds 7 1005 87 10000 6.17 290 05:48 21.11.2021
5353 Clouds 8 1006 87 10000 7.2 300 04:37 21.11.2021
5354 Clouds 9 1006 93 10000 8.23 290 03:18 21.11.2021
5355 Clouds 9 1006 93 10000 8.23 290 02:48 21.11.2021
5356 Clouds 9 1006 100 10000 10.29 290 00:54 21.11.2021
5357 Rain 9 1007 100 2300 9.77 250 23:41 20.11.2021
5358 Clouds 10 1008 76 10000 9.77 250 21:39 20.11.2021
5359 Clouds 10 1009 81 10000 9.77 260 20:54 20.11.2021
5360 Clouds 10 1011 76 10000 9.77 260 18:46 20.11.2021
5361 Clouds 10 1011 76 10000 9.77 260 18:46 20.11.2021
5362 Clouds 10 1011 84 10000 7.46 263 18:26 20.11.2021
5363 Clouds 10 1012 83 10000 7.81 262 17:26 20.11.2021
5364 Clouds 10 1012 82 10000 11.32 270 16:42 20.11.2021
5365 Clouds 11 1014 87 10000 8.75 260 14:46 20.11.2021
5366 Clouds 11 1015 81 10000 8.84 254 14:23 20.11.2021
5367 Clouds 11 1016 83 10000 8.37 255 12:22 20.11.2021
5368 Clouds 11 1018 87 10000 9.26 250 10:35 20.11.2021
5369 Clouds 11 1018 93 10000 9.26 260 09:39 20.11.2021
5370 Clouds 11 1018 93 10000 9.26 260 09:39 20.11.2021
5371 Clouds 11 1019 89 10000 6.73 263 07:28 20.11.2021
5372 Clouds 10 1020 84 10000 7.46 269 05:28 20.11.2021
5373 Clouds 11 1020 93 10000 12.35 270 04:50 20.11.2021
5374 Clouds 11 1021 93 10000 8.23 270 01:58 20.11.2021
5375 Clouds 11 1021 93 10000 8.23 270 00:40 20.11.2021
5376 Clouds 11 1021 100 7000 8.23 280 23:41 19.11.2021
5377 Clouds 11 1021 95 10000 6.1 267 22:21 19.11.2021
5378 Clouds 12 1020 94 10000 11.83 290 20:59 19.11.2021
5379 Clouds 12 1020 94 10000 11.83 290 20:37 19.11.2021
5380 Clouds 12 1020 87 10000 10.29 290 19:56 19.11.2021
5381 Clouds 12 1020 87 10000 10.29 280 18:55 19.11.2021
5382 Clouds 12 1020 92 10000 7.29 276 18:24 19.11.2021
5383 Clouds 12 1019 87 10000 11.32 290 17:36 19.11.2021
5384 Clouds 12 1019 87 10000 12.86 280 15:58 19.11.2021
5385 Clouds 12 1019 87 10000 13.89 280 13:56 19.11.2021
5386 Clouds 12 1020 82 10000 9.02 277 10:30 19.11.2021
5387 Clouds 12 1019 87 10000 12.86 280 09:48 19.11.2021
5388 Clouds 12 1020 88 10000 8.27 272 08:32 19.11.2021
5389 Clouds 12 1018 94 10000 12.86 270 04:54 19.11.2021
5390 Clouds 12 1018 94 10000 12.86 280 02:43 19.11.2021
5391 Clouds 12 1017 94 10000 13.38 280 23:52 18.11.2021
5392 Clouds 12 1017 94 10000 11.32 280 22:38 18.11.2021
5393 Clouds 12 1017 94 2400 12.86 280 20:56 18.11.2021
5394 Clouds 12 1017 94 2400 12.86 280 20:34 18.11.2021
5395 Clouds 12 1017 94 3000 12.86 280 19:59 18.11.2021
5396 Clouds 12 1017 94 3000 12.86 280 19:35 18.11.2021
5397 Clouds 12 1016 94 4100 12.86 280 18:35 18.11.2021
5398 Clouds 11 1016 100 5000 13.38 270 17:52 18.11.2021
5399 Clouds 11 1016 100 4100 12.86 270 16:46 18.11.2021
5400 Clouds 11 1016 93 3700 10.8 260 15:52 18.11.2021
5401 Rain 10 1017 100 2500 9.77 240 14:19 18.11.2021
5402 Rain 10 1017 93 3000 10.29 250 12:55 18.11.2021
5403 Rain 10 1018 93 8000 7.2 240 11:44 18.11.2021
5404 Rain 10 1019 91 10000 7.24 245 11:25 18.11.2021
5405 Rain 9 1019 86 10000 6.1 253 10:22 18.11.2021
5406 Clouds 9 1019 85 10000 5.78 257 08:30 18.11.2021
5407 Clouds 9 1018 87 10000 7.72 260 06:40 18.11.2021
5408 Clouds 8 1018 87 10000 7.72 260 05:44 18.11.2021
5409 Rain 6 1018 81 10000 5.6 267 01:26 18.11.2021
5410 Rain 6 1018 81 10000 5.6 267 01:26 18.11.2021
5411 Clouds 6 1017 87 10000 6.69 260 23:35 17.11.2021
5412 Clouds 6 1017 93 10000 5.66 260 22:40 17.11.2021
5413 Clouds 6 1016 93 10000 5.14 260 22:19 17.11.2021
5414 Clouds 6 1016 93 10000 5.14 260 22:19 17.11.2021
5415 Clouds 6 1016 93 10000 5.14 260 21:35 17.11.2021
5416 Clear 6 1016 87 10000 6.17 280 20:18 17.11.2021
5417 Clouds 7 1014 87 10000 6.17 290 17:36 17.11.2021
5418 Clouds 8 1013 81 10000 6.69 280 16:28 17.11.2021
5419 Clear 9 1012 93 10000 5.66 250 13:41 17.11.2021
5420 Clouds 8 1012 93 10000 4.63 220 12:38 17.11.2021
5421 Rain 6 1013 94 10000 6.95 216 11:28 17.11.2021
5422 Clouds 5 1013 93 8000 6.69 190 09:44 17.11.2021
5423 Clouds 5 1013 90 10000 6.32 197 09:23 17.11.2021
5424 Clouds 5 1013 93 7000 6.17 200 07:41 17.11.2021
5425 Clouds 4 1016 93 4400 4.63 180 02:56 17.11.2021
5426 Clouds 4 1017 93 3000 4.63 170 00:42 17.11.2021
5427 Clouds 4 1018 93 3200 3.09 180 22:41 16.11.2021
5428 Clouds 4 1019 83 10000 1.6 211 20:20 16.11.2021
5429 Clouds 4 1020 87 10000 2.57 260 19:57 16.11.2021
5430 Clouds 4 1020 87 10000 1.54 220 18:53 16.11.2021
5431 Clouds 4 1020 86 10000 2.4 215 18:29 16.11.2021
5432 Clouds 4 1020 86 10000 2.4 215 17:31 16.11.2021
5433 Clouds 4 1020 83 10000 2.32 207 16:31 16.11.2021
5434 Clouds 5 1021 87 10000 4.12 170 15:48 16.11.2021
5435 Clouds 5 1022 81 10000 2.06 190 13:49 16.11.2021
5436 Clouds 5 1024 70 10000 2.98 133 11:22 16.11.2021
5437 Clouds 5 1024 87 10000 2.06 160 09:45 16.11.2021
5438 Clouds 5 1025 74 10000 1.75 137 08:25 16.11.2021
5439 Clouds 5 1025 73 10000 1.87 133 07:31 16.11.2021
5440 Clouds 6 1026 87 10000 4.12 150 01:38 16.11.2021
5441 Clouds 6 1028 81 10000 2.57 130 22:52 15.11.2021
5442 Clouds 6 1028 72 10000 2.28 118 22:21 15.11.2021
5443 Clouds 6 1028 81 10000 2.57 130 21:52 15.11.2021
5444 Clouds 6 1028 70 10000 2.56 116 21:28 15.11.2021
5445 Clouds 6 1028 81 9000 0.51 170 19:41 15.11.2021
5446 Clouds 6 1028 72 10000 3.03 123 18:30 15.11.2021
5447 Clouds 6 1028 72 10000 3 124 16:20 15.11.2021
5448 Clouds 7 1028 81 9000 1.54 150 15:41 15.11.2021
5449 Clouds 7 1028 72 10000 3.27 122 15:23 15.11.2021
5450 Clouds 7 1029 75 10000 3.21 125 13:29 15.11.2021
5451 Clouds 7 1030 81 10000 4.12 150 10:57 15.11.2021
5452 Clouds 7 1030 83 10000 2.8 149 09:28 15.11.2021
5453 Clouds 7 1029 87 10000 3.6 130 07:52 15.11.2021
5454 Clouds 8 1029 83 10000 2.91 121 05:21 15.11.2021
5455 Clouds 8 1030 93 5000 3.09 130 23:54 14.11.2021
5456 Clouds 8 1030 100 3000 3.6 120 22:35 14.11.2021
5457 Clouds 9 1029 93 6000 2.57 100 19:57 14.11.2021
5458 Clouds 9 1029 93 8000 3.6 100 19:18 14.11.2021
5459 Clouds 9 1029 93 8000 3.6 100 18:54 14.11.2021
5460 Clouds 9 1029 93 8000 3.6 100 18:36 14.11.2021
5461 Clouds 9 1028 93 3400 2.57 100 18:18 14.11.2021
5462 Clouds 9 1028 93 3400 2.57 100 17:56 14.11.2021
5463 Clouds 9 1028 93 3400 2.57 100 17:38 14.11.2021
5464 Clouds 9 1028 93 10000 2.57 70 17:20 14.11.2021
5465 Clouds 9 1028 93 10000 2.57 70 16:47 14.11.2021
5466 Clouds 9 1028 83 10000 4.81 86 16:20 14.11.2021
5467 Clouds 9 1027 83 10000 4.96 80 15:23 14.11.2021
5468 Clouds 9 1027 93 10000 4.12 80 14:49 14.11.2021
5469 Clouds 9 1027 83 10000 5.31 80 14:29 14.11.2021
5470 Clouds 9 1027 93 6000 3.09 70 13:59 14.11.2021
5471 Clouds 9 1027 93 6000 3.09 70 13:40 14.11.2021
5472 Clouds 9 1026 86 10000 5.12 70 12:29 14.11.2021
5473 Clouds 9 1026 93 6000 2.57 80 11:58 14.11.2021
5474 Clouds 9 1025 87 10000 3.09 60 10:50 14.11.2021
5475 Clouds 8 1025 88 10000 4.83 70 10:27 14.11.2021
5476 Clouds 8 1024 93 8000 2.57 60 08:57 14.11.2021
5477 Clouds 8 1023 87 10000 4.7 62 07:28 14.11.2021
5478 Clouds 7 1019 86 10000 3.9 57 01:25 14.11.2021
5479 Clouds 7 1018 92 10000 3.34 61 22:27 13.11.2021
5480 Clouds 8 1017 93 1500 2.57 70 21:57 13.11.2021
5481 Clouds 7 1017 93 10000 2.82 64 21:27 13.11.2021
5482 Clouds 8 1016 93 2900 2.57 70 19:50 13.11.2021
5483 Clouds 8 1015 93 6000 3.09 80 18:48 13.11.2021
5484 Clouds 7 1015 93 10000 2.34 76 18:26 13.11.2021
5485 Clouds 8 1014 93 5000 1.03 0 16:48 13.11.2021
5486 Clouds 8 1013 93 5000 1.03 70 15:41 13.11.2021
5487 Clouds 8 1013 87 4800 2.06 100 14:34 13.11.2021
5488 Clouds 7 1013 93 5000 1.03 0 13:46 13.11.2021
5489 Clouds 7 1012 93 6000 2.06 130 12:38 13.11.2021
5490 Clouds 7 1012 93 5000 3.09 140 11:39 13.11.2021
5491 Clouds 7 1012 87 7000 2.57 150 10:48 13.11.2021
5492 Clouds 6 1011 86 10000 2.53 127 10:29 13.11.2021
5493 Clouds 6 1011 93 7000 2.57 140 09:42 13.11.2021
5494 Clouds 6 1010 93 5000 3.6 130 09:18 13.11.2021
5495 Clouds 6 1010 93 5000 3.6 130 08:40 13.11.2021
5496 Clouds 6 1009 93 6000 3.09 140 06:55 13.11.2021
5497 Clouds 6 1009 93 6000 5.14 140 04:34 13.11.2021
5498 Clouds 6 1009 87 8000 5.66 140 01:55 13.11.2021
5499 Clouds 6 1011 82 10000 4.97 153 23:27 12.11.2021
5500 Clouds 7 1010 87 10000 6.17 150 21:51 12.11.2021
5501 Clouds 8 1012 88 10000 5.79 155 20:20 12.11.2021
5502 Clouds 8 1012 88 10000 5.79 155 19:31 12.11.2021
5503 Clouds 8 1012 87 10000 6.17 160 18:53 12.11.2021
5504 Clouds 9 1013 87 10000 4.63 160 17:36 12.11.2021
5505 Clouds 9 1014 87 10000 3.6 160 15:51 12.11.2021
5506 Clouds 9 1017 80 10000 3.93 180 13:26 12.11.2021
5507 Clouds 9 1018 86 10000 4.33 190 11:23 12.11.2021
5508 Clouds 9 1018 100 4300 6.17 180 09:55 12.11.2021
5509 Clouds 9 1018 100 1900 5.14 170 08:50 12.11.2021
5510 Clouds 9 1019 93 700 4.12 170 06:35 12.11.2021
5511 Clouds 8 1021 81 10000 4.63 240 23:55 11.11.2021
5512 Clouds 8 1021 81 10000 4.12 250 22:49 11.11.2021
5513 Clouds 9 1021 81 10000 3.6 250 21:57 11.11.2021
5514 Clouds 9 1021 87 10000 4.63 270 20:52 11.11.2021
5515 Clouds 9 1021 87 10000 4.12 260 19:48 11.11.2021
5516 Clouds 9 1020 90 10000 2.9 273 18:27 11.11.2021
5517 Clouds 10 1021 87 10000 7.2 290 17:41 11.11.2021
5518 Clouds 11 1020 84 10000 4.3 274 15:29 11.11.2021
5519 Clouds 12 1020 87 10000 6.17 270 14:39 11.11.2021
5520 Clouds 11 1020 84 10000 4.72 276 14:20 11.11.2021
5521 Clouds 11 1020 82 10000 5.14 270 13:35 11.11.2021
5522 Clouds 11 1020 82 10000 4.79 273 12:26 11.11.2021
5523 Clouds 10 1020 100 500 3.6 280 09:58 11.11.2021
5524 Clouds 10 1020 96 10000 2.78 253 09:22 11.11.2021
5525 Clouds 10 1020 100 1000 1.54 0 06:55 11.11.2021
5526 Clouds 10 1021 100 1900 1.54 220 00:40 11.11.2021
5527 Clouds 10 1022 100 2700 2.57 210 22:46 10.11.2021
5528 Clouds 10 1022 100 3500 2.06 210 21:54 10.11.2021
5529 Clouds 10 1022 100 2600 3.09 240 20:56 10.11.2021
5530 Clouds 10 1022 96 10000 1.9 238 20:25 10.11.2021
5531 Clouds 10 1022 100 2600 3.09 210 19:45 10.11.2021
5532 Clouds 11 1021 100 3900 3.09 220 17:39 10.11.2021
5533 Clouds 11 1021 95 10000 3.46 242 16:21 10.11.2021
5534 Clouds 11 1021 92 10000 5.11 234 14:25 10.11.2021
5535 Clouds 11 1021 93 8000 5.14 230 13:38 10.11.2021
5536 Clouds 11 1021 90 10000 5.53 231 12:31 10.11.2021
5537 Clouds 9 1022 89 10000 5.53 216 09:29 10.11.2021
5538 Clouds 9 1021 93 3200 4.63 220 08:42 10.11.2021
5539 Clouds 9 1021 93 7000 5.14 230 06:59 10.11.2021
5540 Clouds 9 1021 93 5000 5.14 210 05:58 10.11.2021
5541 Clouds 9 1021 93 10000 6.69 200 04:58 10.11.2021
5542 Clouds 9 1022 93 4600 6.69 210 22:41 09.11.2021
5543 Clouds 9 1023 93 10000 6.69 210 20:51 09.11.2021
5544 Clouds 9 1022 93 5000 7.72 200 19:51 09.11.2021
5545 Clouds 9 1023 93 2500 6.69 210 18:59 09.11.2021
5546 Clouds 9 1023 85 10000 6.58 216 17:24 09.11.2021
5547 Clouds 10 1022 87 10000 8.23 210 15:38 09.11.2021
5548 Clouds 10 1023 76 10000 7.72 220 13:55 09.11.2021
5549 Clouds 10 1023 81 10000 7.72 220 12:50 09.11.2021
5550 Clouds 10 1023 81 10000 8.75 220 11:34 09.11.2021
5551 Clouds 9 1023 87 10000 6.69 210 10:43 09.11.2021
5552 Clouds 9 1023 85 10000 6.37 208 09:24 09.11.2021
5553 Clouds 8 1022 93 10000 5.14 200 08:18 09.11.2021
5554 Clouds 8 1022 93 10000 2.87 210 05:23 09.11.2021
5555 Clouds 8 1022 100 10000 4.12 160 02:19 09.11.2021
5556 Clouds 8 1022 100 10000 4.12 160 01:39 09.11.2021
5557 Clouds 8 1022 100 10000 2.06 140 23:35 08.11.2021
5558 Clouds 8 1022 100 10000 3.6 150 22:48 08.11.2021
5559 Clouds 8 1021 100 10000 3.09 120 21:46 08.11.2021
5560 Clouds 8 1021 100 10000 3.09 120 21:46 08.11.2021
5561 Clouds 9 1021 100 10000 3.6 110 20:47 08.11.2021
5562 Clouds 9 1021 93 7000 2.57 110 19:48 08.11.2021
5563 Clouds 9 1019 93 10000 1.54 100 17:55 08.11.2021
5564 Clouds 9 1018 92 10000 3.36 58 16:21 08.11.2021
5565 Clouds 10 1017 93 1900 3.6 40 14:58 08.11.2021
5566 Clouds 10 1017 93 1900 3.6 40 14:37 08.11.2021
5567 Clouds 11 1017 83 10000 3.09 47 13:31 08.11.2021
5568 Clouds 10 1016 93 10000 1.54 270 11:56 08.11.2021
5569 Clouds 10 1016 87 10000 1.54 250 10:50 08.11.2021
5570 Clouds 9 1015 100 10000 2.06 240 09:39 08.11.2021
5571 Clouds 9 1015 93 10000 4.12 260 08:54 08.11.2021
5572 Clouds 8 1014 90 10000 3.43 286 07:29 08.11.2021
5573 Clouds 8 1012 90 10000 3.93 283 03:56 08.11.2021
5574 Clouds 8 1011 91 10000 3.7 282 03:28 08.11.2021
5575 Clouds 10 1009 93 10000 6.17 310 23:46 07.11.2021
5576 Clouds 9 1007 93 10000 7.72 300 21:48 07.11.2021
5577 Clouds 10 1006 93 10000 7.2 280 20:54 07.11.2021
5578 Clouds 9 1005 93 10000 8.23 290 19:40 07.11.2021
5579 Rain 9 1004 91 8886 7.93 276 18:22 07.11.2021
5580 Rain 9 1004 87 7000 12.86 280 16:54 07.11.2021
5581 Clouds 9 1004 87 10000 6.17 220 15:48 07.11.2021
5582 Rain 8 1004 79 10000 8.84 274 14:29 07.11.2021
5583 Rain 9 1004 81 10000 9.26 260 13:35 07.11.2021
5584 Clouds 9 1004 81 10000 10.8 270 11:43 07.11.2021
5585 Rain 8 1004 87 10000 12.35 290 09:52 07.11.2021
5586 Clouds 8 1003 93 10000 10.8 280 07:54 07.11.2021
5587 Rain 10 1004 93 3200 9.26 240 02:41 07.11.2021
5588 Rain 10 1007 93 5000 10.29 220 23:38 06.11.2021
5589 Rain 10 1009 93 10000 9.26 220 22:48 06.11.2021
5590 Rain 10 1010 93 10000 9.77 230 21:34 06.11.2021
5591 Clouds 10 1011 87 10000 10.8 230 20:52 06.11.2021
5592 Clouds 11 1013 87 10000 8.75 230 18:56 06.11.2021
5593 Clouds 11 1015 93 10000 8.23 240 16:47 06.11.2021
5594 Clouds 11 1015 93 10000 8.23 240 16:47 06.11.2021
5595 Rain 10 1016 88 10000 8.15 245 15:21 06.11.2021
5596 Rain 11 1017 93 5000 8.75 250 13:38 06.11.2021
5597 Rain 11 1018 78 10000 7.5 237 12:28 06.11.2021
5598 Clouds 11 1019 82 10000 8.23 250 09:39 06.11.2021
5599 Clouds 10 1019 93 10000 9.26 250 07:57 06.11.2021
5600 Clouds 9 1019 87 10000 8.75 270 02:40 06.11.2021
5601 Clouds 9 1019 87 10000 8.75 270 23:38 05.11.2021
5602 Clouds 9 1018 87 10000 7.72 270 22:39 05.11.2021
5603 Clouds 9 1018 87 10000 7.72 270 21:54 05.11.2021
5604 Clouds 9 1018 86 10000 5.93 279 20:20 05.11.2021
5605 Clouds 10 1017 93 10000 8.23 260 19:48 05.11.2021
5606 Clouds 10 1017 93 10000 9.26 280 18:41 05.11.2021
5607 Clouds 10 1017 86 10000 6.14 276 17:31 05.11.2021
5608 Clouds 11 1016 82 10000 11.83 280 15:48 05.11.2021
5609 Clouds 11 1016 71 10000 11.83 290 13:55 05.11.2021
5610 Clouds 11 1016 77 10000 5.85 288 11:31 05.11.2021
5611 Clouds 7 1013 100 10000 5.66 270 08:41 05.11.2021
5612 Clouds 4 1012 100 10000 4.63 270 07:39 05.11.2021
5613 Clouds 5 1011 93 10000 6.17 300 05:33 05.11.2021
5614 Clouds 6 1010 95 10000 3.83 312 02:26 05.11.2021
5615 Clouds 6 1008 93 7000 6.69 320 00:52 05.11.2021
5616 Clouds 6 1008 92 10000 5.23 326 23:25 04.11.2021
5617 Clouds 7 1008 92 10000 5.44 332 22:20 04.11.2021
5618 Clouds 7 1007 87 10000 7.2 340 21:43 04.11.2021
5619 Clouds 7 1006 93 10000 7.2 350 21:19 04.11.2021
5620 Clouds 7 1006 87 10000 5.77 349 20:23 04.11.2021
5621 Clouds 8 1006 93 10000 7.2 350 19:48 04.11.2021
5622 Clouds 8 1005 93 10000 6.69 350 19:19 04.11.2021
5623 Clouds 8 1005 87 10000 5.56 359 18:20 04.11.2021
5624 Clouds 8 1005 87 10000 5.38 354 17:26 04.11.2021
5625 Clouds 8 1004 87 10000 7.2 360 15:34 04.11.2021
5626 Clouds 9 1004 87 10000 7.2 30 13:40 04.11.2021
5627 Rain 7 1005 100 10000 3.09 10 09:50 04.11.2021
5628 Rain 6 1005 92 10000 2.71 66 08:31 04.11.2021
5629 Rain 6 1004 100 1600 2.06 30 07:35 04.11.2021
5630 Rain 6 1004 95 9214 2.48 26 06:22 04.11.2021
5631 Clouds 6 1004 93 5000 3.6 150 22:54 03.11.2021
5632 Clouds 6 1004 93 6000 2.57 150 21:51 03.11.2021
5633 Clouds 6 1004 93 6000 2.57 150 21:33 03.11.2021
5634 Clouds 6 1003 93 9000 2.57 170 20:38 03.11.2021
5635 Clouds 6 1003 93 6000 3.09 170 20:19 03.11.2021
5636 Clouds 6 1002 93 5000 2.57 150 19:19 03.11.2021
5637 Clouds 6 1003 89 10000 2.6 183 18:25 03.11.2021
5638 Clouds 7 1002 87 10000 2.57 170 17:41 03.11.2021
5639 Clouds 8 1002 84 10000 2.36 174 16:31 03.11.2021
5640 Clouds 8 1002 81 10000 1.54 200 15:47 03.11.2021
5641 Clouds 8 1002 78 10000 2.71 168 15:28 03.11.2021
5642 Clouds 8 1002 78 10000 2.71 168 15:28 03.11.2021
5643 Clouds 9 1001 81 10000 2.57 170 12:42 03.11.2021
5644 Clouds 8 1002 83 10000 4 161 11:28 03.11.2021
5645 Clouds 7 1001 100 6000 2.06 160 10:49 03.11.2021
5646 Clouds 6 1001 100 5000 3.09 160 09:34 03.11.2021
5647 Clouds 5 1001 100 3300 4.63 160 08:37 03.11.2021
5648 Clouds 4 1000 100 2900 3.6 150 07:39 03.11.2021
5649 Clouds 3 1000 100 3400 2.57 170 05:45 03.11.2021
5650 Clouds 3 1001 96 10000 2.51 184 04:21 03.11.2021
5651 Clouds 4 1000 100 2600 3.6 160 00:55 03.11.2021
5652 Clouds 5 1000 100 2800 2.06 160 22:52 02.11.2021
5653 Clouds 7 1000 93 4600 2.06 270 21:47 02.11.2021
5654 Clouds 7 1000 100 4800 2.06 230 20:34 02.11.2021
5655 Clouds 7 999 93 5000 2.06 250 19:56 02.11.2021
5656 Clouds 7 1000 75 10000 3.03 216 19:20 02.11.2021
5657 Clouds 8 999 73 10000 3.38 220 18:27 02.11.2021
5658 Clouds 8 999 93 10000 4.12 270 17:43 02.11.2021
5659 Clouds 10 998 87 10000 3.09 270 16:34 02.11.2021
5660 Clouds 11 998 71 10000 3.6 270 15:49 02.11.2021
5661 Clouds 12 998 62 10000 2.57 230 14:51 02.11.2021
5662 Clouds 11 999 76 10000 3.2 221 13:29 02.11.2021
5663 Clouds 11 998 71 10000 1.54 220 12:46 02.11.2021
5664 Clouds 10 999 81 10000 2.06 230 11:38 02.11.2021
5665 Clouds 8 999 81 10000 2.06 200 10:55 02.11.2021
5666 Clouds 7 999 82 10000 3.97 220 10:32 02.11.2021
5667 Clouds 6 999 93 10000 2.06 190 09:40 02.11.2021
5668 Clouds 5 998 87 10000 4.63 180 07:46 02.11.2021
5669 Clouds 6 998 87 10000 6.17 180 04:58 02.11.2021
5670 Clouds 6 998 97 10000 3.36 179 03:22 02.11.2021
5671 Clouds 8 999 81 10000 7.2 170 23:42 01.11.2021
5672 Clouds 9 998 81 10000 6.17 190 21:46 01.11.2021
5673 Clear 10 998 76 10000 6.17 190 20:44 01.11.2021
5674 Clear 10 998 71 10000 7.2 180 19:58 01.11.2021
5675 Clear 10 998 71 10000 7.2 180 19:38 01.11.2021
5676 Clouds 10 998 81 10000 5.57 194 18:25 01.11.2021
5677 Clouds 11 997 76 10000 4.63 170 17:43 01.11.2021
5678 Clouds 11 997 71 10000 5.14 190 16:52 01.11.2021
5679 Clouds 11 997 74 10000 6.55 206 16:23 01.11.2021
5680 Clouds 11 997 77 10000 6.61 207 15:29 01.11.2021
5681 Clouds 12 996 71 10000 6.17 210 14:45 01.11.2021
5682 Clouds 12 997 79 10000 6.87 207 14:25 01.11.2021
5683 Clouds 12 996 71 10000 7.72 200 13:50 01.11.2021
5684 Clouds 11 996 82 10000 6.17 200 12:38 01.11.2021
5685 Clouds 11 996 82 10000 6.17 200 11:34 01.11.2021
5686 Clouds 11 997 84 10000 7.36 202 10:20 01.11.2021
5687 Clouds 10 995 93 10000 5.66 210 08:19 01.11.2021
5688 Clouds 10 995 93 10000 5.66 210 07:46 01.11.2021
5689 Clouds 11 994 87 10000 5.14 210 03:53 01.11.2021
5690 Clouds 13 994 94 10000 6.69 200 01:44 01.11.2021
5691 Rain 14 994 77 10000 8.75 150 23:18 31.10.2021
5692 Clouds 13 996 88 10000 8.23 140 20:51 31.10.2021
5693 Clouds 13 998 86 10000 7.11 141 19:24 31.10.2021
5694 Clouds 12 999 87 10000 6.17 130 18:43 31.10.2021
5695 Clouds 12 1000 87 10000 6.69 140 17:59 31.10.2021
5696 Clouds 12 1002 81 10000 6.16 146 16:28 31.10.2021
5697 Clouds 13 1003 82 10000 4.12 150 14:41 31.10.2021
5698 Clouds 12 1005 87 10000 5.14 170 12:55 31.10.2021
5699 Clouds 12 1005 82 10000 4.12 180 11:42 31.10.2021
5700 Clouds 11 1005 87 10000 4.12 190 10:48 31.10.2021
5701 Clouds 11 1006 94 10000 4.22 194 09:26 31.10.2021
5702 Clouds 11 1005 93 10000 3.6 200 08:44 31.10.2021
5703 Clouds 11 1003 100 7000 4.12 210 02:52 31.10.2021
5704 Rain 11 1001 87 10000 5.66 200 00:32 31.10.2021
5705 Clouds 12 1002 84 10000 6.38 194 22:20 30.10.2021
5706 Clouds 12 1001 74 10000 6.19 196 21:27 30.10.2021
5707 Clouds 12 1002 71 10000 6.39 195 19:49 30.10.2021
5708 Clouds 13 1002 76 10000 4.12 140 17:49 30.10.2021
5709 Clouds 13 1003 71 10000 3.09 160 15:49 30.10.2021
5710 Rain 12 1004 82 10000 6.17 170 13:59 30.10.2021
5711 Rain 12 1004 82 10000 6.17 170 13:38 30.10.2021
5712 Rain 12 1004 69 10000 5.67 149 13:20 30.10.2021
5713 Clouds 11 1005 82 10000 4.63 150 11:50 30.10.2021
5714 Clouds 11 1005 82 10000 5.66 150 10:57 30.10.2021
5715 Clouds 10 1006 87 10000 5.66 160 09:40 30.10.2021
5716 Clouds 9 1005 87 10000 6.17 170 07:57 30.10.2021
5717 Clouds 9 1005 87 10000 6.17 170 07:57 30.10.2021
5718 Clouds 10 1006 82 10000 6.17 190 05:48 30.10.2021
5719 Clouds 12 1006 76 10000 4.76 192 03:28 30.10.2021
5720 Clouds 12 1005 76 10000 8.23 180 23:33 29.10.2021
5721 Clouds 12 1005 71 10000 8.75 180 22:35 29.10.2021
5722 Clouds 12 1006 61 10000 6.84 181 21:20 29.10.2021
5723 Clouds 13 1005 71 10000 8.23 170 20:33 29.10.2021
5724 Clouds 13 1005 76 10000 7.2 160 19:33 29.10.2021
5725 Clouds 13 1006 65 10000 5.88 170 18:23 29.10.2021
5726 Clouds 15 1006 63 10000 4.63 170 16:34 29.10.2021
5727 Clear 14 1007 67 10000 6.69 180 13:34 29.10.2021
5728 Clear 10 1008 76 10000 7.2 180 10:50 29.10.2021
5729 Clear 10 1008 70 10000 5.45 178 10:31 29.10.2021
5730 Clouds 8 1009 83 10000 5.02 180 07:23 29.10.2021
5731 Clear 10 1011 82 10000 7.2 180 00:35 29.10.2021
5732 Clear 11 1011 82 10000 8.23 180 22:51 28.10.2021
5733 Clear 12 1012 82 10000 7.72 170 21:32 28.10.2021
5734 Clear 12 1013 82 10000 4.86 174 20:25 28.10.2021
5735 Clear 12 1013 85 10000 4.75 171 19:23 28.10.2021
5736 Clear 14 1013 77 10000 3.6 180 17:59 28.10.2021
5737 Clear 15 1014 72 10000 3.6 190 16:58 28.10.2021
5738 Clouds 16 1015 70 10000 5.14 194 15:20 28.10.2021
5739 Clouds 15 1016 72 10000 4.12 200 13:43 28.10.2021
5740 Clouds 15 1016 72 10000 6.47 208 13:20 28.10.2021
5741 Clouds 14 1016 77 10000 4.12 200 12:39 28.10.2021
5742 Clouds 12 1017 87 10000 4.63 200 10:54 28.10.2021
5743 Clouds 12 1017 82 10000 4.12 200 09:38 28.10.2021
5744 Clouds 12 1016 87 10000 6.17 220 08:55 28.10.2021
5745 Clouds 12 1016 95 10000 5.9 201 08:28 28.10.2021
5746 Clouds 12 1017 82 10000 5.66 230 04:42 28.10.2021
5747 Clouds 13 1017 88 10000 7.2 230 23:38 27.10.2021
5748 Clouds 14 1017 88 10000 7.83 229 22:31 27.10.2021
5749 Clouds 13 1017 94 10000 8.23 240 21:33 27.10.2021
5750 Clouds 14 1017 88 10000 8.75 240 20:53 27.10.2021
5751 Clouds 14 1017 88 10000 9.26 240 19:57 27.10.2021
5752 Clouds 14 1017 88 10000 9.26 240 19:38 27.10.2021
5753 Clouds 14 1016 88 10000 9.26 240 18:39 27.10.2021
5754 Clouds 14 1016 91 10000 8.84 237 16:27 27.10.2021
5755 Clouds 14 1016 91 10000 8.84 237 15:31 27.10.2021
5756 Clouds 14 1016 94 10000 10.8 250 14:40 27.10.2021
5757 Clouds 14 1016 88 10000 11.32 250 12:32 27.10.2021
5758 Clouds 14 1015 88 9000 9.26 240 10:58 27.10.2021
5759 Clouds 14 1015 94 10000 9.77 240 09:51 27.10.2021
5760 Clouds 14 1014 94 10000 9.77 240 08:35 27.10.2021
5761 Clouds 13 1014 91 10000 8.57 238 07:31 27.10.2021
5762 Clouds 13 1015 95 10000 8.52 230 02:30 27.10.2021
5763 Clouds 12 1014 94 2700 7.2 230 00:57 27.10.2021
5764 Clouds 12 1015 94 10000 7.3 218 00:28 27.10.2021
5765 Clouds 12 1015 94 10000 7.3 218 00:28 27.10.2021
5766 Clouds 12 1015 94 2400 5.66 230 23:41 26.10.2021
5767 Clouds 12 1015 94 10000 6.17 230 22:39 26.10.2021
5768 Clouds 12 1015 87 10000 5.14 220 21:59 26.10.2021
5769 Clouds 12 1015 94 10000 5.14 220 20:40 26.10.2021
5770 Clouds 11 1015 94 10000 5.16 215 19:32 26.10.2021
5771 Clouds 11 1015 87 10000 5.14 220 18:41 26.10.2021
5772 Clouds 11 1015 87 10000 5.14 230 16:42 26.10.2021
5773 Clouds 11 1015 87 10000 5.66 230 14:56 26.10.2021
5774 Clouds 11 1015 87 7000 7.2 240 11:47 26.10.2021
5775 Clouds 11 1014 93 10000 4.12 210 10:33 26.10.2021
5776 Rain 10 1013 100 6000 5.66 220 07:47 26.10.2021
5777 Rain 10 1013 92 10000 4.55 234 07:20 26.10.2021
5778 Clouds 10 1014 93 5000 4.63 220 23:51 25.10.2021
5779 Clouds 10 1014 93 5000 4.63 220 23:51 25.10.2021
5780 Clouds 10 1014 93 5000 4.63 220 23:51 25.10.2021
5781 Clouds 10 1014 100 3300 4.12 210 22:55 25.10.2021
5782 Clouds 10 1014 95 10000 5.01 204 22:20 25.10.2021
5783 Clouds 10 1014 100 3100 4.12 200 21:39 25.10.2021
5784 Clouds 10 1014 93 4500 5.14 220 20:18 25.10.2021
5785 Clouds 10 1014 96 10000 4.58 204 19:26 25.10.2021
5786 Clouds 10 1014 93 5000 3.6 210 18:59 25.10.2021
5787 Rain 10 1014 94 10000 4.88 203 18:20 25.10.2021
5788 Clouds 10 1015 90 10000 5.08 211 16:20 25.10.2021
5789 Clouds 11 1015 82 10000 3.6 190 14:36 25.10.2021
5790 Clouds 10 1015 82 10000 5.34 208 12:30 25.10.2021
5791 Clouds 6 1016 93 10000 4.27 200 10:25 25.10.2021
5792 Clouds 4 1015 87 10000 5.66 180 08:37 25.10.2021
5793 Clear 3 1016 96 10000 3.81 189 06:26 25.10.2021
5794 Clear 5 1017 81 10000 6.69 190 02:42 25.10.2021
5795 Clouds 5 1018 87 10000 5.66 180 00:47 25.10.2021
5796 Clouds 5 1018 93 10000 5.14 180 23:47 24.10.2021
5797 Clouds 5 1018 93 10000 5.14 180 23:47 24.10.2021
5798 Clouds 5 1019 93 10000 5.66 170 22:56 24.10.2021
5799 Clouds 5 1019 93 10000 5.66 170 22:37 24.10.2021
5800 Clouds 5 1019 93 10000 4.63 150 22:18 24.10.2021
5801 Clouds 6 1020 93 10000 5.14 150 20:46 24.10.2021
5802 Clouds 6 1021 86 10000 3.94 170 20:27 24.10.2021
5803 Clouds 7 1021 85 10000 3.59 167 19:22 24.10.2021
5804 Clouds 9 1021 79 10000 3.61 170 18:27 24.10.2021
5805 Clouds 10 1022 71 10000 4.3 177 17:29 24.10.2021
5806 Clouds 12 1023 58 10000 4.63 190 15:49 24.10.2021
5807 Clouds 12 1024 58 10000 4.63 190 13:58 24.10.2021
5808 Clouds 11 1025 62 10000 4.63 190 12:57 24.10.2021
5809 Clouds 10 1025 66 10000 5.66 180 11:44 24.10.2021
5810 Clouds 9 1025 71 10000 6.17 180 10:55 24.10.2021
5811 Clouds 8 1025 81 10000 6.69 190 09:59 24.10.2021
5812 Clouds 8 1025 81 10000 6.17 190 07:41 24.10.2021
5813 Clouds 7 1026 87 10000 6.17 200 00:57 24.10.2021
5814 Clouds 7 1026 87 10000 5.66 190 23:34 23.10.2021
5815 Clouds 7 1026 81 10000 3.6 190 22:18 23.10.2021
5816 Clouds 7 1026 87 10000 4.12 220 20:36 23.10.2021
5817 Clouds 9 1025 71 10000 3.6 260 18:59 23.10.2021
5818 Clouds 9 1025 77 10000 2.32 257 18:29 23.10.2021
5819 Clouds 10 1025 66 10000 5.66 280 17:43 23.10.2021
5820 Clouds 11 1024 67 10000 4.14 282 16:23 23.10.2021
5821 Clouds 12 1024 61 10000 4.85 296 14:27 23.10.2021
5822 Clouds 8 1015 76 10000 8.75 300 03:34 23.10.2021
5823 Clear 8 1012 76 10000 10.29 300 00:19 23.10.2021
5824 Clear 7 1011 81 10000 11.32 290 22:53 22.10.2021
5825 Clear 7 1009 87 10000 8.23 290 20:50 22.10.2021
5826 Clouds 7 1007 81 10000 8.75 310 18:45 22.10.2021
5827 Clouds 8 1006 71 10000 8.75 320 17:43 22.10.2021
5828 Clouds 9 1004 72 10000 8.55 296 15:26 22.10.2021
5829 Rain 8 1003 85 10000 7.35 317 13:54 22.10.2021
5830 Clouds 8 999 85 10000 6.21 323 11:26 22.10.2021
5831 Rain 8 999 85 10000 6.21 323 10:48 22.10.2021
5832 Rain 8 997 93 10000 8.75 260 09:56 22.10.2021
5833 Rain 8 997 93 4300 13.38 280 08:36 22.10.2021
5834 Clouds 8 999 80 10000 11.21 269 07:25 22.10.2021
5835 Rain 8 1000 87 10000 10.8 270 03:48 22.10.2021
5836 Rain 7 1000 81 10000 13.38 290 00:19 22.10.2021
5837 Clouds 7 1000 81 10000 13.38 290 23:39 21.10.2021
5838 Clouds 6 1000 70 10000 8.63 290 22:21 21.10.2021
5839 Rain 7 998 81 10000 14.4 320 20:53 21.10.2021
5840 Rain 7 997 76 10000 6.69 290 20:19 21.10.2021
5841 Clouds 7 998 73 10000 9.3 298 19:30 21.10.2021
5842 Clouds 7 998 73 10000 9.3 298 19:30 21.10.2021
5843 Clouds 8 995 71 10000 12.86 300 18:52 21.10.2021
5844 Clouds 8 995 73 10000 9.9 292 18:22 21.10.2021
5845 Clouds 8 994 81 10000 8.75 290 17:42 21.10.2021
5846 Clouds 9 993 70 10000 9.46 292 16:20 21.10.2021
5847 Clouds 10 991 72 10000 9.12 290 15:21 21.10.2021
5848 Clouds 10 990 71 10000 10.8 290 14:49 21.10.2021
5849 Clouds 10 989 72 10000 8.69 287 13:26 21.10.2021
5850 Clouds 10 984 93 8000 11.83 300 11:35 21.10.2021
5851 Rain 10 981 94 4587 5.26 309 09:23 21.10.2021
5852 Rain 11 979 96 2799 4.35 309 07:31 21.10.2021
5853 Rain 12 984 94 10000 5.14 190 05:33 21.10.2021
5854 Clouds 13 990 88 10000 9.26 230 23:56 20.10.2021
5855 Clouds 12 993 88 10000 9.3 230 22:21 20.10.2021
5856 Clouds 13 992 88 3000 11.32 250 21:45 20.10.2021
5857 Rain 14 992 82 10000 10.8 240 20:57 20.10.2021
5858 Rain 14 992 82 10000 10.8 240 20:57 20.10.2021
5859 Clouds 14 992 82 10000 10.8 240 20:37 20.10.2021
5860 Clouds 15 992 88 10000 12.35 240 19:59 20.10.2021
5861 Clouds 15 992 88 10000 10.8 240 18:59 20.10.2021
5862 Clouds 15 994 91 10000 8.98 233 18:29 20.10.2021
5863 Clouds 15 994 94 10000 9.77 210 15:54 20.10.2021
5864 Rain 15 995 88 8000 11.32 230 12:50 20.10.2021
5865 Rain 15 998 88 10000 9.26 220 09:50 20.10.2021
5866 Clouds 15 1002 85 10000 9.63 226 05:28 20.10.2021
5867 Clouds 16 1005 88 4400 11.83 240 00:53 20.10.2021
5868 Clouds 15 1006 90 10000 9.64 233 00:28 20.10.2021
5869 Clouds 16 1007 88 10000 9.68 234 22:21 19.10.2021
5870 Clouds 15 1008 92 10000 9.55 231 21:28 19.10.2021
5871 Clouds 15 1008 98 1897 8.64 217 20:26 19.10.2021
5872 Clouds 14 1007 100 2800 7.2 190 19:46 19.10.2021
5873 Clouds 14 1009 98 358 6.53 197 19:23 19.10.2021
5874 Clouds 14 1009 98 3729 5.97 189 18:23 19.10.2021
5875 Rain 14 1011 94 10000 5.55 204 16:25 19.10.2021
5876 Clouds 13 1012 94 10000 5.72 206 15:25 19.10.2021
5877 Clouds 13 1012 94 10000 5.72 206 14:31 19.10.2021
5878 Clouds 13 1013 94 9000 3.6 200 13:49 19.10.2021
5879 Clouds 12 1014 94 10000 4.63 200 11:38 19.10.2021
5880 Clouds 12 1014 87 10000 5.14 200 10:51 19.10.2021
5881 Clouds 11 1014 87 10000 5.14 190 09:35 19.10.2021
5882 Clouds 11 1015 87 10000 3.09 200 08:53 19.10.2021
5883 Clouds 10 1018 87 10000 4.63 170 00:36 19.10.2021
5884 Clouds 10 1018 87 10000 5.14 180 23:56 18.10.2021
5885 Clouds 11 1019 84 10000 3.88 185 23:22 18.10.2021
5886 Clouds 10 1018 87 10000 5.66 170 22:55 18.10.2021
5887 Clouds 11 1019 87 10000 5.14 170 22:18 18.10.2021
5888 Clouds 11 1019 87 10000 4.63 180 20:46 18.10.2021
5889 Clouds 11 1020 91 10000 3.29 178 20:21 18.10.2021
5890 Clouds 11 1020 91 10000 3.29 178 19:31 18.10.2021
5891 Clouds 12 1020 87 10000 2.57 210 18:58 18.10.2021
5892 Clouds 12 1020 87 10000 2.57 210 18:58 18.10.2021
5893 Clouds 13 1020 86 10000 4.22 222 16:33 18.10.2021
5894 Clouds 13 1020 94 10000 5.14 230 14:42 18.10.2021
5895 Clouds 13 1020 100 10000 3.6 230 11:54 18.10.2021
5896 Clouds 12 1019 94 6000 4.63 240 09:48 18.10.2021
5897 Clouds 12 1018 100 7000 5.14 230 07:46 18.10.2021
5898 Rain 11 1017 99 7425 2.02 193 00:29 18.10.2021
5899 Rain 10 1018 93 7000 3.6 200 22:48 17.10.2021
5900 Rain 10 1018 100 4800 2.57 200 21:44 17.10.2021
5901 Rain 10 1018 93 5000 3.09 210 20:57 17.10.2021
5902 Rain 10 1018 99 10000 2.31 177 20:21 17.10.2021
5903 Rain 11 1018 93 8000 1.03 230 19:38 17.10.2021
5904 Rain 11 1017 97 10000 1.72 202 18:34 17.10.2021
5905 Rain 11 1017 94 10000 2.57 260 16:47 17.10.2021
5906 Rain 11 1017 93 10000 1.03 0 14:40 17.10.2021
5907 Rain 11 1017 90 10000 1.6 240 14:21 17.10.2021
5908 Rain 11 1017 90 10000 1.6 240 13:33 17.10.2021
5909 Clouds 10 1017 93 10000 2.06 220 11:49 17.10.2021
5910 Rain 9 1016 93 10000 1.54 0 10:19 17.10.2021
5911 Rain 9 1016 93 10000 1.54 0 10:19 17.10.2021
5912 Rain 9 1016 84 10000 2.43 265 09:22 17.10.2021
5913 Clouds 9 1015 93 10000 3.6 250 06:52 17.10.2021
5914 Clouds 9 1016 87 10000 5.14 210 00:49 17.10.2021
5915 Clouds 9 1017 81 10000 4.16 230 23:31 16.10.2021
5916 Clouds 9 1017 81 10000 3.55 234 21:28 16.10.2021
5917 Clouds 9 1017 81 10000 3.55 234 20:30 16.10.2021
5918 Clouds 9 1017 71 10000 5.14 230 19:42 16.10.2021
5919 Clouds 9 1017 76 10000 3.86 252 19:20 16.10.2021
5920 Clouds 10 1017 71 10000 7.72 250 18:46 16.10.2021
5921 Clouds 10 1017 72 10000 4.46 262 18:28 16.10.2021
5922 Clouds 10 1017 66 10000 8.23 270 17:52 16.10.2021
5923 Clouds 11 1017 71 10000 4.9 267 17:21 16.10.2021
5924 Clouds 11 1018 71 10000 6.69 290 13:54 16.10.2021
5925 Clouds 11 1018 67 10000 5.24 278 11:26 16.10.2021
5926 Clouds 9 1018 81 10000 7.72 270 09:48 16.10.2021
5927 Clouds 8 1017 93 10000 5.14 280 06:50 16.10.2021
5928 Clouds 8 1018 69 10000 5.12 296 01:25 16.10.2021
5929 Clouds 8 1018 69 10000 5.12 296 01:25 16.10.2021
5930 Clouds 8 1018 69 10000 5.12 296 01:25 16.10.2021
5931 Clouds 8 1016 81 10000 6.17 290 23:40 15.10.2021
5932 Clouds 8 1017 72 10000 4.91 299 22:22 15.10.2021
5933 Clouds 8 1016 81 10000 6.17 300 21:56 15.10.2021
5934 Clouds 8 1016 70 10000 5.28 305 21:21 15.10.2021
5935 Clouds 9 1015 76 10000 6.69 290 20:45 15.10.2021
5936 Clear 10 1015 67 10000 6.04 310 19:26 15.10.2021
5937 Clear 10 1015 67 10000 6.03 309 18:40 15.10.2021
5938 Clear 13 1012 63 10000 8.49 307 16:28 15.10.2021
5939 Clear 13 1012 63 10000 8.84 308 15:22 15.10.2021
5940 Clouds 13 1009 67 10000 11.83 310 12:41 15.10.2021
5941 Clouds 12 1009 71 10000 7.56 298 11:26 15.10.2021
5942 Clouds 10 1008 87 10000 7.2 300 10:42 15.10.2021
5943 Clouds 9 1006 93 10000 6.69 290 08:59 15.10.2021
5944 Rain 12 1005 93 4912 8.19 323 05:31 15.10.2021
5945 Clouds 13 1009 76 10000 8.75 250 00:48 15.10.2021
5946 Clouds 13 1010 86 10000 8.47 245 00:21 15.10.2021
5947 Clouds 12 1010 94 10000 9.26 250 22:50 14.10.2021
5948 Clouds 13 1011 82 10000 11.83 260 21:44 14.10.2021
5949 Clouds 13 1012 82 10000 9.77 260 20:38 14.10.2021
5950 Clouds 13 1012 82 10000 10.8 260 20:18 14.10.2021
5951 Clouds 13 1013 79 10000 7.33 250 19:32 14.10.2021
5952 Clouds 13 1014 83 10000 7.31 259 17:30 14.10.2021
5953 Clouds 13 1014 88 10000 9.26 270 16:49 14.10.2021
5954 Clouds 13 1014 82 10000 11.83 270 15:35 14.10.2021
5955 Clouds 13 1015 82 10000 9.77 260 14:41 14.10.2021
5956 Clouds 13 1015 88 10000 11.83 280 13:39 14.10.2021
5957 Clouds 13 1016 94 10000 5.14 260 11:44 14.10.2021
5958 Clouds 12 1017 94 10000 4.63 250 09:55 14.10.2021
5959 Clouds 11 1018 94 10000 3.88 278 06:55 14.10.2021
5960 Clouds 11 1018 95 10000 4.21 309 00:58 14.10.2021
5961 Clouds 11 1018 96 10000 4.81 261 00:25 14.10.2021
5962 Clouds 10 1019 93 3100 3.6 220 21:58 13.10.2021
5963 Clouds 10 1019 96 10000 4.24 225 21:32 13.10.2021
5964 Clouds 10 1020 87 10000 4.63 270 19:59 13.10.2021
5965 Rain 11 1020 76 10000 6.69 280 18:54 13.10.2021
5966 Rain 11 1020 76 10000 6.69 280 18:34 13.10.2021
5967 Clouds 12 1020 65 10000 4.87 291 15:32 13.10.2021
5968 Clouds 12 1020 62 10000 5.56 297 14:45 13.10.2021
5969 Clouds 12 1020 64 10000 5.07 295 14:21 13.10.2021
5970 Clouds 11 1021 76 10000 2.45 281 12:22 13.10.2021
5971 Clouds 10 1020 76 10000 4.12 290 11:34 13.10.2021
5972 Clouds 4 1019 100 10000 2.06 290 08:42 13.10.2021
5973 Clouds 3 1019 93 10000 3.6 260 06:51 13.10.2021
5974 Clouds 3 1019 76 10000 2.98 303 02:28 13.10.2021
5975 Clouds 3 1018 100 10000 3.09 320 01:43 13.10.2021
5976 Clouds 4 1019 74 10000 2.8 313 23:30 12.10.2021
5977 Clouds 4 1019 74 10000 2.8 313 23:30 12.10.2021
5978 Clouds 5 1018 100 10000 3.6 340 22:46 12.10.2021
5979 Clouds 5 1017 100 10000 3.6 330 21:52 12.10.2021
5980 Clear 6 1017 93 10000 2.57 310 20:41 12.10.2021
5981 Clouds 6 1016 93 10000 3.6 340 20:18 12.10.2021
5982 Clouds 9 1015 81 10000 3.6 10 18:36 12.10.2021
5983 Clouds 11 1015 71 10000 3.09 340 17:57 12.10.2021
5984 Clouds 12 1015 66 10000 5.14 360 16:39 12.10.2021
5985 Clouds 11 1014 71 10000 3.09 330 15:58 12.10.2021
5986 Clouds 11 1015 60 10000 4.42 332 14:46 12.10.2021
5987 Clouds 11 1015 76 10000 3.6 360 13:44 12.10.2021
5988 Clouds 12 1015 66 10000 6.17 350 12:40 12.10.2021
5989 Clear 9 1015 75 10000 4.47 333 10:20 12.10.2021
5990 Clear 6 1014 87 10000 5.66 320 08:44 12.10.2021
5991 Clouds 6 1014 93 10000 5.66 320 07:54 12.10.2021
5992 Clouds 6 1014 93 10000 5.66 320 06:40 12.10.2021
5993 Clouds 7 1014 87 10000 6.69 300 04:33 12.10.2021
5994 Clouds 8 1016 88 10000 5.45 289 01:28 12.10.2021
5995 Clouds 9 1017 81 10000 8.75 270 23:41 11.10.2021
5996 Clouds 9 1018 81 10000 8.75 300 22:59 11.10.2021
5997 Clouds 9 1018 87 10000 10.8 290 21:46 11.10.2021
5998 Clouds 9 1018 81 10000 8.75 300 21:18 11.10.2021
5999 Clouds 10 1019 76 10000 5.66 300 19:46 11.10.2021
6000 Clouds 11 1019 76 10000 8.75 300 18:44 11.10.2021
6001 Clouds 12 1019 71 10000 9.77 310 17:59 11.10.2021
6002 Clouds 13 1019 58 10000 13.38 310 16:39 11.10.2021
6003 Clouds 14 1019 67 10000 12.35 310 16:19 11.10.2021
6004 Clouds 14 1019 67 10000 12.35 310 15:37 11.10.2021
6005 Clouds 14 1019 82 10000 9.26 300 14:53 11.10.2021
6006 Clouds 14 1019 82 10000 8.23 290 13:39 11.10.2021
6007 Clouds 15 1020 66 10000 7.11 296 12:20 11.10.2021
6008 Clouds 13 1020 82 10000 8.23 290 10:49 11.10.2021
6009 Clear 11 1020 87 10000 7.2 270 09:44 11.10.2021
6010 Clouds 8 1020 93 10000 5.14 270 07:56 11.10.2021
6011 Clouds 10 1021 93 3600 4.12 280 01:42 11.10.2021
6012 Clouds 10 1021 93 8000 5.14 270 00:53 11.10.2021
6013 Clouds 10 1022 85 10000 3.45 315 00:31 11.10.2021
6014 Clouds 9 1022 94 10000 3.62 205 22:22 10.10.2021
6015 Clouds 9 1022 81 10000 5.14 200 21:35 10.10.2021
6016 Clouds 8 1023 81 10000 3.09 210 20:48 10.10.2021
6017 Clouds 8 1023 85 10000 3.32 209 20:22 10.10.2021
6018 Clouds 8 1023 87 10000 3.6 220 19:59 10.10.2021
6019 Clouds 8 1023 87 10000 3.6 220 19:38 10.10.2021
6020 Clouds 10 1023 87 10000 3.6 240 18:37 10.10.2021
6021 Clouds 12 1024 62 10000 3.09 240 17:50 10.10.2021
6022 Clouds 14 1025 51 10000 3.09 200 15:47 10.10.2021
6023 Clouds 13 1025 54 10000 3.09 190 14:44 10.10.2021
6024 Clouds 13 1026 54 10000 4.12 180 13:34 10.10.2021
6025 Clouds 11 1027 62 10000 3.6 170 12:41 10.10.2021
6026 Clouds 10 1027 61 10000 3.88 186 11:29 10.10.2021
6027 Clouds 10 1027 61 10000 3.88 186 11:29 10.10.2021
6028 Clouds 8 1027 81 10000 3.6 170 09:51 10.10.2021
6029 Clouds 6 1027 87 10000 5.14 160 08:54 10.10.2021
6030 Clouds 5 1027 87 10000 4.12 170 07:57 10.10.2021
6031 Clouds 5 1030 93 10000 4.12 170 03:47 10.10.2021
6032 Clouds 6 1030 93 10000 2.57 170 01:43 10.10.2021
6033 Clouds 7 1030 93 10000 4.63 160 00:41 10.10.2021
6034 Clouds 8 1031 66 10000 3.13 159 23:23 09.10.2021
6035 Clouds 9 1031 93 10000 4.63 140 21:53 09.10.2021
6036 Clouds 9 1031 68 10000 3.35 148 21:29 09.10.2021
6037 Clouds 9 1031 93 10000 4.63 120 19:52 09.10.2021
6038 Clouds 10 1031 93 10000 4.63 120 19:34 09.10.2021
6039 Clouds 12 1031 87 10000 4.12 110 18:40 09.10.2021
6040 Clouds 13 1032 67 10000 4.12 120 17:51 09.10.2021
6041 Clouds 15 1032 55 10000 3.6 120 16:20 09.10.2021
6042 Clouds 15 1033 55 10000 3.09 130 13:49 09.10.2021
6043 Clouds 15 1032 46 10000 3.9 144 13:31 09.10.2021
6044 Clouds 14 1033 52 10000 4.15 139 12:23 09.10.2021
6045 Clouds 12 1033 100 10000 3.09 140 10:44 09.10.2021
6046 Clouds 10 1033 100 6000 3.6 120 10:18 09.10.2021
6047 Clouds 8 1033 100 4700 4.12 120 08:33 09.10.2021
6048 Clouds 8 1033 100 4900 4.63 120 07:54 09.10.2021
6049 Clouds 9 1033 95 10000 2.34 123 06:29 09.10.2021
6050 Clouds 9 1033 96 10000 2.41 120 04:31 09.10.2021
6051 Clouds 10 1033 100 4800 4.63 120 02:44 09.10.2021
6052 Clouds 11 1034 95 10000 3 101 00:23 09.10.2021
6053 Clouds 10 1034 95 10000 3 101 23:31 08.10.2021
6054 Clouds 10 1034 100 6000 4.12 130 22:42 08.10.2021
6055 Clouds 10 1033 93 5000 4.12 110 21:44 08.10.2021
6056 Clouds 11 1033 93 10000 4.63 110 19:49 08.10.2021
6057 Clouds 14 1033 84 10000 3.32 89 18:23 08.10.2021
6058 Clouds 15 1033 82 10000 3.09 90 16:55 08.10.2021
6059 Clear 16 1033 67 10000 3.35 100 16:24 08.10.2021
6060 Clear 15 1034 82 10000 4.12 130 14:57 08.10.2021
6061 Clouds 15 1034 88 10000 3.09 100 13:46 08.10.2021
6062 Clouds 14 1034 77 10000 2.06 110 11:42 08.10.2021
6063 Clouds 11 1033 100 10000 1.03 0 10:42 08.10.2021
6064 Clouds 9 1033 93 8000 1.54 120 09:47 08.10.2021
6065 Clouds 7 1032 90 10000 1.75 146 04:20 08.10.2021
6066 Clouds 9 1031 89 10000 1.88 181 23:25 07.10.2021
6067 Clouds 9 1031 100 10000 0.51 320 22:35 07.10.2021
6068 Clouds 10 1030 89 10000 1.56 135 21:29 07.10.2021
6069 Clouds 11 1030 94 10000 2.06 200 20:41 07.10.2021
6070 Clouds 12 1030 94 10000 3.6 140 19:34 07.10.2021
6071 Clouds 13 1029 94 10000 3.09 160 18:41 07.10.2021
6072 Clouds 15 1029 76 10000 1.27 156 17:33 07.10.2021
6073 Clouds 16 1028 72 10000 2.57 170 16:42 07.10.2021
6074 Clouds 17 1028 63 10000 3.09 160 14:56 07.10.2021
6075 Clouds 16 1028 63 10000 2.57 180 13:44 07.10.2021
6076 Clouds 16 1028 72 10000 2.57 160 13:19 07.10.2021
6077 Clouds 12 1027 100 10000 1.03 150 11:21 07.10.2021
6078 Clouds 12 1027 100 10000 1.03 150 10:46 07.10.2021
6079 Clouds 9 1027 100 10000 1.03 0 09:47 07.10.2021
6080 Clouds 6 1026 100 7000 2.57 170 08:54 07.10.2021
6081 Clouds 6 1026 100 5000 0.51 0 08:19 07.10.2021
6082 Clouds 6 1026 100 5000 0.51 0 07:38 07.10.2021
6083 Clouds 6 1025 100 6000 1.54 190 06:41 07.10.2021
6084 Clouds 7 1021 100 5000 0 0 00:52 07.10.2021
6085 Clouds 8 1021 92 10000 1.84 170 23:20 06.10.2021
6086 Clouds 9 1020 93 10000 1.03 110 22:33 06.10.2021
6087 Clouds 9 1019 93 9000 2.57 150 21:39 06.10.2021
6088 Clouds 10 1018 92 10000 2.48 150 20:29 06.10.2021
6089 Clouds 11 1017 90 10000 2.48 160 19:21 06.10.2021
6090 Clouds 14 1016 67 10000 2.06 180 17:41 06.10.2021
6091 Clouds 13 1014 76 10000 4.63 180 15:44 06.10.2021
6092 Clouds 14 1013 72 10000 4.63 180 14:53 06.10.2021
6093 Clouds 14 1013 75 10000 4.38 178 13:25 06.10.2021
6094 Clouds 14 1012 76 10000 3.09 200 12:47 06.10.2021
6095 Clouds 14 1012 79 10000 4.47 183 12:26 06.10.2021
6096 Clouds 13 1012 79 10000 4.47 183 11:35 06.10.2021
6097 Clouds 11 1009 93 10000 4.12 190 09:40 06.10.2021
6098 Clouds 11 1008 93 10000 3.6 180 08:59 06.10.2021
6099 Clouds 11 1010 87 10000 4.75 182 08:31 06.10.2021
6100 Clouds 11 1005 94 10000 5.66 180 06:18 06.10.2021
6101 Clouds 11 1004 93 7000 4.12 150 02:52 06.10.2021
6102 Clouds 11 1005 95 10000 3.23 138 00:24 06.10.2021
6103 Clouds 11 1004 93 10000 4.63 150 23:51 05.10.2021
6104 Clouds 11 1005 95 10000 3.23 138 23:30 05.10.2021
6105 Clouds 11 1004 94 9000 3.6 140 22:35 05.10.2021
6106 Clouds 11 1004 94 10000 4.12 120 21:57 05.10.2021
6107 Clouds 11 1005 94 10000 3.09 130 21:20 05.10.2021
6108 Clouds 11 1005 98 10000 2.93 147 20:31 05.10.2021
6109 Clouds 12 1005 94 10000 4.12 120 19:51 05.10.2021
6110 Clouds 12 1006 97 10000 3.19 135 19:25 05.10.2021
6111 Clouds 13 1006 91 10000 3.58 126 18:21 05.10.2021
6112 Clouds 13 1007 84 10000 4.43 128 15:39 05.10.2021
6113 Clouds 13 1009 82 10000 5.14 140 13:55 05.10.2021
6114 Clouds 14 1009 71 10000 5.82 137 13:26 05.10.2021
6115 Clouds 13 1009 82 10000 5.14 140 12:35 05.10.2021
6116 Clouds 13 1010 82 10000 4.12 140 11:41 05.10.2021
6117 Clouds 11 1010 87 10000 4.63 140 10:38 05.10.2021
6118 Clouds 9 1011 93 10000 5.14 150 08:36 05.10.2021
6119 Clear 10 1014 87 10000 6.69 170 01:47 05.10.2021
6120 Clear 11 1014 82 10000 6.69 170 22:57 04.10.2021
6121 Clear 12 1014 87 10000 6.17 160 21:38 04.10.2021
6122 Clouds 14 1014 82 10000 5.14 180 18:54 04.10.2021
6123 Clouds 15 1014 77 10000 5.66 190 17:32 04.10.2021
6124 Clouds 15 1014 77 10000 5.14 190 15:59 04.10.2021
6125 Clouds 15 1014 71 10000 6.21 205 15:29 04.10.2021
6126 Clouds 14 1014 82 10000 4.12 180 14:34 04.10.2021
6127 Clouds 13 1014 88 10000 4.63 200 13:47 04.10.2021
6128 Clouds 13 1014 84 10000 5.31 208 13:23 04.10.2021
6129 Clouds 12 1013 87 10000 5.14 200 11:34 04.10.2021
6130 Clouds 12 1013 94 10000 5.14 200 10:47 04.10.2021
6131 Clouds 12 1012 87 10000 5.14 190 09:48 04.10.2021
6132 Clouds 11 1013 90 10000 4.9 203 08:32 04.10.2021
6133 Clouds 11 1010 93 10000 6.69 190 06:51 04.10.2021
6134 Clouds 12 1006 94 10000 5.14 210 23:42 03.10.2021
6135 Clouds 13 1005 94 10000 5.14 240 22:33 03.10.2021
6136 Rain 13 1003 94 10000 6.69 270 21:36 03.10.2021
6137 Rain 14 1001 94 4700 11.32 280 20:50 03.10.2021
6138 Rain 16 999 94 10000 7.2 240 19:56 03.10.2021
6139 Clouds 18 997 72 10000 7.72 200 18:32 03.10.2021
6140 Clouds 19 997 77 10000 7.72 180 17:41 03.10.2021
6141 Rain 18 996 82 10000 8.75 180 15:45 03.10.2021
6142 Rain 18 996 82 10000 8.75 180 14:42 03.10.2021
6143 Rain 18 997 82 10000 8.23 180 13:40 03.10.2021
6144 Rain 17 998 90 10000 9.76 179 13:20 03.10.2021
6145 Rain 17 998 89 10000 9.86 187 12:24 03.10.2021
6146 Rain 18 996 77 10000 9.77 180 10:35 03.10.2021
6147 Clouds 16 995 94 10000 7.72 170 08:33 03.10.2021
6148 Clouds 14 1002 87 10000 6.59 148 00:26 03.10.2021
6149 Clouds 14 1003 88 10000 7.2 150 22:33 02.10.2021
6150 Clouds 14 1005 82 10000 6.17 150 20:55 02.10.2021
6151 Clouds 14 1006 89 10000 4.37 140 19:32 02.10.2021
6152 Clouds 14 1006 82 10000 4.63 160 18:50 02.10.2021
6153 Clouds 15 1006 77 10000 4.12 160 17:39 02.10.2021
6154 Clouds 16 1007 72 10000 4.12 190 16:54 02.10.2021
6155 Clouds 16 1008 72 10000 4.63 190 14:42 02.10.2021
6156 Rain 15 1017 58 10000 14.4 270 15:41 30.09.2021
6157 Rain 14 1017 63 10000 14.4 280 14:46 30.09.2021
6158 Clouds 14 1016 77 10000 11.16 261 12:27 30.09.2021
6159 Clouds 13 1015 82 10000 13.38 280 11:34 30.09.2021
6160 Rain 12 1014 94 3600 12.86 280 10:40 30.09.2021
6161 Rain 11 1010 94 9000 15.43 260 08:56 30.09.2021
6162 Rain 11 1012 93 5108 12.13 266 08:27 30.09.2021
6163 Rain 11 1010 94 4300 14.4 280 06:41 30.09.2021
6164 Clouds 10 1008 100 10000 5.66 290 04:36 30.09.2021
6165 Clouds 11 1007 93 10000 7.2 140 00:40 30.09.2021
6166 Clouds 11 1008 97 10000 3.79 172 23:29 29.09.2021
6167 Clouds 11 1010 93 10000 6.17 170 21:55 29.09.2021
6168 Clouds 12 1010 94 10000 4.63 170 20:57 29.09.2021
6169 Clouds 12 1011 92 10000 6.66 191 20:23 29.09.2021
6170 Rain 12 1010 94 10000 4.63 170 19:38 29.09.2021
6171 Rain 14 1011 94 10000 4.93 201 18:25 29.09.2021
6172 Rain 15 1011 74 10000 6.33 186 17:26 29.09.2021
6173 Clouds 16 1010 72 10000 6.17 150 16:43 29.09.2021
6174 Clouds 17 1011 72 10000 7.2 150 15:45 29.09.2021
6175 Clouds 16 1012 72 10000 7.2 150 14:38 29.09.2021
6176 Clouds 17 1012 67 10000 5.14 150 13:40 29.09.2021
6177 Clouds 16 1013 72 10000 4.63 140 12:46 29.09.2021
6178 Clouds 15 1014 77 10000 5.66 130 11:39 29.09.2021
6179 Clouds 14 1015 82 10000 4.63 140 10:38 29.09.2021
6180 Clouds 12 1015 87 10000 5.14 140 09:47 29.09.2021
6181 Clouds 11 1016 87 10000 5.14 140 08:45 29.09.2021
6182 Clouds 10 1016 87 10000 5.66 150 06:55 29.09.2021
6183 Clouds 11 1019 87 10000 5.66 150 02:40 29.09.2021
6184 Clouds 12 1021 80 10000 2.57 143 23:23 28.09.2021
6185 Clouds 12 1021 79 10000 2.21 139 22:22 28.09.2021
6186 Clouds 12 1021 88 10000 4.12 150 21:33 28.09.2021
6187 Clouds 13 1021 80 10000 1.31 186 20:27 28.09.2021
6188 Clouds 13 1021 94 10000 4.12 160 19:42 28.09.2021
6189 Clouds 16 1021 77 10000 3.09 160 18:44 28.09.2021
6190 Clouds 17 1021 59 10000 3.09 180 17:53 28.09.2021
6191 Clouds 19 1021 59 10000 3.09 250 15:44 28.09.2021
6192 Clear 18 1021 63 10000 3.6 250 13:38 28.09.2021
6193 Clear 18 1022 61 10000 4.28 238 12:30 28.09.2021
6194 Clear 18 1022 61 10000 4.28 238 12:30 28.09.2021
6195 Clear 17 1022 77 10000 3.09 200 11:59 28.09.2021
6196 Clear 17 1022 77 10000 3.09 200 11:40 28.09.2021
6197 Clear 15 1021 82 10000 3.09 190 10:55 28.09.2021
6198 Clear 13 1021 94 10000 2.06 170 09:53 28.09.2021
6199 Clear 11 1020 100 10000 3.09 200 08:57 28.09.2021
6200 Clear 10 1020 100 10000 3.09 200 08:34 28.09.2021
6201 Clouds 9 1021 93 10000 2.9 219 07:31 28.09.2021
6202 Clouds 10 1020 95 10000 3.03 252 05:28 28.09.2021
6203 Clouds 14 1018 91 10000 4.53 275 01:23 28.09.2021
6204 Clouds 14 1017 92 10000 4.72 265 00:25 28.09.2021
6205 Rain 14 1017 92 10000 4.72 265 23:32 27.09.2021
6206 Rain 15 1014 88 9000 8.75 260 22:55 27.09.2021
6207 Clouds 18 1013 88 10000 6.17 170 21:44 27.09.2021
6208 Rain 19 1012 82 10000 5.66 160 20:44 27.09.2021
6209 Clouds 19 1012 82 10000 5.66 160 19:55 27.09.2021
6210 Clouds 19 1013 87 7367 5.6 190 19:27 27.09.2021
6211 Clouds 19 1012 82 10000 5.14 160 18:49 27.09.2021
6212 Clouds 20 1012 78 10000 5.21 181 17:29 27.09.2021
6213 Clouds 20 1012 78 10000 5.21 181 17:29 27.09.2021
6214 Clouds 21 1012 78 10000 4.12 170 16:49 27.09.2021
6215 Clouds 21 1012 83 10000 5.66 170 15:45 27.09.2021
6216 Clouds 20 1012 83 10000 3.6 160 15:18 27.09.2021
6217 Clouds 19 1013 88 10000 4.12 180 13:32 27.09.2021
6218 Clouds 18 1013 94 3500 3.6 150 11:49 27.09.2021
6219 Rain 17 1013 100 3500 1.54 0 10:37 27.09.2021
6220 Rain 16 1014 94 10000 2.79 163 08:59 27.09.2021
6221 Clouds 15 1014 94 10000 2.37 169 05:22 27.09.2021
6222 Clouds 15 1014 94 10000 2.51 174 03:25 27.09.2021
6223 Clouds 17 1015 88 10000 3 133 22:39 26.09.2021
6224 Clouds 17 1015 83 10000 2.92 121 21:53 26.09.2021
6225 Clouds 18 1015 85 10000 3.51 106 21:26 26.09.2021
6226 Clouds 18 1015 87 10000 4.06 101 20:23 26.09.2021
6227 Clouds 18 1015 87 10000 4.06 101 19:52 26.09.2021
6228 Clouds 19 1015 82 10000 4.67 105 18:48 26.09.2021
6229 Clouds 19 1015 76 10000 5.22 108 17:57 26.09.2021
6230 Clouds 20 1015 76 10000 5.22 108 17:36 26.09.2021
6231 Clouds 20 1015 70 10000 5.26 107 17:18 26.09.2021
6232 Clouds 21 1015 66 10000 5.33 112 16:22 26.09.2021
6233 Clouds 21 1015 66 10000 5.26 120 15:22 26.09.2021
6234 Clouds 20 1016 82 10000 2.57 100 13:59 26.09.2021
6235 Clouds 20 1015 68 10000 5.18 130 13:31 26.09.2021
6236 Clouds 18 1016 77 10000 4.43 121 12:26 26.09.2021
6237 Clouds 17 1016 88 10000 3.6 110 11:52 26.09.2021
6238 Clouds 16 1016 94 10000 2.57 110 10:52 26.09.2021
6239 Clouds 14 1016 100 10000 2.57 120 09:37 26.09.2021
6240 Clouds 14 1016 83 10000 2.79 112 08:20 26.09.2021
6241 Clouds 14 1017 86 10000 1.76 124 00:28 26.09.2021
6242 Clouds 14 1016 94 10000 2.57 140 23:43 25.09.2021
6243 Clouds 14 1016 94 10000 2.57 150 22:39 25.09.2021
6244 Clouds 14 1016 94 10000 1.03 140 22:18 25.09.2021
6245 Clouds 15 1016 94 10000 1.03 140 21:40 25.09.2021
6246 Clouds 15 1015 94 10000 0.51 0 20:52 25.09.2021
6247 Clouds 17 1015 88 10000 1.54 330 19:33 25.09.2021
6248 Clouds 18 1015 71 10000 2.81 312 18:28 25.09.2021
6249 Clouds 18 1015 62 10000 3.71 299 17:23 25.09.2021
6250 Clouds 20 1014 72 10000 4.63 270 14:38 25.09.2021
6251 Clouds 19 1014 77 10000 3.6 280 13:55 25.09.2021
6252 Clouds 18 1013 82 10000 3.6 280 12:45 25.09.2021
6253 Clouds 17 1013 76 10000 3.32 286 11:27 25.09.2021
6254 Clouds 16 1012 94 10000 5.14 270 10:18 25.09.2021
6255 Clouds 16 1012 88 10000 3.7 286 09:21 25.09.2021
6256 Clouds 15 1010 100 10000 4.12 260 07:47 25.09.2021
6257 Clouds 15 1010 100 10000 4.12 260 07:47 25.09.2021
6258 Clouds 16 1008 94 10000 9.77 270 00:52 25.09.2021
6259 Clouds 16 1008 94 3800 11.32 270 22:18 24.09.2021
6260 Clouds 16 1008 94 3800 11.32 270 21:34 24.09.2021
6261 Clouds 16 1009 94 10000 7.08 254 20:32 24.09.2021
6262 Clouds 16 1008 88 10000 11.83 260 19:32 24.09.2021
6263 Clouds 16 1008 88 10000 11.83 260 19:32 24.09.2021
6264 Clouds 17 1009 83 10000 8.36 252 18:21 24.09.2021
6265 Clouds 17 1008 82 10000 11.32 260 17:53 24.09.2021
6266 Clouds 17 1008 82 10000 11.32 260 17:34 24.09.2021
6267 Clouds 16 1008 94 7000 8.75 250 15:50 24.09.2021
6268 Clouds 16 1010 84 10000 7.14 250 13:28 24.09.2021
6269 Clouds 15 1009 94 10000 4.63 240 12:43 24.09.2021
6270 Clouds 15 1011 74 10000 7.07 249 12:25 24.09.2021
6271 Clouds 14 1010 82 10000 4.63 240 10:56 24.09.2021
6272 Clouds 14 1010 82 10000 4.63 250 09:57 24.09.2021
6273 Clouds 12 1011 77 10000 6.1 275 08:24 24.09.2021
6274 Clouds 11 1011 77 10000 6.1 275 07:31 24.09.2021
6275 Clouds 12 1010 77 10000 6.93 279 06:24 24.09.2021
6276 Clouds 12 1009 76 10000 9.26 290 04:52 24.09.2021
6277 Clouds 13 1007 77 10000 13.89 300 22:45 23.09.2021
6278 Clouds 13 1008 75 10000 10.34 291 21:59 23.09.2021
6279 Clouds 14 1008 75 10000 10.34 291 21:38 23.09.2021
6280 Clouds 13 1006 67 10000 15.43 300 20:32 23.09.2021
6281 Clouds 14 1005 67 10000 20.06 300 18:56 23.09.2021
6282 Clouds 16 1004 77 10000 19.03 280 16:49 23.09.2021
6283 Clouds 15 1005 94 10000 16.98 290 15:20 23.09.2021
6284 Clouds 15 1005 94 10000 16.98 290 14:58 23.09.2021
6285 Rain 16 1005 88 4900 15.95 270 13:45 23.09.2021
6286 Rain 16 1006 94 10000 15.43 270 13:18 23.09.2021
6287 Clouds 16 1006 94 10000 15.43 270 12:47 23.09.2021
6288 Clouds 16 1008 89 10000 10.33 256 12:22 23.09.2021
6289 Clouds 16 1009 87 10000 9.88 250 11:20 23.09.2021
6290 Clouds 17 1009 77 10000 11.83 260 10:19 23.09.2021
6291 Clouds 17 1009 77 10000 11.83 260 09:49 23.09.2021
6292 Clouds 15 1011 88 10000 8.23 240 06:49 23.09.2021
6293 Clouds 15 1017 88 10000 9.26 260 01:18 23.09.2021
6294 Clouds 15 1019 88 10000 8.75 260 22:58 22.09.2021
6295 Clear 15 1020 94 10000 6.18 252 22:23 22.09.2021
6296 Clear 15 1019 88 10000 9.26 260 21:46 22.09.2021
6297 Clear 16 1020 88 10000 8.23 260 20:59 22.09.2021
6298 Clear 16 1020 88 10000 8.23 260 20:39 22.09.2021
6299 Clear 16 1021 85 10000 6.49 256 19:28 22.09.2021
6300 Clear 17 1021 82 10000 8.23 260 18:36 22.09.2021
6301 Clear 18 1021 77 10000 7.17 253 17:39 22.09.2021
6302 Clear 19 1022 69 10000 7.47 252 16:36 22.09.2021
6303 Clear 20 1023 60 10000 7.2 270 14:55 22.09.2021
6304 Clouds 19 1025 56 10000 6.98 255 13:25 22.09.2021
6305 Clouds 19 1025 56 10000 6.98 255 13:25 22.09.2021
6306 Clouds 17 1025 82 10000 7.2 260 11:41 22.09.2021
6307 Clouds 16 1025 82 10000 5.14 250 10:37 22.09.2021
6308 Clouds 12 1025 88 10000 4.63 240 08:57 22.09.2021
6309 Clouds 9 1025 100 9000 3.6 250 07:50 22.09.2021
6310 Clouds 9 1026 100 8000 3.6 250 06:57 22.09.2021
6311 Clouds 10 1025 100 9000 2.57 260 05:51 22.09.2021
6312 Clouds 9 1026 95 10000 3.35 267 05:31 22.09.2021
6313 Clouds 10 1026 93 10000 3.6 270 03:43 22.09.2021
6314 Clouds 11 1026 95 10000 3.28 288 00:21 22.09.2021
6315 Clouds 12 1026 88 10000 5.14 300 22:49 21.09.2021
6316 Clouds 12 1026 90 10000 3.9 304 21:31 21.09.2021
6317 Clouds 14 1025 80 10000 5.51 301 19:42 21.09.2021
6318 Clouds 14 1025 75 10000 6.17 304 19:20 21.09.2021
6319 Clouds 17 1024 72 10000 6.62 303 17:20 21.09.2021
6320 Clouds 16 1024 77 10000 8.75 320 16:34 21.09.2021
6321 Clouds 16 1024 94 10000 9.77 280 15:35 21.09.2021
6322 Clouds 16 1024 88 10000 7.72 270 14:56 21.09.2021
6323 Rain 16 1024 77 10000 9.26 280 13:56 21.09.2021
6324 Rain 17 1024 77 10000 9.26 280 13:36 21.09.2021
6325 Clouds 14 1024 94 10000 6.17 210 11:44 21.09.2021
6326 Clouds 12 1024 87 10000 4.63 200 09:55 21.09.2021
6327 Clouds 11 1025 76 10000 3.6 210 07:59 21.09.2021
6328 Clouds 11 1025 76 10000 4.63 200 06:38 21.09.2021
6329 Clouds 10 1026 93 10000 0.51 40 23:58 20.09.2021
6330 Clouds 11 1026 58 10000 2.12 74 22:24 20.09.2021
6331 Clouds 10 1025 93 10000 1.03 330 21:37 20.09.2021
6332 Clouds 11 1026 59 10000 2.7 40 20:30 20.09.2021
6333 Clouds 12 1025 61 10000 1.45 34 19:29 20.09.2021
6334 Clouds 14 1024 51 10000 3.6 20 17:46 20.09.2021
6335 Clouds 15 1024 51 10000 2.57 50 16:43 20.09.2021
6336 Clouds 15 1023 51 10000 4.12 30 15:49 20.09.2021
6337 Clouds 15 1023 51 10000 4.12 30 15:49 20.09.2021
6338 Clouds 15 1024 48 10000 2.56 35 15:23 20.09.2021
6339 Clouds 14 1024 49 10000 2.31 72 14:24 20.09.2021
6340 Clouds 14 1024 54 10000 2.57 50 12:35 20.09.2021
6341 Clouds 14 1024 54 10000 3.61 73 11:26 20.09.2021
6342 Clouds 12 1023 71 10000 2.57 50 10:18 20.09.2021
6343 Clouds 12 1023 71 10000 2.57 50 09:36 20.09.2021
6344 Clouds 12 1023 71 10000 2.57 80 09:18 20.09.2021
6345 Clouds 11 1022 71 10000 3.6 80 07:50 20.09.2021
6346 Clouds 12 1021 76 10000 3.09 120 00:36 20.09.2021
6347 Clouds 13 1021 65 10000 4.71 86 22:26 19.09.2021
6348 Clouds 12 1020 76 10000 3.6 120 21:43 19.09.2021
6349 Clouds 13 1020 71 10000 3.6 120 20:51 19.09.2021
6350 Clouds 13 1021 64 10000 3.5 80 19:32 19.09.2021
6351 Clouds 14 1020 61 10000 3.89 86 18:30 19.09.2021
6352 Clouds 14 1020 54 10000 5.3 89 17:23 19.09.2021
6353 Clouds 15 1020 67 10000 4.12 100 15:59 19.09.2021
6354 Clouds 15 1020 54 10000 5.6 87 15:30 19.09.2021
6355 Clouds 15 1020 67 10000 2.57 70 14:48 19.09.2021
6356 Clouds 15 1021 60 10000 5.82 87 13:29 19.09.2021
6357 Clouds 14 1020 76 10000 3.09 70 12:52 19.09.2021
6358 Clouds 13 1021 59 10000 5.55 87 11:29 19.09.2021
6359 Clouds 12 1020 76 10000 2.57 60 10:56 19.09.2021
6360 Clouds 12 1020 76 10000 3.6 60 09:49 19.09.2021
6361 Clouds 12 1020 76 10000 4.12 60 08:41 19.09.2021
6362 Clouds 12 1020 76 10000 3.09 70 06:43 19.09.2021
6363 Clouds 14 1020 82 10000 3.6 130 23:57 18.09.2021
6364 Clouds 14 1020 88 10000 2.57 130 22:51 18.09.2021
6365 Clouds 14 1021 82 10000 4.21 111 21:25 18.09.2021
6366 Clouds 14 1020 94 10000 3.6 130 20:45 18.09.2021
6367 Clouds 15 1019 88 10000 3.6 110 19:41 18.09.2021
6368 Clouds 15 1020 74 10000 3.98 104 19:21 18.09.2021
6369 Clouds 16 1019 82 10000 4.12 110 18:37 18.09.2021
6370 Clouds 16 1019 82 10000 3.6 110 17:46 18.09.2021
6371 Clouds 17 1019 67 10000 5.63 108 16:34 18.09.2021
6372 Clouds 16 1019 82 10000 3.6 110 13:50 18.09.2021
6373 Clouds 16 1020 74 10000 5.34 103 13:30 18.09.2021
6374 Clouds 16 1019 82 10000 4.12 110 12:51 18.09.2021
6375 Clouds 15 1018 94 10000 2.06 80 11:42 18.09.2021
6376 Clouds 15 1018 94 10000 2.57 90 10:35 18.09.2021
6377 Clouds 15 1018 94 10000 1.54 70 09:52 18.09.2021
6378 Clouds 14 1018 93 10000 4.02 85 09:20 18.09.2021
6379 Clouds 14 1017 100 10000 3.09 70 07:36 18.09.2021
6380 Clouds 14 1016 94 10000 4.18 64 00:42 18.09.2021
6381 Clouds 13 1015 95 10000 2.5 38 23:53 17.09.2021
6382 Clouds 13 1015 93 10000 2.33 354 22:42 17.09.2021
6383 Clouds 13 1015 89 10000 3.3 334 22:21 17.09.2021
6384 Clouds 13 1014 86 10000 3.99 329 21:27 17.09.2021
6385 Clouds 14 1014 81 10000 4.39 323 19:29 17.09.2021
6386 Clouds 15 1013 72 10000 5.66 330 17:55 17.09.2021
6387 Clouds 15 1014 76 10000 5.37 335 16:27 17.09.2021
6388 Clouds 15 1014 74 10000 5.47 337 14:32 17.09.2021
6389 Clouds 14 1014 70 10000 5.7 336 11:30 17.09.2021
6390 Clouds 13 1013 74 10000 5.13 331 09:24 17.09.2021
6391 Clouds 12 1013 87 10000 6.17 310 07:35 17.09.2021
6392 Clouds 13 1013 85 10000 4.74 323 04:25 17.09.2021
6393 Clouds 14 1011 88 10000 7.2 320 23:41 16.09.2021
6394 Clouds 15 1011 82 10000 7.72 330 22:33 16.09.2021
6395 Clouds 15 1011 82 10000 7.2 310 21:52 16.09.2021
6396 Clouds 16 1011 87 10000 4.98 306 21:27 16.09.2021
6397 Clouds 16 1011 90 10000 5.29 297 20:28 16.09.2021
6398 Clouds 17 1009 81 10000 6.34 305 18:28 16.09.2021
6399 Clouds 18 1009 88 10000 10.8 280 17:58 16.09.2021
6400 Clouds 19 1008 77 10000 8.23 280 15:24 16.09.2021
6401 Clouds 19 1008 77 10000 8.23 280 14:33 16.09.2021
6402 Clouds 17 1008 94 10000 7.72 260 12:59 16.09.2021
6403 Clouds 17 1008 94 10000 7.72 260 12:36 16.09.2021
6404 Clouds 17 1008 80 10000 6.07 265 11:44 16.09.2021
6405 Clouds 17 1008 80 10000 6.07 265 11:44 16.09.2021
6406 Clouds 17 1008 88 10000 5.66 250 10:40 16.09.2021
6407 Clouds 16 1008 88 10000 5.66 240 10:18 16.09.2021
6408 Clouds 16 1008 88 10000 5.14 240 08:43 16.09.2021
6409 Clouds 16 1008 88 10000 6.17 250 07:43 16.09.2021
6410 Clouds 16 1008 88 10000 7.2 250 06:55 16.09.2021
6411 Clouds 15 1007 97 10000 5.56 231 06:31 16.09.2021
6412 Clouds 16 1007 94 10000 6.17 250 02:57 16.09.2021
6413 Clouds 17 1007 94 3800 3.09 190 00:46 16.09.2021
6414 Clouds 17 1008 94 4300 3.09 180 22:52 15.09.2021
6415 Clouds 17 1008 98 10000 2.28 172 21:56 15.09.2021
6416 Clouds 17 1008 98 10000 2.28 172 21:30 15.09.2021
6417 Clouds 17 1009 99 10000 2.73 142 20:24 15.09.2021
6418 Clouds 17 1009 98 10000 2.88 143 19:29 15.09.2021
6419 Clouds 17 1009 96 10000 3.56 141 18:25 15.09.2021
6420 Rain 17 1009 94 10000 3.8 147 17:27 15.09.2021
6421 Rain 17 1010 91 10000 4.18 148 16:27 15.09.2021
6422 Clouds 17 1010 87 10000 4.89 143 14:53 15.09.2021
6423 Clouds 17 1010 87 10000 4.89 143 14:33 15.09.2021
6424 Rain 17 1010 89 10000 5.24 136 13:42 15.09.2021
6425 Rain 17 1010 82 10000 5.84 133 13:23 15.09.2021
6426 Clouds 16 1011 80 10000 6.32 128 12:23 15.09.2021
6427 Clouds 17 1011 88 2100 6.17 130 11:49 15.09.2021
6428 Clouds 16 1011 94 3400 5.14 130 10:57 15.09.2021
6429 Clouds 16 1011 88 3100 5.66 120 09:44 15.09.2021
6430 Clouds 16 1011 88 800 6.69 120 08:41 15.09.2021
6431 Rain 16 1012 85 10000 5.31 103 06:28 15.09.2021
6432 Clouds 14 1015 94 10000 5.66 110 00:37 15.09.2021
6433 Clouds 13 1016 88 10000 4.12 120 21:59 14.09.2021
6434 Clouds 14 1016 82 10000 4.63 120 21:19 14.09.2021
6435 Clouds 16 1016 72 10000 3.09 130 19:58 14.09.2021
6436 Clouds 17 1016 63 10000 3.6 110 18:40 14.09.2021
6437 Clear 19 1016 54 10000 3.2 101 17:29 14.09.2021
6438 Clear 19 1017 63 10000 2.06 70 15:59 14.09.2021
6439 Clear 19 1016 50 10000 2.29 108 14:32 14.09.2021
6440 Clouds 18 1017 63 10000 1.03 0 13:33 14.09.2021
6441 Clouds 18 1017 59 10000 4.12 270 10:57 14.09.2021
6442 Clouds 16 1017 67 10000 2.57 210 09:52 14.09.2021
6443 Clouds 15 1017 77 10000 4.63 220 09:18 14.09.2021
6444 Clouds 13 1017 84 10000 2.03 225 07:28 14.09.2021
6445 Clouds 15 1018 67 10000 3.09 210 00:57 14.09.2021
6446 Clouds 14 1018 77 10000 3.6 270 23:18 13.09.2021
6447 Clouds 14 1018 76 10000 3.21 253 22:27 13.09.2021
6448 Clouds 15 1018 72 10000 4.12 270 21:54 13.09.2021
6449 Clouds 15 1018 80 10000 3.19 250 21:23 13.09.2021
6450 Clouds 16 1017 67 10000 5.66 270 19:34 13.09.2021
6451 Clouds 17 1017 67 10000 4.63 280 18:44 13.09.2021
6452 Clear 18 1017 62 10000 4.79 266 17:21 13.09.2021
6453 Clear 18 1017 59 10000 5.11 270 16:23 13.09.2021
6454 Clouds 18 1017 58 10000 5.81 263 14:30 13.09.2021
6455 Clear 16 1017 72 10000 8.23 300 11:43 13.09.2021
6456 Clear 16 1016 67 10000 5.04 274 10:26 13.09.2021
6457 Clouds 14 1015 72 10000 6.17 290 07:57 13.09.2021
6458 Clouds 15 1014 94 10000 6.17 290 00:18 13.09.2021
6459 Clouds 16 1014 88 10000 6.69 260 22:42 12.09.2021
6460 Clouds 16 1014 91 10000 4.05 249 22:21 12.09.2021
6461 Clouds 16 1013 82 10000 7.2 260 20:47 12.09.2021
6462 Clouds 17 1013 77 10000 8.75 270 19:56 12.09.2021
6463 Clouds 17 1013 79 10000 5.69 261 19:29 12.09.2021
6464 Clouds 18 1013 77 10000 9.77 270 18:53 12.09.2021
6465 Clouds 20 1013 68 10000 10.29 260 16:58 12.09.2021
6466 Clouds 20 1013 64 10000 10.29 270 15:41 12.09.2021
6467 Clouds 20 1013 68 10000 10.29 280 14:37 12.09.2021
6468 Clouds 20 1013 68 10000 9.77 260 12:39 12.09.2021
6469 Clouds 19 1013 73 10000 6.55 258 10:21 12.09.2021
6470 Clouds 17 1012 88 10000 6.69 250 08:39 12.09.2021
6471 Clouds 16 1012 88 10000 5.14 240 04:59 12.09.2021
6472 Clouds 18 1013 94 10000 6.17 260 00:47 12.09.2021
6473 Clouds 18 1013 94 7000 4.63 250 22:35 11.09.2021
6474 Clouds 18 1013 94 7000 3.6 220 21:38 11.09.2021
6475 Clouds 18 1012 88 10000 6.17 260 19:39 11.09.2021
6476 Clouds 19 1012 88 10000 5.66 250 17:56 11.09.2021
6477 Clouds 19 1012 84 10000 5.94 235 17:21 11.09.2021
6478 Clouds 20 1012 88 10000 6.17 250 15:35 11.09.2021
6479 Clouds 20 1013 84 10000 6.14 236 13:22 11.09.2021
6480 Clouds 19 1013 83 10000 5.66 240 11:41 11.09.2021
6481 Clouds 18 1012 94 5000 3.6 200 09:50 11.09.2021
6482 Clouds 18 1012 94 4900 3.09 210 08:42 11.09.2021
6483 Clouds 17 1012 94 5000 4.12 240 07:43 11.09.2021
6484 Rain 18 1012 100 5000 2.57 230 02:52 11.09.2021
6485 Clouds 18 1012 94 10000 2.06 170 22:37 10.09.2021
6486 Clouds 18 1012 100 10000 0.51 250 21:57 10.09.2021
6487 Clouds 18 1012 100 10000 0.51 250 21:36 10.09.2021
6488 Clouds 20 1011 82 10000 1.3 115 19:30 10.09.2021
6489 Clouds 20 1011 82 10000 1.3 115 19:30 10.09.2021
6490 Clouds 21 1012 83 10000 3.09 260 17:54 10.09.2021
6491 Clouds 22 1012 68 10000 2.14 289 16:27 10.09.2021
6492 Clouds 20 1011 67 10000 4.1 262 13:26 10.09.2021
6493 Clouds 18 1011 74 10000 3.7 228 10:32 10.09.2021
6494 Clear 16 1010 94 2200 1.54 180 07:52 10.09.2021
6495 Clear 16 1010 100 3300 2.57 120 06:37 10.09.2021
6496 Clear 15 1010 70 10000 2.89 122 00:24 10.09.2021
6497 Clear 16 1010 94 3800 2.06 100 21:49 09.09.2021
6498 Clear 18 1010 88 9000 2.06 110 20:48 09.09.2021
6499 Clear 19 1010 72 10000 3.41 93 20:27 09.09.2021
6500 Clear 23 1010 68 10000 3.6 110 18:46 09.09.2021
6501 Clouds 24 1010 64 10000 3.6 100 17:47 09.09.2021
6502 Clouds 25 1011 50 10000 3.67 98 16:28 09.09.2021
6503 Clouds 26 1011 50 10000 3.58 102 15:25 09.09.2021
6504 Clouds 24 1012 68 10000 4.12 80 12:33 09.09.2021
6505 Clouds 21 1012 83 7000 3.6 90 11:22 09.09.2021
6506 Clouds 18 1013 100 5000 1.54 100 09:36 09.09.2021
6507 Clouds 13 1013 100 2500 3.09 90 07:45 09.09.2021
6508 Clear 12 1014 100 2500 3.6 110 05:51 09.09.2021
6509 Clouds 14 1016 94 5000 3.09 130 00:33 09.09.2021
6510 Clouds 17 1016 82 6000 4.63 150 21:49 08.09.2021
6511 Clouds 18 1016 88 8000 4.12 140 20:49 08.09.2021
6512 Clouds 20 1016 88 10000 3.09 130 19:46 08.09.2021
6513 Clouds 22 1017 83 10000 2.57 110 18:47 08.09.2021
6514 Clouds 24 1017 62 10000 1.14 237 18:25 08.09.2021
6515 Clouds 24 1017 64 10000 1.03 0 17:40 08.09.2021
6516 Clouds 24 1018 57 10000 0.51 310 15:49 08.09.2021
6517 Clouds 23 1019 60 10000 3.09 260 13:46 08.09.2021
6518 Clouds 23 1020 64 10000 2.57 240 12:42 08.09.2021
6519 Clouds 22 1019 62 10000 3.4 223 12:23 08.09.2021
6520 Clouds 21 1020 66 10000 3.42 220 11:26 08.09.2021
6521 Clouds 19 1020 66 10000 3.42 220 10:31 08.09.2021
6522 Clouds 18 1020 77 10000 1.54 0 09:57 08.09.2021
6523 Clouds 16 1020 82 10000 1.54 230 07:47 08.09.2021
6524 Clouds 15 1020 94 10000 3.02 205 07:29 08.09.2021
6525 Clouds 15 1022 94 6000 2.57 180 23:41 07.09.2021
6526 Clouds 15 1022 94 6000 2.57 180 23:41 07.09.2021
6527 Clouds 16 1022 93 10000 2.52 202 22:30 07.09.2021
6528 Clouds 17 1022 94 9000 2.06 220 20:50 07.09.2021
6529 Clouds 18 1022 88 10000 3.09 250 19:40 07.09.2021
6530 Clouds 20 1022 73 10000 2.57 250 18:39 07.09.2021
6531 Clouds 20 1023 73 10000 1.54 260 17:41 07.09.2021
6532 Clouds 20 1024 72 10000 2.57 270 15:57 07.09.2021
6533 Clouds 19 1024 77 10000 1.03 300 14:54 07.09.2021
6534 Clouds 18 1024 77 10000 2.06 280 13:54 07.09.2021
6535 Clouds 18 1024 62 10000 2.36 233 12:23 07.09.2021
6536 Clouds 17 1024 67 10000 1.97 222 11:26 07.09.2021
6537 Clouds 15 1024 94 10000 1.03 250 10:37 07.09.2021
6538 Clouds 11 1023 100 5000 1.03 270 07:51 07.09.2021
6539 Clouds 11 1023 100 7000 1.54 270 06:42 07.09.2021
6540 Clouds 12 1024 100 6000 1.54 310 02:43 07.09.2021
6541 Clouds 12 1024 93 10000 1.7 302 02:25 07.09.2021
6542 Clouds 13 1024 94 10000 1.8 308 00:23 07.09.2021
6543 Clouds 13 1024 94 10000 1.8 308 23:31 06.09.2021
6544 Clouds 13 1024 94 9000 3.09 280 22:53 06.09.2021
6545 Clouds 13 1024 93 10000 2.57 302 22:28 06.09.2021
6546 Clouds 16 1023 82 10000 4.63 310 20:37 06.09.2021
6547 Clouds 18 1023 77 10000 3.43 307 19:22 06.09.2021
6548 Clouds 18 1023 77 10000 4.63 290 18:37 06.09.2021
6549 Clouds 19 1023 72 10000 5.14 290 18:18 06.09.2021
6550 Clouds 19 1023 56 10000 3.9 292 17:24 06.09.2021
6551 Clouds 19 1023 68 10000 2.06 290 15:37 06.09.2021
6552 Rain 19 1024 68 10000 0.51 350 13:47 06.09.2021
6553 Clouds 19 1024 77 10000 1.03 340 12:46 06.09.2021
6554 Clouds 16 1024 88 10000 0.51 330 10:44 06.09.2021
6555 Clouds 11 1023 100 10000 1.54 30 07:58 06.09.2021
6556 Clouds 10 1024 100 9000 1.54 50 04:44 06.09.2021
6557 Clouds 13 1025 91 10000 3.05 87 23:27 05.09.2021
6558 Clouds 13 1024 88 10000 4.12 110 22:46 05.09.2021
6559 Clear 14 1024 77 10000 4.63 120 21:57 05.09.2021
6560 Clear 14 1024 86 10000 3.36 93 21:29 05.09.2021
6561 Clouds 16 1024 67 10000 5.14 120 19:56 05.09.2021
6562 Clouds 17 1024 63 10000 5.14 130 18:41 05.09.2021
6563 Clouds 18 1024 65 10000 4.59 93 17:30 05.09.2021
6564 Clouds 19 1025 65 10000 5.14 95 15:27 05.09.2021
6565 Clouds 18 1025 63 10000 4.63 110 14:19 05.09.2021
6566 Clouds 18 1025 62 10000 5.68 98 12:26 05.09.2021
6567 Clouds 17 1025 67 10000 4.63 100 10:48 05.09.2021
6568 Clear 17 1024 65 10000 5.96 97 10:23 05.09.2021
6569 Clear 15 1024 72 10000 5.2 96 09:21 05.09.2021
6570 Clear 11 1024 100 10000 3.09 110 07:48 05.09.2021
6571 Clear 12 1023 94 10000 4.63 120 00:51 05.09.2021
6572 Clear 13 1023 91 10000 3.57 98 00:22 05.09.2021
6573 Clear 12 1022 94 8000 4.63 120 23:35 04.09.2021
6574 Clear 13 1022 100 8000 4.12 110 22:35 04.09.2021
6575 Clear 13 1022 100 650 3.6 120 21:55 04.09.2021
6576 Clouds 18 1020 72 10000 3.09 110 19:41 04.09.2021
6577 Clouds 19 1020 68 10000 3.6 100 18:43 04.09.2021
6578 Clouds 20 1019 53 10000 6.32 84 16:22 04.09.2021
6579 Clouds 19 1020 72 10000 3.6 30 13:18 04.09.2021
6580 Clouds 15 1019 94 7000 2.06 20 11:19 04.09.2021
6581 Clouds 13 1018 100 4200 3.09 350 09:19 04.09.2021
6582 Clouds 12 1018 94 8000 4.63 320 05:50 04.09.2021
6583 Clouds 13 1019 93 10000 3.08 300 00:25 04.09.2021
6584 Clouds 13 1019 93 10000 3.08 300 23:31 03.09.2021
6585 Clouds 13 1019 82 10000 4.63 320 22:35 03.09.2021
6586 Clouds 13 1018 82 10000 5.66 320 21:35 03.09.2021
6587 Clouds 13 1018 82 10000 5.66 320 21:35 03.09.2021
6588 Clouds 14 1018 82 10000 6.69 310 20:42 03.09.2021
6589 Clear 16 1018 72 10000 7.2 300 19:50 03.09.2021
6590 Clear 17 1018 68 10000 8.75 310 19:18 03.09.2021
6591 Clear 19 1018 68 10000 8.23 290 17:47 03.09.2021
6592 Clear 20 1018 72 10000 8.23 290 16:37 03.09.2021
6593 Clear 19 1019 72 10000 7.72 290 14:58 03.09.2021
6594 Clear 19 1019 56 10000 6.13 308 12:24 03.09.2021
6595 Clear 16 1020 61 10000 6.1 308 10:31 03.09.2021
6596 Clear 14 1020 88 10000 9.26 290 08:59 03.09.2021
6597 Clouds 14 1020 91 10000 4.96 287 07:44 03.09.2021
6598 Clouds 14 1021 97 10000 4 272 05:24 03.09.2021
6599 Clear 13 1024 95 10000 3.53 262 23:20 02.09.2021
6600 Clear 15 1024 82 10000 6.17 270 21:35 02.09.2021
6601 Clear 17 1025 77 10000 6.17 270 19:55 02.09.2021
6602 Clear 20 1026 60 10000 3.6 270 17:33 02.09.2021
6603 Clear 20 1027 68 10000 1.54 360 15:52 02.09.2021
6604 Clear 18 1027 77 10000 1.54 10 13:59 02.09.2021
6605 Clouds 17 1027 77 10000 1.03 350 12:55 02.09.2021
6606 Clouds 16 1027 77 10000 1.03 340 11:35 02.09.2021
6607 Clear 15 1027 77 10000 2.06 290 09:44 02.09.2021
6608 Clouds 14 1026 82 10000 2.57 350 07:57 02.09.2021
6609 Clouds 14 1026 82 10000 3.6 340 07:18 02.09.2021
6610 Clouds 15 1026 82 10000 6.69 320 02:57 02.09.2021
6611 Clouds 15 1026 82 10000 6.69 320 02:33 02.09.2021
6612 Clear 15 1026 97 10000 2.85 263 01:29 02.09.2021
6613 Clear 15 1025 88 10000 8.23 280 23:40 01.09.2021
6614 Clear 15 1025 82 10000 9.26 290 22:41 01.09.2021
6615 Clear 15 1025 88 10000 6.69 280 21:40 01.09.2021
6616 Clear 16 1025 88 10000 6.69 290 20:45 01.09.2021
6617 Clear 20 1025 68 10000 7.2 280 18:53 01.09.2021
6618 Clear 21 1025 68 10000 6.17 280 17:41 01.09.2021
6619 Clear 22 1025 60 10000 4.97 285 16:47 01.09.2021
6620 Clear 22 1026 64 10000 4.12 300 15:47 01.09.2021
6621 Clouds 20 1026 59 10000 2.48 281 12:23 01.09.2021
6622 Clouds 18 1027 82 10000 2.06 290 11:44 01.09.2021
6623 Clouds 13 1025 100 7000 3.6 300 08:56 01.09.2021
6624 Clouds 12 1025 100 7000 3.6 300 07:52 01.09.2021
6625 Clouds 12 1025 100 5000 3.6 300 05:39 01.09.2021
6626 Clouds 14 1023 94 10000 4.12 290 22:43 31.08.2021
6627 Clouds 15 1023 88 10000 3.6 260 21:33 31.08.2021
6628 Clear 19 1023 72 10000 4.63 300 19:46 31.08.2021
6629 Clear 21 1023 69 10000 3.2 314 18:30 31.08.2021
6630 Clear 22 1023 43 10000 2.57 50 17:38 31.08.2021
6631 Clouds 22 1023 47 10000 3.23 13 17:20 31.08.2021
6632 Clouds 22 1023 45 10000 3.71 12 16:24 31.08.2021
6633 Clouds 22 1023 45 10000 3.71 12 16:24 31.08.2021
6634 Clouds 21 1023 60 10000 3.09 30 13:40 31.08.2021
6635 Clouds 19 1023 72 10000 0.51 360 11:36 31.08.2021
6636 Clouds 17 1023 82 10000 1.03 340 10:55 31.08.2021
6637 Clouds 15 1023 82 10000 1.03 290 09:45 31.08.2021
6638 Clouds 13 1022 87 10000 2.06 280 08:40 31.08.2021
6639 C